<?xml version="1.0" encoding="UTF-8" standalone="no" ?>
<gpx xmlns="http://www.topografix.com/GPX/1/1" xmlns:xsi="http://www.w3.org/2001/XMLSchema-instance" xsi:schemaLocation="http://www.topografix.com/GPX/1/1 http://www.topografix.com/GPX/1/1/gpx.xsd" version="1.1" creator="VisuGPX - https://www.visugpx.com">
  <metadata>
    <name>Ossun Mountain Bike</name>
    <desc><![CDATA[Depart OSSUN, passage par lac de Lourdes.
Superbes paysages, le chmin avait disparu sur 50 m après le lac de Lourdes , après une montée. J'ai longé ds une prairie et retrouvé la trace sans soucis.
Trace très agréable et sympa, de la forêt, de la campagne, pas de portage.]]></desc>
  </metadata>
  <trk>
    <name><![CDATA[Ossun Mountain Bike]]></name>
    <trkseg>
      <trkpt lat="43.1888" lon="-0.0245">
        <ele>360.79998779297</ele>
        <time>2019-02-17T12:00:26.000Z</time>
      </trkpt>
      <trkpt lat="43.18879" lon="-0.02446">
        <ele>360.79998779297</ele>
        <time>2019-02-17T12:00:27.000Z</time>
      </trkpt>
      <trkpt lat="43.18868" lon="-0.0237">
        <ele>361</ele>
        <time>2019-02-17T12:00:43.000Z</time>
      </trkpt>
      <trkpt lat="43.18856" lon="-0.02313">
        <ele>360.79998779297</ele>
        <time>2019-02-17T12:00:56.000Z</time>
      </trkpt>
      <trkpt lat="43.18853" lon="-0.02314">
        <ele>360.79998779297</ele>
        <time>2019-02-17T12:00:57.000Z</time>
      </trkpt>
      <trkpt lat="43.18801" lon="-0.0234">
        <ele>362.20001220703</ele>
        <time>2019-02-17T12:01:11.000Z</time>
      </trkpt>
      <trkpt lat="43.18775" lon="-0.02355">
        <ele>362</ele>
        <time>2019-02-17T12:01:18.000Z</time>
      </trkpt>
      <trkpt lat="43.18725" lon="-0.02389">
        <ele>362.39999389648</ele>
        <time>2019-02-17T12:01:32.000Z</time>
      </trkpt>
      <trkpt lat="43.18681" lon="-0.02433">
        <ele>362.79998779297</ele>
        <time>2019-02-17T12:01:46.000Z</time>
      </trkpt>
      <trkpt lat="43.18668" lon="-0.02445">
        <ele>362.79998779297</ele>
        <time>2019-02-17T12:01:50.000Z</time>
      </trkpt>
      <trkpt lat="43.1866" lon="-0.0245">
        <ele>362.79998779297</ele>
        <time>2019-02-17T12:01:52.000Z</time>
      </trkpt>
      <trkpt lat="43.18641" lon="-0.02467">
        <ele>363.20001220703</ele>
        <time>2019-02-17T12:01:58.000Z</time>
      </trkpt>
      <trkpt lat="43.1862" lon="-0.02496">
        <ele>363.60000610352</ele>
        <time>2019-02-17T12:02:06.000Z</time>
      </trkpt>
      <trkpt lat="43.18617" lon="-0.02502">
        <ele>363.79998779297</ele>
        <time>2019-02-17T12:02:12.000Z</time>
      </trkpt>
      <trkpt lat="43.1861" lon="-0.02508">
        <ele>364.20001220703</ele>
        <time>2019-02-17T12:02:35.000Z</time>
      </trkpt>
      <trkpt lat="43.18566" lon="-0.02553">
        <ele>363.79998779297</ele>
        <time>2019-02-17T12:02:51.000Z</time>
      </trkpt>
      <trkpt lat="43.18535" lon="-0.02581">
        <ele>364.20001220703</ele>
        <time>2019-02-17T12:03:01.000Z</time>
      </trkpt>
      <trkpt lat="43.1853" lon="-0.02585">
        <ele>364.39999389648</ele>
        <time>2019-02-17T12:03:04.000Z</time>
      </trkpt>
      <trkpt lat="43.18476" lon="-0.02589">
        <ele>364.39999389648</ele>
        <time>2019-02-17T12:03:21.000Z</time>
      </trkpt>
      <trkpt lat="43.18456" lon="-0.02585">
        <ele>364.60000610352</ele>
        <time>2019-02-17T12:03:28.000Z</time>
      </trkpt>
      <trkpt lat="43.18401" lon="-0.02589">
        <ele>365.20001220703</ele>
        <time>2019-02-17T12:03:44.000Z</time>
      </trkpt>
      <trkpt lat="43.18352" lon="-0.02622">
        <ele>365.79998779297</ele>
        <time>2019-02-17T12:04:01.000Z</time>
      </trkpt>
      <trkpt lat="43.18297" lon="-0.02633">
        <ele>366</ele>
        <time>2019-02-17T12:04:18.000Z</time>
      </trkpt>
      <trkpt lat="43.18293" lon="-0.02634">
        <ele>366</ele>
        <time>2019-02-17T12:04:19.000Z</time>
      </trkpt>
      <trkpt lat="43.18275" lon="-0.02637">
        <ele>366.20001220703</ele>
        <time>2019-02-17T12:04:28.000Z</time>
      </trkpt>
      <trkpt lat="43.18271" lon="-0.02649">
        <ele>367</ele>
        <time>2019-02-17T12:04:35.000Z</time>
      </trkpt>
      <trkpt lat="43.18272" lon="-0.02723">
        <ele>366.79998779297</ele>
        <time>2019-02-17T12:04:51.000Z</time>
      </trkpt>
      <trkpt lat="43.18269" lon="-0.02727">
        <ele>366.60000610352</ele>
        <time>2019-02-17T12:04:52.000Z</time>
      </trkpt>
      <trkpt lat="43.18255" lon="-0.02731">
        <ele>366.60000610352</ele>
        <time>2019-02-17T12:04:56.000Z</time>
      </trkpt>
      <trkpt lat="43.18203" lon="-0.0273">
        <ele>366</ele>
        <time>2019-02-17T12:05:08.000Z</time>
      </trkpt>
      <trkpt lat="43.18183" lon="-0.02726">
        <ele>365.79998779297</ele>
        <time>2019-02-17T12:05:13.000Z</time>
      </trkpt>
      <trkpt lat="43.18159" lon="-0.02724">
        <ele>366</ele>
        <time>2019-02-17T12:05:19.000Z</time>
      </trkpt>
      <trkpt lat="43.18104" lon="-0.02731">
        <ele>366.79998779297</ele>
        <time>2019-02-17T12:05:33.000Z</time>
      </trkpt>
      <trkpt lat="43.18074" lon="-0.02783">
        <ele>368</ele>
        <time>2019-02-17T12:05:49.000Z</time>
      </trkpt>
      <trkpt lat="43.18028" lon="-0.02804">
        <ele>367.79998779297</ele>
        <time>2019-02-17T12:06:02.000Z</time>
      </trkpt>
      <trkpt lat="43.17988" lon="-0.02808">
        <ele>368.20001220703</ele>
        <time>2019-02-17T12:06:12.000Z</time>
      </trkpt>
      <trkpt lat="43.1795" lon="-0.02834">
        <ele>368.20001220703</ele>
        <time>2019-02-17T12:06:24.000Z</time>
      </trkpt>
      <trkpt lat="43.17957" lon="-0.02886">
        <ele>368.39999389648</ele>
        <time>2019-02-17T12:06:34.000Z</time>
      </trkpt>
      <trkpt lat="43.1796" lon="-0.02909">
        <ele>368.39999389648</ele>
        <time>2019-02-17T12:06:38.000Z</time>
      </trkpt>
      <trkpt lat="43.17966" lon="-0.02985">
        <ele>368.20001220703</ele>
        <time>2019-02-17T12:06:53.000Z</time>
      </trkpt>
      <trkpt lat="43.17943" lon="-0.03044">
        <ele>367.39999389648</ele>
        <time>2019-02-17T12:07:07.000Z</time>
      </trkpt>
      <trkpt lat="43.17896" lon="-0.0309">
        <ele>367</ele>
        <time>2019-02-17T12:07:20.000Z</time>
      </trkpt>
      <trkpt lat="43.1785" lon="-0.03138">
        <ele>366.60000610352</ele>
        <time>2019-02-17T12:07:32.000Z</time>
      </trkpt>
      <trkpt lat="43.17838" lon="-0.0315">
        <ele>366.60000610352</ele>
        <time>2019-02-17T12:07:35.000Z</time>
      </trkpt>
      <trkpt lat="43.17799" lon="-0.03184">
        <ele>366</ele>
        <time>2019-02-17T12:07:45.000Z</time>
      </trkpt>
      <trkpt lat="43.17778" lon="-0.0319">
        <ele>365.79998779297</ele>
        <time>2019-02-17T12:07:50.000Z</time>
      </trkpt>
      <trkpt lat="43.17764" lon="-0.03191">
        <ele>365.60000610352</ele>
        <time>2019-02-17T12:07:53.000Z</time>
      </trkpt>
      <trkpt lat="43.17755" lon="-0.03191">
        <ele>366</ele>
        <time>2019-02-17T12:07:55.000Z</time>
      </trkpt>
      <trkpt lat="43.17707" lon="-0.03193">
        <ele>367.39999389648</ele>
        <time>2019-02-17T12:08:06.000Z</time>
      </trkpt>
      <trkpt lat="43.17676" lon="-0.032">
        <ele>367.79998779297</ele>
        <time>2019-02-17T12:08:13.000Z</time>
      </trkpt>
      <trkpt lat="43.17653" lon="-0.03207">
        <ele>368.20001220703</ele>
        <time>2019-02-17T12:08:19.000Z</time>
      </trkpt>
      <trkpt lat="43.17631" lon="-0.03216">
        <ele>368.60000610352</ele>
        <time>2019-02-17T12:08:25.000Z</time>
      </trkpt>
      <trkpt lat="43.17577" lon="-0.03242">
        <ele>370.79998779297</ele>
        <time>2019-02-17T12:08:39.000Z</time>
      </trkpt>
      <trkpt lat="43.17526" lon="-0.03273">
        <ele>371.39999389648</ele>
        <time>2019-02-17T12:08:52.000Z</time>
      </trkpt>
      <trkpt lat="43.17477" lon="-0.03306">
        <ele>372</ele>
        <time>2019-02-17T12:09:04.000Z</time>
      </trkpt>
      <trkpt lat="43.17468" lon="-0.03309">
        <ele>372</ele>
        <time>2019-02-17T12:09:06.000Z</time>
      </trkpt>
      <trkpt lat="43.1746" lon="-0.03313">
        <ele>372</ele>
        <time>2019-02-17T12:09:08.000Z</time>
      </trkpt>
      <trkpt lat="43.17456" lon="-0.03316">
        <ele>372</ele>
        <time>2019-02-17T12:09:09.000Z</time>
      </trkpt>
      <trkpt lat="43.17435" lon="-0.03325">
        <ele>372</ele>
        <time>2019-02-17T12:09:14.000Z</time>
      </trkpt>
      <trkpt lat="43.17431" lon="-0.03328">
        <ele>372.20001220703</ele>
        <time>2019-02-17T12:09:15.000Z</time>
      </trkpt>
      <trkpt lat="43.17423" lon="-0.03332">
        <ele>372.20001220703</ele>
        <time>2019-02-17T12:09:17.000Z</time>
      </trkpt>
      <trkpt lat="43.17419" lon="-0.03334">
        <ele>372.20001220703</ele>
        <time>2019-02-17T12:09:18.000Z</time>
      </trkpt>
      <trkpt lat="43.17401" lon="-0.03341">
        <ele>372.39999389648</ele>
        <time>2019-02-17T12:09:22.000Z</time>
      </trkpt>
      <trkpt lat="43.17397" lon="-0.03343">
        <ele>372.39999389648</ele>
        <time>2019-02-17T12:09:23.000Z</time>
      </trkpt>
      <trkpt lat="43.17392" lon="-0.03344">
        <ele>372.60000610352</ele>
        <time>2019-02-17T12:09:24.000Z</time>
      </trkpt>
      <trkpt lat="43.17388" lon="-0.03346">
        <ele>372.60000610352</ele>
        <time>2019-02-17T12:09:25.000Z</time>
      </trkpt>
      <trkpt lat="43.17383" lon="-0.03347">
        <ele>372.39999389648</ele>
        <time>2019-02-17T12:09:26.000Z</time>
      </trkpt>
      <trkpt lat="43.17374" lon="-0.03348">
        <ele>372.60000610352</ele>
        <time>2019-02-17T12:09:28.000Z</time>
      </trkpt>
      <trkpt lat="43.1737" lon="-0.03348">
        <ele>372.60000610352</ele>
        <time>2019-02-17T12:09:29.000Z</time>
      </trkpt>
      <trkpt lat="43.17346" lon="-0.03348">
        <ele>373</ele>
        <time>2019-02-17T12:09:35.000Z</time>
      </trkpt>
      <trkpt lat="43.17342" lon="-0.03347">
        <ele>373.20001220703</ele>
        <time>2019-02-17T12:09:36.000Z</time>
      </trkpt>
      <trkpt lat="43.17329" lon="-0.03342">
        <ele>373</ele>
        <time>2019-02-17T12:09:39.000Z</time>
      </trkpt>
      <trkpt lat="43.17316" lon="-0.03338">
        <ele>373.39999389648</ele>
        <time>2019-02-17T12:09:42.000Z</time>
      </trkpt>
      <trkpt lat="43.17308" lon="-0.03335">
        <ele>373.60000610352</ele>
        <time>2019-02-17T12:09:44.000Z</time>
      </trkpt>
      <trkpt lat="43.17293" lon="-0.03328">
        <ele>373.39999389648</ele>
        <time>2019-02-17T12:09:48.000Z</time>
      </trkpt>
      <trkpt lat="43.17282" lon="-0.03322">
        <ele>373.60000610352</ele>
        <time>2019-02-17T12:09:51.000Z</time>
      </trkpt>
      <trkpt lat="43.17274" lon="-0.03318">
        <ele>373.60000610352</ele>
        <time>2019-02-17T12:09:53.000Z</time>
      </trkpt>
      <trkpt lat="43.17267" lon="-0.03314">
        <ele>373.60000610352</ele>
        <time>2019-02-17T12:09:55.000Z</time>
      </trkpt>
      <trkpt lat="43.17243" lon="-0.033">
        <ele>373.79998779297</ele>
        <time>2019-02-17T12:10:01.000Z</time>
      </trkpt>
      <trkpt lat="43.17234" lon="-0.03296">
        <ele>374</ele>
        <time>2019-02-17T12:10:03.000Z</time>
      </trkpt>
      <trkpt lat="43.17226" lon="-0.03291">
        <ele>374</ele>
        <time>2019-02-17T12:10:05.000Z</time>
      </trkpt>
      <trkpt lat="43.17199" lon="-0.03274">
        <ele>374.20001220703</ele>
        <time>2019-02-17T12:10:12.000Z</time>
      </trkpt>
      <trkpt lat="43.17195" lon="-0.03273">
        <ele>374.39999389648</ele>
        <time>2019-02-17T12:10:13.000Z</time>
      </trkpt>
      <trkpt lat="43.17191" lon="-0.03272">
        <ele>374.60000610352</ele>
        <time>2019-02-17T12:10:14.000Z</time>
      </trkpt>
      <trkpt lat="43.17187" lon="-0.0327">
        <ele>374.79998779297</ele>
        <time>2019-02-17T12:10:15.000Z</time>
      </trkpt>
      <trkpt lat="43.17171" lon="-0.03261">
        <ele>375</ele>
        <time>2019-02-17T12:10:19.000Z</time>
      </trkpt>
      <trkpt lat="43.17164" lon="-0.03256">
        <ele>375</ele>
        <time>2019-02-17T12:10:21.000Z</time>
      </trkpt>
      <trkpt lat="43.17126" lon="-0.03236">
        <ele>375.60000610352</ele>
        <time>2019-02-17T12:10:31.000Z</time>
      </trkpt>
      <trkpt lat="43.17118" lon="-0.03231">
        <ele>375.60000610352</ele>
        <time>2019-02-17T12:10:33.000Z</time>
      </trkpt>
      <trkpt lat="43.17087" lon="-0.03205">
        <ele>375.79998779297</ele>
        <time>2019-02-17T12:10:42.000Z</time>
      </trkpt>
      <trkpt lat="43.1708" lon="-0.032">
        <ele>375.79998779297</ele>
        <time>2019-02-17T12:10:44.000Z</time>
      </trkpt>
      <trkpt lat="43.17063" lon="-0.03187">
        <ele>375.79998779297</ele>
        <time>2019-02-17T12:10:49.000Z</time>
      </trkpt>
      <trkpt lat="43.17049" lon="-0.03176">
        <ele>376</ele>
        <time>2019-02-17T12:10:53.000Z</time>
      </trkpt>
      <trkpt lat="43.17042" lon="-0.03171">
        <ele>376.39999389648</ele>
        <time>2019-02-17T12:10:55.000Z</time>
      </trkpt>
      <trkpt lat="43.17038" lon="-0.03169">
        <ele>376.39999389648</ele>
        <time>2019-02-17T12:10:56.000Z</time>
      </trkpt>
      <trkpt lat="43.17031" lon="-0.03165">
        <ele>376.79998779297</ele>
        <time>2019-02-17T12:10:58.000Z</time>
      </trkpt>
      <trkpt lat="43.17027" lon="-0.03162">
        <ele>376.79998779297</ele>
        <time>2019-02-17T12:10:59.000Z</time>
      </trkpt>
      <trkpt lat="43.17011" lon="-0.03154">
        <ele>377</ele>
        <time>2019-02-17T12:11:03.000Z</time>
      </trkpt>
      <trkpt lat="43.16966" lon="-0.03127">
        <ele>377</ele>
        <time>2019-02-17T12:11:14.000Z</time>
      </trkpt>
      <trkpt lat="43.16958" lon="-0.03121">
        <ele>377.20001220703</ele>
        <time>2019-02-17T12:11:16.000Z</time>
      </trkpt>
      <trkpt lat="43.1695" lon="-0.03116">
        <ele>377.20001220703</ele>
        <time>2019-02-17T12:11:18.000Z</time>
      </trkpt>
      <trkpt lat="43.16942" lon="-0.03111">
        <ele>377.39999389648</ele>
        <time>2019-02-17T12:11:20.000Z</time>
      </trkpt>
      <trkpt lat="43.16933" lon="-0.03108">
        <ele>377.39999389648</ele>
        <time>2019-02-17T12:11:22.000Z</time>
      </trkpt>
      <trkpt lat="43.16929" lon="-0.03107">
        <ele>377.60000610352</ele>
        <time>2019-02-17T12:11:23.000Z</time>
      </trkpt>
      <trkpt lat="43.1692" lon="-0.03105">
        <ele>377.79998779297</ele>
        <time>2019-02-17T12:11:25.000Z</time>
      </trkpt>
      <trkpt lat="43.16887" lon="-0.031">
        <ele>378</ele>
        <time>2019-02-17T12:11:33.000Z</time>
      </trkpt>
      <trkpt lat="43.16879" lon="-0.03099">
        <ele>378</ele>
        <time>2019-02-17T12:11:35.000Z</time>
      </trkpt>
      <trkpt lat="43.16863" lon="-0.03098">
        <ele>378</ele>
        <time>2019-02-17T12:11:39.000Z</time>
      </trkpt>
      <trkpt lat="43.16825" lon="-0.0311">
        <ele>377.79998779297</ele>
        <time>2019-02-17T12:11:49.000Z</time>
      </trkpt>
      <trkpt lat="43.1681" lon="-0.03123">
        <ele>377.79998779297</ele>
        <time>2019-02-17T12:11:53.000Z</time>
      </trkpt>
      <trkpt lat="43.16806" lon="-0.03126">
        <ele>377.79998779297</ele>
        <time>2019-02-17T12:11:54.000Z</time>
      </trkpt>
      <trkpt lat="43.16788" lon="-0.03142">
        <ele>377.79998779297</ele>
        <time>2019-02-17T12:11:59.000Z</time>
      </trkpt>
      <trkpt lat="43.16735" lon="-0.03141">
        <ele>378.60000610352</ele>
        <time>2019-02-17T12:12:13.000Z</time>
      </trkpt>
      <trkpt lat="43.16727" lon="-0.03137">
        <ele>378.60000610352</ele>
        <time>2019-02-17T12:12:15.000Z</time>
      </trkpt>
      <trkpt lat="43.16723" lon="-0.03135">
        <ele>378.79998779297</ele>
        <time>2019-02-17T12:12:16.000Z</time>
      </trkpt>
      <trkpt lat="43.16716" lon="-0.03133">
        <ele>379</ele>
        <time>2019-02-17T12:12:18.000Z</time>
      </trkpt>
      <trkpt lat="43.167" lon="-0.03136">
        <ele>379.20001220703</ele>
        <time>2019-02-17T12:12:22.000Z</time>
      </trkpt>
      <trkpt lat="43.16676" lon="-0.03151">
        <ele>380</ele>
        <time>2019-02-17T12:12:29.000Z</time>
      </trkpt>
      <trkpt lat="43.16673" lon="-0.03153">
        <ele>380.20001220703</ele>
        <time>2019-02-17T12:12:30.000Z</time>
      </trkpt>
      <trkpt lat="43.1667" lon="-0.03156">
        <ele>380.39999389648</ele>
        <time>2019-02-17T12:12:31.000Z</time>
      </trkpt>
      <trkpt lat="43.16666" lon="-0.03158">
        <ele>380.39999389648</ele>
        <time>2019-02-17T12:12:32.000Z</time>
      </trkpt>
      <trkpt lat="43.16652" lon="-0.03164">
        <ele>380.39999389648</ele>
        <time>2019-02-17T12:12:36.000Z</time>
      </trkpt>
      <trkpt lat="43.16649" lon="-0.03166">
        <ele>380.39999389648</ele>
        <time>2019-02-17T12:12:37.000Z</time>
      </trkpt>
      <trkpt lat="43.16631" lon="-0.03174">
        <ele>381.20001220703</ele>
        <time>2019-02-17T12:12:43.000Z</time>
      </trkpt>
      <trkpt lat="43.16625" lon="-0.03177">
        <ele>381.39999389648</ele>
        <time>2019-02-17T12:12:45.000Z</time>
      </trkpt>
      <trkpt lat="43.16614" lon="-0.03181">
        <ele>382</ele>
        <time>2019-02-17T12:12:48.000Z</time>
      </trkpt>
      <trkpt lat="43.16586" lon="-0.03184">
        <ele>383.20001220703</ele>
        <time>2019-02-17T12:12:57.000Z</time>
      </trkpt>
      <trkpt lat="43.1657" lon="-0.03181">
        <ele>384.20001220703</ele>
        <time>2019-02-17T12:13:02.000Z</time>
      </trkpt>
      <trkpt lat="43.16555" lon="-0.03176">
        <ele>385</ele>
        <time>2019-02-17T12:13:07.000Z</time>
      </trkpt>
      <trkpt lat="43.16543" lon="-0.03173">
        <ele>385.60000610352</ele>
        <time>2019-02-17T12:13:11.000Z</time>
      </trkpt>
      <trkpt lat="43.16524" lon="-0.03168">
        <ele>386.20001220703</ele>
        <time>2019-02-17T12:13:17.000Z</time>
      </trkpt>
      <trkpt lat="43.16504" lon="-0.03157">
        <ele>386.79998779297</ele>
        <time>2019-02-17T12:13:26.000Z</time>
      </trkpt>
      <trkpt lat="43.16498" lon="-0.03154">
        <ele>387</ele>
        <time>2019-02-17T12:13:29.000Z</time>
      </trkpt>
      <trkpt lat="43.16495" lon="-0.03153">
        <ele>387.20001220703</ele>
        <time>2019-02-17T12:13:32.000Z</time>
      </trkpt>
      <trkpt lat="43.16494" lon="-0.03153">
        <ele>387.20001220703</ele>
        <time>2019-02-17T12:13:34.000Z</time>
      </trkpt>
      <trkpt lat="43.16483" lon="-0.03158">
        <ele>387.79998779297</ele>
        <time>2019-02-17T12:14:06.000Z</time>
      </trkpt>
      <trkpt lat="43.16471" lon="-0.03166">
        <ele>387.79998779297</ele>
        <time>2019-02-17T12:14:13.000Z</time>
      </trkpt>
      <trkpt lat="43.16469" lon="-0.03167">
        <ele>387.79998779297</ele>
        <time>2019-02-17T12:14:14.000Z</time>
      </trkpt>
      <trkpt lat="43.16467" lon="-0.03167">
        <ele>388</ele>
        <time>2019-02-17T12:14:15.000Z</time>
      </trkpt>
      <trkpt lat="43.16437" lon="-0.03191">
        <ele>389.39999389648</ele>
        <time>2019-02-17T12:14:32.000Z</time>
      </trkpt>
      <trkpt lat="43.16426" lon="-0.03199">
        <ele>389.79998779297</ele>
        <time>2019-02-17T12:14:39.000Z</time>
      </trkpt>
      <trkpt lat="43.16425" lon="-0.032">
        <ele>390</ele>
        <time>2019-02-17T12:14:40.000Z</time>
      </trkpt>
      <trkpt lat="43.16423" lon="-0.032">
        <ele>390.39999389648</ele>
        <time>2019-02-17T12:14:43.000Z</time>
      </trkpt>
      <trkpt lat="43.16414" lon="-0.03208">
        <ele>391.39999389648</ele>
        <time>2019-02-17T12:14:51.000Z</time>
      </trkpt>
      <trkpt lat="43.16412" lon="-0.0321">
        <ele>391.60000610352</ele>
        <time>2019-02-17T12:14:52.000Z</time>
      </trkpt>
      <trkpt lat="43.16405" lon="-0.03217">
        <ele>392.20001220703</ele>
        <time>2019-02-17T12:14:56.000Z</time>
      </trkpt>
      <trkpt lat="43.16393" lon="-0.03223">
        <ele>394</ele>
        <time>2019-02-17T12:15:02.000Z</time>
      </trkpt>
      <trkpt lat="43.16387" lon="-0.03226">
        <ele>394.60000610352</ele>
        <time>2019-02-17T12:15:04.000Z</time>
      </trkpt>
      <trkpt lat="43.16374" lon="-0.03235">
        <ele>396</ele>
        <time>2019-02-17T12:15:10.000Z</time>
      </trkpt>
      <trkpt lat="43.16366" lon="-0.0324">
        <ele>397</ele>
        <time>2019-02-17T12:15:13.000Z</time>
      </trkpt>
      <trkpt lat="43.16354" lon="-0.03247">
        <ele>398.20001220703</ele>
        <time>2019-02-17T12:15:19.000Z</time>
      </trkpt>
      <trkpt lat="43.16349" lon="-0.0325">
        <ele>398.79998779297</ele>
        <time>2019-02-17T12:15:21.000Z</time>
      </trkpt>
      <trkpt lat="43.16344" lon="-0.03253">
        <ele>399.60000610352</ele>
        <time>2019-02-17T12:15:23.000Z</time>
      </trkpt>
      <trkpt lat="43.16327" lon="-0.03264">
        <ele>401.79998779297</ele>
        <time>2019-02-17T12:15:30.000Z</time>
      </trkpt>
      <trkpt lat="43.16326" lon="-0.03267">
        <ele>402.60000610352</ele>
        <time>2019-02-17T12:15:31.000Z</time>
      </trkpt>
      <trkpt lat="43.16321" lon="-0.03271">
        <ele>404</ele>
        <time>2019-02-17T12:15:33.000Z</time>
      </trkpt>
      <trkpt lat="43.16314" lon="-0.03279">
        <ele>404.79998779297</ele>
        <time>2019-02-17T12:15:37.000Z</time>
      </trkpt>
      <trkpt lat="43.16307" lon="-0.03287">
        <ele>406.20001220703</ele>
        <time>2019-02-17T12:15:41.000Z</time>
      </trkpt>
      <trkpt lat="43.16304" lon="-0.03305">
        <ele>408.60000610352</ele>
        <time>2019-02-17T12:15:48.000Z</time>
      </trkpt>
      <trkpt lat="43.16301" lon="-0.03319">
        <ele>410</ele>
        <time>2019-02-17T12:15:53.000Z</time>
      </trkpt>
      <trkpt lat="43.16301" lon="-0.03328">
        <ele>410.79998779297</ele>
        <time>2019-02-17T12:15:57.000Z</time>
      </trkpt>
      <trkpt lat="43.16302" lon="-0.03345">
        <ele>412.60000610352</ele>
        <time>2019-02-17T12:16:03.000Z</time>
      </trkpt>
      <trkpt lat="43.16304" lon="-0.03362">
        <ele>414.39999389648</ele>
        <time>2019-02-17T12:16:09.000Z</time>
      </trkpt>
      <trkpt lat="43.16304" lon="-0.03377">
        <ele>415.79998779297</ele>
        <time>2019-02-17T12:16:14.000Z</time>
      </trkpt>
      <trkpt lat="43.16305" lon="-0.03394">
        <ele>417</ele>
        <time>2019-02-17T12:16:20.000Z</time>
      </trkpt>
      <trkpt lat="43.16305" lon="-0.03399">
        <ele>417.60000610352</ele>
        <time>2019-02-17T12:16:22.000Z</time>
      </trkpt>
      <trkpt lat="43.16308" lon="-0.03417">
        <ele>418.79998779297</ele>
        <time>2019-02-17T12:16:28.000Z</time>
      </trkpt>
      <trkpt lat="43.16308" lon="-0.03419">
        <ele>419.20001220703</ele>
        <time>2019-02-17T12:16:29.000Z</time>
      </trkpt>
      <trkpt lat="43.16308" lon="-0.03439">
        <ele>421.39999389648</ele>
        <time>2019-02-17T12:16:36.000Z</time>
      </trkpt>
      <trkpt lat="43.16309" lon="-0.03444">
        <ele>422.60000610352</ele>
        <time>2019-02-17T12:16:38.000Z</time>
      </trkpt>
      <trkpt lat="43.16312" lon="-0.03463">
        <ele>424.20001220703</ele>
        <time>2019-02-17T12:16:45.000Z</time>
      </trkpt>
      <trkpt lat="43.16312" lon="-0.03469">
        <ele>425</ele>
        <time>2019-02-17T12:16:47.000Z</time>
      </trkpt>
      <trkpt lat="43.16313" lon="-0.03478">
        <ele>425.60000610352</ele>
        <time>2019-02-17T12:16:50.000Z</time>
      </trkpt>
      <trkpt lat="43.16315" lon="-0.03492">
        <ele>427</ele>
        <time>2019-02-17T12:16:56.000Z</time>
      </trkpt>
      <trkpt lat="43.16316" lon="-0.03511">
        <ele>429</ele>
        <time>2019-02-17T12:17:03.000Z</time>
      </trkpt>
      <trkpt lat="43.16316" lon="-0.03517">
        <ele>429.79998779297</ele>
        <time>2019-02-17T12:17:05.000Z</time>
      </trkpt>
      <trkpt lat="43.16315" lon="-0.03533">
        <ele>431</ele>
        <time>2019-02-17T12:17:10.000Z</time>
      </trkpt>
      <trkpt lat="43.16314" lon="-0.03555">
        <ele>433.20001220703</ele>
        <time>2019-02-17T12:17:17.000Z</time>
      </trkpt>
      <trkpt lat="43.16314" lon="-0.0357">
        <ele>434.60000610352</ele>
        <time>2019-02-17T12:17:23.000Z</time>
      </trkpt>
      <trkpt lat="43.16312" lon="-0.03581">
        <ele>435.39999389648</ele>
        <time>2019-02-17T12:17:27.000Z</time>
      </trkpt>
      <trkpt lat="43.16308" lon="-0.03607">
        <ele>437.79998779297</ele>
        <time>2019-02-17T12:17:37.000Z</time>
      </trkpt>
      <trkpt lat="43.16307" lon="-0.03613">
        <ele>438.20001220703</ele>
        <time>2019-02-17T12:17:40.000Z</time>
      </trkpt>
      <trkpt lat="43.16302" lon="-0.03621">
        <ele>438.39999389648</ele>
        <time>2019-02-17T12:17:44.000Z</time>
      </trkpt>
      <trkpt lat="43.16285" lon="-0.03641">
        <ele>439.79998779297</ele>
        <time>2019-02-17T12:17:55.000Z</time>
      </trkpt>
      <trkpt lat="43.16277" lon="-0.03644">
        <ele>440.39999389648</ele>
        <time>2019-02-17T12:17:59.000Z</time>
      </trkpt>
      <trkpt lat="43.16269" lon="-0.03642">
        <ele>441.20001220703</ele>
        <time>2019-02-17T12:18:05.000Z</time>
      </trkpt>
      <trkpt lat="43.16254" lon="-0.03629">
        <ele>443.79998779297</ele>
        <time>2019-02-17T12:18:16.000Z</time>
      </trkpt>
      <trkpt lat="43.16217" lon="-0.03586">
        <ele>445.39999389648</ele>
        <time>2019-02-17T12:18:48.000Z</time>
      </trkpt>
      <trkpt lat="43.16203" lon="-0.0356">
        <ele>445.20001220703</ele>
        <time>2019-02-17T12:19:17.000Z</time>
      </trkpt>
      <trkpt lat="43.162" lon="-0.03548">
        <ele>445.20001220703</ele>
        <time>2019-02-17T12:19:21.000Z</time>
      </trkpt>
      <trkpt lat="43.16197" lon="-0.03543">
        <ele>445.20001220703</ele>
        <time>2019-02-17T12:19:23.000Z</time>
      </trkpt>
      <trkpt lat="43.16196" lon="-0.03541">
        <ele>445</ele>
        <time>2019-02-17T12:19:24.000Z</time>
      </trkpt>
      <trkpt lat="43.16179" lon="-0.03517">
        <ele>443.60000610352</ele>
        <time>2019-02-17T12:19:36.000Z</time>
      </trkpt>
      <trkpt lat="43.16168" lon="-0.03507">
        <ele>443</ele>
        <time>2019-02-17T12:19:43.000Z</time>
      </trkpt>
      <trkpt lat="43.16166" lon="-0.03505">
        <ele>442.79998779297</ele>
        <time>2019-02-17T12:19:46.000Z</time>
      </trkpt>
      <trkpt lat="43.16129" lon="-0.0348">
        <ele>443.60000610352</ele>
        <time>2019-02-17T12:20:22.000Z</time>
      </trkpt>
      <trkpt lat="43.1612" lon="-0.03482">
        <ele>444</ele>
        <time>2019-02-17T12:20:26.000Z</time>
      </trkpt>
      <trkpt lat="43.16111" lon="-0.03483">
        <ele>444.60000610352</ele>
        <time>2019-02-17T12:20:30.000Z</time>
      </trkpt>
      <trkpt lat="43.16088" lon="-0.0347">
        <ele>446.39999389648</ele>
        <time>2019-02-17T12:20:42.000Z</time>
      </trkpt>
      <trkpt lat="43.1608" lon="-0.03468">
        <ele>446.60000610352</ele>
        <time>2019-02-17T12:20:47.000Z</time>
      </trkpt>
      <trkpt lat="43.16061" lon="-0.03454">
        <ele>446.60000610352</ele>
        <time>2019-02-17T12:21:04.000Z</time>
      </trkpt>
      <trkpt lat="43.16052" lon="-0.03446">
        <ele>446.20001220703</ele>
        <time>2019-02-17T12:21:09.000Z</time>
      </trkpt>
      <trkpt lat="43.16032" lon="-0.03413">
        <ele>444.79998779297</ele>
        <time>2019-02-17T12:21:27.000Z</time>
      </trkpt>
      <trkpt lat="43.16026" lon="-0.03401">
        <ele>444.39999389648</ele>
        <time>2019-02-17T12:21:31.000Z</time>
      </trkpt>
      <trkpt lat="43.16015" lon="-0.0337">
        <ele>442.79998779297</ele>
        <time>2019-02-17T12:21:42.000Z</time>
      </trkpt>
      <trkpt lat="43.16009" lon="-0.03339">
        <ele>442.20001220703</ele>
        <time>2019-02-17T12:21:50.000Z</time>
      </trkpt>
      <trkpt lat="43.16001" lon="-0.03317">
        <ele>440.60000610352</ele>
        <time>2019-02-17T12:21:57.000Z</time>
      </trkpt>
      <trkpt lat="43.15999" lon="-0.03315">
        <ele>440.39999389648</ele>
        <time>2019-02-17T12:21:58.000Z</time>
      </trkpt>
      <trkpt lat="43.15985" lon="-0.03311">
        <ele>440</ele>
        <time>2019-02-17T12:22:04.000Z</time>
      </trkpt>
      <trkpt lat="43.15968" lon="-0.03315">
        <ele>438.79998779297</ele>
        <time>2019-02-17T12:22:11.000Z</time>
      </trkpt>
      <trkpt lat="43.15914" lon="-0.03337">
        <ele>436.60000610352</ele>
        <time>2019-02-17T12:22:36.000Z</time>
      </trkpt>
      <trkpt lat="43.15912" lon="-0.03338">
        <ele>436.60000610352</ele>
        <time>2019-02-17T12:22:37.000Z</time>
      </trkpt>
      <trkpt lat="43.15897" lon="-0.03345">
        <ele>437</ele>
        <time>2019-02-17T12:22:44.000Z</time>
      </trkpt>
      <trkpt lat="43.15887" lon="-0.03351">
        <ele>438.20001220703</ele>
        <time>2019-02-17T12:22:48.000Z</time>
      </trkpt>
      <trkpt lat="43.15879" lon="-0.03355">
        <ele>438.60000610352</ele>
        <time>2019-02-17T12:22:52.000Z</time>
      </trkpt>
      <trkpt lat="43.1587" lon="-0.03362">
        <ele>440.39999389648</ele>
        <time>2019-02-17T12:22:56.000Z</time>
      </trkpt>
      <trkpt lat="43.15865" lon="-0.03364">
        <ele>441</ele>
        <time>2019-02-17T12:22:58.000Z</time>
      </trkpt>
      <trkpt lat="43.15849" lon="-0.03374">
        <ele>443</ele>
        <time>2019-02-17T12:23:04.000Z</time>
      </trkpt>
      <trkpt lat="43.15826" lon="-0.03382">
        <ele>444.79998779297</ele>
        <time>2019-02-17T12:23:11.000Z</time>
      </trkpt>
      <trkpt lat="43.15808" lon="-0.03386">
        <ele>446</ele>
        <time>2019-02-17T12:23:18.000Z</time>
      </trkpt>
      <trkpt lat="43.15804" lon="-0.03384">
        <ele>446.20001220703</ele>
        <time>2019-02-17T12:23:20.000Z</time>
      </trkpt>
      <trkpt lat="43.15791" lon="-0.03373">
        <ele>447.60000610352</ele>
        <time>2019-02-17T12:23:27.000Z</time>
      </trkpt>
      <trkpt lat="43.15777" lon="-0.03361">
        <ele>448.60000610352</ele>
        <time>2019-02-17T12:23:33.000Z</time>
      </trkpt>
      <trkpt lat="43.15768" lon="-0.03345">
        <ele>450.39999389648</ele>
        <time>2019-02-17T12:23:40.000Z</time>
      </trkpt>
      <trkpt lat="43.15763" lon="-0.03335">
        <ele>451.60000610352</ele>
        <time>2019-02-17T12:23:44.000Z</time>
      </trkpt>
      <trkpt lat="43.15757" lon="-0.03325">
        <ele>452.60000610352</ele>
        <time>2019-02-17T12:23:48.000Z</time>
      </trkpt>
      <trkpt lat="43.15753" lon="-0.0332">
        <ele>453.79998779297</ele>
        <time>2019-02-17T12:23:53.000Z</time>
      </trkpt>
      <trkpt lat="43.15733" lon="-0.03295">
        <ele>456</ele>
        <time>2019-02-17T12:26:10.000Z</time>
      </trkpt>
      <trkpt lat="43.15732" lon="-0.0328">
        <ele>456.39999389648</ele>
        <time>2019-02-17T12:26:16.000Z</time>
      </trkpt>
      <trkpt lat="43.15731" lon="-0.03261">
        <ele>457.60000610352</ele>
        <time>2019-02-17T12:26:23.000Z</time>
      </trkpt>
      <trkpt lat="43.1573" lon="-0.03243">
        <ele>458.60000610352</ele>
        <time>2019-02-17T12:26:29.000Z</time>
      </trkpt>
      <trkpt lat="43.15724" lon="-0.03212">
        <ele>460.39999389648</ele>
        <time>2019-02-17T12:26:40.000Z</time>
      </trkpt>
      <trkpt lat="43.15719" lon="-0.03198">
        <ele>461.60000610352</ele>
        <time>2019-02-17T12:26:48.000Z</time>
      </trkpt>
      <trkpt lat="43.15714" lon="-0.03181">
        <ele>462.39999389648</ele>
        <time>2019-02-17T12:26:55.000Z</time>
      </trkpt>
      <trkpt lat="43.15708" lon="-0.03148">
        <ele>463.79998779297</ele>
        <time>2019-02-17T12:27:08.000Z</time>
      </trkpt>
      <trkpt lat="43.15706" lon="-0.03136">
        <ele>464.39999389648</ele>
        <time>2019-02-17T12:27:15.000Z</time>
      </trkpt>
      <trkpt lat="43.157" lon="-0.0312">
        <ele>465.39999389648</ele>
        <time>2019-02-17T12:27:48.000Z</time>
      </trkpt>
      <trkpt lat="43.157" lon="-0.03117">
        <ele>465.20001220703</ele>
        <time>2019-02-17T12:27:49.000Z</time>
      </trkpt>
      <trkpt lat="43.15686" lon="-0.03044">
        <ele>466.79998779297</ele>
        <time>2019-02-17T12:28:10.000Z</time>
      </trkpt>
      <trkpt lat="43.15682" lon="-0.03032">
        <ele>466.79998779297</ele>
        <time>2019-02-17T12:28:13.000Z</time>
      </trkpt>
      <trkpt lat="43.15681" lon="-0.03028">
        <ele>466.79998779297</ele>
        <time>2019-02-17T12:28:14.000Z</time>
      </trkpt>
      <trkpt lat="43.15667" lon="-0.02992">
        <ele>466.20001220703</ele>
        <time>2019-02-17T12:28:24.000Z</time>
      </trkpt>
      <trkpt lat="43.15661" lon="-0.02978">
        <ele>466</ele>
        <time>2019-02-17T12:28:28.000Z</time>
      </trkpt>
      <trkpt lat="43.15659" lon="-0.02975">
        <ele>466.20001220703</ele>
        <time>2019-02-17T12:28:29.000Z</time>
      </trkpt>
      <trkpt lat="43.15653" lon="-0.02965">
        <ele>466.20001220703</ele>
        <time>2019-02-17T12:28:32.000Z</time>
      </trkpt>
      <trkpt lat="43.15637" lon="-0.02962">
        <ele>465.39999389648</ele>
        <time>2019-02-17T12:28:38.000Z</time>
      </trkpt>
      <trkpt lat="43.15634" lon="-0.02962">
        <ele>465.39999389648</ele>
        <time>2019-02-17T12:28:39.000Z</time>
      </trkpt>
      <trkpt lat="43.15616" lon="-0.02965">
        <ele>465</ele>
        <time>2019-02-17T12:28:44.000Z</time>
      </trkpt>
      <trkpt lat="43.15601" lon="-0.02965">
        <ele>464.79998779297</ele>
        <time>2019-02-17T12:28:48.000Z</time>
      </trkpt>
      <trkpt lat="43.15594" lon="-0.02963">
        <ele>464.60000610352</ele>
        <time>2019-02-17T12:28:50.000Z</time>
      </trkpt>
      <trkpt lat="43.15587" lon="-0.02961">
        <ele>464.79998779297</ele>
        <time>2019-02-17T12:28:52.000Z</time>
      </trkpt>
      <trkpt lat="43.1557" lon="-0.02949">
        <ele>464</ele>
        <time>2019-02-17T12:28:57.000Z</time>
      </trkpt>
      <trkpt lat="43.15563" lon="-0.02941">
        <ele>464</ele>
        <time>2019-02-17T12:28:59.000Z</time>
      </trkpt>
      <trkpt lat="43.15532" lon="-0.02878">
        <ele>463.60000610352</ele>
        <time>2019-02-17T12:29:13.000Z</time>
      </trkpt>
      <trkpt lat="43.1552" lon="-0.0287">
        <ele>463.39999389648</ele>
        <time>2019-02-17T12:29:16.000Z</time>
      </trkpt>
      <trkpt lat="43.1551" lon="-0.02875">
        <ele>463.20001220703</ele>
        <time>2019-02-17T12:29:18.000Z</time>
      </trkpt>
      <trkpt lat="43.15506" lon="-0.02879">
        <ele>463</ele>
        <time>2019-02-17T12:29:19.000Z</time>
      </trkpt>
      <trkpt lat="43.15502" lon="-0.02885">
        <ele>463</ele>
        <time>2019-02-17T12:29:20.000Z</time>
      </trkpt>
      <trkpt lat="43.15491" lon="-0.02899">
        <ele>462.39999389648</ele>
        <time>2019-02-17T12:29:23.000Z</time>
      </trkpt>
      <trkpt lat="43.15486" lon="-0.02904">
        <ele>462</ele>
        <time>2019-02-17T12:29:24.000Z</time>
      </trkpt>
      <trkpt lat="43.1548" lon="-0.02908">
        <ele>460.60000610352</ele>
        <time>2019-02-17T12:29:25.000Z</time>
      </trkpt>
      <trkpt lat="43.15473" lon="-0.02912">
        <ele>460.20001220703</ele>
        <time>2019-02-17T12:29:26.000Z</time>
      </trkpt>
      <trkpt lat="43.15451" lon="-0.02925">
        <ele>458.60000610352</ele>
        <time>2019-02-17T12:29:29.000Z</time>
      </trkpt>
      <trkpt lat="43.15436" lon="-0.02937">
        <ele>458.20001220703</ele>
        <time>2019-02-17T12:29:31.000Z</time>
      </trkpt>
      <trkpt lat="43.1543" lon="-0.02944">
        <ele>457.39999389648</ele>
        <time>2019-02-17T12:29:32.000Z</time>
      </trkpt>
      <trkpt lat="43.15409" lon="-0.02982">
        <ele>452.20001220703</ele>
        <time>2019-02-17T12:29:37.000Z</time>
      </trkpt>
      <trkpt lat="43.15392" lon="-0.03037">
        <ele>451.60000610352</ele>
        <time>2019-02-17T12:29:45.000Z</time>
      </trkpt>
      <trkpt lat="43.15389" lon="-0.03077">
        <ele>452.20001220703</ele>
        <time>2019-02-17T12:29:51.000Z</time>
      </trkpt>
      <trkpt lat="43.15392" lon="-0.03153">
        <ele>453.60000610352</ele>
        <time>2019-02-17T12:30:03.000Z</time>
      </trkpt>
      <trkpt lat="43.15389" lon="-0.03171">
        <ele>454</ele>
        <time>2019-02-17T12:30:06.000Z</time>
      </trkpt>
      <trkpt lat="43.15386" lon="-0.03189">
        <ele>454.39999389648</ele>
        <time>2019-02-17T12:30:10.000Z</time>
      </trkpt>
      <trkpt lat="43.15381" lon="-0.032">
        <ele>455.20001220703</ele>
        <time>2019-02-17T12:30:13.000Z</time>
      </trkpt>
      <trkpt lat="43.15372" lon="-0.03216">
        <ele>456.60000610352</ele>
        <time>2019-02-17T12:30:18.000Z</time>
      </trkpt>
      <trkpt lat="43.15367" lon="-0.03231">
        <ele>458.20001220703</ele>
        <time>2019-02-17T12:30:23.000Z</time>
      </trkpt>
      <trkpt lat="43.15361" lon="-0.03242">
        <ele>463.39999389648</ele>
        <time>2019-02-17T12:30:27.000Z</time>
      </trkpt>
      <trkpt lat="43.15357" lon="-0.03249">
        <ele>460</ele>
        <time>2019-02-17T12:30:29.000Z</time>
      </trkpt>
      <trkpt lat="43.15352" lon="-0.03259">
        <ele>461</ele>
        <time>2019-02-17T12:30:33.000Z</time>
      </trkpt>
      <trkpt lat="43.15343" lon="-0.03273">
        <ele>462</ele>
        <time>2019-02-17T12:30:37.000Z</time>
      </trkpt>
      <trkpt lat="43.15336" lon="-0.03281">
        <ele>463.60000610352</ele>
        <time>2019-02-17T12:30:40.000Z</time>
      </trkpt>
      <trkpt lat="43.15325" lon="-0.03296">
        <ele>465</ele>
        <time>2019-02-17T12:30:45.000Z</time>
      </trkpt>
      <trkpt lat="43.15313" lon="-0.03312">
        <ele>466.79998779297</ele>
        <time>2019-02-17T12:30:50.000Z</time>
      </trkpt>
      <trkpt lat="43.153" lon="-0.03329">
        <ele>467.79998779297</ele>
        <time>2019-02-17T12:30:54.000Z</time>
      </trkpt>
      <trkpt lat="43.15279" lon="-0.03348">
        <ele>469.20001220703</ele>
        <time>2019-02-17T12:30:59.000Z</time>
      </trkpt>
      <trkpt lat="43.15273" lon="-0.03354">
        <ele>470.20001220703</ele>
        <time>2019-02-17T12:31:01.000Z</time>
      </trkpt>
      <trkpt lat="43.15261" lon="-0.03363">
        <ele>471.20001220703</ele>
        <time>2019-02-17T12:31:05.000Z</time>
      </trkpt>
      <trkpt lat="43.15255" lon="-0.03367">
        <ele>471.60000610352</ele>
        <time>2019-02-17T12:31:07.000Z</time>
      </trkpt>
      <trkpt lat="43.15248" lon="-0.03369">
        <ele>472.79998779297</ele>
        <time>2019-02-17T12:31:09.000Z</time>
      </trkpt>
      <trkpt lat="43.15239" lon="-0.03373">
        <ele>474</ele>
        <time>2019-02-17T12:31:12.000Z</time>
      </trkpt>
      <trkpt lat="43.15232" lon="-0.03376">
        <ele>475.20001220703</ele>
        <time>2019-02-17T12:31:15.000Z</time>
      </trkpt>
      <trkpt lat="43.15222" lon="-0.03381">
        <ele>476.39999389648</ele>
        <time>2019-02-17T12:31:19.000Z</time>
      </trkpt>
      <trkpt lat="43.15212" lon="-0.03388">
        <ele>478.60000610352</ele>
        <time>2019-02-17T12:31:24.000Z</time>
      </trkpt>
      <trkpt lat="43.15208" lon="-0.03393">
        <ele>479.60000610352</ele>
        <time>2019-02-17T12:31:27.000Z</time>
      </trkpt>
      <trkpt lat="43.15202" lon="-0.03397">
        <ele>480.79998779297</ele>
        <time>2019-02-17T12:31:31.000Z</time>
      </trkpt>
      <trkpt lat="43.15197" lon="-0.034">
        <ele>481.60000610352</ele>
        <time>2019-02-17T12:31:34.000Z</time>
      </trkpt>
      <trkpt lat="43.15186" lon="-0.03403">
        <ele>483.39999389648</ele>
        <time>2019-02-17T12:31:39.000Z</time>
      </trkpt>
      <trkpt lat="43.15177" lon="-0.03402">
        <ele>484.39999389648</ele>
        <time>2019-02-17T12:31:43.000Z</time>
      </trkpt>
      <trkpt lat="43.15166" lon="-0.03399">
        <ele>485.60000610352</ele>
        <time>2019-02-17T12:31:48.000Z</time>
      </trkpt>
      <trkpt lat="43.15156" lon="-0.03401">
        <ele>486.39999389648</ele>
        <time>2019-02-17T12:31:51.000Z</time>
      </trkpt>
      <trkpt lat="43.15126" lon="-0.03415">
        <ele>488.79998779297</ele>
        <time>2019-02-17T12:31:58.000Z</time>
      </trkpt>
      <trkpt lat="43.15117" lon="-0.03422">
        <ele>489.39999389648</ele>
        <time>2019-02-17T12:32:01.000Z</time>
      </trkpt>
      <trkpt lat="43.15105" lon="-0.03429">
        <ele>490.60000610352</ele>
        <time>2019-02-17T12:32:05.000Z</time>
      </trkpt>
      <trkpt lat="43.15095" lon="-0.03435">
        <ele>491.79998779297</ele>
        <time>2019-02-17T12:32:09.000Z</time>
      </trkpt>
      <trkpt lat="43.15086" lon="-0.03441">
        <ele>493.20001220703</ele>
        <time>2019-02-17T12:32:13.000Z</time>
      </trkpt>
      <trkpt lat="43.15076" lon="-0.03449">
        <ele>495.39999389648</ele>
        <time>2019-02-17T12:32:18.000Z</time>
      </trkpt>
      <trkpt lat="43.15073" lon="-0.03451">
        <ele>496</ele>
        <time>2019-02-17T12:32:20.000Z</time>
      </trkpt>
      <trkpt lat="43.15069" lon="-0.03455">
        <ele>496.60000610352</ele>
        <time>2019-02-17T12:32:22.000Z</time>
      </trkpt>
      <trkpt lat="43.15065" lon="-0.03463">
        <ele>497.60000610352</ele>
        <time>2019-02-17T12:32:26.000Z</time>
      </trkpt>
      <trkpt lat="43.15061" lon="-0.03468">
        <ele>498.39999389648</ele>
        <time>2019-02-17T12:32:29.000Z</time>
      </trkpt>
      <trkpt lat="43.15048" lon="-0.03481">
        <ele>500.20001220703</ele>
        <time>2019-02-17T12:32:36.000Z</time>
      </trkpt>
      <trkpt lat="43.15035" lon="-0.03488">
        <ele>501.20001220703</ele>
        <time>2019-02-17T12:32:41.000Z</time>
      </trkpt>
      <trkpt lat="43.15026" lon="-0.03492">
        <ele>502.20001220703</ele>
        <time>2019-02-17T12:32:45.000Z</time>
      </trkpt>
      <trkpt lat="43.15017" lon="-0.03494">
        <ele>503</ele>
        <time>2019-02-17T12:32:50.000Z</time>
      </trkpt>
      <trkpt lat="43.15009" lon="-0.03496">
        <ele>504.20001220703</ele>
        <time>2019-02-17T12:32:54.000Z</time>
      </trkpt>
      <trkpt lat="43.15001" lon="-0.03498">
        <ele>505.20001220703</ele>
        <time>2019-02-17T12:32:58.000Z</time>
      </trkpt>
      <trkpt lat="43.14994" lon="-0.03499">
        <ele>506.39999389648</ele>
        <time>2019-02-17T12:33:02.000Z</time>
      </trkpt>
      <trkpt lat="43.14986" lon="-0.03502">
        <ele>507.79998779297</ele>
        <time>2019-02-17T12:33:07.000Z</time>
      </trkpt>
      <trkpt lat="43.14982" lon="-0.03504">
        <ele>508.60000610352</ele>
        <time>2019-02-17T12:33:09.000Z</time>
      </trkpt>
      <trkpt lat="43.14974" lon="-0.03505">
        <ele>509.79998779297</ele>
        <time>2019-02-17T12:33:14.000Z</time>
      </trkpt>
      <trkpt lat="43.14965" lon="-0.03508">
        <ele>510.79998779297</ele>
        <time>2019-02-17T12:33:19.000Z</time>
      </trkpt>
      <trkpt lat="43.14945" lon="-0.03516">
        <ele>512.59997558594</ele>
        <time>2019-02-17T12:33:26.000Z</time>
      </trkpt>
      <trkpt lat="43.14932" lon="-0.03521">
        <ele>514</ele>
        <time>2019-02-17T12:33:31.000Z</time>
      </trkpt>
      <trkpt lat="43.14917" lon="-0.03526">
        <ele>515.20001220703</ele>
        <time>2019-02-17T12:33:37.000Z</time>
      </trkpt>
      <trkpt lat="43.14907" lon="-0.03529">
        <ele>516.59997558594</ele>
        <time>2019-02-17T12:33:42.000Z</time>
      </trkpt>
      <trkpt lat="43.14895" lon="-0.03532">
        <ele>517.79998779297</ele>
        <time>2019-02-17T12:33:47.000Z</time>
      </trkpt>
      <trkpt lat="43.14883" lon="-0.03535">
        <ele>519.20001220703</ele>
        <time>2019-02-17T12:33:53.000Z</time>
      </trkpt>
      <trkpt lat="43.14874" lon="-0.03537">
        <ele>520.20001220703</ele>
        <time>2019-02-17T12:33:59.000Z</time>
      </trkpt>
      <trkpt lat="43.14866" lon="-0.03539">
        <ele>521.20001220703</ele>
        <time>2019-02-17T12:34:04.000Z</time>
      </trkpt>
      <trkpt lat="43.14858" lon="-0.03542">
        <ele>522.40002441406</ele>
        <time>2019-02-17T12:34:09.000Z</time>
      </trkpt>
      <trkpt lat="43.14853" lon="-0.03543">
        <ele>523</ele>
        <time>2019-02-17T12:34:13.000Z</time>
      </trkpt>
      <trkpt lat="43.14852" lon="-0.03542">
        <ele>523.79998779297</ele>
        <time>2019-02-17T12:34:16.000Z</time>
      </trkpt>
      <trkpt lat="43.14844" lon="-0.03535">
        <ele>525.20001220703</ele>
        <time>2019-02-17T12:34:50.000Z</time>
      </trkpt>
      <trkpt lat="43.14827" lon="-0.03524">
        <ele>526.20001220703</ele>
        <time>2019-02-17T12:35:00.000Z</time>
      </trkpt>
      <trkpt lat="43.1482" lon="-0.03521">
        <ele>526.59997558594</ele>
        <time>2019-02-17T12:35:04.000Z</time>
      </trkpt>
      <trkpt lat="43.14791" lon="-0.0351">
        <ele>529.40002441406</ele>
        <time>2019-02-17T12:35:20.000Z</time>
      </trkpt>
      <trkpt lat="43.14734" lon="-0.03506">
        <ele>530.40002441406</ele>
        <time>2019-02-17T12:35:41.000Z</time>
      </trkpt>
      <trkpt lat="43.14726" lon="-0.03507">
        <ele>530.59997558594</ele>
        <time>2019-02-17T12:35:44.000Z</time>
      </trkpt>
      <trkpt lat="43.1469" lon="-0.03509">
        <ele>531.20001220703</ele>
        <time>2019-02-17T12:35:55.000Z</time>
      </trkpt>
      <trkpt lat="43.14674" lon="-0.03511">
        <ele>531.40002441406</ele>
        <time>2019-02-17T12:36:00.000Z</time>
      </trkpt>
      <trkpt lat="43.14633" lon="-0.03548">
        <ele>532.79998779297</ele>
        <time>2019-02-17T12:36:12.000Z</time>
      </trkpt>
      <trkpt lat="43.14631" lon="-0.0356">
        <ele>532.79998779297</ele>
        <time>2019-02-17T12:36:14.000Z</time>
      </trkpt>
      <trkpt lat="43.14625" lon="-0.03595">
        <ele>532.79998779297</ele>
        <time>2019-02-17T12:36:20.000Z</time>
      </trkpt>
      <trkpt lat="43.14603" lon="-0.03635">
        <ele>532.79998779297</ele>
        <time>2019-02-17T12:36:28.000Z</time>
      </trkpt>
      <trkpt lat="43.146" lon="-0.0364">
        <ele>532.79998779297</ele>
        <time>2019-02-17T12:36:29.000Z</time>
      </trkpt>
      <trkpt lat="43.14594" lon="-0.03657">
        <ele>532.79998779297</ele>
        <time>2019-02-17T12:36:32.000Z</time>
      </trkpt>
      <trkpt lat="43.1459" lon="-0.0367">
        <ele>532.59997558594</ele>
        <time>2019-02-17T12:36:34.000Z</time>
      </trkpt>
      <trkpt lat="43.14584" lon="-0.03691">
        <ele>532.59997558594</ele>
        <time>2019-02-17T12:36:37.000Z</time>
      </trkpt>
      <trkpt lat="43.14579" lon="-0.03706">
        <ele>532.40002441406</ele>
        <time>2019-02-17T12:36:39.000Z</time>
      </trkpt>
      <trkpt lat="43.14573" lon="-0.03724">
        <ele>531.79998779297</ele>
        <time>2019-02-17T12:36:42.000Z</time>
      </trkpt>
      <trkpt lat="43.14572" lon="-0.0373">
        <ele>531.79998779297</ele>
        <time>2019-02-17T12:36:43.000Z</time>
      </trkpt>
      <trkpt lat="43.14567" lon="-0.0374">
        <ele>531.20001220703</ele>
        <time>2019-02-17T12:36:45.000Z</time>
      </trkpt>
      <trkpt lat="43.14564" lon="-0.03746">
        <ele>530.59997558594</ele>
        <time>2019-02-17T12:36:46.000Z</time>
      </trkpt>
      <trkpt lat="43.14557" lon="-0.03756">
        <ele>529.59997558594</ele>
        <time>2019-02-17T12:36:48.000Z</time>
      </trkpt>
      <trkpt lat="43.14548" lon="-0.03763">
        <ele>529</ele>
        <time>2019-02-17T12:36:50.000Z</time>
      </trkpt>
      <trkpt lat="43.1454" lon="-0.03768">
        <ele>528.59997558594</ele>
        <time>2019-02-17T12:36:52.000Z</time>
      </trkpt>
      <trkpt lat="43.14536" lon="-0.03769">
        <ele>528.40002441406</ele>
        <time>2019-02-17T12:36:53.000Z</time>
      </trkpt>
      <trkpt lat="43.14528" lon="-0.03771">
        <ele>527.20001220703</ele>
        <time>2019-02-17T12:36:55.000Z</time>
      </trkpt>
      <trkpt lat="43.14519" lon="-0.03772">
        <ele>527</ele>
        <time>2019-02-17T12:36:57.000Z</time>
      </trkpt>
      <trkpt lat="43.14498" lon="-0.03774">
        <ele>523.59997558594</ele>
        <time>2019-02-17T12:37:02.000Z</time>
      </trkpt>
      <trkpt lat="43.14487" lon="-0.03777">
        <ele>521.79998779297</ele>
        <time>2019-02-17T12:37:05.000Z</time>
      </trkpt>
      <trkpt lat="43.1448" lon="-0.03778">
        <ele>521</ele>
        <time>2019-02-17T12:37:07.000Z</time>
      </trkpt>
      <trkpt lat="43.14476" lon="-0.03779">
        <ele>520.40002441406</ele>
        <time>2019-02-17T12:37:08.000Z</time>
      </trkpt>
      <trkpt lat="43.14472" lon="-0.0378">
        <ele>520.20001220703</ele>
        <time>2019-02-17T12:37:09.000Z</time>
      </trkpt>
      <trkpt lat="43.14464" lon="-0.03782">
        <ele>519.59997558594</ele>
        <time>2019-02-17T12:37:11.000Z</time>
      </trkpt>
      <trkpt lat="43.14457" lon="-0.03786">
        <ele>518.79998779297</ele>
        <time>2019-02-17T12:37:13.000Z</time>
      </trkpt>
      <trkpt lat="43.14454" lon="-0.03789">
        <ele>518.20001220703</ele>
        <time>2019-02-17T12:37:14.000Z</time>
      </trkpt>
      <trkpt lat="43.14451" lon="-0.03794">
        <ele>517.79998779297</ele>
        <time>2019-02-17T12:37:15.000Z</time>
      </trkpt>
      <trkpt lat="43.14448" lon="-0.038">
        <ele>516.79998779297</ele>
        <time>2019-02-17T12:37:16.000Z</time>
      </trkpt>
      <trkpt lat="43.14443" lon="-0.03811">
        <ele>515.59997558594</ele>
        <time>2019-02-17T12:37:18.000Z</time>
      </trkpt>
      <trkpt lat="43.1444" lon="-0.03816">
        <ele>515.20001220703</ele>
        <time>2019-02-17T12:37:19.000Z</time>
      </trkpt>
      <trkpt lat="43.14432" lon="-0.03827">
        <ele>514.59997558594</ele>
        <time>2019-02-17T12:37:21.000Z</time>
      </trkpt>
      <trkpt lat="43.14423" lon="-0.03839">
        <ele>513.40002441406</ele>
        <time>2019-02-17T12:37:23.000Z</time>
      </trkpt>
      <trkpt lat="43.14408" lon="-0.03858">
        <ele>509.20001220703</ele>
        <time>2019-02-17T12:37:26.000Z</time>
      </trkpt>
      <trkpt lat="43.14402" lon="-0.03866">
        <ele>508.60000610352</ele>
        <time>2019-02-17T12:37:27.000Z</time>
      </trkpt>
      <trkpt lat="43.14396" lon="-0.03874">
        <ele>508.20001220703</ele>
        <time>2019-02-17T12:37:28.000Z</time>
      </trkpt>
      <trkpt lat="43.14378" lon="-0.03894">
        <ele>506.20001220703</ele>
        <time>2019-02-17T12:37:31.000Z</time>
      </trkpt>
      <trkpt lat="43.14367" lon="-0.03911">
        <ele>505.79998779297</ele>
        <time>2019-02-17T12:37:33.000Z</time>
      </trkpt>
      <trkpt lat="43.14355" lon="-0.03938">
        <ele>505</ele>
        <time>2019-02-17T12:37:36.000Z</time>
      </trkpt>
      <trkpt lat="43.14341" lon="-0.03991">
        <ele>504.79998779297</ele>
        <time>2019-02-17T12:37:43.000Z</time>
      </trkpt>
      <trkpt lat="43.14337" lon="-0.04002">
        <ele>504.79998779297</ele>
        <time>2019-02-17T12:37:45.000Z</time>
      </trkpt>
      <trkpt lat="43.14316" lon="-0.04072">
        <ele>507.60000610352</ele>
        <time>2019-02-17T12:37:58.000Z</time>
      </trkpt>
      <trkpt lat="43.14311" lon="-0.04093">
        <ele>508</ele>
        <time>2019-02-17T12:38:02.000Z</time>
      </trkpt>
      <trkpt lat="43.14273" lon="-0.04148">
        <ele>508.20001220703</ele>
        <time>2019-02-17T12:38:15.000Z</time>
      </trkpt>
      <trkpt lat="43.14247" lon="-0.04176">
        <ele>508.39999389648</ele>
        <time>2019-02-17T12:38:21.000Z</time>
      </trkpt>
      <trkpt lat="43.14215" lon="-0.04215">
        <ele>508.39999389648</ele>
        <time>2019-02-17T12:38:30.000Z</time>
      </trkpt>
      <trkpt lat="43.14211" lon="-0.0422">
        <ele>508.60000610352</ele>
        <time>2019-02-17T12:38:31.000Z</time>
      </trkpt>
      <trkpt lat="43.1419" lon="-0.0424">
        <ele>508.60000610352</ele>
        <time>2019-02-17T12:38:36.000Z</time>
      </trkpt>
      <trkpt lat="43.14149" lon="-0.04277">
        <ele>508.79998779297</ele>
        <time>2019-02-17T12:38:47.000Z</time>
      </trkpt>
      <trkpt lat="43.14146" lon="-0.04284">
        <ele>509</ele>
        <time>2019-02-17T12:38:49.000Z</time>
      </trkpt>
      <trkpt lat="43.14131" lon="-0.04301">
        <ele>510.20001220703</ele>
        <time>2019-02-17T12:38:56.000Z</time>
      </trkpt>
      <trkpt lat="43.14116" lon="-0.04316">
        <ele>512.20001220703</ele>
        <time>2019-02-17T12:39:04.000Z</time>
      </trkpt>
      <trkpt lat="43.14111" lon="-0.04327">
        <ele>513.20001220703</ele>
        <time>2019-02-17T12:39:09.000Z</time>
      </trkpt>
      <trkpt lat="43.14104" lon="-0.04336">
        <ele>513.79998779297</ele>
        <time>2019-02-17T12:39:14.000Z</time>
      </trkpt>
      <trkpt lat="43.14103" lon="-0.04341">
        <ele>514.20001220703</ele>
        <time>2019-02-17T12:39:16.000Z</time>
      </trkpt>
      <trkpt lat="43.14097" lon="-0.04351">
        <ele>515.40002441406</ele>
        <time>2019-02-17T12:39:21.000Z</time>
      </trkpt>
      <trkpt lat="43.14092" lon="-0.04356">
        <ele>516</ele>
        <time>2019-02-17T12:39:25.000Z</time>
      </trkpt>
      <trkpt lat="43.14061" lon="-0.04427">
        <ele>521.40002441406</ele>
        <time>2019-02-17T12:40:13.000Z</time>
      </trkpt>
      <trkpt lat="43.14056" lon="-0.0444">
        <ele>522.40002441406</ele>
        <time>2019-02-17T12:40:19.000Z</time>
      </trkpt>
      <trkpt lat="43.14054" lon="-0.04452">
        <ele>523</ele>
        <time>2019-02-17T12:40:25.000Z</time>
      </trkpt>
      <trkpt lat="43.14045" lon="-0.04471">
        <ele>524.59997558594</ele>
        <time>2019-02-17T12:40:35.000Z</time>
      </trkpt>
      <trkpt lat="43.14044" lon="-0.04473">
        <ele>524.59997558594</ele>
        <time>2019-02-17T12:40:36.000Z</time>
      </trkpt>
      <trkpt lat="43.14042" lon="-0.04486">
        <ele>525.40002441406</ele>
        <time>2019-02-17T12:40:41.000Z</time>
      </trkpt>
      <trkpt lat="43.14044" lon="-0.04496">
        <ele>526</ele>
        <time>2019-02-17T12:40:45.000Z</time>
      </trkpt>
      <trkpt lat="43.14048" lon="-0.04516">
        <ele>527.40002441406</ele>
        <time>2019-02-17T12:40:54.000Z</time>
      </trkpt>
      <trkpt lat="43.14051" lon="-0.04529">
        <ele>528.40002441406</ele>
        <time>2019-02-17T12:41:00.000Z</time>
      </trkpt>
      <trkpt lat="43.14056" lon="-0.04543">
        <ele>529.79998779297</ele>
        <time>2019-02-17T12:41:07.000Z</time>
      </trkpt>
      <trkpt lat="43.14058" lon="-0.04551">
        <ele>530.59997558594</ele>
        <time>2019-02-17T12:41:11.000Z</time>
      </trkpt>
      <trkpt lat="43.14058" lon="-0.0457">
        <ele>532.40002441406</ele>
        <time>2019-02-17T12:41:19.000Z</time>
      </trkpt>
      <trkpt lat="43.14054" lon="-0.04627">
        <ele>534.40002441406</ele>
        <time>2019-02-17T12:41:42.000Z</time>
      </trkpt>
      <trkpt lat="43.14051" lon="-0.04642">
        <ele>534.79998779297</ele>
        <time>2019-02-17T12:44:10.000Z</time>
      </trkpt>
      <trkpt lat="43.14049" lon="-0.04656">
        <ele>535</ele>
        <time>2019-02-17T12:44:15.000Z</time>
      </trkpt>
      <trkpt lat="43.14049" lon="-0.04685">
        <ele>536.20001220703</ele>
        <time>2019-02-17T12:44:25.000Z</time>
      </trkpt>
      <trkpt lat="43.14046" lon="-0.04709">
        <ele>537.20001220703</ele>
        <time>2019-02-17T12:44:33.000Z</time>
      </trkpt>
      <trkpt lat="43.14044" lon="-0.04756">
        <ele>539.40002441406</ele>
        <time>2019-02-17T12:44:47.000Z</time>
      </trkpt>
      <trkpt lat="43.14043" lon="-0.04794">
        <ele>540.79998779297</ele>
        <time>2019-02-17T12:44:58.000Z</time>
      </trkpt>
      <trkpt lat="43.14039" lon="-0.04868">
        <ele>542.40002441406</ele>
        <time>2019-02-17T12:45:16.000Z</time>
      </trkpt>
      <trkpt lat="43.14025" lon="-0.0494">
        <ele>542.40002441406</ele>
        <time>2019-02-17T12:45:33.000Z</time>
      </trkpt>
      <trkpt lat="43.13988" lon="-0.0499">
        <ele>542</ele>
        <time>2019-02-17T12:45:47.000Z</time>
      </trkpt>
      <trkpt lat="43.13937" lon="-0.05019">
        <ele>540.79998779297</ele>
        <time>2019-02-17T12:46:00.000Z</time>
      </trkpt>
      <trkpt lat="43.13932" lon="-0.05021">
        <ele>540.79998779297</ele>
        <time>2019-02-17T12:46:01.000Z</time>
      </trkpt>
      <trkpt lat="43.13928" lon="-0.05022">
        <ele>540.79998779297</ele>
        <time>2019-02-17T12:46:02.000Z</time>
      </trkpt>
      <trkpt lat="43.1391" lon="-0.05028">
        <ele>540.59997558594</ele>
        <time>2019-02-17T12:46:05.000Z</time>
      </trkpt>
      <trkpt lat="43.1388" lon="-0.05042">
        <ele>539.59997558594</ele>
        <time>2019-02-17T12:46:09.000Z</time>
      </trkpt>
      <trkpt lat="43.13857" lon="-0.05054">
        <ele>537.40002441406</ele>
        <time>2019-02-17T12:46:12.000Z</time>
      </trkpt>
      <trkpt lat="43.1385" lon="-0.05058">
        <ele>537</ele>
        <time>2019-02-17T12:46:13.000Z</time>
      </trkpt>
      <trkpt lat="43.138" lon="-0.05098">
        <ele>534.40002441406</ele>
        <time>2019-02-17T12:46:22.000Z</time>
      </trkpt>
      <trkpt lat="43.1378" lon="-0.05121">
        <ele>534.20001220703</ele>
        <time>2019-02-17T12:46:27.000Z</time>
      </trkpt>
      <trkpt lat="43.13772" lon="-0.05131">
        <ele>534.20001220703</ele>
        <time>2019-02-17T12:46:29.000Z</time>
      </trkpt>
      <trkpt lat="43.13763" lon="-0.05144">
        <ele>534.59997558594</ele>
        <time>2019-02-17T12:46:32.000Z</time>
      </trkpt>
      <trkpt lat="43.13747" lon="-0.05165">
        <ele>535.59997558594</ele>
        <time>2019-02-17T12:46:38.000Z</time>
      </trkpt>
      <trkpt lat="43.13735" lon="-0.05179">
        <ele>536.59997558594</ele>
        <time>2019-02-17T12:46:42.000Z</time>
      </trkpt>
      <trkpt lat="43.1372" lon="-0.05202">
        <ele>537.59997558594</ele>
        <time>2019-02-17T12:46:49.000Z</time>
      </trkpt>
      <trkpt lat="43.13693" lon="-0.05237">
        <ele>539.79998779297</ele>
        <time>2019-02-17T12:47:00.000Z</time>
      </trkpt>
      <trkpt lat="43.13672" lon="-0.05265">
        <ele>541</ele>
        <time>2019-02-17T12:47:08.000Z</time>
      </trkpt>
      <trkpt lat="43.13656" lon="-0.05286">
        <ele>542.20001220703</ele>
        <time>2019-02-17T12:47:15.000Z</time>
      </trkpt>
      <trkpt lat="43.13643" lon="-0.05304">
        <ele>543.79998779297</ele>
        <time>2019-02-17T12:47:22.000Z</time>
      </trkpt>
      <trkpt lat="43.13635" lon="-0.05314">
        <ele>544.79998779297</ele>
        <time>2019-02-17T12:47:25.000Z</time>
      </trkpt>
      <trkpt lat="43.13623" lon="-0.05329">
        <ele>545.40002441406</ele>
        <time>2019-02-17T12:47:30.000Z</time>
      </trkpt>
      <trkpt lat="43.13612" lon="-0.05349">
        <ele>548</ele>
        <time>2019-02-17T12:47:36.000Z</time>
      </trkpt>
      <trkpt lat="43.13607" lon="-0.05359">
        <ele>549</ele>
        <time>2019-02-17T12:47:39.000Z</time>
      </trkpt>
      <trkpt lat="43.13599" lon="-0.05372">
        <ele>550</ele>
        <time>2019-02-17T12:47:43.000Z</time>
      </trkpt>
      <trkpt lat="43.13573" lon="-0.05406">
        <ele>553</ele>
        <time>2019-02-17T12:47:54.000Z</time>
      </trkpt>
      <trkpt lat="43.13554" lon="-0.05421">
        <ele>554.20001220703</ele>
        <time>2019-02-17T12:48:01.000Z</time>
      </trkpt>
      <trkpt lat="43.13549" lon="-0.05426">
        <ele>554.79998779297</ele>
        <time>2019-02-17T12:48:04.000Z</time>
      </trkpt>
      <trkpt lat="43.13535" lon="-0.05437">
        <ele>556.40002441406</ele>
        <time>2019-02-17T12:48:12.000Z</time>
      </trkpt>
      <trkpt lat="43.13521" lon="-0.05447">
        <ele>557.59997558594</ele>
        <time>2019-02-17T12:48:20.000Z</time>
      </trkpt>
      <trkpt lat="43.13503" lon="-0.05457">
        <ele>559</ele>
        <time>2019-02-17T12:48:30.000Z</time>
      </trkpt>
      <trkpt lat="43.13475" lon="-0.05471">
        <ele>560.20001220703</ele>
        <time>2019-02-17T12:48:43.000Z</time>
      </trkpt>
      <trkpt lat="43.1346" lon="-0.05477">
        <ele>560.79998779297</ele>
        <time>2019-02-17T12:48:49.000Z</time>
      </trkpt>
      <trkpt lat="43.13439" lon="-0.05483">
        <ele>561.79998779297</ele>
        <time>2019-02-17T12:48:57.000Z</time>
      </trkpt>
      <trkpt lat="43.13409" lon="-0.05495">
        <ele>564.20001220703</ele>
        <time>2019-02-17T12:49:14.000Z</time>
      </trkpt>
      <trkpt lat="43.13403" lon="-0.05501">
        <ele>564.40002441406</ele>
        <time>2019-02-17T12:49:19.000Z</time>
      </trkpt>
      <trkpt lat="43.13396" lon="-0.05505">
        <ele>564.59997558594</ele>
        <time>2019-02-17T12:49:24.000Z</time>
      </trkpt>
      <trkpt lat="43.13348" lon="-0.05511">
        <ele>565.20001220703</ele>
        <time>2019-02-17T12:49:42.000Z</time>
      </trkpt>
      <trkpt lat="43.13335" lon="-0.0551">
        <ele>565</ele>
        <time>2019-02-17T12:49:46.000Z</time>
      </trkpt>
      <trkpt lat="43.13302" lon="-0.05508">
        <ele>565.40002441406</ele>
        <time>2019-02-17T12:49:56.000Z</time>
      </trkpt>
      <trkpt lat="43.13277" lon="-0.05505">
        <ele>566</ele>
        <time>2019-02-17T12:50:04.000Z</time>
      </trkpt>
      <trkpt lat="43.13265" lon="-0.05505">
        <ele>566.40002441406</ele>
        <time>2019-02-17T12:50:08.000Z</time>
      </trkpt>
      <trkpt lat="43.13257" lon="-0.05504">
        <ele>566.79998779297</ele>
        <time>2019-02-17T12:50:11.000Z</time>
      </trkpt>
      <trkpt lat="43.13246" lon="-0.05504">
        <ele>567.40002441406</ele>
        <time>2019-02-17T12:50:15.000Z</time>
      </trkpt>
      <trkpt lat="43.1324" lon="-0.05503">
        <ele>567.79998779297</ele>
        <time>2019-02-17T12:50:17.000Z</time>
      </trkpt>
      <trkpt lat="43.13236" lon="-0.05501">
        <ele>568</ele>
        <time>2019-02-17T12:50:19.000Z</time>
      </trkpt>
      <trkpt lat="43.13226" lon="-0.05493">
        <ele>568.79998779297</ele>
        <time>2019-02-17T12:50:24.000Z</time>
      </trkpt>
      <trkpt lat="43.13205" lon="-0.05455">
        <ele>569.59997558594</ele>
        <time>2019-02-17T12:50:35.000Z</time>
      </trkpt>
      <trkpt lat="43.13202" lon="-0.05443">
        <ele>569.59997558594</ele>
        <time>2019-02-17T12:50:37.000Z</time>
      </trkpt>
      <trkpt lat="43.13193" lon="-0.05416">
        <ele>569.59997558594</ele>
        <time>2019-02-17T12:50:41.000Z</time>
      </trkpt>
      <trkpt lat="43.13164" lon="-0.05359">
        <ele>566.20001220703</ele>
        <time>2019-02-17T12:50:49.000Z</time>
      </trkpt>
      <trkpt lat="43.13154" lon="-0.05349">
        <ele>565.79998779297</ele>
        <time>2019-02-17T12:50:51.000Z</time>
      </trkpt>
      <trkpt lat="43.13142" lon="-0.05341">
        <ele>565.59997558594</ele>
        <time>2019-02-17T12:50:53.000Z</time>
      </trkpt>
      <trkpt lat="43.13136" lon="-0.05338">
        <ele>565.40002441406</ele>
        <time>2019-02-17T12:50:54.000Z</time>
      </trkpt>
      <trkpt lat="43.13129" lon="-0.05337">
        <ele>565.20001220703</ele>
        <time>2019-02-17T12:50:55.000Z</time>
      </trkpt>
      <trkpt lat="43.13097" lon="-0.05337">
        <ele>565</ele>
        <time>2019-02-17T12:50:59.000Z</time>
      </trkpt>
      <trkpt lat="43.13088" lon="-0.05338">
        <ele>565</ele>
        <time>2019-02-17T12:51:00.000Z</time>
      </trkpt>
      <trkpt lat="43.13079" lon="-0.05339">
        <ele>564.79998779297</ele>
        <time>2019-02-17T12:51:01.000Z</time>
      </trkpt>
      <trkpt lat="43.13024" lon="-0.05346">
        <ele>561.20001220703</ele>
        <time>2019-02-17T12:51:08.000Z</time>
      </trkpt>
      <trkpt lat="43.13017" lon="-0.05347">
        <ele>560.59997558594</ele>
        <time>2019-02-17T12:51:09.000Z</time>
      </trkpt>
      <trkpt lat="43.1301" lon="-0.05348">
        <ele>560.20001220703</ele>
        <time>2019-02-17T12:51:10.000Z</time>
      </trkpt>
      <trkpt lat="43.12997" lon="-0.05353">
        <ele>559.59997558594</ele>
        <time>2019-02-17T12:51:12.000Z</time>
      </trkpt>
      <trkpt lat="43.1297" lon="-0.05366">
        <ele>559</ele>
        <time>2019-02-17T12:51:16.000Z</time>
      </trkpt>
      <trkpt lat="43.12962" lon="-0.05369">
        <ele>558.79998779297</ele>
        <time>2019-02-17T12:51:17.000Z</time>
      </trkpt>
      <trkpt lat="43.12954" lon="-0.0537">
        <ele>558.40002441406</ele>
        <time>2019-02-17T12:51:18.000Z</time>
      </trkpt>
      <trkpt lat="43.12946" lon="-0.05371">
        <ele>558.20001220703</ele>
        <time>2019-02-17T12:51:19.000Z</time>
      </trkpt>
      <trkpt lat="43.12937" lon="-0.05371">
        <ele>557.79998779297</ele>
        <time>2019-02-17T12:51:20.000Z</time>
      </trkpt>
      <trkpt lat="43.12927" lon="-0.0537">
        <ele>557.40002441406</ele>
        <time>2019-02-17T12:51:21.000Z</time>
      </trkpt>
      <trkpt lat="43.12907" lon="-0.05366">
        <ele>556.79998779297</ele>
        <time>2019-02-17T12:51:23.000Z</time>
      </trkpt>
      <trkpt lat="43.12889" lon="-0.05362">
        <ele>556</ele>
        <time>2019-02-17T12:51:25.000Z</time>
      </trkpt>
      <trkpt lat="43.1287" lon="-0.05355">
        <ele>554.40002441406</ele>
        <time>2019-02-17T12:51:27.000Z</time>
      </trkpt>
      <trkpt lat="43.12853" lon="-0.05346">
        <ele>551.40002441406</ele>
        <time>2019-02-17T12:51:29.000Z</time>
      </trkpt>
      <trkpt lat="43.12837" lon="-0.05337">
        <ele>548.59997558594</ele>
        <time>2019-02-17T12:51:31.000Z</time>
      </trkpt>
      <trkpt lat="43.12815" lon="-0.05324">
        <ele>546.20001220703</ele>
        <time>2019-02-17T12:51:34.000Z</time>
      </trkpt>
      <trkpt lat="43.12795" lon="-0.0531">
        <ele>543.79998779297</ele>
        <time>2019-02-17T12:51:37.000Z</time>
      </trkpt>
      <trkpt lat="43.1279" lon="-0.05304">
        <ele>543</ele>
        <time>2019-02-17T12:51:38.000Z</time>
      </trkpt>
      <trkpt lat="43.12775" lon="-0.05284">
        <ele>540</ele>
        <time>2019-02-17T12:51:41.000Z</time>
      </trkpt>
      <trkpt lat="43.12771" lon="-0.05277">
        <ele>539.40002441406</ele>
        <time>2019-02-17T12:51:42.000Z</time>
      </trkpt>
      <trkpt lat="43.12761" lon="-0.05263">
        <ele>538.40002441406</ele>
        <time>2019-02-17T12:51:44.000Z</time>
      </trkpt>
      <trkpt lat="43.1275" lon="-0.05247">
        <ele>536.79998779297</ele>
        <time>2019-02-17T12:51:46.000Z</time>
      </trkpt>
      <trkpt lat="43.12738" lon="-0.05231">
        <ele>535.40002441406</ele>
        <time>2019-02-17T12:51:48.000Z</time>
      </trkpt>
      <trkpt lat="43.12732" lon="-0.05223">
        <ele>535</ele>
        <time>2019-02-17T12:51:49.000Z</time>
      </trkpt>
      <trkpt lat="43.12715" lon="-0.05201">
        <ele>532.59997558594</ele>
        <time>2019-02-17T12:51:52.000Z</time>
      </trkpt>
      <trkpt lat="43.12702" lon="-0.05186">
        <ele>531.20001220703</ele>
        <time>2019-02-17T12:51:54.000Z</time>
      </trkpt>
      <trkpt lat="43.12694" lon="-0.05178">
        <ele>530.59997558594</ele>
        <time>2019-02-17T12:51:55.000Z</time>
      </trkpt>
      <trkpt lat="43.12686" lon="-0.05169">
        <ele>529.79998779297</ele>
        <time>2019-02-17T12:51:56.000Z</time>
      </trkpt>
      <trkpt lat="43.1267" lon="-0.05151">
        <ele>528</ele>
        <time>2019-02-17T12:51:58.000Z</time>
      </trkpt>
      <trkpt lat="43.12654" lon="-0.05136">
        <ele>527</ele>
        <time>2019-02-17T12:52:00.000Z</time>
      </trkpt>
      <trkpt lat="43.12645" lon="-0.05131">
        <ele>526.40002441406</ele>
        <time>2019-02-17T12:52:01.000Z</time>
      </trkpt>
      <trkpt lat="43.12607" lon="-0.05115">
        <ele>521</ele>
        <time>2019-02-17T12:52:05.000Z</time>
      </trkpt>
      <trkpt lat="43.12598" lon="-0.05111">
        <ele>519.79998779297</ele>
        <time>2019-02-17T12:52:06.000Z</time>
      </trkpt>
      <trkpt lat="43.12588" lon="-0.05105">
        <ele>518.79998779297</ele>
        <time>2019-02-17T12:52:07.000Z</time>
      </trkpt>
      <trkpt lat="43.12578" lon="-0.05099">
        <ele>518.40002441406</ele>
        <time>2019-02-17T12:52:08.000Z</time>
      </trkpt>
      <trkpt lat="43.1255" lon="-0.05078">
        <ele>514.59997558594</ele>
        <time>2019-02-17T12:52:11.000Z</time>
      </trkpt>
      <trkpt lat="43.12542" lon="-0.05069">
        <ele>514</ele>
        <time>2019-02-17T12:52:12.000Z</time>
      </trkpt>
      <trkpt lat="43.12535" lon="-0.05058">
        <ele>513.59997558594</ele>
        <time>2019-02-17T12:52:13.000Z</time>
      </trkpt>
      <trkpt lat="43.12529" lon="-0.05046">
        <ele>513.20001220703</ele>
        <time>2019-02-17T12:52:14.000Z</time>
      </trkpt>
      <trkpt lat="43.12513" lon="-0.05014">
        <ele>508.60000610352</ele>
        <time>2019-02-17T12:52:17.000Z</time>
      </trkpt>
      <trkpt lat="43.12503" lon="-0.04994">
        <ele>507</ele>
        <time>2019-02-17T12:52:19.000Z</time>
      </trkpt>
      <trkpt lat="43.12494" lon="-0.04975">
        <ele>504.20001220703</ele>
        <time>2019-02-17T12:52:21.000Z</time>
      </trkpt>
      <trkpt lat="43.12489" lon="-0.04966">
        <ele>502.60000610352</ele>
        <time>2019-02-17T12:52:22.000Z</time>
      </trkpt>
      <trkpt lat="43.12477" lon="-0.04951">
        <ele>500.79998779297</ele>
        <time>2019-02-17T12:52:24.000Z</time>
      </trkpt>
      <trkpt lat="43.12433" lon="-0.04923">
        <ele>496.20001220703</ele>
        <time>2019-02-17T12:52:31.000Z</time>
      </trkpt>
      <trkpt lat="43.12427" lon="-0.04921">
        <ele>495.20001220703</ele>
        <time>2019-02-17T12:52:32.000Z</time>
      </trkpt>
      <trkpt lat="43.12414" lon="-0.04917">
        <ele>494</ele>
        <time>2019-02-17T12:52:34.000Z</time>
      </trkpt>
      <trkpt lat="43.1236" lon="-0.04924">
        <ele>492.79998779297</ele>
        <time>2019-02-17T12:52:43.000Z</time>
      </trkpt>
      <trkpt lat="43.12351" lon="-0.04928">
        <ele>492.60000610352</ele>
        <time>2019-02-17T12:52:45.000Z</time>
      </trkpt>
      <trkpt lat="43.12295" lon="-0.0494">
        <ele>493</ele>
        <time>2019-02-17T12:52:56.000Z</time>
      </trkpt>
      <trkpt lat="43.1228" lon="-0.04942">
        <ele>493.20001220703</ele>
        <time>2019-02-17T12:52:59.000Z</time>
      </trkpt>
      <trkpt lat="43.12265" lon="-0.04947">
        <ele>493</ele>
        <time>2019-02-17T12:53:02.000Z</time>
      </trkpt>
      <trkpt lat="43.12261" lon="-0.0495">
        <ele>493</ele>
        <time>2019-02-17T12:53:03.000Z</time>
      </trkpt>
      <trkpt lat="43.12222" lon="-0.04978">
        <ele>493</ele>
        <time>2019-02-17T12:53:12.000Z</time>
      </trkpt>
      <trkpt lat="43.12176" lon="-0.05021">
        <ele>494</ele>
        <time>2019-02-17T12:53:25.000Z</time>
      </trkpt>
      <trkpt lat="43.12151" lon="-0.05035">
        <ele>494.60000610352</ele>
        <time>2019-02-17T12:53:32.000Z</time>
      </trkpt>
      <trkpt lat="43.12117" lon="-0.05047">
        <ele>495.39999389648</ele>
        <time>2019-02-17T12:53:41.000Z</time>
      </trkpt>
      <trkpt lat="43.12065" lon="-0.05075">
        <ele>497</ele>
        <time>2019-02-17T12:53:56.000Z</time>
      </trkpt>
      <trkpt lat="43.12061" lon="-0.05077">
        <ele>497</ele>
        <time>2019-02-17T12:53:57.000Z</time>
      </trkpt>
      <trkpt lat="43.12029" lon="-0.0509">
        <ele>498.20001220703</ele>
        <time>2019-02-17T12:54:07.000Z</time>
      </trkpt>
      <trkpt lat="43.12007" lon="-0.05096">
        <ele>499</ele>
        <time>2019-02-17T12:54:14.000Z</time>
      </trkpt>
      <trkpt lat="43.11987" lon="-0.05105">
        <ele>500.20001220703</ele>
        <time>2019-02-17T12:54:22.000Z</time>
      </trkpt>
      <trkpt lat="43.11976" lon="-0.05108">
        <ele>501.20001220703</ele>
        <time>2019-02-17T12:54:27.000Z</time>
      </trkpt>
      <trkpt lat="43.11965" lon="-0.05112">
        <ele>502.20001220703</ele>
        <time>2019-02-17T12:54:33.000Z</time>
      </trkpt>
      <trkpt lat="43.11956" lon="-0.0512">
        <ele>503.20001220703</ele>
        <time>2019-02-17T12:54:39.000Z</time>
      </trkpt>
      <trkpt lat="43.11952" lon="-0.05124">
        <ele>503.79998779297</ele>
        <time>2019-02-17T12:54:42.000Z</time>
      </trkpt>
      <trkpt lat="43.11945" lon="-0.05136">
        <ele>504.79998779297</ele>
        <time>2019-02-17T12:54:48.000Z</time>
      </trkpt>
      <trkpt lat="43.11942" lon="-0.05143">
        <ele>505.79998779297</ele>
        <time>2019-02-17T12:54:51.000Z</time>
      </trkpt>
      <trkpt lat="43.11938" lon="-0.05156">
        <ele>507.20001220703</ele>
        <time>2019-02-17T12:54:56.000Z</time>
      </trkpt>
      <trkpt lat="43.11936" lon="-0.05163">
        <ele>508</ele>
        <time>2019-02-17T12:54:59.000Z</time>
      </trkpt>
      <trkpt lat="43.11932" lon="-0.05175">
        <ele>509.20001220703</ele>
        <time>2019-02-17T12:55:04.000Z</time>
      </trkpt>
      <trkpt lat="43.11929" lon="-0.05187">
        <ele>510.39999389648</ele>
        <time>2019-02-17T12:55:09.000Z</time>
      </trkpt>
      <trkpt lat="43.11924" lon="-0.05198">
        <ele>511.60000610352</ele>
        <time>2019-02-17T12:55:14.000Z</time>
      </trkpt>
      <trkpt lat="43.1192" lon="-0.05208">
        <ele>512.59997558594</ele>
        <time>2019-02-17T12:55:18.000Z</time>
      </trkpt>
      <trkpt lat="43.11913" lon="-0.05223">
        <ele>514</ele>
        <time>2019-02-17T12:55:24.000Z</time>
      </trkpt>
      <trkpt lat="43.11896" lon="-0.05234">
        <ele>516.40002441406</ele>
        <time>2019-02-17T12:55:34.000Z</time>
      </trkpt>
      <trkpt lat="43.11894" lon="-0.05237">
        <ele>516.59997558594</ele>
        <time>2019-02-17T12:55:36.000Z</time>
      </trkpt>
      <trkpt lat="43.11891" lon="-0.05239">
        <ele>517</ele>
        <time>2019-02-17T12:55:38.000Z</time>
      </trkpt>
      <trkpt lat="43.11892" lon="-0.05237">
        <ele>517.20001220703</ele>
        <time>2019-02-17T12:55:41.000Z</time>
      </trkpt>
      <trkpt lat="43.11898" lon="-0.05233">
        <ele>517.20001220703</ele>
        <time>2019-02-17T12:55:44.000Z</time>
      </trkpt>
      <trkpt lat="43.11902" lon="-0.05237">
        <ele>517.40002441406</ele>
        <time>2019-02-17T12:55:46.000Z</time>
      </trkpt>
      <trkpt lat="43.11901" lon="-0.05242">
        <ele>517.59997558594</ele>
        <time>2019-02-17T12:55:47.000Z</time>
      </trkpt>
      <trkpt lat="43.11894" lon="-0.05257">
        <ele>517.59997558594</ele>
        <time>2019-02-17T12:55:50.000Z</time>
      </trkpt>
      <trkpt lat="43.11884" lon="-0.05283">
        <ele>516.79998779297</ele>
        <time>2019-02-17T12:55:55.000Z</time>
      </trkpt>
      <trkpt lat="43.11881" lon="-0.05288">
        <ele>516.59997558594</ele>
        <time>2019-02-17T12:55:56.000Z</time>
      </trkpt>
      <trkpt lat="43.11876" lon="-0.05298">
        <ele>515.59997558594</ele>
        <time>2019-02-17T12:55:58.000Z</time>
      </trkpt>
      <trkpt lat="43.11874" lon="-0.05303">
        <ele>515.40002441406</ele>
        <time>2019-02-17T12:55:59.000Z</time>
      </trkpt>
      <trkpt lat="43.11871" lon="-0.05309">
        <ele>515.20001220703</ele>
        <time>2019-02-17T12:56:00.000Z</time>
      </trkpt>
      <trkpt lat="43.11868" lon="-0.05314">
        <ele>514.79998779297</ele>
        <time>2019-02-17T12:56:01.000Z</time>
      </trkpt>
      <trkpt lat="43.11862" lon="-0.05326">
        <ele>514.40002441406</ele>
        <time>2019-02-17T12:56:03.000Z</time>
      </trkpt>
      <trkpt lat="43.11859" lon="-0.05333">
        <ele>514.20001220703</ele>
        <time>2019-02-17T12:56:04.000Z</time>
      </trkpt>
      <trkpt lat="43.11855" lon="-0.0534">
        <ele>513.79998779297</ele>
        <time>2019-02-17T12:56:05.000Z</time>
      </trkpt>
      <trkpt lat="43.11836" lon="-0.05365">
        <ele>512.79998779297</ele>
        <time>2019-02-17T12:56:09.000Z</time>
      </trkpt>
      <trkpt lat="43.11799" lon="-0.05388">
        <ele>508</ele>
        <time>2019-02-17T12:56:16.000Z</time>
      </trkpt>
      <trkpt lat="43.11793" lon="-0.0539">
        <ele>507.60000610352</ele>
        <time>2019-02-17T12:56:17.000Z</time>
      </trkpt>
      <trkpt lat="43.11777" lon="-0.05394">
        <ele>506.79998779297</ele>
        <time>2019-02-17T12:56:20.000Z</time>
      </trkpt>
      <trkpt lat="43.11771" lon="-0.05395">
        <ele>506.39999389648</ele>
        <time>2019-02-17T12:56:21.000Z</time>
      </trkpt>
      <trkpt lat="43.11753" lon="-0.05397">
        <ele>505.79998779297</ele>
        <time>2019-02-17T12:56:24.000Z</time>
      </trkpt>
      <trkpt lat="43.11741" lon="-0.05398">
        <ele>504.79998779297</ele>
        <time>2019-02-17T12:56:26.000Z</time>
      </trkpt>
      <trkpt lat="43.11724" lon="-0.054">
        <ele>504.20001220703</ele>
        <time>2019-02-17T12:56:29.000Z</time>
      </trkpt>
      <trkpt lat="43.11688" lon="-0.05396">
        <ele>502.39999389648</ele>
        <time>2019-02-17T12:56:35.000Z</time>
      </trkpt>
      <trkpt lat="43.11661" lon="-0.0539">
        <ele>502</ele>
        <time>2019-02-17T12:56:39.000Z</time>
      </trkpt>
      <trkpt lat="43.11641" lon="-0.05387">
        <ele>501.20001220703</ele>
        <time>2019-02-17T12:56:42.000Z</time>
      </trkpt>
      <trkpt lat="43.11634" lon="-0.05386">
        <ele>500.60000610352</ele>
        <time>2019-02-17T12:56:43.000Z</time>
      </trkpt>
      <trkpt lat="43.11627" lon="-0.05387">
        <ele>500.20001220703</ele>
        <time>2019-02-17T12:56:44.000Z</time>
      </trkpt>
      <trkpt lat="43.11614" lon="-0.0539">
        <ele>499.60000610352</ele>
        <time>2019-02-17T12:56:46.000Z</time>
      </trkpt>
      <trkpt lat="43.11596" lon="-0.05398">
        <ele>498.39999389648</ele>
        <time>2019-02-17T12:56:49.000Z</time>
      </trkpt>
      <trkpt lat="43.11579" lon="-0.05407">
        <ele>497.60000610352</ele>
        <time>2019-02-17T12:56:52.000Z</time>
      </trkpt>
      <trkpt lat="43.11568" lon="-0.05417">
        <ele>497.60000610352</ele>
        <time>2019-02-17T12:56:54.000Z</time>
      </trkpt>
      <trkpt lat="43.11558" lon="-0.05428">
        <ele>497.20001220703</ele>
        <time>2019-02-17T12:56:56.000Z</time>
      </trkpt>
      <trkpt lat="43.11554" lon="-0.05435">
        <ele>497.39999389648</ele>
        <time>2019-02-17T12:56:57.000Z</time>
      </trkpt>
      <trkpt lat="43.11544" lon="-0.05453">
        <ele>497</ele>
        <time>2019-02-17T12:56:59.000Z</time>
      </trkpt>
      <trkpt lat="43.11538" lon="-0.05474">
        <ele>496.60000610352</ele>
        <time>2019-02-17T12:57:01.000Z</time>
      </trkpt>
      <trkpt lat="43.11535" lon="-0.05496">
        <ele>495.39999389648</ele>
        <time>2019-02-17T12:57:03.000Z</time>
      </trkpt>
      <trkpt lat="43.11534" lon="-0.05507">
        <ele>495.20001220703</ele>
        <time>2019-02-17T12:57:04.000Z</time>
      </trkpt>
      <trkpt lat="43.11526" lon="-0.05542">
        <ele>494</ele>
        <time>2019-02-17T12:57:08.000Z</time>
      </trkpt>
      <trkpt lat="43.11521" lon="-0.05557">
        <ele>494</ele>
        <time>2019-02-17T12:57:10.000Z</time>
      </trkpt>
      <trkpt lat="43.11498" lon="-0.05613">
        <ele>495.79998779297</ele>
        <time>2019-02-17T12:57:19.000Z</time>
      </trkpt>
      <trkpt lat="43.11496" lon="-0.05619">
        <ele>496.39999389648</ele>
        <time>2019-02-17T12:57:20.000Z</time>
      </trkpt>
      <trkpt lat="43.11493" lon="-0.05624">
        <ele>496.79998779297</ele>
        <time>2019-02-17T12:57:21.000Z</time>
      </trkpt>
      <trkpt lat="43.11491" lon="-0.0563">
        <ele>496.79998779297</ele>
        <time>2019-02-17T12:57:22.000Z</time>
      </trkpt>
      <trkpt lat="43.11486" lon="-0.05641">
        <ele>497.20001220703</ele>
        <time>2019-02-17T12:57:24.000Z</time>
      </trkpt>
      <trkpt lat="43.11481" lon="-0.05653">
        <ele>497.60000610352</ele>
        <time>2019-02-17T12:57:26.000Z</time>
      </trkpt>
      <trkpt lat="43.11471" lon="-0.0568">
        <ele>499</ele>
        <time>2019-02-17T12:57:31.000Z</time>
      </trkpt>
      <trkpt lat="43.11469" lon="-0.05688">
        <ele>499.39999389648</ele>
        <time>2019-02-17T12:57:33.000Z</time>
      </trkpt>
      <trkpt lat="43.11459" lon="-0.05725">
        <ele>500.79998779297</ele>
        <time>2019-02-17T12:57:42.000Z</time>
      </trkpt>
      <trkpt lat="43.11455" lon="-0.05743">
        <ele>500.60000610352</ele>
        <time>2019-02-17T12:57:47.000Z</time>
      </trkpt>
      <trkpt lat="43.11449" lon="-0.05754">
        <ele>500.20001220703</ele>
        <time>2019-02-17T12:57:51.000Z</time>
      </trkpt>
      <trkpt lat="43.1144" lon="-0.05769">
        <ele>498.60000610352</ele>
        <time>2019-02-17T12:57:56.000Z</time>
      </trkpt>
      <trkpt lat="43.11432" lon="-0.05786">
        <ele>495.60000610352</ele>
        <time>2019-02-17T12:58:05.000Z</time>
      </trkpt>
      <trkpt lat="43.11433" lon="-0.05798">
        <ele>494.60000610352</ele>
        <time>2019-02-17T13:02:10.000Z</time>
      </trkpt>
      <trkpt lat="43.11434" lon="-0.05811">
        <ele>494.60000610352</ele>
        <time>2019-02-17T13:02:14.000Z</time>
      </trkpt>
      <trkpt lat="43.11434" lon="-0.0584">
        <ele>494</ele>
        <time>2019-02-17T13:02:19.000Z</time>
      </trkpt>
      <trkpt lat="43.11435" lon="-0.05864">
        <ele>493.20001220703</ele>
        <time>2019-02-17T13:02:22.000Z</time>
      </trkpt>
      <trkpt lat="43.11436" lon="-0.0588">
        <ele>492.39999389648</ele>
        <time>2019-02-17T13:02:24.000Z</time>
      </trkpt>
      <trkpt lat="43.11437" lon="-0.05904">
        <ele>489.79998779297</ele>
        <time>2019-02-17T13:02:30.000Z</time>
      </trkpt>
      <trkpt lat="43.11438" lon="-0.05912">
        <ele>487.20001220703</ele>
        <time>2019-02-17T13:02:39.000Z</time>
      </trkpt>
      <trkpt lat="43.11438" lon="-0.05913">
        <ele>486.79998779297</ele>
        <time>2019-02-17T13:02:42.000Z</time>
      </trkpt>
      <trkpt lat="43.11437" lon="-0.05937">
        <ele>483</ele>
        <time>2019-02-17T13:03:13.000Z</time>
      </trkpt>
      <trkpt lat="43.11438" lon="-0.05958">
        <ele>482</ele>
        <time>2019-02-17T13:03:18.000Z</time>
      </trkpt>
      <trkpt lat="43.11437" lon="-0.05972">
        <ele>480.79998779297</ele>
        <time>2019-02-17T13:03:24.000Z</time>
      </trkpt>
      <trkpt lat="43.11437" lon="-0.05979">
        <ele>480.39999389648</ele>
        <time>2019-02-17T13:03:27.000Z</time>
      </trkpt>
      <trkpt lat="43.11438" lon="-0.05985">
        <ele>480</ele>
        <time>2019-02-17T13:03:30.000Z</time>
      </trkpt>
      <trkpt lat="43.11438" lon="-0.05993">
        <ele>478.79998779297</ele>
        <time>2019-02-17T13:03:34.000Z</time>
      </trkpt>
      <trkpt lat="43.11438" lon="-0.06003">
        <ele>476.60000610352</ele>
        <time>2019-02-17T13:03:39.000Z</time>
      </trkpt>
      <trkpt lat="43.11439" lon="-0.06007">
        <ele>475.79998779297</ele>
        <time>2019-02-17T13:03:42.000Z</time>
      </trkpt>
      <trkpt lat="43.11439" lon="-0.06011">
        <ele>474.20001220703</ele>
        <time>2019-02-17T13:03:46.000Z</time>
      </trkpt>
      <trkpt lat="43.11436" lon="-0.06022">
        <ele>471.20001220703</ele>
        <time>2019-02-17T13:04:17.000Z</time>
      </trkpt>
      <trkpt lat="43.11431" lon="-0.06023">
        <ele>470.79998779297</ele>
        <time>2019-02-17T13:04:20.000Z</time>
      </trkpt>
      <trkpt lat="43.11418" lon="-0.06019">
        <ele>469.79998779297</ele>
        <time>2019-02-17T13:04:25.000Z</time>
      </trkpt>
      <trkpt lat="43.11415" lon="-0.06019">
        <ele>469.60000610352</ele>
        <time>2019-02-17T13:04:26.000Z</time>
      </trkpt>
      <trkpt lat="43.11411" lon="-0.06018">
        <ele>469.20001220703</ele>
        <time>2019-02-17T13:04:27.000Z</time>
      </trkpt>
      <trkpt lat="43.11403" lon="-0.06018">
        <ele>469</ele>
        <time>2019-02-17T13:04:29.000Z</time>
      </trkpt>
      <trkpt lat="43.11398" lon="-0.06019">
        <ele>468.79998779297</ele>
        <time>2019-02-17T13:04:30.000Z</time>
      </trkpt>
      <trkpt lat="43.11394" lon="-0.06022">
        <ele>468.79998779297</ele>
        <time>2019-02-17T13:04:31.000Z</time>
      </trkpt>
      <trkpt lat="43.11389" lon="-0.06025">
        <ele>468.79998779297</ele>
        <time>2019-02-17T13:04:32.000Z</time>
      </trkpt>
      <trkpt lat="43.11385" lon="-0.06029">
        <ele>468.20001220703</ele>
        <time>2019-02-17T13:04:33.000Z</time>
      </trkpt>
      <trkpt lat="43.11381" lon="-0.06033">
        <ele>467.39999389648</ele>
        <time>2019-02-17T13:04:34.000Z</time>
      </trkpt>
      <trkpt lat="43.11377" lon="-0.06038">
        <ele>467</ele>
        <time>2019-02-17T13:04:35.000Z</time>
      </trkpt>
      <trkpt lat="43.11374" lon="-0.06043">
        <ele>466</ele>
        <time>2019-02-17T13:04:36.000Z</time>
      </trkpt>
      <trkpt lat="43.11371" lon="-0.06049">
        <ele>465.39999389648</ele>
        <time>2019-02-17T13:04:37.000Z</time>
      </trkpt>
      <trkpt lat="43.11369" lon="-0.06055">
        <ele>464.60000610352</ele>
        <time>2019-02-17T13:04:38.000Z</time>
      </trkpt>
      <trkpt lat="43.11367" lon="-0.06063">
        <ele>463.39999389648</ele>
        <time>2019-02-17T13:04:39.000Z</time>
      </trkpt>
      <trkpt lat="43.11365" lon="-0.0607">
        <ele>462.60000610352</ele>
        <time>2019-02-17T13:04:40.000Z</time>
      </trkpt>
      <trkpt lat="43.11363" lon="-0.06078">
        <ele>461.79998779297</ele>
        <time>2019-02-17T13:04:41.000Z</time>
      </trkpt>
      <trkpt lat="43.11354" lon="-0.06099">
        <ele>459.20001220703</ele>
        <time>2019-02-17T13:04:44.000Z</time>
      </trkpt>
      <trkpt lat="43.11347" lon="-0.06108">
        <ele>455.79998779297</ele>
        <time>2019-02-17T13:04:46.000Z</time>
      </trkpt>
      <trkpt lat="43.1134" lon="-0.06114">
        <ele>453.39999389648</ele>
        <time>2019-02-17T13:04:48.000Z</time>
      </trkpt>
      <trkpt lat="43.11332" lon="-0.06117">
        <ele>451</ele>
        <time>2019-02-17T13:04:50.000Z</time>
      </trkpt>
      <trkpt lat="43.11326" lon="-0.06117">
        <ele>450.20001220703</ele>
        <time>2019-02-17T13:04:51.000Z</time>
      </trkpt>
      <trkpt lat="43.1132" lon="-0.06115">
        <ele>450</ele>
        <time>2019-02-17T13:04:52.000Z</time>
      </trkpt>
      <trkpt lat="43.11312" lon="-0.06112">
        <ele>449.60000610352</ele>
        <time>2019-02-17T13:04:53.000Z</time>
      </trkpt>
      <trkpt lat="43.11296" lon="-0.06109">
        <ele>449.20001220703</ele>
        <time>2019-02-17T13:04:55.000Z</time>
      </trkpt>
      <trkpt lat="43.11287" lon="-0.06108">
        <ele>449</ele>
        <time>2019-02-17T13:04:56.000Z</time>
      </trkpt>
      <trkpt lat="43.11278" lon="-0.06107">
        <ele>448.39999389648</ele>
        <time>2019-02-17T13:04:57.000Z</time>
      </trkpt>
      <trkpt lat="43.11268" lon="-0.06108">
        <ele>447</ele>
        <time>2019-02-17T13:04:58.000Z</time>
      </trkpt>
      <trkpt lat="43.11226" lon="-0.06115">
        <ele>443.79998779297</ele>
        <time>2019-02-17T13:05:02.000Z</time>
      </trkpt>
      <trkpt lat="43.11217" lon="-0.06117">
        <ele>442.79998779297</ele>
        <time>2019-02-17T13:05:03.000Z</time>
      </trkpt>
      <trkpt lat="43.11194" lon="-0.06123">
        <ele>440.39999389648</ele>
        <time>2019-02-17T13:05:06.000Z</time>
      </trkpt>
      <trkpt lat="43.11172" lon="-0.06128">
        <ele>439.39999389648</ele>
        <time>2019-02-17T13:05:09.000Z</time>
      </trkpt>
      <trkpt lat="43.1113" lon="-0.06133">
        <ele>438</ele>
        <time>2019-02-17T13:05:15.000Z</time>
      </trkpt>
      <trkpt lat="43.11124" lon="-0.06132">
        <ele>437.79998779297</ele>
        <time>2019-02-17T13:05:16.000Z</time>
      </trkpt>
      <trkpt lat="43.11112" lon="-0.06126">
        <ele>437.79998779297</ele>
        <time>2019-02-17T13:05:18.000Z</time>
      </trkpt>
      <trkpt lat="43.11105" lon="-0.06121">
        <ele>437.79998779297</ele>
        <time>2019-02-17T13:05:19.000Z</time>
      </trkpt>
      <trkpt lat="43.11092" lon="-0.06108">
        <ele>437.79998779297</ele>
        <time>2019-02-17T13:05:21.000Z</time>
      </trkpt>
      <trkpt lat="43.11085" lon="-0.06101">
        <ele>437.60000610352</ele>
        <time>2019-02-17T13:05:22.000Z</time>
      </trkpt>
      <trkpt lat="43.11077" lon="-0.06095">
        <ele>437.39999389648</ele>
        <time>2019-02-17T13:05:23.000Z</time>
      </trkpt>
      <trkpt lat="43.11049" lon="-0.06061">
        <ele>434.20001220703</ele>
        <time>2019-02-17T13:05:28.000Z</time>
      </trkpt>
      <trkpt lat="43.11036" lon="-0.06052">
        <ele>432.39999389648</ele>
        <time>2019-02-17T13:05:30.000Z</time>
      </trkpt>
      <trkpt lat="43.11026" lon="-0.06049">
        <ele>431.60000610352</ele>
        <time>2019-02-17T13:05:32.000Z</time>
      </trkpt>
      <trkpt lat="43.11019" lon="-0.06057">
        <ele>431.20001220703</ele>
        <time>2019-02-17T13:05:34.000Z</time>
      </trkpt>
      <trkpt lat="43.11005" lon="-0.06078">
        <ele>430.79998779297</ele>
        <time>2019-02-17T13:05:39.000Z</time>
      </trkpt>
      <trkpt lat="43.10997" lon="-0.06089">
        <ele>430.39999389648</ele>
        <time>2019-02-17T13:05:42.000Z</time>
      </trkpt>
      <trkpt lat="43.10981" lon="-0.06116">
        <ele>429.20001220703</ele>
        <time>2019-02-17T13:05:50.000Z</time>
      </trkpt>
      <trkpt lat="43.10976" lon="-0.06129">
        <ele>428.79998779297</ele>
        <time>2019-02-17T13:05:53.000Z</time>
      </trkpt>
      <trkpt lat="43.10974" lon="-0.06138">
        <ele>428.60000610352</ele>
        <time>2019-02-17T13:05:55.000Z</time>
      </trkpt>
      <trkpt lat="43.10972" lon="-0.06159">
        <ele>427.60000610352</ele>
        <time>2019-02-17T13:05:59.000Z</time>
      </trkpt>
      <trkpt lat="43.10972" lon="-0.06165">
        <ele>427.39999389648</ele>
        <time>2019-02-17T13:06:00.000Z</time>
      </trkpt>
      <trkpt lat="43.1097" lon="-0.06177">
        <ele>427</ele>
        <time>2019-02-17T13:06:02.000Z</time>
      </trkpt>
      <trkpt lat="43.10968" lon="-0.06184">
        <ele>426.79998779297</ele>
        <time>2019-02-17T13:06:03.000Z</time>
      </trkpt>
      <trkpt lat="43.10937" lon="-0.06244">
        <ele>422.39999389648</ele>
        <time>2019-02-17T13:06:18.000Z</time>
      </trkpt>
      <trkpt lat="43.10924" lon="-0.06254">
        <ele>422</ele>
        <time>2019-02-17T13:06:24.000Z</time>
      </trkpt>
      <trkpt lat="43.10908" lon="-0.06272">
        <ele>420.79998779297</ele>
        <time>2019-02-17T13:06:31.000Z</time>
      </trkpt>
      <trkpt lat="43.10928" lon="-0.06342">
        <ele>419.39999389648</ele>
        <time>2019-02-17T13:06:48.000Z</time>
      </trkpt>
      <trkpt lat="43.10929" lon="-0.06346">
        <ele>419.20001220703</ele>
        <time>2019-02-17T13:06:49.000Z</time>
      </trkpt>
      <trkpt lat="43.10922" lon="-0.06418">
        <ele>418.79998779297</ele>
        <time>2019-02-17T13:07:04.000Z</time>
      </trkpt>
      <trkpt lat="43.10914" lon="-0.06449">
        <ele>418.60000610352</ele>
        <time>2019-02-17T13:07:11.000Z</time>
      </trkpt>
      <trkpt lat="43.10912" lon="-0.06454">
        <ele>418.79998779297</ele>
        <time>2019-02-17T13:07:12.000Z</time>
      </trkpt>
      <trkpt lat="43.10879" lon="-0.06515">
        <ele>418.60000610352</ele>
        <time>2019-02-17T13:07:27.000Z</time>
      </trkpt>
      <trkpt lat="43.10824" lon="-0.06516">
        <ele>418.39999389648</ele>
        <time>2019-02-17T13:07:43.000Z</time>
      </trkpt>
      <trkpt lat="43.10768" lon="-0.06515">
        <ele>418.20001220703</ele>
        <time>2019-02-17T13:07:58.000Z</time>
      </trkpt>
      <trkpt lat="43.10737" lon="-0.06549">
        <ele>418</ele>
        <time>2019-02-17T13:08:09.000Z</time>
      </trkpt>
      <trkpt lat="43.10726" lon="-0.06553">
        <ele>418</ele>
        <time>2019-02-17T13:08:13.000Z</time>
      </trkpt>
      <trkpt lat="43.10724" lon="-0.06561">
        <ele>418.20001220703</ele>
        <time>2019-02-17T13:08:15.000Z</time>
      </trkpt>
      <trkpt lat="43.10737" lon="-0.06599">
        <ele>418.60000610352</ele>
        <time>2019-02-17T13:08:26.000Z</time>
      </trkpt>
      <trkpt lat="43.10746" lon="-0.0662">
        <ele>419.20001220703</ele>
        <time>2019-02-17T13:08:33.000Z</time>
      </trkpt>
      <trkpt lat="43.10751" lon="-0.06635">
        <ele>420</ele>
        <time>2019-02-17T13:08:38.000Z</time>
      </trkpt>
      <trkpt lat="43.10756" lon="-0.06649">
        <ele>420.79998779297</ele>
        <time>2019-02-17T13:08:43.000Z</time>
      </trkpt>
      <trkpt lat="43.10763" lon="-0.06667">
        <ele>422.39999389648</ele>
        <time>2019-02-17T13:08:50.000Z</time>
      </trkpt>
      <trkpt lat="43.10771" lon="-0.06684">
        <ele>423.60000610352</ele>
        <time>2019-02-17T13:08:57.000Z</time>
      </trkpt>
      <trkpt lat="43.1078" lon="-0.06702">
        <ele>425.20001220703</ele>
        <time>2019-02-17T13:09:05.000Z</time>
      </trkpt>
      <trkpt lat="43.10786" lon="-0.06718">
        <ele>426.60000610352</ele>
        <time>2019-02-17T13:09:12.000Z</time>
      </trkpt>
      <trkpt lat="43.10801" lon="-0.06748">
        <ele>428.20001220703</ele>
        <time>2019-02-17T13:09:24.000Z</time>
      </trkpt>
      <trkpt lat="43.10809" lon="-0.068">
        <ele>429.60000610352</ele>
        <time>2019-02-17T13:09:41.000Z</time>
      </trkpt>
      <trkpt lat="43.10812" lon="-0.06808">
        <ele>429.60000610352</ele>
        <time>2019-02-17T13:09:44.000Z</time>
      </trkpt>
      <trkpt lat="43.10794" lon="-0.06879">
        <ele>431.20001220703</ele>
        <time>2019-02-17T13:10:06.000Z</time>
      </trkpt>
      <trkpt lat="43.10791" lon="-0.06886">
        <ele>431</ele>
        <time>2019-02-17T13:10:08.000Z</time>
      </trkpt>
      <trkpt lat="43.10773" lon="-0.06935">
        <ele>431.79998779297</ele>
        <time>2019-02-17T13:10:24.000Z</time>
      </trkpt>
      <trkpt lat="43.10757" lon="-0.06996">
        <ele>433</ele>
        <time>2019-02-17T13:10:42.000Z</time>
      </trkpt>
      <trkpt lat="43.10755" lon="-0.07036">
        <ele>434</ele>
        <time>2019-02-17T13:10:53.000Z</time>
      </trkpt>
      <trkpt lat="43.10758" lon="-0.07078">
        <ele>435.20001220703</ele>
        <time>2019-02-17T13:11:06.000Z</time>
      </trkpt>
      <trkpt lat="43.1076" lon="-0.07104">
        <ele>436</ele>
        <time>2019-02-17T13:11:15.000Z</time>
      </trkpt>
      <trkpt lat="43.10759" lon="-0.07132">
        <ele>437.20001220703</ele>
        <time>2019-02-17T13:11:25.000Z</time>
      </trkpt>
      <trkpt lat="43.10759" lon="-0.0715">
        <ele>437.79998779297</ele>
        <time>2019-02-17T13:11:31.000Z</time>
      </trkpt>
      <trkpt lat="43.10754" lon="-0.07184">
        <ele>439.20001220703</ele>
        <time>2019-02-17T13:11:43.000Z</time>
      </trkpt>
      <trkpt lat="43.10754" lon="-0.07204">
        <ele>440.20001220703</ele>
        <time>2019-02-17T13:11:51.000Z</time>
      </trkpt>
      <trkpt lat="43.10754" lon="-0.07224">
        <ele>441</ele>
        <time>2019-02-17T13:11:57.000Z</time>
      </trkpt>
      <trkpt lat="43.10756" lon="-0.07249">
        <ele>442.39999389648</ele>
        <time>2019-02-17T13:12:06.000Z</time>
      </trkpt>
      <trkpt lat="43.10759" lon="-0.07276">
        <ele>443.79998779297</ele>
        <time>2019-02-17T13:12:16.000Z</time>
      </trkpt>
      <trkpt lat="43.10759" lon="-0.07297">
        <ele>444.60000610352</ele>
        <time>2019-02-17T13:12:25.000Z</time>
      </trkpt>
      <trkpt lat="43.10762" lon="-0.0737">
        <ele>446.39999389648</ele>
        <time>2019-02-17T13:12:45.000Z</time>
      </trkpt>
      <trkpt lat="43.10767" lon="-0.0745">
        <ele>445</ele>
        <time>2019-02-17T13:13:00.000Z</time>
      </trkpt>
      <trkpt lat="43.10777" lon="-0.07497">
        <ele>445</ele>
        <time>2019-02-17T13:13:12.000Z</time>
      </trkpt>
      <trkpt lat="43.10782" lon="-0.07555">
        <ele>446.20001220703</ele>
        <time>2019-02-17T13:13:25.000Z</time>
      </trkpt>
      <trkpt lat="43.10774" lon="-0.07593">
        <ele>446</ele>
        <time>2019-02-17T13:13:31.000Z</time>
      </trkpt>
      <trkpt lat="43.10771" lon="-0.07605">
        <ele>445.60000610352</ele>
        <time>2019-02-17T13:13:33.000Z</time>
      </trkpt>
      <trkpt lat="43.10758" lon="-0.0766">
        <ele>444.39999389648</ele>
        <time>2019-02-17T13:13:41.000Z</time>
      </trkpt>
      <trkpt lat="43.10757" lon="-0.07679">
        <ele>444</ele>
        <time>2019-02-17T13:13:44.000Z</time>
      </trkpt>
      <trkpt lat="43.10757" lon="-0.07685">
        <ele>444</ele>
        <time>2019-02-17T13:13:45.000Z</time>
      </trkpt>
      <trkpt lat="43.1076" lon="-0.07697">
        <ele>443.60000610352</ele>
        <time>2019-02-17T13:13:47.000Z</time>
      </trkpt>
      <trkpt lat="43.10765" lon="-0.07707">
        <ele>443</ele>
        <time>2019-02-17T13:13:49.000Z</time>
      </trkpt>
      <trkpt lat="43.10768" lon="-0.07712">
        <ele>442.79998779297</ele>
        <time>2019-02-17T13:13:50.000Z</time>
      </trkpt>
      <trkpt lat="43.10778" lon="-0.07726">
        <ele>441.60000610352</ele>
        <time>2019-02-17T13:13:53.000Z</time>
      </trkpt>
      <trkpt lat="43.10781" lon="-0.07731">
        <ele>441.60000610352</ele>
        <time>2019-02-17T13:13:54.000Z</time>
      </trkpt>
      <trkpt lat="43.10783" lon="-0.07736">
        <ele>441.20001220703</ele>
        <time>2019-02-17T13:13:55.000Z</time>
      </trkpt>
      <trkpt lat="43.10806" lon="-0.07777">
        <ele>440.20001220703</ele>
        <time>2019-02-17T13:14:05.000Z</time>
      </trkpt>
      <trkpt lat="43.1083" lon="-0.07835">
        <ele>442</ele>
        <time>2019-02-17T13:14:21.000Z</time>
      </trkpt>
      <trkpt lat="43.10868" lon="-0.07893">
        <ele>443.20001220703</ele>
        <time>2019-02-17T13:14:39.000Z</time>
      </trkpt>
      <trkpt lat="43.1089" lon="-0.07919">
        <ele>442.79998779297</ele>
        <time>2019-02-17T13:14:47.000Z</time>
      </trkpt>
      <trkpt lat="43.10911" lon="-0.0797">
        <ele>441.60000610352</ele>
        <time>2019-02-17T13:15:01.000Z</time>
      </trkpt>
      <trkpt lat="43.10916" lon="-0.08006">
        <ele>442.39999389648</ele>
        <time>2019-02-17T13:15:09.000Z</time>
      </trkpt>
      <trkpt lat="43.10924" lon="-0.0804">
        <ele>443.60000610352</ele>
        <time>2019-02-17T13:15:19.000Z</time>
      </trkpt>
      <trkpt lat="43.10928" lon="-0.08073">
        <ele>444.79998779297</ele>
        <time>2019-02-17T13:15:29.000Z</time>
      </trkpt>
      <trkpt lat="43.10933" lon="-0.0811">
        <ele>446.39999389648</ele>
        <time>2019-02-17T13:15:40.000Z</time>
      </trkpt>
      <trkpt lat="43.10937" lon="-0.08125">
        <ele>447</ele>
        <time>2019-02-17T13:15:45.000Z</time>
      </trkpt>
      <trkpt lat="43.10953" lon="-0.08196">
        <ele>448.79998779297</ele>
        <time>2019-02-17T13:16:06.000Z</time>
      </trkpt>
      <trkpt lat="43.10954" lon="-0.08199">
        <ele>448.79998779297</ele>
        <time>2019-02-17T13:16:07.000Z</time>
      </trkpt>
      <trkpt lat="43.10985" lon="-0.08261">
        <ele>450.20001220703</ele>
        <time>2019-02-17T13:16:28.000Z</time>
      </trkpt>
      <trkpt lat="43.10991" lon="-0.08269">
        <ele>450.20001220703</ele>
        <time>2019-02-17T13:16:31.000Z</time>
      </trkpt>
      <trkpt lat="43.11022" lon="-0.08284">
        <ele>451.20001220703</ele>
        <time>2019-02-17T13:16:44.000Z</time>
      </trkpt>
      <trkpt lat="43.11061" lon="-0.08282">
        <ele>452.39999389648</ele>
        <time>2019-02-17T13:16:58.000Z</time>
      </trkpt>
      <trkpt lat="43.11064" lon="-0.08277">
        <ele>452.60000610352</ele>
        <time>2019-02-17T13:17:00.000Z</time>
      </trkpt>
      <trkpt lat="43.11065" lon="-0.0827">
        <ele>452.60000610352</ele>
        <time>2019-02-17T13:17:02.000Z</time>
      </trkpt>
      <trkpt lat="43.11061" lon="-0.08257">
        <ele>453</ele>
        <time>2019-02-17T13:17:07.000Z</time>
      </trkpt>
      <trkpt lat="43.11059" lon="-0.08245">
        <ele>454</ele>
        <time>2019-02-17T13:17:12.000Z</time>
      </trkpt>
      <trkpt lat="43.11058" lon="-0.08235">
        <ele>455.60000610352</ele>
        <time>2019-02-17T13:17:18.000Z</time>
      </trkpt>
      <trkpt lat="43.11058" lon="-0.08233">
        <ele>455.60000610352</ele>
        <time>2019-02-17T13:17:19.000Z</time>
      </trkpt>
      <trkpt lat="43.11059" lon="-0.08226">
        <ele>456.60000610352</ele>
        <time>2019-02-17T13:17:24.000Z</time>
      </trkpt>
      <trkpt lat="43.11062" lon="-0.08213">
        <ele>457.39999389648</ele>
        <time>2019-02-17T13:17:31.000Z</time>
      </trkpt>
      <trkpt lat="43.1107" lon="-0.08171">
        <ele>458.79998779297</ele>
        <time>2019-02-17T13:17:48.000Z</time>
      </trkpt>
      <trkpt lat="43.11077" lon="-0.08135">
        <ele>460</ele>
        <time>2019-02-17T13:18:03.000Z</time>
      </trkpt>
      <trkpt lat="43.11081" lon="-0.08123">
        <ele>460.39999389648</ele>
        <time>2019-02-17T13:18:09.000Z</time>
      </trkpt>
      <trkpt lat="43.11083" lon="-0.08107">
        <ele>461.60000610352</ele>
        <time>2019-02-17T13:18:17.000Z</time>
      </trkpt>
      <trkpt lat="43.11084" lon="-0.08096">
        <ele>462.60000610352</ele>
        <time>2019-02-17T13:18:24.000Z</time>
      </trkpt>
      <trkpt lat="43.11089" lon="-0.08081">
        <ele>463.60000610352</ele>
        <time>2019-02-17T13:18:33.000Z</time>
      </trkpt>
      <trkpt lat="43.11094" lon="-0.08064">
        <ele>465</ele>
        <time>2019-02-17T13:18:43.000Z</time>
      </trkpt>
      <trkpt lat="43.11098" lon="-0.08049">
        <ele>465.79998779297</ele>
        <time>2019-02-17T13:18:50.000Z</time>
      </trkpt>
      <trkpt lat="43.111" lon="-0.08016">
        <ele>468</ele>
        <time>2019-02-17T13:19:04.000Z</time>
      </trkpt>
      <trkpt lat="43.11092" lon="-0.07942">
        <ele>468.39999389648</ele>
        <time>2019-02-17T13:19:29.000Z</time>
      </trkpt>
      <trkpt lat="43.11117" lon="-0.07894">
        <ele>469.39999389648</ele>
        <time>2019-02-17T13:19:48.000Z</time>
      </trkpt>
      <trkpt lat="43.11122" lon="-0.07881">
        <ele>469.60000610352</ele>
        <time>2019-02-17T13:19:54.000Z</time>
      </trkpt>
      <trkpt lat="43.11123" lon="-0.0785">
        <ele>471.20001220703</ele>
        <time>2019-02-17T13:20:05.000Z</time>
      </trkpt>
      <trkpt lat="43.11127" lon="-0.07835">
        <ele>471.79998779297</ele>
        <time>2019-02-17T13:20:12.000Z</time>
      </trkpt>
      <trkpt lat="43.11155" lon="-0.07821">
        <ele>474.39999389648</ele>
        <time>2019-02-17T13:20:27.000Z</time>
      </trkpt>
      <trkpt lat="43.11162" lon="-0.07815">
        <ele>474.39999389648</ele>
        <time>2019-02-17T13:20:31.000Z</time>
      </trkpt>
      <trkpt lat="43.11168" lon="-0.07816">
        <ele>474.79998779297</ele>
        <time>2019-02-17T13:20:34.000Z</time>
      </trkpt>
      <trkpt lat="43.11175" lon="-0.07823">
        <ele>475.20001220703</ele>
        <time>2019-02-17T13:20:38.000Z</time>
      </trkpt>
      <trkpt lat="43.11177" lon="-0.07824">
        <ele>475.60000610352</ele>
        <time>2019-02-17T13:20:39.000Z</time>
      </trkpt>
      <trkpt lat="43.11194" lon="-0.07856">
        <ele>480.20001220703</ele>
        <time>2019-02-17T13:20:53.000Z</time>
      </trkpt>
      <trkpt lat="43.11202" lon="-0.07879">
        <ele>481.20001220703</ele>
        <time>2019-02-17T13:21:02.000Z</time>
      </trkpt>
      <trkpt lat="43.11207" lon="-0.07899">
        <ele>482.20001220703</ele>
        <time>2019-02-17T13:21:10.000Z</time>
      </trkpt>
      <trkpt lat="43.11212" lon="-0.07913">
        <ele>483</ele>
        <time>2019-02-17T13:21:16.000Z</time>
      </trkpt>
      <trkpt lat="43.11212" lon="-0.07917">
        <ele>483.39999389648</ele>
        <time>2019-02-17T13:21:18.000Z</time>
      </trkpt>
      <trkpt lat="43.11212" lon="-0.07926">
        <ele>484.60000610352</ele>
        <time>2019-02-17T13:21:22.000Z</time>
      </trkpt>
      <trkpt lat="43.11213" lon="-0.07934">
        <ele>485.39999389648</ele>
        <time>2019-02-17T13:21:25.000Z</time>
      </trkpt>
      <trkpt lat="43.11217" lon="-0.07963">
        <ele>487.79998779297</ele>
        <time>2019-02-17T13:21:34.000Z</time>
      </trkpt>
      <trkpt lat="43.11219" lon="-0.07974">
        <ele>488.60000610352</ele>
        <time>2019-02-17T13:21:38.000Z</time>
      </trkpt>
      <trkpt lat="43.11223" lon="-0.07985">
        <ele>489.20001220703</ele>
        <time>2019-02-17T13:21:42.000Z</time>
      </trkpt>
      <trkpt lat="43.11227" lon="-0.07993">
        <ele>489.79998779297</ele>
        <time>2019-02-17T13:21:45.000Z</time>
      </trkpt>
      <trkpt lat="43.1124" lon="-0.08013">
        <ele>491.20001220703</ele>
        <time>2019-02-17T13:21:53.000Z</time>
      </trkpt>
      <trkpt lat="43.11259" lon="-0.08056">
        <ele>492.60000610352</ele>
        <time>2019-02-17T13:22:09.000Z</time>
      </trkpt>
      <trkpt lat="43.11263" lon="-0.08072">
        <ele>493.20001220703</ele>
        <time>2019-02-17T13:22:15.000Z</time>
      </trkpt>
      <trkpt lat="43.11266" lon="-0.08081">
        <ele>493.60000610352</ele>
        <time>2019-02-17T13:22:18.000Z</time>
      </trkpt>
      <trkpt lat="43.1127" lon="-0.08094">
        <ele>494.60000610352</ele>
        <time>2019-02-17T13:22:23.000Z</time>
      </trkpt>
      <trkpt lat="43.11275" lon="-0.08104">
        <ele>496.39999389648</ele>
        <time>2019-02-17T13:22:27.000Z</time>
      </trkpt>
      <trkpt lat="43.1128" lon="-0.0811">
        <ele>497</ele>
        <time>2019-02-17T13:22:30.000Z</time>
      </trkpt>
      <trkpt lat="43.11293" lon="-0.08123">
        <ele>499.39999389648</ele>
        <time>2019-02-17T13:22:38.000Z</time>
      </trkpt>
      <trkpt lat="43.11302" lon="-0.08126">
        <ele>500.39999389648</ele>
        <time>2019-02-17T13:22:43.000Z</time>
      </trkpt>
      <trkpt lat="43.11308" lon="-0.08126">
        <ele>501</ele>
        <time>2019-02-17T13:22:46.000Z</time>
      </trkpt>
      <trkpt lat="43.11327" lon="-0.08118">
        <ele>502.60000610352</ele>
        <time>2019-02-17T13:22:53.000Z</time>
      </trkpt>
      <trkpt lat="43.1138" lon="-0.08097">
        <ele>503</ele>
        <time>2019-02-17T13:23:11.000Z</time>
      </trkpt>
      <trkpt lat="43.11391" lon="-0.08077">
        <ele>503</ele>
        <time>2019-02-17T13:23:18.000Z</time>
      </trkpt>
      <trkpt lat="43.11393" lon="-0.08068">
        <ele>503.20001220703</ele>
        <time>2019-02-17T13:23:21.000Z</time>
      </trkpt>
      <trkpt lat="43.11401" lon="-0.08047">
        <ele>505</ele>
        <time>2019-02-17T13:23:28.000Z</time>
      </trkpt>
      <trkpt lat="43.11424" lon="-0.08014">
        <ele>508</ele>
        <time>2019-02-17T13:23:40.000Z</time>
      </trkpt>
      <trkpt lat="43.11435" lon="-0.08009">
        <ele>509.20001220703</ele>
        <time>2019-02-17T13:23:49.000Z</time>
      </trkpt>
      <trkpt lat="43.11438" lon="-0.08012">
        <ele>510.79998779297</ele>
        <time>2019-02-17T13:28:45.000Z</time>
      </trkpt>
      <trkpt lat="43.11438" lon="-0.08009">
        <ele>510.79998779297</ele>
        <time>2019-02-17T13:28:47.000Z</time>
      </trkpt>
      <trkpt lat="43.11439" lon="-0.08008">
        <ele>510.60000610352</ele>
        <time>2019-02-17T13:28:50.000Z</time>
      </trkpt>
      <trkpt lat="43.11577" lon="-0.0789">
        <ele>482.39999389648</ele>
        <time>2019-02-17T13:36:13.000Z</time>
      </trkpt>
      <trkpt lat="43.11586" lon="-0.07889">
        <ele>482.39999389648</ele>
        <time>2019-02-17T13:36:16.000Z</time>
      </trkpt>
      <trkpt lat="43.1159" lon="-0.07889">
        <ele>482.20001220703</ele>
        <time>2019-02-17T13:36:17.000Z</time>
      </trkpt>
      <trkpt lat="43.11595" lon="-0.07888">
        <ele>482</ele>
        <time>2019-02-17T13:36:18.000Z</time>
      </trkpt>
      <trkpt lat="43.11599" lon="-0.07887">
        <ele>481.79998779297</ele>
        <time>2019-02-17T13:36:19.000Z</time>
      </trkpt>
      <trkpt lat="43.11603" lon="-0.07887">
        <ele>481.60000610352</ele>
        <time>2019-02-17T13:36:20.000Z</time>
      </trkpt>
      <trkpt lat="43.11633" lon="-0.07889">
        <ele>477.79998779297</ele>
        <time>2019-02-17T13:36:29.000Z</time>
      </trkpt>
      <trkpt lat="43.11639" lon="-0.07889">
        <ele>477.39999389648</ele>
        <time>2019-02-17T13:36:31.000Z</time>
      </trkpt>
      <trkpt lat="43.11666" lon="-0.07887">
        <ele>476.60000610352</ele>
        <time>2019-02-17T13:36:41.000Z</time>
      </trkpt>
      <trkpt lat="43.11719" lon="-0.0791">
        <ele>476</ele>
        <time>2019-02-17T13:37:00.000Z</time>
      </trkpt>
      <trkpt lat="43.11732" lon="-0.07914">
        <ele>475.79998779297</ele>
        <time>2019-02-17T13:37:05.000Z</time>
      </trkpt>
      <trkpt lat="43.11735" lon="-0.07914">
        <ele>475.79998779297</ele>
        <time>2019-02-17T13:37:06.000Z</time>
      </trkpt>
      <trkpt lat="43.11743" lon="-0.07914">
        <ele>475.60000610352</ele>
        <time>2019-02-17T13:37:09.000Z</time>
      </trkpt>
      <trkpt lat="43.11745" lon="-0.07914">
        <ele>475.39999389648</ele>
        <time>2019-02-17T13:37:12.000Z</time>
      </trkpt>
      <trkpt lat="43.11748" lon="-0.07913">
        <ele>475.20001220703</ele>
        <time>2019-02-17T13:37:17.000Z</time>
      </trkpt>
      <trkpt lat="43.11757" lon="-0.07909">
        <ele>474.79998779297</ele>
        <time>2019-02-17T13:37:21.000Z</time>
      </trkpt>
      <trkpt lat="43.1176" lon="-0.07908">
        <ele>474.79998779297</ele>
        <time>2019-02-17T13:37:22.000Z</time>
      </trkpt>
      <trkpt lat="43.11784" lon="-0.07899">
        <ele>474.79998779297</ele>
        <time>2019-02-17T13:37:30.000Z</time>
      </trkpt>
      <trkpt lat="43.11798" lon="-0.07894">
        <ele>474.79998779297</ele>
        <time>2019-02-17T13:37:35.000Z</time>
      </trkpt>
      <trkpt lat="43.11807" lon="-0.0789">
        <ele>474.79998779297</ele>
        <time>2019-02-17T13:37:38.000Z</time>
      </trkpt>
      <trkpt lat="43.11853" lon="-0.07886">
        <ele>472.39999389648</ele>
        <time>2019-02-17T13:37:54.000Z</time>
      </trkpt>
      <trkpt lat="43.11861" lon="-0.07881">
        <ele>472.20001220703</ele>
        <time>2019-02-17T13:37:57.000Z</time>
      </trkpt>
      <trkpt lat="43.11876" lon="-0.07866">
        <ele>471.79998779297</ele>
        <time>2019-02-17T13:38:02.000Z</time>
      </trkpt>
      <trkpt lat="43.11885" lon="-0.07854">
        <ele>471.20001220703</ele>
        <time>2019-02-17T13:38:05.000Z</time>
      </trkpt>
      <trkpt lat="43.11888" lon="-0.07849">
        <ele>471</ele>
        <time>2019-02-17T13:38:06.000Z</time>
      </trkpt>
      <trkpt lat="43.11899" lon="-0.07835">
        <ele>470.39999389648</ele>
        <time>2019-02-17T13:38:09.000Z</time>
      </trkpt>
      <trkpt lat="43.11926" lon="-0.07795">
        <ele>469</ele>
        <time>2019-02-17T13:38:17.000Z</time>
      </trkpt>
      <trkpt lat="43.11929" lon="-0.0779">
        <ele>468.79998779297</ele>
        <time>2019-02-17T13:38:18.000Z</time>
      </trkpt>
      <trkpt lat="43.11947" lon="-0.07776">
        <ele>467.60000610352</ele>
        <time>2019-02-17T13:38:23.000Z</time>
      </trkpt>
      <trkpt lat="43.11953" lon="-0.07772">
        <ele>466.39999389648</ele>
        <time>2019-02-17T13:38:29.000Z</time>
      </trkpt>
      <trkpt lat="43.11962" lon="-0.07774">
        <ele>465.79998779297</ele>
        <time>2019-02-17T13:38:52.000Z</time>
      </trkpt>
      <trkpt lat="43.11977" lon="-0.07766">
        <ele>465.79998779297</ele>
        <time>2019-02-17T13:38:58.000Z</time>
      </trkpt>
      <trkpt lat="43.11986" lon="-0.07761">
        <ele>465.79998779297</ele>
        <time>2019-02-17T13:39:03.000Z</time>
      </trkpt>
      <trkpt lat="43.11989" lon="-0.07758">
        <ele>465.79998779297</ele>
        <time>2019-02-17T13:39:05.000Z</time>
      </trkpt>
      <trkpt lat="43.11992" lon="-0.07755">
        <ele>466</ele>
        <time>2019-02-17T13:39:07.000Z</time>
      </trkpt>
      <trkpt lat="43.11994" lon="-0.07754">
        <ele>466.39999389648</ele>
        <time>2019-02-17T13:39:08.000Z</time>
      </trkpt>
      <trkpt lat="43.12015" lon="-0.07736">
        <ele>467.79998779297</ele>
        <time>2019-02-17T13:39:17.000Z</time>
      </trkpt>
      <trkpt lat="43.12027" lon="-0.07725">
        <ele>467.79998779297</ele>
        <time>2019-02-17T13:39:22.000Z</time>
      </trkpt>
      <trkpt lat="43.12038" lon="-0.0771">
        <ele>467.20001220703</ele>
        <time>2019-02-17T13:39:27.000Z</time>
      </trkpt>
      <trkpt lat="43.12042" lon="-0.07701">
        <ele>466.79998779297</ele>
        <time>2019-02-17T13:39:29.000Z</time>
      </trkpt>
      <trkpt lat="43.12052" lon="-0.07688">
        <ele>465.79998779297</ele>
        <time>2019-02-17T13:39:33.000Z</time>
      </trkpt>
      <trkpt lat="43.12061" lon="-0.07688">
        <ele>464.79998779297</ele>
        <time>2019-02-17T13:39:36.000Z</time>
      </trkpt>
      <trkpt lat="43.12067" lon="-0.0769">
        <ele>463.39999389648</ele>
        <time>2019-02-17T13:39:38.000Z</time>
      </trkpt>
      <trkpt lat="43.12077" lon="-0.07695">
        <ele>462</ele>
        <time>2019-02-17T13:39:41.000Z</time>
      </trkpt>
      <trkpt lat="43.12089" lon="-0.07698">
        <ele>460.39999389648</ele>
        <time>2019-02-17T13:39:44.000Z</time>
      </trkpt>
      <trkpt lat="43.12105" lon="-0.07704">
        <ele>457</ele>
        <time>2019-02-17T13:39:50.000Z</time>
      </trkpt>
      <trkpt lat="43.12107" lon="-0.07704">
        <ele>456.39999389648</ele>
        <time>2019-02-17T13:39:51.000Z</time>
      </trkpt>
      <trkpt lat="43.1211" lon="-0.07702">
        <ele>456</ele>
        <time>2019-02-17T13:39:52.000Z</time>
      </trkpt>
      <trkpt lat="43.12113" lon="-0.07699">
        <ele>455.20001220703</ele>
        <time>2019-02-17T13:39:53.000Z</time>
      </trkpt>
      <trkpt lat="43.12126" lon="-0.07685">
        <ele>454</ele>
        <time>2019-02-17T13:39:56.000Z</time>
      </trkpt>
      <trkpt lat="43.12131" lon="-0.07679">
        <ele>453.79998779297</ele>
        <time>2019-02-17T13:39:57.000Z</time>
      </trkpt>
      <trkpt lat="43.12148" lon="-0.0765">
        <ele>451.60000610352</ele>
        <time>2019-02-17T13:40:01.000Z</time>
      </trkpt>
      <trkpt lat="43.12165" lon="-0.0762">
        <ele>448.20001220703</ele>
        <time>2019-02-17T13:40:05.000Z</time>
      </trkpt>
      <trkpt lat="43.12169" lon="-0.07614">
        <ele>447.60000610352</ele>
        <time>2019-02-17T13:40:06.000Z</time>
      </trkpt>
      <trkpt lat="43.12173" lon="-0.07607">
        <ele>447.39999389648</ele>
        <time>2019-02-17T13:40:07.000Z</time>
      </trkpt>
      <trkpt lat="43.12181" lon="-0.07598">
        <ele>446.60000610352</ele>
        <time>2019-02-17T13:40:09.000Z</time>
      </trkpt>
      <trkpt lat="43.12188" lon="-0.07596">
        <ele>446.20001220703</ele>
        <time>2019-02-17T13:40:11.000Z</time>
      </trkpt>
      <trkpt lat="43.12194" lon="-0.07602">
        <ele>445.79998779297</ele>
        <time>2019-02-17T13:40:13.000Z</time>
      </trkpt>
      <trkpt lat="43.12204" lon="-0.07619">
        <ele>445.60000610352</ele>
        <time>2019-02-17T13:40:16.000Z</time>
      </trkpt>
      <trkpt lat="43.12209" lon="-0.07625">
        <ele>445.39999389648</ele>
        <time>2019-02-17T13:40:17.000Z</time>
      </trkpt>
      <trkpt lat="43.12217" lon="-0.07634">
        <ele>445.20001220703</ele>
        <time>2019-02-17T13:40:19.000Z</time>
      </trkpt>
      <trkpt lat="43.12221" lon="-0.07636">
        <ele>445.20001220703</ele>
        <time>2019-02-17T13:40:20.000Z</time>
      </trkpt>
      <trkpt lat="43.12227" lon="-0.07637">
        <ele>445</ele>
        <time>2019-02-17T13:40:21.000Z</time>
      </trkpt>
      <trkpt lat="43.12236" lon="-0.07633">
        <ele>444.60000610352</ele>
        <time>2019-02-17T13:40:23.000Z</time>
      </trkpt>
      <trkpt lat="43.12245" lon="-0.07625">
        <ele>444</ele>
        <time>2019-02-17T13:40:25.000Z</time>
      </trkpt>
      <trkpt lat="43.12259" lon="-0.07607">
        <ele>441.60000610352</ele>
        <time>2019-02-17T13:40:28.000Z</time>
      </trkpt>
      <trkpt lat="43.12262" lon="-0.07603">
        <ele>441</ele>
        <time>2019-02-17T13:40:29.000Z</time>
      </trkpt>
      <trkpt lat="43.12277" lon="-0.07593">
        <ele>438.60000610352</ele>
        <time>2019-02-17T13:40:33.000Z</time>
      </trkpt>
      <trkpt lat="43.12292" lon="-0.0759">
        <ele>438</ele>
        <time>2019-02-17T13:40:36.000Z</time>
      </trkpt>
      <trkpt lat="43.12298" lon="-0.0759">
        <ele>438.20001220703</ele>
        <time>2019-02-17T13:40:37.000Z</time>
      </trkpt>
      <trkpt lat="43.12347" lon="-0.0759">
        <ele>435.79998779297</ele>
        <time>2019-02-17T13:40:48.000Z</time>
      </trkpt>
      <trkpt lat="43.12355" lon="-0.07589">
        <ele>435.60000610352</ele>
        <time>2019-02-17T13:40:50.000Z</time>
      </trkpt>
      <trkpt lat="43.1238" lon="-0.07588">
        <ele>435.20001220703</ele>
        <time>2019-02-17T13:40:55.000Z</time>
      </trkpt>
      <trkpt lat="43.12392" lon="-0.07585">
        <ele>435.20001220703</ele>
        <time>2019-02-17T13:40:57.000Z</time>
      </trkpt>
      <trkpt lat="43.12411" lon="-0.07581">
        <ele>435</ele>
        <time>2019-02-17T13:41:00.000Z</time>
      </trkpt>
      <trkpt lat="43.12424" lon="-0.07577">
        <ele>434.60000610352</ele>
        <time>2019-02-17T13:41:02.000Z</time>
      </trkpt>
      <trkpt lat="43.1243" lon="-0.07574">
        <ele>434.39999389648</ele>
        <time>2019-02-17T13:41:03.000Z</time>
      </trkpt>
      <trkpt lat="43.12453" lon="-0.07556">
        <ele>432.39999389648</ele>
        <time>2019-02-17T13:41:07.000Z</time>
      </trkpt>
      <trkpt lat="43.12497" lon="-0.07509">
        <ele>430.60000610352</ele>
        <time>2019-02-17T13:41:17.000Z</time>
      </trkpt>
      <trkpt lat="43.12501" lon="-0.07504">
        <ele>430.60000610352</ele>
        <time>2019-02-17T13:41:18.000Z</time>
      </trkpt>
      <trkpt lat="43.12549" lon="-0.07459">
        <ele>430.79998779297</ele>
        <time>2019-02-17T13:41:29.000Z</time>
      </trkpt>
      <trkpt lat="43.12566" lon="-0.07438">
        <ele>431</ele>
        <time>2019-02-17T13:41:34.000Z</time>
      </trkpt>
      <trkpt lat="43.12572" lon="-0.0743">
        <ele>431</ele>
        <time>2019-02-17T13:41:36.000Z</time>
      </trkpt>
      <trkpt lat="43.12582" lon="-0.07416">
        <ele>431.39999389648</ele>
        <time>2019-02-17T13:41:40.000Z</time>
      </trkpt>
      <trkpt lat="43.12592" lon="-0.07399">
        <ele>433</ele>
        <time>2019-02-17T13:41:46.000Z</time>
      </trkpt>
      <trkpt lat="43.12599" lon="-0.07384">
        <ele>434.60000610352</ele>
        <time>2019-02-17T13:41:52.000Z</time>
      </trkpt>
      <trkpt lat="43.12603" lon="-0.07375">
        <ele>435.60000610352</ele>
        <time>2019-02-17T13:41:57.000Z</time>
      </trkpt>
      <trkpt lat="43.12609" lon="-0.07366">
        <ele>436.60000610352</ele>
        <time>2019-02-17T13:42:02.000Z</time>
      </trkpt>
      <trkpt lat="43.12619" lon="-0.07353">
        <ele>439</ele>
        <time>2019-02-17T13:42:11.000Z</time>
      </trkpt>
      <trkpt lat="43.12626" lon="-0.07342">
        <ele>439.60000610352</ele>
        <time>2019-02-17T13:42:18.000Z</time>
      </trkpt>
      <trkpt lat="43.12628" lon="-0.07339">
        <ele>440.20001220703</ele>
        <time>2019-02-17T13:42:20.000Z</time>
      </trkpt>
      <trkpt lat="43.12634" lon="-0.0733">
        <ele>440.79998779297</ele>
        <time>2019-02-17T13:42:25.000Z</time>
      </trkpt>
      <trkpt lat="43.12642" lon="-0.0731">
        <ele>442.60000610352</ele>
        <time>2019-02-17T13:42:35.000Z</time>
      </trkpt>
      <trkpt lat="43.12655" lon="-0.07269">
        <ele>443.79998779297</ele>
        <time>2019-02-17T13:42:52.000Z</time>
      </trkpt>
      <trkpt lat="43.12661" lon="-0.07248">
        <ele>444.60000610352</ele>
        <time>2019-02-17T13:43:00.000Z</time>
      </trkpt>
      <trkpt lat="43.12672" lon="-0.07228">
        <ele>446</ele>
        <time>2019-02-17T13:43:09.000Z</time>
      </trkpt>
      <trkpt lat="43.127" lon="-0.07173">
        <ele>447.20001220703</ele>
        <time>2019-02-17T13:43:26.000Z</time>
      </trkpt>
      <trkpt lat="43.12708" lon="-0.07149">
        <ele>446.79998779297</ele>
        <time>2019-02-17T13:43:31.000Z</time>
      </trkpt>
      <trkpt lat="43.12707" lon="-0.07099">
        <ele>446.20001220703</ele>
        <time>2019-02-17T13:43:41.000Z</time>
      </trkpt>
      <trkpt lat="43.12704" lon="-0.07074">
        <ele>446.39999389648</ele>
        <time>2019-02-17T13:43:46.000Z</time>
      </trkpt>
      <trkpt lat="43.12717" lon="-0.07003">
        <ele>446.60000610352</ele>
        <time>2019-02-17T13:44:01.000Z</time>
      </trkpt>
      <trkpt lat="43.12718" lon="-0.06997">
        <ele>446.79998779297</ele>
        <time>2019-02-17T13:44:02.000Z</time>
      </trkpt>
      <trkpt lat="43.12731" lon="-0.06953">
        <ele>448</ele>
        <time>2019-02-17T13:44:12.000Z</time>
      </trkpt>
      <trkpt lat="43.12739" lon="-0.0694">
        <ele>448.60000610352</ele>
        <time>2019-02-17T13:44:16.000Z</time>
      </trkpt>
      <trkpt lat="43.12747" lon="-0.06926">
        <ele>449.20001220703</ele>
        <time>2019-02-17T13:44:21.000Z</time>
      </trkpt>
      <trkpt lat="43.12753" lon="-0.06916">
        <ele>450.20001220703</ele>
        <time>2019-02-17T13:44:25.000Z</time>
      </trkpt>
      <trkpt lat="43.12766" lon="-0.06895">
        <ele>452.79998779297</ele>
        <time>2019-02-17T13:44:34.000Z</time>
      </trkpt>
      <trkpt lat="43.12772" lon="-0.06887">
        <ele>453.39999389648</ele>
        <time>2019-02-17T13:44:38.000Z</time>
      </trkpt>
      <trkpt lat="43.12777" lon="-0.06879">
        <ele>454</ele>
        <time>2019-02-17T13:44:42.000Z</time>
      </trkpt>
      <trkpt lat="43.12783" lon="-0.06871">
        <ele>455</ele>
        <time>2019-02-17T13:44:46.000Z</time>
      </trkpt>
      <trkpt lat="43.12787" lon="-0.06854">
        <ele>457</ele>
        <time>2019-02-17T13:44:53.000Z</time>
      </trkpt>
      <trkpt lat="43.12791" lon="-0.06841">
        <ele>458.20001220703</ele>
        <time>2019-02-17T13:44:58.000Z</time>
      </trkpt>
      <trkpt lat="43.12794" lon="-0.06834">
        <ele>458.79998779297</ele>
        <time>2019-02-17T13:45:01.000Z</time>
      </trkpt>
      <trkpt lat="43.12801" lon="-0.06824">
        <ele>460.20001220703</ele>
        <time>2019-02-17T13:45:06.000Z</time>
      </trkpt>
      <trkpt lat="43.12809" lon="-0.06814">
        <ele>462</ele>
        <time>2019-02-17T13:45:11.000Z</time>
      </trkpt>
      <trkpt lat="43.12816" lon="-0.06805">
        <ele>463</ele>
        <time>2019-02-17T13:45:15.000Z</time>
      </trkpt>
      <trkpt lat="43.12822" lon="-0.06778">
        <ele>466.79998779297</ele>
        <time>2019-02-17T13:45:25.000Z</time>
      </trkpt>
      <trkpt lat="43.12822" lon="-0.06775">
        <ele>466.79998779297</ele>
        <time>2019-02-17T13:45:26.000Z</time>
      </trkpt>
      <trkpt lat="43.12823" lon="-0.06763">
        <ele>467</ele>
        <time>2019-02-17T13:45:30.000Z</time>
      </trkpt>
      <trkpt lat="43.12824" lon="-0.06758">
        <ele>467.39999389648</ele>
        <time>2019-02-17T13:45:32.000Z</time>
      </trkpt>
      <trkpt lat="43.12826" lon="-0.06752">
        <ele>468.39999389648</ele>
        <time>2019-02-17T13:45:35.000Z</time>
      </trkpt>
      <trkpt lat="43.12833" lon="-0.06743">
        <ele>470.79998779297</ele>
        <time>2019-02-17T13:45:41.000Z</time>
      </trkpt>
      <trkpt lat="43.12838" lon="-0.06737">
        <ele>471.20001220703</ele>
        <time>2019-02-17T13:45:44.000Z</time>
      </trkpt>
      <trkpt lat="43.12843" lon="-0.0673">
        <ele>472</ele>
        <time>2019-02-17T13:45:48.000Z</time>
      </trkpt>
      <trkpt lat="43.12846" lon="-0.06725">
        <ele>473.20001220703</ele>
        <time>2019-02-17T13:45:51.000Z</time>
      </trkpt>
      <trkpt lat="43.12852" lon="-0.06716">
        <ele>474.60000610352</ele>
        <time>2019-02-17T13:45:57.000Z</time>
      </trkpt>
      <trkpt lat="43.12856" lon="-0.06711">
        <ele>475.79998779297</ele>
        <time>2019-02-17T13:46:00.000Z</time>
      </trkpt>
      <trkpt lat="43.12866" lon="-0.06699">
        <ele>477.20001220703</ele>
        <time>2019-02-17T13:46:07.000Z</time>
      </trkpt>
      <trkpt lat="43.1287" lon="-0.06694">
        <ele>478.60000610352</ele>
        <time>2019-02-17T13:46:10.000Z</time>
      </trkpt>
      <trkpt lat="43.12879" lon="-0.06688">
        <ele>480</ele>
        <time>2019-02-17T13:46:16.000Z</time>
      </trkpt>
      <trkpt lat="43.12886" lon="-0.06681">
        <ele>481.20001220703</ele>
        <time>2019-02-17T13:46:20.000Z</time>
      </trkpt>
      <trkpt lat="43.12887" lon="-0.06678">
        <ele>481.39999389648</ele>
        <time>2019-02-17T13:46:21.000Z</time>
      </trkpt>
      <trkpt lat="43.1289" lon="-0.06672">
        <ele>482.20001220703</ele>
        <time>2019-02-17T13:46:24.000Z</time>
      </trkpt>
      <trkpt lat="43.12894" lon="-0.06661">
        <ele>483.60000610352</ele>
        <time>2019-02-17T13:46:29.000Z</time>
      </trkpt>
      <trkpt lat="43.12895" lon="-0.06657">
        <ele>483.79998779297</ele>
        <time>2019-02-17T13:46:31.000Z</time>
      </trkpt>
      <trkpt lat="43.12897" lon="-0.06654">
        <ele>484.60000610352</ele>
        <time>2019-02-17T13:46:33.000Z</time>
      </trkpt>
      <trkpt lat="43.12899" lon="-0.06651">
        <ele>485</ele>
        <time>2019-02-17T13:46:35.000Z</time>
      </trkpt>
      <trkpt lat="43.12904" lon="-0.06643">
        <ele>486</ele>
        <time>2019-02-17T13:46:40.000Z</time>
      </trkpt>
      <trkpt lat="43.12906" lon="-0.06639">
        <ele>486.79998779297</ele>
        <time>2019-02-17T13:46:43.000Z</time>
      </trkpt>
      <trkpt lat="43.12911" lon="-0.06631">
        <ele>487.79998779297</ele>
        <time>2019-02-17T13:46:48.000Z</time>
      </trkpt>
      <trkpt lat="43.12916" lon="-0.06625">
        <ele>489.60000610352</ele>
        <time>2019-02-17T13:46:52.000Z</time>
      </trkpt>
      <trkpt lat="43.12919" lon="-0.06621">
        <ele>490.20001220703</ele>
        <time>2019-02-17T13:46:55.000Z</time>
      </trkpt>
      <trkpt lat="43.12923" lon="-0.06617">
        <ele>491.20001220703</ele>
        <time>2019-02-17T13:46:58.000Z</time>
      </trkpt>
      <trkpt lat="43.12925" lon="-0.06615">
        <ele>491.79998779297</ele>
        <time>2019-02-17T13:47:00.000Z</time>
      </trkpt>
      <trkpt lat="43.12929" lon="-0.06611">
        <ele>492.60000610352</ele>
        <time>2019-02-17T13:47:03.000Z</time>
      </trkpt>
      <trkpt lat="43.12934" lon="-0.06604">
        <ele>493.60000610352</ele>
        <time>2019-02-17T13:47:07.000Z</time>
      </trkpt>
      <trkpt lat="43.12936" lon="-0.06601">
        <ele>494.20001220703</ele>
        <time>2019-02-17T13:47:09.000Z</time>
      </trkpt>
      <trkpt lat="43.12935" lon="-0.06596">
        <ele>495</ele>
        <time>2019-02-17T13:47:11.000Z</time>
      </trkpt>
      <trkpt lat="43.12935" lon="-0.06595">
        <ele>495.39999389648</ele>
        <time>2019-02-17T13:47:12.000Z</time>
      </trkpt>
      <trkpt lat="43.12934" lon="-0.06593">
        <ele>495.79998779297</ele>
        <time>2019-02-17T13:47:13.000Z</time>
      </trkpt>
      <trkpt lat="43.12931" lon="-0.06589">
        <ele>496.79998779297</ele>
        <time>2019-02-17T13:47:16.000Z</time>
      </trkpt>
      <trkpt lat="43.12926" lon="-0.06585">
        <ele>498.20001220703</ele>
        <time>2019-02-17T13:47:21.000Z</time>
      </trkpt>
      <trkpt lat="43.12923" lon="-0.06585">
        <ele>499</ele>
        <time>2019-02-17T13:47:24.000Z</time>
      </trkpt>
      <trkpt lat="43.12917" lon="-0.06587">
        <ele>500.39999389648</ele>
        <time>2019-02-17T13:47:29.000Z</time>
      </trkpt>
      <trkpt lat="43.12916" lon="-0.06587">
        <ele>500.60000610352</ele>
        <time>2019-02-17T13:47:30.000Z</time>
      </trkpt>
      <trkpt lat="43.12909" lon="-0.06587">
        <ele>501.60000610352</ele>
        <time>2019-02-17T13:47:35.000Z</time>
      </trkpt>
      <trkpt lat="43.129" lon="-0.06585">
        <ele>503</ele>
        <time>2019-02-17T13:47:41.000Z</time>
      </trkpt>
      <trkpt lat="43.12888" lon="-0.0658">
        <ele>504.39999389648</ele>
        <time>2019-02-17T13:47:48.000Z</time>
      </trkpt>
      <trkpt lat="43.12874" lon="-0.06576">
        <ele>506</ele>
        <time>2019-02-17T13:47:56.000Z</time>
      </trkpt>
      <trkpt lat="43.12866" lon="-0.06573">
        <ele>507</ele>
        <time>2019-02-17T13:48:02.000Z</time>
      </trkpt>
      <trkpt lat="43.12864" lon="-0.06571">
        <ele>507</ele>
        <time>2019-02-17T13:48:04.000Z</time>
      </trkpt>
      <trkpt lat="43.1286" lon="-0.06569">
        <ele>507.20001220703</ele>
        <time>2019-02-17T13:48:06.000Z</time>
      </trkpt>
      <trkpt lat="43.12826" lon="-0.06562">
        <ele>508.39999389648</ele>
        <time>2019-02-17T13:48:26.000Z</time>
      </trkpt>
      <trkpt lat="43.12817" lon="-0.0656">
        <ele>508.79998779297</ele>
        <time>2019-02-17T13:48:32.000Z</time>
      </trkpt>
      <trkpt lat="43.12803" lon="-0.06554">
        <ele>510.20001220703</ele>
        <time>2019-02-17T13:48:42.000Z</time>
      </trkpt>
      <trkpt lat="43.12786" lon="-0.06548">
        <ele>511.79998779297</ele>
        <time>2019-02-17T13:48:53.000Z</time>
      </trkpt>
      <trkpt lat="43.12777" lon="-0.0654">
        <ele>512.79998779297</ele>
        <time>2019-02-17T13:49:01.000Z</time>
      </trkpt>
      <trkpt lat="43.12771" lon="-0.06535">
        <ele>513.40002441406</ele>
        <time>2019-02-17T13:49:06.000Z</time>
      </trkpt>
      <trkpt lat="43.12763" lon="-0.06527">
        <ele>514.59997558594</ele>
        <time>2019-02-17T13:49:13.000Z</time>
      </trkpt>
      <trkpt lat="43.12755" lon="-0.06515">
        <ele>516.20001220703</ele>
        <time>2019-02-17T13:49:22.000Z</time>
      </trkpt>
      <trkpt lat="43.12749" lon="-0.06503">
        <ele>517.40002441406</ele>
        <time>2019-02-17T13:49:30.000Z</time>
      </trkpt>
      <trkpt lat="43.12747" lon="-0.06493">
        <ele>518.40002441406</ele>
        <time>2019-02-17T13:49:36.000Z</time>
      </trkpt>
      <trkpt lat="43.12747" lon="-0.0648">
        <ele>519.40002441406</ele>
        <time>2019-02-17T13:49:43.000Z</time>
      </trkpt>
      <trkpt lat="43.12753" lon="-0.06458">
        <ele>521.20001220703</ele>
        <time>2019-02-17T13:49:55.000Z</time>
      </trkpt>
      <trkpt lat="43.12757" lon="-0.06448">
        <ele>521.79998779297</ele>
        <time>2019-02-17T13:50:01.000Z</time>
      </trkpt>
      <trkpt lat="43.12759" lon="-0.06442">
        <ele>522</ele>
        <time>2019-02-17T13:50:04.000Z</time>
      </trkpt>
      <trkpt lat="43.12763" lon="-0.06436">
        <ele>523.20001220703</ele>
        <time>2019-02-17T13:50:08.000Z</time>
      </trkpt>
      <trkpt lat="43.12766" lon="-0.06425">
        <ele>524.20001220703</ele>
        <time>2019-02-17T13:50:15.000Z</time>
      </trkpt>
      <trkpt lat="43.12765" lon="-0.06411">
        <ele>526</ele>
        <time>2019-02-17T13:51:33.000Z</time>
      </trkpt>
      <trkpt lat="43.12766" lon="-0.06406">
        <ele>526</ele>
        <time>2019-02-17T13:51:35.000Z</time>
      </trkpt>
      <trkpt lat="43.12766" lon="-0.06404">
        <ele>526.20001220703</ele>
        <time>2019-02-17T13:51:36.000Z</time>
      </trkpt>
      <trkpt lat="43.12764" lon="-0.06392">
        <ele>526.59997558594</ele>
        <time>2019-02-17T13:51:41.000Z</time>
      </trkpt>
      <trkpt lat="43.12764" lon="-0.06387">
        <ele>527.20001220703</ele>
        <time>2019-02-17T13:51:43.000Z</time>
      </trkpt>
      <trkpt lat="43.12761" lon="-0.0637">
        <ele>528.40002441406</ele>
        <time>2019-02-17T13:51:51.000Z</time>
      </trkpt>
      <trkpt lat="43.12761" lon="-0.06357">
        <ele>529.79998779297</ele>
        <time>2019-02-17T13:51:57.000Z</time>
      </trkpt>
      <trkpt lat="43.12759" lon="-0.06339">
        <ele>531.20001220703</ele>
        <time>2019-02-17T13:52:06.000Z</time>
      </trkpt>
      <trkpt lat="43.12759" lon="-0.06324">
        <ele>532</ele>
        <time>2019-02-17T13:52:13.000Z</time>
      </trkpt>
      <trkpt lat="43.12758" lon="-0.06313">
        <ele>533</ele>
        <time>2019-02-17T13:52:19.000Z</time>
      </trkpt>
      <trkpt lat="43.12758" lon="-0.0629">
        <ele>535</ele>
        <time>2019-02-17T13:52:30.000Z</time>
      </trkpt>
      <trkpt lat="43.12758" lon="-0.06273">
        <ele>536</ele>
        <time>2019-02-17T13:52:38.000Z</time>
      </trkpt>
      <trkpt lat="43.12759" lon="-0.06269">
        <ele>536.59997558594</ele>
        <time>2019-02-17T13:52:40.000Z</time>
      </trkpt>
      <trkpt lat="43.12763" lon="-0.06259">
        <ele>537.59997558594</ele>
        <time>2019-02-17T13:52:46.000Z</time>
      </trkpt>
      <trkpt lat="43.12769" lon="-0.06254">
        <ele>538.59997558594</ele>
        <time>2019-02-17T13:52:52.000Z</time>
      </trkpt>
      <trkpt lat="43.12776" lon="-0.06241">
        <ele>540.79998779297</ele>
        <time>2019-02-17T13:53:02.000Z</time>
      </trkpt>
      <trkpt lat="43.12774" lon="-0.06233">
        <ele>541.20001220703</ele>
        <time>2019-02-17T13:53:06.000Z</time>
      </trkpt>
      <trkpt lat="43.12772" lon="-0.06226">
        <ele>541.40002441406</ele>
        <time>2019-02-17T13:53:09.000Z</time>
      </trkpt>
      <trkpt lat="43.1277" lon="-0.06207">
        <ele>541.59997558594</ele>
        <time>2019-02-17T13:53:15.000Z</time>
      </trkpt>
      <trkpt lat="43.1276" lon="-0.06155">
        <ele>541.20001220703</ele>
        <time>2019-02-17T13:53:30.000Z</time>
      </trkpt>
      <trkpt lat="43.12745" lon="-0.06107">
        <ele>541.79998779297</ele>
        <time>2019-02-17T13:53:44.000Z</time>
      </trkpt>
      <trkpt lat="43.12727" lon="-0.06079">
        <ele>542.40002441406</ele>
        <time>2019-02-17T13:53:54.000Z</time>
      </trkpt>
      <trkpt lat="43.12717" lon="-0.06058">
        <ele>543</ele>
        <time>2019-02-17T13:54:01.000Z</time>
      </trkpt>
      <trkpt lat="43.12717" lon="-0.06054">
        <ele>543.40002441406</ele>
        <time>2019-02-17T13:54:02.000Z</time>
      </trkpt>
      <trkpt lat="43.12718" lon="-0.06047">
        <ele>543.59997558594</ele>
        <time>2019-02-17T13:54:04.000Z</time>
      </trkpt>
      <trkpt lat="43.12721" lon="-0.06027">
        <ele>544.40002441406</ele>
        <time>2019-02-17T13:54:09.000Z</time>
      </trkpt>
      <trkpt lat="43.12721" lon="-0.06022">
        <ele>544.59997558594</ele>
        <time>2019-02-17T13:54:10.000Z</time>
      </trkpt>
      <trkpt lat="43.12721" lon="-0.06018">
        <ele>544.79998779297</ele>
        <time>2019-02-17T13:54:11.000Z</time>
      </trkpt>
      <trkpt lat="43.12722" lon="-0.06">
        <ele>545</ele>
        <time>2019-02-17T13:54:15.000Z</time>
      </trkpt>
      <trkpt lat="43.12723" lon="-0.0598">
        <ele>545</ele>
        <time>2019-02-17T13:54:19.000Z</time>
      </trkpt>
      <trkpt lat="43.12724" lon="-0.05969">
        <ele>545</ele>
        <time>2019-02-17T13:54:21.000Z</time>
      </trkpt>
      <trkpt lat="43.12726" lon="-0.05951">
        <ele>544.79998779297</ele>
        <time>2019-02-17T13:54:24.000Z</time>
      </trkpt>
      <trkpt lat="43.12727" lon="-0.05938">
        <ele>544.20001220703</ele>
        <time>2019-02-17T13:54:26.000Z</time>
      </trkpt>
      <trkpt lat="43.12728" lon="-0.05925">
        <ele>543.59997558594</ele>
        <time>2019-02-17T13:54:28.000Z</time>
      </trkpt>
      <trkpt lat="43.12728" lon="-0.05913">
        <ele>542.79998779297</ele>
        <time>2019-02-17T13:54:30.000Z</time>
      </trkpt>
      <trkpt lat="43.12724" lon="-0.05859">
        <ele>542.20001220703</ele>
        <time>2019-02-17T13:54:41.000Z</time>
      </trkpt>
      <trkpt lat="43.12726" lon="-0.05835">
        <ele>542.40002441406</ele>
        <time>2019-02-17T13:54:47.000Z</time>
      </trkpt>
      <trkpt lat="43.12728" lon="-0.05806">
        <ele>544.40002441406</ele>
        <time>2019-02-17T13:54:54.000Z</time>
      </trkpt>
      <trkpt lat="43.1273" lon="-0.05795">
        <ele>545.20001220703</ele>
        <time>2019-02-17T13:54:57.000Z</time>
      </trkpt>
      <trkpt lat="43.12733" lon="-0.05773">
        <ele>545.79998779297</ele>
        <time>2019-02-17T13:55:03.000Z</time>
      </trkpt>
      <trkpt lat="43.12735" lon="-0.0575">
        <ele>547.59997558594</ele>
        <time>2019-02-17T13:55:09.000Z</time>
      </trkpt>
      <trkpt lat="43.12736" lon="-0.05714">
        <ele>549.40002441406</ele>
        <time>2019-02-17T13:55:18.000Z</time>
      </trkpt>
      <trkpt lat="43.12734" lon="-0.05694">
        <ele>550</ele>
        <time>2019-02-17T13:55:23.000Z</time>
      </trkpt>
      <trkpt lat="43.12732" lon="-0.05681">
        <ele>550</ele>
        <time>2019-02-17T13:55:26.000Z</time>
      </trkpt>
      <trkpt lat="43.12726" lon="-0.05649">
        <ele>549.40002441406</ele>
        <time>2019-02-17T13:55:35.000Z</time>
      </trkpt>
      <trkpt lat="43.12728" lon="-0.05646">
        <ele>549.20001220703</ele>
        <time>2019-02-17T13:55:36.000Z</time>
      </trkpt>
      <trkpt lat="43.12781" lon="-0.05625">
        <ele>547.40002441406</ele>
        <time>2019-02-17T13:55:52.000Z</time>
      </trkpt>
      <trkpt lat="43.12795" lon="-0.0562">
        <ele>547.40002441406</ele>
        <time>2019-02-17T13:55:57.000Z</time>
      </trkpt>
      <trkpt lat="43.12805" lon="-0.05617">
        <ele>547.59997558594</ele>
        <time>2019-02-17T13:56:01.000Z</time>
      </trkpt>
      <trkpt lat="43.12815" lon="-0.05622">
        <ele>548.59997558594</ele>
        <time>2019-02-17T13:56:07.000Z</time>
      </trkpt>
      <trkpt lat="43.12816" lon="-0.05625">
        <ele>548.59997558594</ele>
        <time>2019-02-17T13:56:08.000Z</time>
      </trkpt>
      <trkpt lat="43.12833" lon="-0.05698">
        <ele>549.59997558594</ele>
        <time>2019-02-17T13:56:24.000Z</time>
      </trkpt>
      <trkpt lat="43.12847" lon="-0.05736">
        <ele>549.40002441406</ele>
        <time>2019-02-17T13:56:33.000Z</time>
      </trkpt>
      <trkpt lat="43.12868" lon="-0.05787">
        <ele>548.79998779297</ele>
        <time>2019-02-17T13:56:44.000Z</time>
      </trkpt>
      <trkpt lat="43.12872" lon="-0.05798">
        <ele>548.59997558594</ele>
        <time>2019-02-17T13:56:46.000Z</time>
      </trkpt>
      <trkpt lat="43.12877" lon="-0.05814">
        <ele>548.20001220703</ele>
        <time>2019-02-17T13:56:49.000Z</time>
      </trkpt>
      <trkpt lat="43.1288" lon="-0.05819">
        <ele>548.20001220703</ele>
        <time>2019-02-17T13:56:50.000Z</time>
      </trkpt>
      <trkpt lat="43.12888" lon="-0.05829">
        <ele>548.20001220703</ele>
        <time>2019-02-17T13:56:53.000Z</time>
      </trkpt>
      <trkpt lat="43.12896" lon="-0.05837">
        <ele>548.20001220703</ele>
        <time>2019-02-17T13:56:56.000Z</time>
      </trkpt>
      <trkpt lat="43.12913" lon="-0.05847">
        <ele>548.20001220703</ele>
        <time>2019-02-17T13:57:01.000Z</time>
      </trkpt>
      <trkpt lat="43.12926" lon="-0.05855">
        <ele>548.59997558594</ele>
        <time>2019-02-17T13:57:05.000Z</time>
      </trkpt>
      <trkpt lat="43.12947" lon="-0.0587">
        <ele>551</ele>
        <time>2019-02-17T13:57:12.000Z</time>
      </trkpt>
      <trkpt lat="43.12951" lon="-0.05873">
        <ele>551.40002441406</ele>
        <time>2019-02-17T13:57:14.000Z</time>
      </trkpt>
      <trkpt lat="43.12956" lon="-0.05877">
        <ele>552.20001220703</ele>
        <time>2019-02-17T13:57:16.000Z</time>
      </trkpt>
      <trkpt lat="43.12961" lon="-0.05881">
        <ele>552.59997558594</ele>
        <time>2019-02-17T13:57:18.000Z</time>
      </trkpt>
      <trkpt lat="43.12969" lon="-0.05886">
        <ele>553.59997558594</ele>
        <time>2019-02-17T13:57:21.000Z</time>
      </trkpt>
      <trkpt lat="43.13019" lon="-0.05915">
        <ele>557.40002441406</ele>
        <time>2019-02-17T13:57:37.000Z</time>
      </trkpt>
      <trkpt lat="43.13058" lon="-0.05942">
        <ele>558</ele>
        <time>2019-02-17T13:57:48.000Z</time>
      </trkpt>
      <trkpt lat="43.13062" lon="-0.05945">
        <ele>558</ele>
        <time>2019-02-17T13:57:49.000Z</time>
      </trkpt>
      <trkpt lat="43.13066" lon="-0.05947">
        <ele>558</ele>
        <time>2019-02-17T13:57:50.000Z</time>
      </trkpt>
      <trkpt lat="43.1307" lon="-0.05949">
        <ele>558.20001220703</ele>
        <time>2019-02-17T13:57:51.000Z</time>
      </trkpt>
      <trkpt lat="43.1308" lon="-0.05952">
        <ele>558</ele>
        <time>2019-02-17T13:57:53.000Z</time>
      </trkpt>
      <trkpt lat="43.1309" lon="-0.05953">
        <ele>557.79998779297</ele>
        <time>2019-02-17T13:57:55.000Z</time>
      </trkpt>
      <trkpt lat="43.13118" lon="-0.05956">
        <ele>557.20001220703</ele>
        <time>2019-02-17T13:58:00.000Z</time>
      </trkpt>
      <trkpt lat="43.13123" lon="-0.05958">
        <ele>557</ele>
        <time>2019-02-17T13:58:01.000Z</time>
      </trkpt>
      <trkpt lat="43.13146" lon="-0.05969">
        <ele>555.59997558594</ele>
        <time>2019-02-17T13:58:06.000Z</time>
      </trkpt>
      <trkpt lat="43.13164" lon="-0.05977">
        <ele>555.40002441406</ele>
        <time>2019-02-17T13:58:10.000Z</time>
      </trkpt>
      <trkpt lat="43.13168" lon="-0.05979">
        <ele>555.59997558594</ele>
        <time>2019-02-17T13:58:11.000Z</time>
      </trkpt>
      <trkpt lat="43.13199" lon="-0.05984">
        <ele>557</ele>
        <time>2019-02-17T13:58:18.000Z</time>
      </trkpt>
      <trkpt lat="43.13213" lon="-0.05986">
        <ele>557.40002441406</ele>
        <time>2019-02-17T13:58:21.000Z</time>
      </trkpt>
      <trkpt lat="43.13232" lon="-0.05988">
        <ele>558</ele>
        <time>2019-02-17T13:58:25.000Z</time>
      </trkpt>
      <trkpt lat="43.13243" lon="-0.05989">
        <ele>558</ele>
        <time>2019-02-17T13:58:27.000Z</time>
      </trkpt>
      <trkpt lat="43.13253" lon="-0.0599">
        <ele>557.79998779297</ele>
        <time>2019-02-17T13:58:29.000Z</time>
      </trkpt>
      <trkpt lat="43.13259" lon="-0.05991">
        <ele>557.79998779297</ele>
        <time>2019-02-17T13:58:30.000Z</time>
      </trkpt>
      <trkpt lat="43.13278" lon="-0.05995">
        <ele>557.59997558594</ele>
        <time>2019-02-17T13:58:33.000Z</time>
      </trkpt>
      <trkpt lat="43.13297" lon="-0.05999">
        <ele>557.40002441406</ele>
        <time>2019-02-17T13:58:36.000Z</time>
      </trkpt>
      <trkpt lat="43.13303" lon="-0.06001">
        <ele>556.79998779297</ele>
        <time>2019-02-17T13:58:37.000Z</time>
      </trkpt>
      <trkpt lat="43.13322" lon="-0.06005">
        <ele>556.20001220703</ele>
        <time>2019-02-17T13:58:40.000Z</time>
      </trkpt>
      <trkpt lat="43.13342" lon="-0.06008">
        <ele>555</ele>
        <time>2019-02-17T13:58:43.000Z</time>
      </trkpt>
      <trkpt lat="43.13395" lon="-0.06016">
        <ele>553.20001220703</ele>
        <time>2019-02-17T13:58:51.000Z</time>
      </trkpt>
      <trkpt lat="43.13402" lon="-0.06017">
        <ele>552.79998779297</ele>
        <time>2019-02-17T13:58:52.000Z</time>
      </trkpt>
      <trkpt lat="43.13409" lon="-0.06019">
        <ele>552.40002441406</ele>
        <time>2019-02-17T13:58:53.000Z</time>
      </trkpt>
      <trkpt lat="43.13439" lon="-0.06026">
        <ele>551.79998779297</ele>
        <time>2019-02-17T13:58:57.000Z</time>
      </trkpt>
      <trkpt lat="43.13456" lon="-0.06028">
        <ele>551.40002441406</ele>
        <time>2019-02-17T13:58:59.000Z</time>
      </trkpt>
      <trkpt lat="43.13464" lon="-0.0603">
        <ele>550.59997558594</ele>
        <time>2019-02-17T13:59:00.000Z</time>
      </trkpt>
      <trkpt lat="43.13472" lon="-0.06031">
        <ele>549.79998779297</ele>
        <time>2019-02-17T13:59:01.000Z</time>
      </trkpt>
      <trkpt lat="43.13489" lon="-0.06032">
        <ele>548.59997558594</ele>
        <time>2019-02-17T13:59:03.000Z</time>
      </trkpt>
      <trkpt lat="43.13497" lon="-0.06033">
        <ele>548</ele>
        <time>2019-02-17T13:59:04.000Z</time>
      </trkpt>
      <trkpt lat="43.13513" lon="-0.06036">
        <ele>547.59997558594</ele>
        <time>2019-02-17T13:59:06.000Z</time>
      </trkpt>
      <trkpt lat="43.13529" lon="-0.06038">
        <ele>546.20001220703</ele>
        <time>2019-02-17T13:59:08.000Z</time>
      </trkpt>
      <trkpt lat="43.13536" lon="-0.06039">
        <ele>545.59997558594</ele>
        <time>2019-02-17T13:59:09.000Z</time>
      </trkpt>
      <trkpt lat="43.13551" lon="-0.06042">
        <ele>544.59997558594</ele>
        <time>2019-02-17T13:59:11.000Z</time>
      </trkpt>
      <trkpt lat="43.13579" lon="-0.06046">
        <ele>543.40002441406</ele>
        <time>2019-02-17T13:59:15.000Z</time>
      </trkpt>
      <trkpt lat="43.13585" lon="-0.06048">
        <ele>543.20001220703</ele>
        <time>2019-02-17T13:59:16.000Z</time>
      </trkpt>
      <trkpt lat="43.13604" lon="-0.06052">
        <ele>543.20001220703</ele>
        <time>2019-02-17T13:59:19.000Z</time>
      </trkpt>
      <trkpt lat="43.13622" lon="-0.06055">
        <ele>543.59997558594</ele>
        <time>2019-02-17T13:59:22.000Z</time>
      </trkpt>
      <trkpt lat="43.13628" lon="-0.06056">
        <ele>543.40002441406</ele>
        <time>2019-02-17T13:59:23.000Z</time>
      </trkpt>
      <trkpt lat="43.13633" lon="-0.06057">
        <ele>543.59997558594</ele>
        <time>2019-02-17T13:59:24.000Z</time>
      </trkpt>
      <trkpt lat="43.13639" lon="-0.06058">
        <ele>543.59997558594</ele>
        <time>2019-02-17T13:59:25.000Z</time>
      </trkpt>
      <trkpt lat="43.13665" lon="-0.0606">
        <ele>544</ele>
        <time>2019-02-17T13:59:30.000Z</time>
      </trkpt>
      <trkpt lat="43.13675" lon="-0.06061">
        <ele>544.20001220703</ele>
        <time>2019-02-17T13:59:32.000Z</time>
      </trkpt>
      <trkpt lat="43.13687" lon="-0.06062">
        <ele>544.40002441406</ele>
        <time>2019-02-17T13:59:35.000Z</time>
      </trkpt>
      <trkpt lat="43.13694" lon="-0.06064">
        <ele>544.59997558594</ele>
        <time>2019-02-17T13:59:37.000Z</time>
      </trkpt>
      <trkpt lat="43.13735" lon="-0.06076">
        <ele>548.20001220703</ele>
        <time>2019-02-17T13:59:49.000Z</time>
      </trkpt>
      <trkpt lat="43.13739" lon="-0.06078">
        <ele>548.20001220703</ele>
        <time>2019-02-17T13:59:50.000Z</time>
      </trkpt>
      <trkpt lat="43.13742" lon="-0.06079">
        <ele>548.40002441406</ele>
        <time>2019-02-17T13:59:51.000Z</time>
      </trkpt>
      <trkpt lat="43.13756" lon="-0.06081">
        <ele>548.79998779297</ele>
        <time>2019-02-17T13:59:55.000Z</time>
      </trkpt>
      <trkpt lat="43.13773" lon="-0.06082">
        <ele>549.40002441406</ele>
        <time>2019-02-17T14:00:00.000Z</time>
      </trkpt>
      <trkpt lat="43.13776" lon="-0.06083">
        <ele>549.79998779297</ele>
        <time>2019-02-17T14:00:01.000Z</time>
      </trkpt>
      <trkpt lat="43.13783" lon="-0.06084">
        <ele>550.59997558594</ele>
        <time>2019-02-17T14:00:03.000Z</time>
      </trkpt>
      <trkpt lat="43.13797" lon="-0.06087">
        <ele>551.59997558594</ele>
        <time>2019-02-17T14:00:07.000Z</time>
      </trkpt>
      <trkpt lat="43.13803" lon="-0.06088">
        <ele>552</ele>
        <time>2019-02-17T14:00:09.000Z</time>
      </trkpt>
      <trkpt lat="43.13813" lon="-0.0609">
        <ele>552.40002441406</ele>
        <time>2019-02-17T14:00:12.000Z</time>
      </trkpt>
      <trkpt lat="43.13848" lon="-0.06098">
        <ele>553.79998779297</ele>
        <time>2019-02-17T14:00:22.000Z</time>
      </trkpt>
      <trkpt lat="43.13855" lon="-0.061">
        <ele>553.79998779297</ele>
        <time>2019-02-17T14:00:24.000Z</time>
      </trkpt>
      <trkpt lat="43.13876" lon="-0.06101">
        <ele>554</ele>
        <time>2019-02-17T14:00:29.000Z</time>
      </trkpt>
      <trkpt lat="43.139" lon="-0.06107">
        <ele>554</ele>
        <time>2019-02-17T14:00:35.000Z</time>
      </trkpt>
      <trkpt lat="43.13912" lon="-0.06109">
        <ele>554.20001220703</ele>
        <time>2019-02-17T14:00:38.000Z</time>
      </trkpt>
      <trkpt lat="43.13942" lon="-0.06113">
        <ele>553.79998779297</ele>
        <time>2019-02-17T14:00:45.000Z</time>
      </trkpt>
      <trkpt lat="43.13947" lon="-0.06114">
        <ele>553.79998779297</ele>
        <time>2019-02-17T14:00:46.000Z</time>
      </trkpt>
      <trkpt lat="43.13952" lon="-0.06116">
        <ele>553.79998779297</ele>
        <time>2019-02-17T14:00:47.000Z</time>
      </trkpt>
      <trkpt lat="43.13968" lon="-0.06118">
        <ele>553.59997558594</ele>
        <time>2019-02-17T14:00:50.000Z</time>
      </trkpt>
      <trkpt lat="43.13973" lon="-0.06119">
        <ele>553.59997558594</ele>
        <time>2019-02-17T14:00:51.000Z</time>
      </trkpt>
      <trkpt lat="43.13979" lon="-0.0612">
        <ele>553.59997558594</ele>
        <time>2019-02-17T14:00:52.000Z</time>
      </trkpt>
      <trkpt lat="43.13986" lon="-0.0612">
        <ele>553.40002441406</ele>
        <time>2019-02-17T14:00:53.000Z</time>
      </trkpt>
      <trkpt lat="43.13992" lon="-0.06121">
        <ele>553.40002441406</ele>
        <time>2019-02-17T14:00:54.000Z</time>
      </trkpt>
      <trkpt lat="43.13998" lon="-0.06122">
        <ele>553.20001220703</ele>
        <time>2019-02-17T14:00:55.000Z</time>
      </trkpt>
      <trkpt lat="43.14011" lon="-0.06125">
        <ele>552.40002441406</ele>
        <time>2019-02-17T14:00:57.000Z</time>
      </trkpt>
      <trkpt lat="43.14032" lon="-0.06129">
        <ele>550.79998779297</ele>
        <time>2019-02-17T14:01:00.000Z</time>
      </trkpt>
      <trkpt lat="43.14046" lon="-0.06132">
        <ele>549.59997558594</ele>
        <time>2019-02-17T14:01:02.000Z</time>
      </trkpt>
      <trkpt lat="43.14065" lon="-0.06135">
        <ele>548.59997558594</ele>
        <time>2019-02-17T14:01:05.000Z</time>
      </trkpt>
      <trkpt lat="43.14077" lon="-0.06138">
        <ele>548.20001220703</ele>
        <time>2019-02-17T14:01:07.000Z</time>
      </trkpt>
      <trkpt lat="43.14131" lon="-0.06146">
        <ele>547.79998779297</ele>
        <time>2019-02-17T14:01:17.000Z</time>
      </trkpt>
      <trkpt lat="43.14141" lon="-0.06149">
        <ele>547.79998779297</ele>
        <time>2019-02-17T14:01:19.000Z</time>
      </trkpt>
      <trkpt lat="43.14151" lon="-0.06151">
        <ele>548</ele>
        <time>2019-02-17T14:01:21.000Z</time>
      </trkpt>
      <trkpt lat="43.14171" lon="-0.06155">
        <ele>548.40002441406</ele>
        <time>2019-02-17T14:01:25.000Z</time>
      </trkpt>
      <trkpt lat="43.14176" lon="-0.06156">
        <ele>548.40002441406</ele>
        <time>2019-02-17T14:01:26.000Z</time>
      </trkpt>
      <trkpt lat="43.14196" lon="-0.0616">
        <ele>549.40002441406</ele>
        <time>2019-02-17T14:01:30.000Z</time>
      </trkpt>
      <trkpt lat="43.14219" lon="-0.06163">
        <ele>549.59997558594</ele>
        <time>2019-02-17T14:01:35.000Z</time>
      </trkpt>
      <trkpt lat="43.14227" lon="-0.06165">
        <ele>549.40002441406</ele>
        <time>2019-02-17T14:01:37.000Z</time>
      </trkpt>
      <trkpt lat="43.14232" lon="-0.06166">
        <ele>549.59997558594</ele>
        <time>2019-02-17T14:01:38.000Z</time>
      </trkpt>
      <trkpt lat="43.14241" lon="-0.06167">
        <ele>549.40002441406</ele>
        <time>2019-02-17T14:01:40.000Z</time>
      </trkpt>
      <trkpt lat="43.14259" lon="-0.06169">
        <ele>549.79998779297</ele>
        <time>2019-02-17T14:01:44.000Z</time>
      </trkpt>
      <trkpt lat="43.14297" lon="-0.06175">
        <ele>550.40002441406</ele>
        <time>2019-02-17T14:01:53.000Z</time>
      </trkpt>
      <trkpt lat="43.14324" lon="-0.0618">
        <ele>550.79998779297</ele>
        <time>2019-02-17T14:01:59.000Z</time>
      </trkpt>
      <trkpt lat="43.14328" lon="-0.06181">
        <ele>551</ele>
        <time>2019-02-17T14:02:00.000Z</time>
      </trkpt>
      <trkpt lat="43.14336" lon="-0.06183">
        <ele>552</ele>
        <time>2019-02-17T14:02:02.000Z</time>
      </trkpt>
      <trkpt lat="43.14345" lon="-0.06185">
        <ele>552.59997558594</ele>
        <time>2019-02-17T14:02:04.000Z</time>
      </trkpt>
      <trkpt lat="43.14349" lon="-0.06186">
        <ele>552.59997558594</ele>
        <time>2019-02-17T14:02:05.000Z</time>
      </trkpt>
      <trkpt lat="43.14362" lon="-0.06188">
        <ele>553.59997558594</ele>
        <time>2019-02-17T14:02:08.000Z</time>
      </trkpt>
      <trkpt lat="43.14387" lon="-0.06192">
        <ele>554</ele>
        <time>2019-02-17T14:02:13.000Z</time>
      </trkpt>
      <trkpt lat="43.14402" lon="-0.06195">
        <ele>554</ele>
        <time>2019-02-17T14:02:16.000Z</time>
      </trkpt>
      <trkpt lat="43.14461" lon="-0.06206">
        <ele>554</ele>
        <time>2019-02-17T14:02:27.000Z</time>
      </trkpt>
      <trkpt lat="43.14466" lon="-0.06206">
        <ele>553.79998779297</ele>
        <time>2019-02-17T14:02:28.000Z</time>
      </trkpt>
      <trkpt lat="43.14471" lon="-0.06207">
        <ele>553.79998779297</ele>
        <time>2019-02-17T14:02:29.000Z</time>
      </trkpt>
      <trkpt lat="43.14477" lon="-0.06208">
        <ele>553.79998779297</ele>
        <time>2019-02-17T14:02:30.000Z</time>
      </trkpt>
      <trkpt lat="43.14488" lon="-0.06211">
        <ele>554</ele>
        <time>2019-02-17T14:02:32.000Z</time>
      </trkpt>
      <trkpt lat="43.14494" lon="-0.06211">
        <ele>554</ele>
        <time>2019-02-17T14:02:33.000Z</time>
      </trkpt>
      <trkpt lat="43.14523" lon="-0.06213">
        <ele>554.40002441406</ele>
        <time>2019-02-17T14:02:38.000Z</time>
      </trkpt>
      <trkpt lat="43.14529" lon="-0.06214">
        <ele>554.40002441406</ele>
        <time>2019-02-17T14:02:39.000Z</time>
      </trkpt>
      <trkpt lat="43.14541" lon="-0.06216">
        <ele>554.20001220703</ele>
        <time>2019-02-17T14:02:41.000Z</time>
      </trkpt>
      <trkpt lat="43.1456" lon="-0.06219">
        <ele>554.20001220703</ele>
        <time>2019-02-17T14:02:44.000Z</time>
      </trkpt>
      <trkpt lat="43.14584" lon="-0.06227">
        <ele>554</ele>
        <time>2019-02-17T14:02:48.000Z</time>
      </trkpt>
      <trkpt lat="43.14596" lon="-0.06232">
        <ele>553.20001220703</ele>
        <time>2019-02-17T14:02:50.000Z</time>
      </trkpt>
      <trkpt lat="43.14613" lon="-0.06237">
        <ele>552</ele>
        <time>2019-02-17T14:02:53.000Z</time>
      </trkpt>
      <trkpt lat="43.14641" lon="-0.06249">
        <ele>551.59997558594</ele>
        <time>2019-02-17T14:02:58.000Z</time>
      </trkpt>
      <trkpt lat="43.14657" lon="-0.06257">
        <ele>551.20001220703</ele>
        <time>2019-02-17T14:03:01.000Z</time>
      </trkpt>
      <trkpt lat="43.14662" lon="-0.06258">
        <ele>551.40002441406</ele>
        <time>2019-02-17T14:03:02.000Z</time>
      </trkpt>
      <trkpt lat="43.14716" lon="-0.06282">
        <ele>551.59997558594</ele>
        <time>2019-02-17T14:03:12.000Z</time>
      </trkpt>
      <trkpt lat="43.14722" lon="-0.06284">
        <ele>551.59997558594</ele>
        <time>2019-02-17T14:03:13.000Z</time>
      </trkpt>
      <trkpt lat="43.14732" lon="-0.06289">
        <ele>551.59997558594</ele>
        <time>2019-02-17T14:03:15.000Z</time>
      </trkpt>
      <trkpt lat="43.14743" lon="-0.06294">
        <ele>551.79998779297</ele>
        <time>2019-02-17T14:03:17.000Z</time>
      </trkpt>
      <trkpt lat="43.14771" lon="-0.06305">
        <ele>551.79998779297</ele>
        <time>2019-02-17T14:03:22.000Z</time>
      </trkpt>
      <trkpt lat="43.14816" lon="-0.06318">
        <ele>552.40002441406</ele>
        <time>2019-02-17T14:03:30.000Z</time>
      </trkpt>
      <trkpt lat="43.1484" lon="-0.06325">
        <ele>552.20001220703</ele>
        <time>2019-02-17T14:03:34.000Z</time>
      </trkpt>
      <trkpt lat="43.14875" lon="-0.06336">
        <ele>551.40002441406</ele>
        <time>2019-02-17T14:03:40.000Z</time>
      </trkpt>
      <trkpt lat="43.14888" lon="-0.06338">
        <ele>550.59997558594</ele>
        <time>2019-02-17T14:03:42.000Z</time>
      </trkpt>
      <trkpt lat="43.14894" lon="-0.06338">
        <ele>550.40002441406</ele>
        <time>2019-02-17T14:03:43.000Z</time>
      </trkpt>
      <trkpt lat="43.149" lon="-0.06335">
        <ele>550.20001220703</ele>
        <time>2019-02-17T14:03:44.000Z</time>
      </trkpt>
      <trkpt lat="43.14905" lon="-0.06331">
        <ele>550</ele>
        <time>2019-02-17T14:03:45.000Z</time>
      </trkpt>
      <trkpt lat="43.14909" lon="-0.0632">
        <ele>549.59997558594</ele>
        <time>2019-02-17T14:03:47.000Z</time>
      </trkpt>
      <trkpt lat="43.14908" lon="-0.06308">
        <ele>549.20001220703</ele>
        <time>2019-02-17T14:03:49.000Z</time>
      </trkpt>
      <trkpt lat="43.14907" lon="-0.06299">
        <ele>549</ele>
        <time>2019-02-17T14:03:52.000Z</time>
      </trkpt>
      <trkpt lat="43.14908" lon="-0.06302">
        <ele>549.20001220703</ele>
        <time>2019-02-17T14:03:55.000Z</time>
      </trkpt>
      <trkpt lat="43.14909" lon="-0.06316">
        <ele>549.79998779297</ele>
        <time>2019-02-17T14:03:58.000Z</time>
      </trkpt>
      <trkpt lat="43.14912" lon="-0.06321">
        <ele>549.79998779297</ele>
        <time>2019-02-17T14:03:59.000Z</time>
      </trkpt>
      <trkpt lat="43.14919" lon="-0.06329">
        <ele>549.79998779297</ele>
        <time>2019-02-17T14:04:01.000Z</time>
      </trkpt>
      <trkpt lat="43.14922" lon="-0.06334">
        <ele>549.79998779297</ele>
        <time>2019-02-17T14:04:02.000Z</time>
      </trkpt>
      <trkpt lat="43.14928" lon="-0.06341">
        <ele>549.59997558594</ele>
        <time>2019-02-17T14:04:04.000Z</time>
      </trkpt>
      <trkpt lat="43.14931" lon="-0.06343">
        <ele>549.79998779297</ele>
        <time>2019-02-17T14:04:05.000Z</time>
      </trkpt>
      <trkpt lat="43.1495" lon="-0.06349">
        <ele>549.20001220703</ele>
        <time>2019-02-17T14:04:09.000Z</time>
      </trkpt>
      <trkpt lat="43.14956" lon="-0.06349">
        <ele>549</ele>
        <time>2019-02-17T14:04:10.000Z</time>
      </trkpt>
      <trkpt lat="43.14963" lon="-0.0635">
        <ele>548</ele>
        <time>2019-02-17T14:04:11.000Z</time>
      </trkpt>
      <trkpt lat="43.14977" lon="-0.06351">
        <ele>547.20001220703</ele>
        <time>2019-02-17T14:04:13.000Z</time>
      </trkpt>
      <trkpt lat="43.14984" lon="-0.06351">
        <ele>546.59997558594</ele>
        <time>2019-02-17T14:04:14.000Z</time>
      </trkpt>
      <trkpt lat="43.1499" lon="-0.06352">
        <ele>546.20001220703</ele>
        <time>2019-02-17T14:04:15.000Z</time>
      </trkpt>
      <trkpt lat="43.15003" lon="-0.06355">
        <ele>545.40002441406</ele>
        <time>2019-02-17T14:04:17.000Z</time>
      </trkpt>
      <trkpt lat="43.15009" lon="-0.06356">
        <ele>544.79998779297</ele>
        <time>2019-02-17T14:04:18.000Z</time>
      </trkpt>
      <trkpt lat="43.15032" lon="-0.06358">
        <ele>541.59997558594</ele>
        <time>2019-02-17T14:04:22.000Z</time>
      </trkpt>
      <trkpt lat="43.15037" lon="-0.06359">
        <ele>541.40002441406</ele>
        <time>2019-02-17T14:04:23.000Z</time>
      </trkpt>
      <trkpt lat="43.15048" lon="-0.06362">
        <ele>541.20001220703</ele>
        <time>2019-02-17T14:04:25.000Z</time>
      </trkpt>
      <trkpt lat="43.15057" lon="-0.0637">
        <ele>541.20001220703</ele>
        <time>2019-02-17T14:04:27.000Z</time>
      </trkpt>
      <trkpt lat="43.15065" lon="-0.06378">
        <ele>541.40002441406</ele>
        <time>2019-02-17T14:04:29.000Z</time>
      </trkpt>
      <trkpt lat="43.15074" lon="-0.06387">
        <ele>541.79998779297</ele>
        <time>2019-02-17T14:04:31.000Z</time>
      </trkpt>
      <trkpt lat="43.15082" lon="-0.06397">
        <ele>542</ele>
        <time>2019-02-17T14:04:33.000Z</time>
      </trkpt>
      <trkpt lat="43.15086" lon="-0.06403">
        <ele>542.40002441406</ele>
        <time>2019-02-17T14:04:34.000Z</time>
      </trkpt>
      <trkpt lat="43.1509" lon="-0.06408">
        <ele>542.40002441406</ele>
        <time>2019-02-17T14:04:35.000Z</time>
      </trkpt>
      <trkpt lat="43.15095" lon="-0.06412">
        <ele>542.59997558594</ele>
        <time>2019-02-17T14:04:36.000Z</time>
      </trkpt>
      <trkpt lat="43.15117" lon="-0.06437">
        <ele>543</ele>
        <time>2019-02-17T14:04:41.000Z</time>
      </trkpt>
      <trkpt lat="43.15121" lon="-0.06443">
        <ele>543</ele>
        <time>2019-02-17T14:04:42.000Z</time>
      </trkpt>
      <trkpt lat="43.15148" lon="-0.06473">
        <ele>543.20001220703</ele>
        <time>2019-02-17T14:04:48.000Z</time>
      </trkpt>
      <trkpt lat="43.15156" lon="-0.06483">
        <ele>543</ele>
        <time>2019-02-17T14:04:50.000Z</time>
      </trkpt>
      <trkpt lat="43.15166" lon="-0.06494">
        <ele>543.20001220703</ele>
        <time>2019-02-17T14:04:52.000Z</time>
      </trkpt>
      <trkpt lat="43.1518" lon="-0.0651">
        <ele>543</ele>
        <time>2019-02-17T14:04:55.000Z</time>
      </trkpt>
      <trkpt lat="43.15184" lon="-0.06515">
        <ele>543</ele>
        <time>2019-02-17T14:04:56.000Z</time>
      </trkpt>
      <trkpt lat="43.15194" lon="-0.06525">
        <ele>542.79998779297</ele>
        <time>2019-02-17T14:04:58.000Z</time>
      </trkpt>
      <trkpt lat="43.15199" lon="-0.06531">
        <ele>542.79998779297</ele>
        <time>2019-02-17T14:04:59.000Z</time>
      </trkpt>
      <trkpt lat="43.15226" lon="-0.0656">
        <ele>541</ele>
        <time>2019-02-17T14:05:05.000Z</time>
      </trkpt>
      <trkpt lat="43.1524" lon="-0.06575">
        <ele>540.40002441406</ele>
        <time>2019-02-17T14:05:08.000Z</time>
      </trkpt>
      <trkpt lat="43.15249" lon="-0.06584">
        <ele>540</ele>
        <time>2019-02-17T14:05:10.000Z</time>
      </trkpt>
      <trkpt lat="43.15267" lon="-0.06603">
        <ele>539.40002441406</ele>
        <time>2019-02-17T14:05:14.000Z</time>
      </trkpt>
      <trkpt lat="43.15286" lon="-0.0662">
        <ele>539.40002441406</ele>
        <time>2019-02-17T14:05:18.000Z</time>
      </trkpt>
      <trkpt lat="43.15299" lon="-0.06633">
        <ele>539.20001220703</ele>
        <time>2019-02-17T14:05:21.000Z</time>
      </trkpt>
      <trkpt lat="43.15309" lon="-0.06641">
        <ele>539</ele>
        <time>2019-02-17T14:05:23.000Z</time>
      </trkpt>
      <trkpt lat="43.15313" lon="-0.06645">
        <ele>539</ele>
        <time>2019-02-17T14:05:24.000Z</time>
      </trkpt>
      <trkpt lat="43.15323" lon="-0.06654">
        <ele>538.79998779297</ele>
        <time>2019-02-17T14:05:26.000Z</time>
      </trkpt>
      <trkpt lat="43.15328" lon="-0.06658">
        <ele>538.79998779297</ele>
        <time>2019-02-17T14:05:27.000Z</time>
      </trkpt>
      <trkpt lat="43.15333" lon="-0.06662">
        <ele>538.79998779297</ele>
        <time>2019-02-17T14:05:28.000Z</time>
      </trkpt>
      <trkpt lat="43.15338" lon="-0.06667">
        <ele>538.79998779297</ele>
        <time>2019-02-17T14:05:29.000Z</time>
      </trkpt>
      <trkpt lat="43.15342" lon="-0.06672">
        <ele>538.79998779297</ele>
        <time>2019-02-17T14:05:30.000Z</time>
      </trkpt>
      <trkpt lat="43.15346" lon="-0.06676">
        <ele>538.79998779297</ele>
        <time>2019-02-17T14:05:31.000Z</time>
      </trkpt>
      <trkpt lat="43.15351" lon="-0.0668">
        <ele>538.79998779297</ele>
        <time>2019-02-17T14:05:32.000Z</time>
      </trkpt>
      <trkpt lat="43.15368" lon="-0.06696">
        <ele>538</ele>
        <time>2019-02-17T14:05:36.000Z</time>
      </trkpt>
      <trkpt lat="43.15381" lon="-0.06711">
        <ele>538</ele>
        <time>2019-02-17T14:05:39.000Z</time>
      </trkpt>
      <trkpt lat="43.15385" lon="-0.06716">
        <ele>537.79998779297</ele>
        <time>2019-02-17T14:05:40.000Z</time>
      </trkpt>
      <trkpt lat="43.1539" lon="-0.0672">
        <ele>537.79998779297</ele>
        <time>2019-02-17T14:05:41.000Z</time>
      </trkpt>
      <trkpt lat="43.15402" lon="-0.0673">
        <ele>537.59997558594</ele>
        <time>2019-02-17T14:05:44.000Z</time>
      </trkpt>
      <trkpt lat="43.15406" lon="-0.06734">
        <ele>537.59997558594</ele>
        <time>2019-02-17T14:05:45.000Z</time>
      </trkpt>
      <trkpt lat="43.15414" lon="-0.06741">
        <ele>537.59997558594</ele>
        <time>2019-02-17T14:05:47.000Z</time>
      </trkpt>
      <trkpt lat="43.15427" lon="-0.06754">
        <ele>536.79998779297</ele>
        <time>2019-02-17T14:05:50.000Z</time>
      </trkpt>
      <trkpt lat="43.15438" lon="-0.06764">
        <ele>536.59997558594</ele>
        <time>2019-02-17T14:05:52.000Z</time>
      </trkpt>
      <trkpt lat="43.15444" lon="-0.06769">
        <ele>536.40002441406</ele>
        <time>2019-02-17T14:05:53.000Z</time>
      </trkpt>
      <trkpt lat="43.15462" lon="-0.06785">
        <ele>536</ele>
        <time>2019-02-17T14:05:56.000Z</time>
      </trkpt>
      <trkpt lat="43.15468" lon="-0.0679">
        <ele>535.40002441406</ele>
        <time>2019-02-17T14:05:57.000Z</time>
      </trkpt>
      <trkpt lat="43.15496" lon="-0.06814">
        <ele>533.40002441406</ele>
        <time>2019-02-17T14:06:02.000Z</time>
      </trkpt>
      <trkpt lat="43.15528" lon="-0.06842">
        <ele>532.20001220703</ele>
        <time>2019-02-17T14:06:08.000Z</time>
      </trkpt>
      <trkpt lat="43.15538" lon="-0.06851">
        <ele>532.40002441406</ele>
        <time>2019-02-17T14:06:10.000Z</time>
      </trkpt>
      <trkpt lat="43.15547" lon="-0.06861">
        <ele>532.59997558594</ele>
        <time>2019-02-17T14:06:12.000Z</time>
      </trkpt>
      <trkpt lat="43.15552" lon="-0.06866">
        <ele>532.59997558594</ele>
        <time>2019-02-17T14:06:13.000Z</time>
      </trkpt>
      <trkpt lat="43.15562" lon="-0.06875">
        <ele>532.59997558594</ele>
        <time>2019-02-17T14:06:15.000Z</time>
      </trkpt>
      <trkpt lat="43.15578" lon="-0.06889">
        <ele>532.59997558594</ele>
        <time>2019-02-17T14:06:18.000Z</time>
      </trkpt>
      <trkpt lat="43.15601" lon="-0.06907">
        <ele>532.20001220703</ele>
        <time>2019-02-17T14:06:22.000Z</time>
      </trkpt>
      <trkpt lat="43.15618" lon="-0.06921">
        <ele>532</ele>
        <time>2019-02-17T14:06:25.000Z</time>
      </trkpt>
      <trkpt lat="43.15664" lon="-0.06952">
        <ele>531.59997558594</ele>
        <time>2019-02-17T14:06:34.000Z</time>
      </trkpt>
      <trkpt lat="43.15675" lon="-0.06959">
        <ele>531.40002441406</ele>
        <time>2019-02-17T14:06:36.000Z</time>
      </trkpt>
      <trkpt lat="43.15686" lon="-0.06965">
        <ele>531.20001220703</ele>
        <time>2019-02-17T14:06:38.000Z</time>
      </trkpt>
      <trkpt lat="43.15691" lon="-0.06969">
        <ele>531</ele>
        <time>2019-02-17T14:06:39.000Z</time>
      </trkpt>
      <trkpt lat="43.15702" lon="-0.06977">
        <ele>531</ele>
        <time>2019-02-17T14:06:41.000Z</time>
      </trkpt>
      <trkpt lat="43.15716" lon="-0.06986">
        <ele>530</ele>
        <time>2019-02-17T14:06:44.000Z</time>
      </trkpt>
      <trkpt lat="43.15725" lon="-0.06992">
        <ele>529.79998779297</ele>
        <time>2019-02-17T14:06:46.000Z</time>
      </trkpt>
      <trkpt lat="43.1574" lon="-0.07004">
        <ele>529</ele>
        <time>2019-02-17T14:06:49.000Z</time>
      </trkpt>
      <trkpt lat="43.15745" lon="-0.07008">
        <ele>528.59997558594</ele>
        <time>2019-02-17T14:06:50.000Z</time>
      </trkpt>
      <trkpt lat="43.15756" lon="-0.07016">
        <ele>528.20001220703</ele>
        <time>2019-02-17T14:06:52.000Z</time>
      </trkpt>
      <trkpt lat="43.15762" lon="-0.07019">
        <ele>528</ele>
        <time>2019-02-17T14:06:53.000Z</time>
      </trkpt>
      <trkpt lat="43.15774" lon="-0.07026">
        <ele>527.20001220703</ele>
        <time>2019-02-17T14:06:55.000Z</time>
      </trkpt>
      <trkpt lat="43.15805" lon="-0.07049">
        <ele>525.20001220703</ele>
        <time>2019-02-17T14:07:00.000Z</time>
      </trkpt>
      <trkpt lat="43.15818" lon="-0.0706">
        <ele>524.79998779297</ele>
        <time>2019-02-17T14:07:02.000Z</time>
      </trkpt>
      <trkpt lat="43.15838" lon="-0.07074">
        <ele>524.40002441406</ele>
        <time>2019-02-17T14:07:05.000Z</time>
      </trkpt>
      <trkpt lat="43.15851" lon="-0.07084">
        <ele>524</ele>
        <time>2019-02-17T14:07:07.000Z</time>
      </trkpt>
      <trkpt lat="43.15863" lon="-0.07093">
        <ele>521.59997558594</ele>
        <time>2019-02-17T14:07:09.000Z</time>
      </trkpt>
      <trkpt lat="43.15876" lon="-0.07102">
        <ele>520</ele>
        <time>2019-02-17T14:07:11.000Z</time>
      </trkpt>
      <trkpt lat="43.15882" lon="-0.07106">
        <ele>519.59997558594</ele>
        <time>2019-02-17T14:07:12.000Z</time>
      </trkpt>
      <trkpt lat="43.15889" lon="-0.0711">
        <ele>519.40002441406</ele>
        <time>2019-02-17T14:07:13.000Z</time>
      </trkpt>
      <trkpt lat="43.15895" lon="-0.07114">
        <ele>519.20001220703</ele>
        <time>2019-02-17T14:07:14.000Z</time>
      </trkpt>
      <trkpt lat="43.15901" lon="-0.07117">
        <ele>519</ele>
        <time>2019-02-17T14:07:15.000Z</time>
      </trkpt>
      <trkpt lat="43.15917" lon="-0.0713">
        <ele>519</ele>
        <time>2019-02-17T14:07:18.000Z</time>
      </trkpt>
      <trkpt lat="43.15922" lon="-0.07134">
        <ele>518.59997558594</ele>
        <time>2019-02-17T14:07:19.000Z</time>
      </trkpt>
      <trkpt lat="43.15928" lon="-0.07137">
        <ele>518.59997558594</ele>
        <time>2019-02-17T14:07:20.000Z</time>
      </trkpt>
      <trkpt lat="43.15933" lon="-0.0714">
        <ele>518.20001220703</ele>
        <time>2019-02-17T14:07:21.000Z</time>
      </trkpt>
      <trkpt lat="43.15938" lon="-0.07143">
        <ele>518</ele>
        <time>2019-02-17T14:07:22.000Z</time>
      </trkpt>
      <trkpt lat="43.15947" lon="-0.07147">
        <ele>517.79998779297</ele>
        <time>2019-02-17T14:07:24.000Z</time>
      </trkpt>
      <trkpt lat="43.15951" lon="-0.07148">
        <ele>517.59997558594</ele>
        <time>2019-02-17T14:07:25.000Z</time>
      </trkpt>
      <trkpt lat="43.15955" lon="-0.07146">
        <ele>517.59997558594</ele>
        <time>2019-02-17T14:07:26.000Z</time>
      </trkpt>
      <trkpt lat="43.15965" lon="-0.0713">
        <ele>517.40002441406</ele>
        <time>2019-02-17T14:07:30.000Z</time>
      </trkpt>
      <trkpt lat="43.15971" lon="-0.07122">
        <ele>517.20001220703</ele>
        <time>2019-02-17T14:07:32.000Z</time>
      </trkpt>
      <trkpt lat="43.15981" lon="-0.07111">
        <ele>517</ele>
        <time>2019-02-17T14:07:35.000Z</time>
      </trkpt>
      <trkpt lat="43.15984" lon="-0.07107">
        <ele>516.79998779297</ele>
        <time>2019-02-17T14:07:36.000Z</time>
      </trkpt>
      <trkpt lat="43.16001" lon="-0.07083">
        <ele>515.59997558594</ele>
        <time>2019-02-17T14:07:41.000Z</time>
      </trkpt>
      <trkpt lat="43.16004" lon="-0.07077">
        <ele>515.40002441406</ele>
        <time>2019-02-17T14:07:42.000Z</time>
      </trkpt>
      <trkpt lat="43.16007" lon="-0.07071">
        <ele>514.79998779297</ele>
        <time>2019-02-17T14:07:43.000Z</time>
      </trkpt>
      <trkpt lat="43.16011" lon="-0.07066">
        <ele>514</ele>
        <time>2019-02-17T14:07:44.000Z</time>
      </trkpt>
      <trkpt lat="43.16027" lon="-0.07045">
        <ele>512.79998779297</ele>
        <time>2019-02-17T14:07:49.000Z</time>
      </trkpt>
      <trkpt lat="43.1603" lon="-0.07041">
        <ele>512.79998779297</ele>
        <time>2019-02-17T14:07:50.000Z</time>
      </trkpt>
      <trkpt lat="43.16033" lon="-0.07037">
        <ele>512.40002441406</ele>
        <time>2019-02-17T14:07:51.000Z</time>
      </trkpt>
      <trkpt lat="43.16041" lon="-0.07034">
        <ele>511.60000610352</ele>
        <time>2019-02-17T14:07:53.000Z</time>
      </trkpt>
      <trkpt lat="43.16056" lon="-0.07033">
        <ele>511</ele>
        <time>2019-02-17T14:07:56.000Z</time>
      </trkpt>
      <trkpt lat="43.16062" lon="-0.07033">
        <ele>510.60000610352</ele>
        <time>2019-02-17T14:07:57.000Z</time>
      </trkpt>
      <trkpt lat="43.16067" lon="-0.07033">
        <ele>510.20001220703</ele>
        <time>2019-02-17T14:07:58.000Z</time>
      </trkpt>
      <trkpt lat="43.16072" lon="-0.07032">
        <ele>510</ele>
        <time>2019-02-17T14:07:59.000Z</time>
      </trkpt>
      <trkpt lat="43.16083" lon="-0.0703">
        <ele>509.39999389648</ele>
        <time>2019-02-17T14:08:01.000Z</time>
      </trkpt>
      <trkpt lat="43.16088" lon="-0.0703">
        <ele>509.20001220703</ele>
        <time>2019-02-17T14:08:02.000Z</time>
      </trkpt>
      <trkpt lat="43.16104" lon="-0.07028">
        <ele>508.39999389648</ele>
        <time>2019-02-17T14:08:05.000Z</time>
      </trkpt>
      <trkpt lat="43.1611" lon="-0.07028">
        <ele>508.20001220703</ele>
        <time>2019-02-17T14:08:06.000Z</time>
      </trkpt>
      <trkpt lat="43.16121" lon="-0.07027">
        <ele>508.20001220703</ele>
        <time>2019-02-17T14:08:08.000Z</time>
      </trkpt>
      <trkpt lat="43.16137" lon="-0.07026">
        <ele>506.79998779297</ele>
        <time>2019-02-17T14:08:11.000Z</time>
      </trkpt>
      <trkpt lat="43.16143" lon="-0.07026">
        <ele>506.60000610352</ele>
        <time>2019-02-17T14:08:12.000Z</time>
      </trkpt>
      <trkpt lat="43.16184" lon="-0.07023">
        <ele>505.39999389648</ele>
        <time>2019-02-17T14:08:19.000Z</time>
      </trkpt>
      <trkpt lat="43.1619" lon="-0.07022">
        <ele>505.39999389648</ele>
        <time>2019-02-17T14:08:20.000Z</time>
      </trkpt>
      <trkpt lat="43.16195" lon="-0.07021">
        <ele>505.39999389648</ele>
        <time>2019-02-17T14:08:21.000Z</time>
      </trkpt>
      <trkpt lat="43.16201" lon="-0.07019">
        <ele>505.39999389648</ele>
        <time>2019-02-17T14:08:22.000Z</time>
      </trkpt>
      <trkpt lat="43.16207" lon="-0.07017">
        <ele>505.39999389648</ele>
        <time>2019-02-17T14:08:23.000Z</time>
      </trkpt>
      <trkpt lat="43.16213" lon="-0.07016">
        <ele>505.20001220703</ele>
        <time>2019-02-17T14:08:24.000Z</time>
      </trkpt>
      <trkpt lat="43.16224" lon="-0.07014">
        <ele>505.20001220703</ele>
        <time>2019-02-17T14:08:26.000Z</time>
      </trkpt>
      <trkpt lat="43.16242" lon="-0.07012">
        <ele>505.20001220703</ele>
        <time>2019-02-17T14:08:29.000Z</time>
      </trkpt>
      <trkpt lat="43.16248" lon="-0.07012">
        <ele>505.20001220703</ele>
        <time>2019-02-17T14:08:30.000Z</time>
      </trkpt>
      <trkpt lat="43.16253" lon="-0.07011">
        <ele>505.20001220703</ele>
        <time>2019-02-17T14:08:31.000Z</time>
      </trkpt>
      <trkpt lat="43.16259" lon="-0.0701">
        <ele>505</ele>
        <time>2019-02-17T14:08:32.000Z</time>
      </trkpt>
      <trkpt lat="43.16279" lon="-0.0701">
        <ele>505</ele>
        <time>2019-02-17T14:08:36.000Z</time>
      </trkpt>
      <trkpt lat="43.16283" lon="-0.07011">
        <ele>505.20001220703</ele>
        <time>2019-02-17T14:08:37.000Z</time>
      </trkpt>
      <trkpt lat="43.16292" lon="-0.0701">
        <ele>505</ele>
        <time>2019-02-17T14:08:39.000Z</time>
      </trkpt>
      <trkpt lat="43.16305" lon="-0.07004">
        <ele>505</ele>
        <time>2019-02-17T14:08:42.000Z</time>
      </trkpt>
      <trkpt lat="43.16312" lon="-0.06987">
        <ele>505.20001220703</ele>
        <time>2019-02-17T14:08:46.000Z</time>
      </trkpt>
      <trkpt lat="43.16311" lon="-0.06976">
        <ele>505.20001220703</ele>
        <time>2019-02-17T14:08:48.000Z</time>
      </trkpt>
      <trkpt lat="43.1631" lon="-0.06966">
        <ele>505.39999389648</ele>
        <time>2019-02-17T14:08:50.000Z</time>
      </trkpt>
      <trkpt lat="43.16319" lon="-0.06936">
        <ele>506</ele>
        <time>2019-02-17T14:08:57.000Z</time>
      </trkpt>
      <trkpt lat="43.16326" lon="-0.06931">
        <ele>505.79998779297</ele>
        <time>2019-02-17T14:08:59.000Z</time>
      </trkpt>
      <trkpt lat="43.16341" lon="-0.06924">
        <ele>506.60000610352</ele>
        <time>2019-02-17T14:09:03.000Z</time>
      </trkpt>
      <trkpt lat="43.16345" lon="-0.06924">
        <ele>506.79998779297</ele>
        <time>2019-02-17T14:09:04.000Z</time>
      </trkpt>
      <trkpt lat="43.16349" lon="-0.06923">
        <ele>506.79998779297</ele>
        <time>2019-02-17T14:09:05.000Z</time>
      </trkpt>
      <trkpt lat="43.16354" lon="-0.06922">
        <ele>506.79998779297</ele>
        <time>2019-02-17T14:09:06.000Z</time>
      </trkpt>
      <trkpt lat="43.16373" lon="-0.06917">
        <ele>506.79998779297</ele>
        <time>2019-02-17T14:09:10.000Z</time>
      </trkpt>
      <trkpt lat="43.16384" lon="-0.06915">
        <ele>506</ele>
        <time>2019-02-17T14:09:12.000Z</time>
      </trkpt>
      <trkpt lat="43.16389" lon="-0.06913">
        <ele>506</ele>
        <time>2019-02-17T14:09:13.000Z</time>
      </trkpt>
      <trkpt lat="43.16406" lon="-0.06908">
        <ele>504.79998779297</ele>
        <time>2019-02-17T14:09:16.000Z</time>
      </trkpt>
      <trkpt lat="43.16411" lon="-0.06906">
        <ele>504.20001220703</ele>
        <time>2019-02-17T14:09:17.000Z</time>
      </trkpt>
      <trkpt lat="43.16417" lon="-0.06904">
        <ele>503.79998779297</ele>
        <time>2019-02-17T14:09:18.000Z</time>
      </trkpt>
      <trkpt lat="43.16423" lon="-0.06902">
        <ele>503.60000610352</ele>
        <time>2019-02-17T14:09:19.000Z</time>
      </trkpt>
      <trkpt lat="43.16435" lon="-0.06898">
        <ele>502.79998779297</ele>
        <time>2019-02-17T14:09:21.000Z</time>
      </trkpt>
      <trkpt lat="43.16484" lon="-0.06883">
        <ele>501.79998779297</ele>
        <time>2019-02-17T14:09:30.000Z</time>
      </trkpt>
      <trkpt lat="43.165" lon="-0.06877">
        <ele>501.39999389648</ele>
        <time>2019-02-17T14:09:33.000Z</time>
      </trkpt>
      <trkpt lat="43.16506" lon="-0.06876">
        <ele>501.39999389648</ele>
        <time>2019-02-17T14:09:34.000Z</time>
      </trkpt>
      <trkpt lat="43.16511" lon="-0.06874">
        <ele>501.20001220703</ele>
        <time>2019-02-17T14:09:35.000Z</time>
      </trkpt>
      <trkpt lat="43.16523" lon="-0.0687">
        <ele>501.20001220703</ele>
        <time>2019-02-17T14:09:37.000Z</time>
      </trkpt>
      <trkpt lat="43.16535" lon="-0.06867">
        <ele>500.79998779297</ele>
        <time>2019-02-17T14:09:39.000Z</time>
      </trkpt>
      <trkpt lat="43.1654" lon="-0.06865">
        <ele>500.79998779297</ele>
        <time>2019-02-17T14:09:40.000Z</time>
      </trkpt>
      <trkpt lat="43.16546" lon="-0.06863">
        <ele>500.79998779297</ele>
        <time>2019-02-17T14:09:41.000Z</time>
      </trkpt>
      <trkpt lat="43.16558" lon="-0.06861">
        <ele>500.60000610352</ele>
        <time>2019-02-17T14:09:43.000Z</time>
      </trkpt>
      <trkpt lat="43.1657" lon="-0.06856">
        <ele>500.20001220703</ele>
        <time>2019-02-17T14:09:45.000Z</time>
      </trkpt>
      <trkpt lat="43.16591" lon="-0.0685">
        <ele>499.39999389648</ele>
        <time>2019-02-17T14:09:49.000Z</time>
      </trkpt>
      <trkpt lat="43.16598" lon="-0.06842">
        <ele>499.39999389648</ele>
        <time>2019-02-17T14:09:51.000Z</time>
      </trkpt>
      <trkpt lat="43.16601" lon="-0.06831">
        <ele>499.39999389648</ele>
        <time>2019-02-17T14:09:53.000Z</time>
      </trkpt>
      <trkpt lat="43.16602" lon="-0.06824">
        <ele>499.39999389648</ele>
        <time>2019-02-17T14:09:54.000Z</time>
      </trkpt>
      <trkpt lat="43.16602" lon="-0.06817">
        <ele>499.39999389648</ele>
        <time>2019-02-17T14:09:55.000Z</time>
      </trkpt>
      <trkpt lat="43.16601" lon="-0.06786">
        <ele>500</ele>
        <time>2019-02-17T14:10:00.000Z</time>
      </trkpt>
      <trkpt lat="43.16602" lon="-0.0678">
        <ele>500.39999389648</ele>
        <time>2019-02-17T14:10:01.000Z</time>
      </trkpt>
      <trkpt lat="43.16607" lon="-0.0677">
        <ele>500.79998779297</ele>
        <time>2019-02-17T14:10:03.000Z</time>
      </trkpt>
      <trkpt lat="43.16613" lon="-0.06763">
        <ele>501</ele>
        <time>2019-02-17T14:10:05.000Z</time>
      </trkpt>
      <trkpt lat="43.16642" lon="-0.06752">
        <ele>501.39999389648</ele>
        <time>2019-02-17T14:10:11.000Z</time>
      </trkpt>
      <trkpt lat="43.16653" lon="-0.06746">
        <ele>501.39999389648</ele>
        <time>2019-02-17T14:10:15.000Z</time>
      </trkpt>
      <trkpt lat="43.16654" lon="-0.06745">
        <ele>501.39999389648</ele>
        <time>2019-02-17T14:10:16.000Z</time>
      </trkpt>
      <trkpt lat="43.16654" lon="-0.06745">
        <ele>501.39999389648</ele>
        <time>2019-02-17T14:10:17.000Z</time>
      </trkpt>
      <trkpt lat="43.16654" lon="-0.06745">
        <ele>501.39999389648</ele>
        <time>2019-02-17T14:10:18.000Z</time>
      </trkpt>
      <trkpt lat="43.16654" lon="-0.06744">
        <ele>501.60000610352</ele>
        <time>2019-02-17T14:10:19.000Z</time>
      </trkpt>
      <trkpt lat="43.16647" lon="-0.0674">
        <ele>502.79998779297</ele>
        <time>2019-02-17T14:22:27.000Z</time>
      </trkpt>
      <trkpt lat="43.16648" lon="-0.06742">
        <ele>502.79998779297</ele>
        <time>2019-02-17T14:22:28.000Z</time>
      </trkpt>
      <trkpt lat="43.1665" lon="-0.06747">
        <ele>502.60000610352</ele>
        <time>2019-02-17T14:22:30.000Z</time>
      </trkpt>
      <trkpt lat="43.16654" lon="-0.0675">
        <ele>502.79998779297</ele>
        <time>2019-02-17T14:22:32.000Z</time>
      </trkpt>
      <trkpt lat="43.1666" lon="-0.06751">
        <ele>502.79998779297</ele>
        <time>2019-02-17T14:22:34.000Z</time>
      </trkpt>
      <trkpt lat="43.16666" lon="-0.06749">
        <ele>502.79998779297</ele>
        <time>2019-02-17T14:22:36.000Z</time>
      </trkpt>
      <trkpt lat="43.16674" lon="-0.06746">
        <ele>502.79998779297</ele>
        <time>2019-02-17T14:22:38.000Z</time>
      </trkpt>
      <trkpt lat="43.16679" lon="-0.06742">
        <ele>502.39999389648</ele>
        <time>2019-02-17T14:22:40.000Z</time>
      </trkpt>
      <trkpt lat="43.16686" lon="-0.06739">
        <ele>502.20001220703</ele>
        <time>2019-02-17T14:22:42.000Z</time>
      </trkpt>
      <trkpt lat="43.16692" lon="-0.06737">
        <ele>502.20001220703</ele>
        <time>2019-02-17T14:22:44.000Z</time>
      </trkpt>
      <trkpt lat="43.16695" lon="-0.06737">
        <ele>502.39999389648</ele>
        <time>2019-02-17T14:22:45.000Z</time>
      </trkpt>
      <trkpt lat="43.16699" lon="-0.06736">
        <ele>502.20001220703</ele>
        <time>2019-02-17T14:22:46.000Z</time>
      </trkpt>
      <trkpt lat="43.16706" lon="-0.06734">
        <ele>502.20001220703</ele>
        <time>2019-02-17T14:22:48.000Z</time>
      </trkpt>
      <trkpt lat="43.16714" lon="-0.06732">
        <ele>502</ele>
        <time>2019-02-17T14:22:50.000Z</time>
      </trkpt>
      <trkpt lat="43.16722" lon="-0.0673">
        <ele>501.79998779297</ele>
        <time>2019-02-17T14:22:52.000Z</time>
      </trkpt>
      <trkpt lat="43.16731" lon="-0.06729">
        <ele>501.60000610352</ele>
        <time>2019-02-17T14:22:54.000Z</time>
      </trkpt>
      <trkpt lat="43.1674" lon="-0.06727">
        <ele>501.39999389648</ele>
        <time>2019-02-17T14:22:56.000Z</time>
      </trkpt>
      <trkpt lat="43.1675" lon="-0.06725">
        <ele>501.39999389648</ele>
        <time>2019-02-17T14:22:58.000Z</time>
      </trkpt>
      <trkpt lat="43.16759" lon="-0.06723">
        <ele>501.20001220703</ele>
        <time>2019-02-17T14:23:00.000Z</time>
      </trkpt>
      <trkpt lat="43.16764" lon="-0.06721">
        <ele>501.20001220703</ele>
        <time>2019-02-17T14:23:01.000Z</time>
      </trkpt>
      <trkpt lat="43.16769" lon="-0.0672">
        <ele>501.20001220703</ele>
        <time>2019-02-17T14:23:02.000Z</time>
      </trkpt>
      <trkpt lat="43.16774" lon="-0.06719">
        <ele>501</ele>
        <time>2019-02-17T14:23:03.000Z</time>
      </trkpt>
      <trkpt lat="43.16779" lon="-0.06717">
        <ele>501</ele>
        <time>2019-02-17T14:23:04.000Z</time>
      </trkpt>
      <trkpt lat="43.16789" lon="-0.06716">
        <ele>500.79998779297</ele>
        <time>2019-02-17T14:23:06.000Z</time>
      </trkpt>
      <trkpt lat="43.16793" lon="-0.06715">
        <ele>500.79998779297</ele>
        <time>2019-02-17T14:23:07.000Z</time>
      </trkpt>
      <trkpt lat="43.16798" lon="-0.06714">
        <ele>500.60000610352</ele>
        <time>2019-02-17T14:23:08.000Z</time>
      </trkpt>
      <trkpt lat="43.16808" lon="-0.06711">
        <ele>500.60000610352</ele>
        <time>2019-02-17T14:23:10.000Z</time>
      </trkpt>
      <trkpt lat="43.16818" lon="-0.06709">
        <ele>500.60000610352</ele>
        <time>2019-02-17T14:23:12.000Z</time>
      </trkpt>
      <trkpt lat="43.16828" lon="-0.06707">
        <ele>500.39999389648</ele>
        <time>2019-02-17T14:23:14.000Z</time>
      </trkpt>
      <trkpt lat="43.16833" lon="-0.06706">
        <ele>500.20001220703</ele>
        <time>2019-02-17T14:23:15.000Z</time>
      </trkpt>
      <trkpt lat="43.16838" lon="-0.06704">
        <ele>500.39999389648</ele>
        <time>2019-02-17T14:23:16.000Z</time>
      </trkpt>
      <trkpt lat="43.16843" lon="-0.06703">
        <ele>500.20001220703</ele>
        <time>2019-02-17T14:23:17.000Z</time>
      </trkpt>
      <trkpt lat="43.16847" lon="-0.06702">
        <ele>500</ele>
        <time>2019-02-17T14:23:18.000Z</time>
      </trkpt>
      <trkpt lat="43.16852" lon="-0.067">
        <ele>500.20001220703</ele>
        <time>2019-02-17T14:23:19.000Z</time>
      </trkpt>
      <trkpt lat="43.16857" lon="-0.06699">
        <ele>500</ele>
        <time>2019-02-17T14:23:20.000Z</time>
      </trkpt>
      <trkpt lat="43.16862" lon="-0.06697">
        <ele>500</ele>
        <time>2019-02-17T14:23:21.000Z</time>
      </trkpt>
      <trkpt lat="43.16867" lon="-0.06696">
        <ele>499.79998779297</ele>
        <time>2019-02-17T14:23:22.000Z</time>
      </trkpt>
      <trkpt lat="43.16878" lon="-0.06692">
        <ele>499.39999389648</ele>
        <time>2019-02-17T14:23:24.000Z</time>
      </trkpt>
      <trkpt lat="43.16888" lon="-0.0669">
        <ele>499.60000610352</ele>
        <time>2019-02-17T14:23:26.000Z</time>
      </trkpt>
      <trkpt lat="43.16899" lon="-0.06687">
        <ele>499.39999389648</ele>
        <time>2019-02-17T14:23:28.000Z</time>
      </trkpt>
      <trkpt lat="43.16909" lon="-0.06684">
        <ele>499.39999389648</ele>
        <time>2019-02-17T14:23:30.000Z</time>
      </trkpt>
      <trkpt lat="43.16921" lon="-0.06682">
        <ele>499.39999389648</ele>
        <time>2019-02-17T14:23:32.000Z</time>
      </trkpt>
      <trkpt lat="43.16931" lon="-0.06679">
        <ele>499.39999389648</ele>
        <time>2019-02-17T14:23:34.000Z</time>
      </trkpt>
      <trkpt lat="43.16942" lon="-0.06677">
        <ele>499.20001220703</ele>
        <time>2019-02-17T14:23:36.000Z</time>
      </trkpt>
      <trkpt lat="43.16953" lon="-0.06674">
        <ele>499.20001220703</ele>
        <time>2019-02-17T14:23:38.000Z</time>
      </trkpt>
      <trkpt lat="43.16964" lon="-0.06671">
        <ele>499.20001220703</ele>
        <time>2019-02-17T14:23:40.000Z</time>
      </trkpt>
      <trkpt lat="43.16974" lon="-0.06668">
        <ele>499</ele>
        <time>2019-02-17T14:23:42.000Z</time>
      </trkpt>
      <trkpt lat="43.16985" lon="-0.06664">
        <ele>498.79998779297</ele>
        <time>2019-02-17T14:23:44.000Z</time>
      </trkpt>
      <trkpt lat="43.16996" lon="-0.06662">
        <ele>498</ele>
        <time>2019-02-17T14:23:46.000Z</time>
      </trkpt>
      <trkpt lat="43.17008" lon="-0.0666">
        <ele>497.60000610352</ele>
        <time>2019-02-17T14:23:48.000Z</time>
      </trkpt>
      <trkpt lat="43.17014" lon="-0.06659">
        <ele>497.60000610352</ele>
        <time>2019-02-17T14:23:49.000Z</time>
      </trkpt>
      <trkpt lat="43.1702" lon="-0.06658">
        <ele>497.39999389648</ele>
        <time>2019-02-17T14:23:50.000Z</time>
      </trkpt>
      <trkpt lat="43.17025" lon="-0.06657">
        <ele>497.39999389648</ele>
        <time>2019-02-17T14:23:51.000Z</time>
      </trkpt>
      <trkpt lat="43.17031" lon="-0.06656">
        <ele>497.39999389648</ele>
        <time>2019-02-17T14:23:52.000Z</time>
      </trkpt>
      <trkpt lat="43.17043" lon="-0.06655">
        <ele>497.39999389648</ele>
        <time>2019-02-17T14:23:54.000Z</time>
      </trkpt>
      <trkpt lat="43.17055" lon="-0.06652">
        <ele>496.79998779297</ele>
        <time>2019-02-17T14:23:56.000Z</time>
      </trkpt>
      <trkpt lat="43.1706" lon="-0.06651">
        <ele>496.79998779297</ele>
        <time>2019-02-17T14:23:57.000Z</time>
      </trkpt>
      <trkpt lat="43.17066" lon="-0.0665">
        <ele>496.79998779297</ele>
        <time>2019-02-17T14:23:58.000Z</time>
      </trkpt>
      <trkpt lat="43.17072" lon="-0.06649">
        <ele>496.60000610352</ele>
        <time>2019-02-17T14:23:59.000Z</time>
      </trkpt>
      <trkpt lat="43.17077" lon="-0.06648">
        <ele>496.60000610352</ele>
        <time>2019-02-17T14:24:00.000Z</time>
      </trkpt>
      <trkpt lat="43.17089" lon="-0.06646">
        <ele>496.20001220703</ele>
        <time>2019-02-17T14:24:02.000Z</time>
      </trkpt>
      <trkpt lat="43.171" lon="-0.06644">
        <ele>496.20001220703</ele>
        <time>2019-02-17T14:24:04.000Z</time>
      </trkpt>
      <trkpt lat="43.17112" lon="-0.06641">
        <ele>496</ele>
        <time>2019-02-17T14:24:06.000Z</time>
      </trkpt>
      <trkpt lat="43.17122" lon="-0.06637">
        <ele>495.79998779297</ele>
        <time>2019-02-17T14:24:08.000Z</time>
      </trkpt>
      <trkpt lat="43.17133" lon="-0.06633">
        <ele>496</ele>
        <time>2019-02-17T14:24:10.000Z</time>
      </trkpt>
      <trkpt lat="43.17143" lon="-0.0663">
        <ele>495.79998779297</ele>
        <time>2019-02-17T14:24:12.000Z</time>
      </trkpt>
      <trkpt lat="43.17154" lon="-0.06628">
        <ele>496</ele>
        <time>2019-02-17T14:24:14.000Z</time>
      </trkpt>
      <trkpt lat="43.17166" lon="-0.06624">
        <ele>495.60000610352</ele>
        <time>2019-02-17T14:24:16.000Z</time>
      </trkpt>
      <trkpt lat="43.17171" lon="-0.06622">
        <ele>495.79998779297</ele>
        <time>2019-02-17T14:24:17.000Z</time>
      </trkpt>
      <trkpt lat="43.17176" lon="-0.0662">
        <ele>495.60000610352</ele>
        <time>2019-02-17T14:24:18.000Z</time>
      </trkpt>
      <trkpt lat="43.17181" lon="-0.06617">
        <ele>495.39999389648</ele>
        <time>2019-02-17T14:24:19.000Z</time>
      </trkpt>
      <trkpt lat="43.17186" lon="-0.06615">
        <ele>495</ele>
        <time>2019-02-17T14:24:20.000Z</time>
      </trkpt>
      <trkpt lat="43.17195" lon="-0.06611">
        <ele>494.79998779297</ele>
        <time>2019-02-17T14:24:22.000Z</time>
      </trkpt>
      <trkpt lat="43.17207" lon="-0.06609">
        <ele>494.60000610352</ele>
        <time>2019-02-17T14:24:24.000Z</time>
      </trkpt>
      <trkpt lat="43.17219" lon="-0.06606">
        <ele>494.60000610352</ele>
        <time>2019-02-17T14:24:26.000Z</time>
      </trkpt>
      <trkpt lat="43.1723" lon="-0.06602">
        <ele>494.60000610352</ele>
        <time>2019-02-17T14:24:28.000Z</time>
      </trkpt>
      <trkpt lat="43.17241" lon="-0.066">
        <ele>494.60000610352</ele>
        <time>2019-02-17T14:24:30.000Z</time>
      </trkpt>
      <trkpt lat="43.17247" lon="-0.06598">
        <ele>494.39999389648</ele>
        <time>2019-02-17T14:24:31.000Z</time>
      </trkpt>
      <trkpt lat="43.17252" lon="-0.06597">
        <ele>494.39999389648</ele>
        <time>2019-02-17T14:24:32.000Z</time>
      </trkpt>
      <trkpt lat="43.17262" lon="-0.06595">
        <ele>494.39999389648</ele>
        <time>2019-02-17T14:24:34.000Z</time>
      </trkpt>
      <trkpt lat="43.17273" lon="-0.06592">
        <ele>494.39999389648</ele>
        <time>2019-02-17T14:24:36.000Z</time>
      </trkpt>
      <trkpt lat="43.17282" lon="-0.06588">
        <ele>494.20001220703</ele>
        <time>2019-02-17T14:24:38.000Z</time>
      </trkpt>
      <trkpt lat="43.17293" lon="-0.06585">
        <ele>494</ele>
        <time>2019-02-17T14:24:40.000Z</time>
      </trkpt>
      <trkpt lat="43.17303" lon="-0.06581">
        <ele>493.79998779297</ele>
        <time>2019-02-17T14:24:42.000Z</time>
      </trkpt>
      <trkpt lat="43.17312" lon="-0.06577">
        <ele>493.79998779297</ele>
        <time>2019-02-17T14:24:44.000Z</time>
      </trkpt>
      <trkpt lat="43.17322" lon="-0.06572">
        <ele>494</ele>
        <time>2019-02-17T14:24:46.000Z</time>
      </trkpt>
      <trkpt lat="43.17333" lon="-0.06569">
        <ele>493.79998779297</ele>
        <time>2019-02-17T14:24:48.000Z</time>
      </trkpt>
      <trkpt lat="43.17344" lon="-0.06566">
        <ele>494</ele>
        <time>2019-02-17T14:24:50.000Z</time>
      </trkpt>
      <trkpt lat="43.17355" lon="-0.06564">
        <ele>494</ele>
        <time>2019-02-17T14:24:52.000Z</time>
      </trkpt>
      <trkpt lat="43.17361" lon="-0.06562">
        <ele>494</ele>
        <time>2019-02-17T14:24:53.000Z</time>
      </trkpt>
      <trkpt lat="43.17366" lon="-0.06561">
        <ele>494</ele>
        <time>2019-02-17T14:24:54.000Z</time>
      </trkpt>
      <trkpt lat="43.17377" lon="-0.06558">
        <ele>494.20001220703</ele>
        <time>2019-02-17T14:24:56.000Z</time>
      </trkpt>
      <trkpt lat="43.17388" lon="-0.06556">
        <ele>494.20001220703</ele>
        <time>2019-02-17T14:24:58.000Z</time>
      </trkpt>
      <trkpt lat="43.17394" lon="-0.06555">
        <ele>494.20001220703</ele>
        <time>2019-02-17T14:24:59.000Z</time>
      </trkpt>
      <trkpt lat="43.174" lon="-0.06554">
        <ele>494</ele>
        <time>2019-02-17T14:25:00.000Z</time>
      </trkpt>
      <trkpt lat="43.17406" lon="-0.06553">
        <ele>494.20001220703</ele>
        <time>2019-02-17T14:25:01.000Z</time>
      </trkpt>
      <trkpt lat="43.17411" lon="-0.06552">
        <ele>494</ele>
        <time>2019-02-17T14:25:02.000Z</time>
      </trkpt>
      <trkpt lat="43.17423" lon="-0.0655">
        <ele>494</ele>
        <time>2019-02-17T14:25:04.000Z</time>
      </trkpt>
      <trkpt lat="43.17434" lon="-0.06547">
        <ele>493.79998779297</ele>
        <time>2019-02-17T14:25:06.000Z</time>
      </trkpt>
      <trkpt lat="43.17444" lon="-0.06546">
        <ele>493.79998779297</ele>
        <time>2019-02-17T14:25:08.000Z</time>
      </trkpt>
      <trkpt lat="43.17453" lon="-0.06541">
        <ele>493.79998779297</ele>
        <time>2019-02-17T14:25:10.000Z</time>
      </trkpt>
      <trkpt lat="43.17463" lon="-0.06539">
        <ele>493.60000610352</ele>
        <time>2019-02-17T14:25:12.000Z</time>
      </trkpt>
      <trkpt lat="43.17473" lon="-0.06536">
        <ele>493.39999389648</ele>
        <time>2019-02-17T14:25:14.000Z</time>
      </trkpt>
      <trkpt lat="43.17484" lon="-0.06534">
        <ele>493.20001220703</ele>
        <time>2019-02-17T14:25:16.000Z</time>
      </trkpt>
      <trkpt lat="43.17496" lon="-0.06533">
        <ele>493.20001220703</ele>
        <time>2019-02-17T14:25:18.000Z</time>
      </trkpt>
      <trkpt lat="43.17507" lon="-0.06531">
        <ele>492.79998779297</ele>
        <time>2019-02-17T14:25:20.000Z</time>
      </trkpt>
      <trkpt lat="43.17519" lon="-0.06529">
        <ele>492.79998779297</ele>
        <time>2019-02-17T14:25:22.000Z</time>
      </trkpt>
      <trkpt lat="43.1753" lon="-0.06526">
        <ele>492.60000610352</ele>
        <time>2019-02-17T14:25:24.000Z</time>
      </trkpt>
      <trkpt lat="43.17541" lon="-0.06523">
        <ele>492.79998779297</ele>
        <time>2019-02-17T14:25:26.000Z</time>
      </trkpt>
      <trkpt lat="43.17551" lon="-0.0652">
        <ele>492.79998779297</ele>
        <time>2019-02-17T14:25:28.000Z</time>
      </trkpt>
      <trkpt lat="43.17562" lon="-0.06517">
        <ele>492.79998779297</ele>
        <time>2019-02-17T14:25:30.000Z</time>
      </trkpt>
      <trkpt lat="43.17573" lon="-0.06515">
        <ele>492.79998779297</ele>
        <time>2019-02-17T14:25:32.000Z</time>
      </trkpt>
      <trkpt lat="43.17578" lon="-0.06514">
        <ele>492.79998779297</ele>
        <time>2019-02-17T14:25:33.000Z</time>
      </trkpt>
      <trkpt lat="43.17584" lon="-0.06514">
        <ele>492.60000610352</ele>
        <time>2019-02-17T14:25:34.000Z</time>
      </trkpt>
      <trkpt lat="43.17595" lon="-0.06513">
        <ele>492.79998779297</ele>
        <time>2019-02-17T14:25:36.000Z</time>
      </trkpt>
      <trkpt lat="43.17606" lon="-0.06512">
        <ele>492.60000610352</ele>
        <time>2019-02-17T14:25:38.000Z</time>
      </trkpt>
      <trkpt lat="43.17617" lon="-0.0651">
        <ele>492.60000610352</ele>
        <time>2019-02-17T14:25:40.000Z</time>
      </trkpt>
      <trkpt lat="43.17622" lon="-0.06509">
        <ele>492.60000610352</ele>
        <time>2019-02-17T14:25:41.000Z</time>
      </trkpt>
      <trkpt lat="43.17628" lon="-0.06508">
        <ele>492.60000610352</ele>
        <time>2019-02-17T14:25:42.000Z</time>
      </trkpt>
      <trkpt lat="43.17639" lon="-0.06506">
        <ele>492.60000610352</ele>
        <time>2019-02-17T14:25:44.000Z</time>
      </trkpt>
      <trkpt lat="43.1765" lon="-0.06505">
        <ele>492.60000610352</ele>
        <time>2019-02-17T14:25:46.000Z</time>
      </trkpt>
      <trkpt lat="43.17662" lon="-0.06503">
        <ele>492.60000610352</ele>
        <time>2019-02-17T14:25:48.000Z</time>
      </trkpt>
      <trkpt lat="43.17673" lon="-0.06502">
        <ele>492.60000610352</ele>
        <time>2019-02-17T14:25:50.000Z</time>
      </trkpt>
      <trkpt lat="43.17685" lon="-0.06501">
        <ele>492.39999389648</ele>
        <time>2019-02-17T14:25:52.000Z</time>
      </trkpt>
      <trkpt lat="43.17691" lon="-0.06502">
        <ele>492.39999389648</ele>
        <time>2019-02-17T14:25:53.000Z</time>
      </trkpt>
      <trkpt lat="43.17697" lon="-0.06503">
        <ele>492.39999389648</ele>
        <time>2019-02-17T14:25:54.000Z</time>
      </trkpt>
      <trkpt lat="43.17703" lon="-0.06505">
        <ele>492</ele>
        <time>2019-02-17T14:25:55.000Z</time>
      </trkpt>
      <trkpt lat="43.17709" lon="-0.06508">
        <ele>492</ele>
        <time>2019-02-17T14:25:56.000Z</time>
      </trkpt>
      <trkpt lat="43.17716" lon="-0.06511">
        <ele>492.20001220703</ele>
        <time>2019-02-17T14:25:57.000Z</time>
      </trkpt>
      <trkpt lat="43.17722" lon="-0.06514">
        <ele>491.79998779297</ele>
        <time>2019-02-17T14:25:58.000Z</time>
      </trkpt>
      <trkpt lat="43.17729" lon="-0.06517">
        <ele>491.60000610352</ele>
        <time>2019-02-17T14:25:59.000Z</time>
      </trkpt>
      <trkpt lat="43.17736" lon="-0.0652">
        <ele>491.39999389648</ele>
        <time>2019-02-17T14:26:00.000Z</time>
      </trkpt>
      <trkpt lat="43.1775" lon="-0.06525">
        <ele>490.79998779297</ele>
        <time>2019-02-17T14:26:02.000Z</time>
      </trkpt>
      <trkpt lat="43.17764" lon="-0.06527">
        <ele>490.39999389648</ele>
        <time>2019-02-17T14:26:04.000Z</time>
      </trkpt>
      <trkpt lat="43.17778" lon="-0.06528">
        <ele>489.39999389648</ele>
        <time>2019-02-17T14:26:06.000Z</time>
      </trkpt>
      <trkpt lat="43.17791" lon="-0.06528">
        <ele>488.39999389648</ele>
        <time>2019-02-17T14:26:08.000Z</time>
      </trkpt>
      <trkpt lat="43.17804" lon="-0.0653">
        <ele>487.79998779297</ele>
        <time>2019-02-17T14:26:10.000Z</time>
      </trkpt>
      <trkpt lat="43.17817" lon="-0.06531">
        <ele>487.60000610352</ele>
        <time>2019-02-17T14:26:12.000Z</time>
      </trkpt>
      <trkpt lat="43.17829" lon="-0.06532">
        <ele>487.79998779297</ele>
        <time>2019-02-17T14:26:14.000Z</time>
      </trkpt>
      <trkpt lat="43.17841" lon="-0.06532">
        <ele>487.60000610352</ele>
        <time>2019-02-17T14:26:16.000Z</time>
      </trkpt>
      <trkpt lat="43.17853" lon="-0.06532">
        <ele>487.60000610352</ele>
        <time>2019-02-17T14:26:18.000Z</time>
      </trkpt>
      <trkpt lat="43.17859" lon="-0.0653">
        <ele>487.60000610352</ele>
        <time>2019-02-17T14:26:19.000Z</time>
      </trkpt>
      <trkpt lat="43.17865" lon="-0.06529">
        <ele>487.60000610352</ele>
        <time>2019-02-17T14:26:20.000Z</time>
      </trkpt>
      <trkpt lat="43.17877" lon="-0.06525">
        <ele>487.60000610352</ele>
        <time>2019-02-17T14:26:22.000Z</time>
      </trkpt>
      <trkpt lat="43.17889" lon="-0.06521">
        <ele>487.79998779297</ele>
        <time>2019-02-17T14:26:24.000Z</time>
      </trkpt>
      <trkpt lat="43.17895" lon="-0.06519">
        <ele>488</ele>
        <time>2019-02-17T14:26:25.000Z</time>
      </trkpt>
      <trkpt lat="43.179" lon="-0.06517">
        <ele>488</ele>
        <time>2019-02-17T14:26:26.000Z</time>
      </trkpt>
      <trkpt lat="43.17906" lon="-0.06514">
        <ele>487.79998779297</ele>
        <time>2019-02-17T14:26:27.000Z</time>
      </trkpt>
      <trkpt lat="43.17912" lon="-0.06512">
        <ele>488</ele>
        <time>2019-02-17T14:26:28.000Z</time>
      </trkpt>
      <trkpt lat="43.17923" lon="-0.06507">
        <ele>487.79998779297</ele>
        <time>2019-02-17T14:26:30.000Z</time>
      </trkpt>
      <trkpt lat="43.17934" lon="-0.06503">
        <ele>488</ele>
        <time>2019-02-17T14:26:32.000Z</time>
      </trkpt>
      <trkpt lat="43.17946" lon="-0.06501">
        <ele>488</ele>
        <time>2019-02-17T14:26:34.000Z</time>
      </trkpt>
      <trkpt lat="43.17952" lon="-0.06501">
        <ele>488</ele>
        <time>2019-02-17T14:26:35.000Z</time>
      </trkpt>
      <trkpt lat="43.17958" lon="-0.06501">
        <ele>487.60000610352</ele>
        <time>2019-02-17T14:26:36.000Z</time>
      </trkpt>
      <trkpt lat="43.1797" lon="-0.065">
        <ele>487.60000610352</ele>
        <time>2019-02-17T14:26:38.000Z</time>
      </trkpt>
      <trkpt lat="43.17982" lon="-0.065">
        <ele>487.60000610352</ele>
        <time>2019-02-17T14:26:40.000Z</time>
      </trkpt>
      <trkpt lat="43.17994" lon="-0.06499">
        <ele>487.39999389648</ele>
        <time>2019-02-17T14:26:42.000Z</time>
      </trkpt>
      <trkpt lat="43.18" lon="-0.06499">
        <ele>487.20001220703</ele>
        <time>2019-02-17T14:26:43.000Z</time>
      </trkpt>
      <trkpt lat="43.18007" lon="-0.06499">
        <ele>487.20001220703</ele>
        <time>2019-02-17T14:26:44.000Z</time>
      </trkpt>
      <trkpt lat="43.18019" lon="-0.06498">
        <ele>487</ele>
        <time>2019-02-17T14:26:46.000Z</time>
      </trkpt>
      <trkpt lat="43.18033" lon="-0.06497">
        <ele>486.60000610352</ele>
        <time>2019-02-17T14:26:48.000Z</time>
      </trkpt>
      <trkpt lat="43.18039" lon="-0.06497">
        <ele>486.60000610352</ele>
        <time>2019-02-17T14:26:49.000Z</time>
      </trkpt>
      <trkpt lat="43.18045" lon="-0.06496">
        <ele>486.60000610352</ele>
        <time>2019-02-17T14:26:50.000Z</time>
      </trkpt>
      <trkpt lat="43.18059" lon="-0.06496">
        <ele>485.79998779297</ele>
        <time>2019-02-17T14:26:52.000Z</time>
      </trkpt>
      <trkpt lat="43.18072" lon="-0.06496">
        <ele>485.20001220703</ele>
        <time>2019-02-17T14:26:54.000Z</time>
      </trkpt>
      <trkpt lat="43.18086" lon="-0.06496">
        <ele>484.79998779297</ele>
        <time>2019-02-17T14:26:56.000Z</time>
      </trkpt>
      <trkpt lat="43.18099" lon="-0.06496">
        <ele>484.39999389648</ele>
        <time>2019-02-17T14:26:58.000Z</time>
      </trkpt>
      <trkpt lat="43.18105" lon="-0.06496">
        <ele>484.20001220703</ele>
        <time>2019-02-17T14:26:59.000Z</time>
      </trkpt>
      <trkpt lat="43.18112" lon="-0.06496">
        <ele>484</ele>
        <time>2019-02-17T14:27:00.000Z</time>
      </trkpt>
      <trkpt lat="43.18124" lon="-0.06496">
        <ele>483.60000610352</ele>
        <time>2019-02-17T14:27:02.000Z</time>
      </trkpt>
      <trkpt lat="43.18137" lon="-0.06495">
        <ele>483.60000610352</ele>
        <time>2019-02-17T14:27:04.000Z</time>
      </trkpt>
      <trkpt lat="43.1815" lon="-0.06491">
        <ele>483.39999389648</ele>
        <time>2019-02-17T14:27:06.000Z</time>
      </trkpt>
      <trkpt lat="43.18161" lon="-0.06487">
        <ele>483.39999389648</ele>
        <time>2019-02-17T14:27:08.000Z</time>
      </trkpt>
      <trkpt lat="43.18173" lon="-0.06481">
        <ele>483.20001220703</ele>
        <time>2019-02-17T14:27:10.000Z</time>
      </trkpt>
      <trkpt lat="43.18185" lon="-0.06475">
        <ele>483.20001220703</ele>
        <time>2019-02-17T14:27:12.000Z</time>
      </trkpt>
      <trkpt lat="43.18196" lon="-0.06469">
        <ele>483.20001220703</ele>
        <time>2019-02-17T14:27:14.000Z</time>
      </trkpt>
      <trkpt lat="43.18208" lon="-0.06463">
        <ele>483</ele>
        <time>2019-02-17T14:27:16.000Z</time>
      </trkpt>
      <trkpt lat="43.18214" lon="-0.0646">
        <ele>483</ele>
        <time>2019-02-17T14:27:17.000Z</time>
      </trkpt>
      <trkpt lat="43.18219" lon="-0.06457">
        <ele>483</ele>
        <time>2019-02-17T14:27:18.000Z</time>
      </trkpt>
      <trkpt lat="43.18231" lon="-0.06452">
        <ele>483</ele>
        <time>2019-02-17T14:27:20.000Z</time>
      </trkpt>
      <trkpt lat="43.18242" lon="-0.06446">
        <ele>482.79998779297</ele>
        <time>2019-02-17T14:27:22.000Z</time>
      </trkpt>
      <trkpt lat="43.18253" lon="-0.06439">
        <ele>482.60000610352</ele>
        <time>2019-02-17T14:27:24.000Z</time>
      </trkpt>
      <trkpt lat="43.18264" lon="-0.06433">
        <ele>482.39999389648</ele>
        <time>2019-02-17T14:27:26.000Z</time>
      </trkpt>
      <trkpt lat="43.18274" lon="-0.06427">
        <ele>482.20001220703</ele>
        <time>2019-02-17T14:27:28.000Z</time>
      </trkpt>
      <trkpt lat="43.18284" lon="-0.06422">
        <ele>482</ele>
        <time>2019-02-17T14:27:30.000Z</time>
      </trkpt>
      <trkpt lat="43.18295" lon="-0.06416">
        <ele>481.79998779297</ele>
        <time>2019-02-17T14:27:32.000Z</time>
      </trkpt>
      <trkpt lat="43.18307" lon="-0.06411">
        <ele>481.79998779297</ele>
        <time>2019-02-17T14:27:34.000Z</time>
      </trkpt>
      <trkpt lat="43.18319" lon="-0.06405">
        <ele>481.60000610352</ele>
        <time>2019-02-17T14:27:36.000Z</time>
      </trkpt>
      <trkpt lat="43.1833" lon="-0.06399">
        <ele>481.60000610352</ele>
        <time>2019-02-17T14:27:38.000Z</time>
      </trkpt>
      <trkpt lat="43.18335" lon="-0.06397">
        <ele>481.60000610352</ele>
        <time>2019-02-17T14:27:39.000Z</time>
      </trkpt>
      <trkpt lat="43.18341" lon="-0.06394">
        <ele>481.60000610352</ele>
        <time>2019-02-17T14:27:40.000Z</time>
      </trkpt>
      <trkpt lat="43.18352" lon="-0.06388">
        <ele>481.60000610352</ele>
        <time>2019-02-17T14:27:42.000Z</time>
      </trkpt>
      <trkpt lat="43.18358" lon="-0.06385">
        <ele>481.39999389648</ele>
        <time>2019-02-17T14:27:43.000Z</time>
      </trkpt>
      <trkpt lat="43.18364" lon="-0.06383">
        <ele>481.60000610352</ele>
        <time>2019-02-17T14:27:44.000Z</time>
      </trkpt>
      <trkpt lat="43.18375" lon="-0.06377">
        <ele>481.39999389648</ele>
        <time>2019-02-17T14:27:46.000Z</time>
      </trkpt>
      <trkpt lat="43.18387" lon="-0.06372">
        <ele>481.20001220703</ele>
        <time>2019-02-17T14:27:48.000Z</time>
      </trkpt>
      <trkpt lat="43.18397" lon="-0.06367">
        <ele>481</ele>
        <time>2019-02-17T14:27:50.000Z</time>
      </trkpt>
      <trkpt lat="43.18407" lon="-0.06362">
        <ele>481</ele>
        <time>2019-02-17T14:27:52.000Z</time>
      </trkpt>
      <trkpt lat="43.18418" lon="-0.06356">
        <ele>480.60000610352</ele>
        <time>2019-02-17T14:27:54.000Z</time>
      </trkpt>
      <trkpt lat="43.18429" lon="-0.06351">
        <ele>480.60000610352</ele>
        <time>2019-02-17T14:27:56.000Z</time>
      </trkpt>
      <trkpt lat="43.18439" lon="-0.06345">
        <ele>480.39999389648</ele>
        <time>2019-02-17T14:27:58.000Z</time>
      </trkpt>
      <trkpt lat="43.18449" lon="-0.06339">
        <ele>480.39999389648</ele>
        <time>2019-02-17T14:28:00.000Z</time>
      </trkpt>
      <trkpt lat="43.18457" lon="-0.06331">
        <ele>480.20001220703</ele>
        <time>2019-02-17T14:28:02.000Z</time>
      </trkpt>
      <trkpt lat="43.18462" lon="-0.0632">
        <ele>480</ele>
        <time>2019-02-17T14:28:04.000Z</time>
      </trkpt>
      <trkpt lat="43.18466" lon="-0.06308">
        <ele>479.60000610352</ele>
        <time>2019-02-17T14:28:06.000Z</time>
      </trkpt>
      <trkpt lat="43.1847" lon="-0.06296">
        <ele>479.60000610352</ele>
        <time>2019-02-17T14:28:08.000Z</time>
      </trkpt>
      <trkpt lat="43.18473" lon="-0.06284">
        <ele>479.60000610352</ele>
        <time>2019-02-17T14:28:10.000Z</time>
      </trkpt>
      <trkpt lat="43.18477" lon="-0.06272">
        <ele>479.60000610352</ele>
        <time>2019-02-17T14:28:12.000Z</time>
      </trkpt>
      <trkpt lat="43.18478" lon="-0.06266">
        <ele>479.60000610352</ele>
        <time>2019-02-17T14:28:13.000Z</time>
      </trkpt>
      <trkpt lat="43.18479" lon="-0.0626">
        <ele>479.39999389648</ele>
        <time>2019-02-17T14:28:14.000Z</time>
      </trkpt>
      <trkpt lat="43.18483" lon="-0.06248">
        <ele>479.60000610352</ele>
        <time>2019-02-17T14:28:16.000Z</time>
      </trkpt>
      <trkpt lat="43.18486" lon="-0.06237">
        <ele>479.79998779297</ele>
        <time>2019-02-17T14:28:18.000Z</time>
      </trkpt>
      <trkpt lat="43.18488" lon="-0.06231">
        <ele>480</ele>
        <time>2019-02-17T14:28:19.000Z</time>
      </trkpt>
      <trkpt lat="43.1849" lon="-0.06226">
        <ele>480</ele>
        <time>2019-02-17T14:28:20.000Z</time>
      </trkpt>
      <trkpt lat="43.18493" lon="-0.06214">
        <ele>480.20001220703</ele>
        <time>2019-02-17T14:28:22.000Z</time>
      </trkpt>
      <trkpt lat="43.18496" lon="-0.06203">
        <ele>480.20001220703</ele>
        <time>2019-02-17T14:28:24.000Z</time>
      </trkpt>
      <trkpt lat="43.18499" lon="-0.06192">
        <ele>480.39999389648</ele>
        <time>2019-02-17T14:28:26.000Z</time>
      </trkpt>
      <trkpt lat="43.18501" lon="-0.06186">
        <ele>480.60000610352</ele>
        <time>2019-02-17T14:28:27.000Z</time>
      </trkpt>
      <trkpt lat="43.18503" lon="-0.06181">
        <ele>480.60000610352</ele>
        <time>2019-02-17T14:28:28.000Z</time>
      </trkpt>
      <trkpt lat="43.18506" lon="-0.0617">
        <ele>480.79998779297</ele>
        <time>2019-02-17T14:28:30.000Z</time>
      </trkpt>
      <trkpt lat="43.18509" lon="-0.06158">
        <ele>481.20001220703</ele>
        <time>2019-02-17T14:28:32.000Z</time>
      </trkpt>
      <trkpt lat="43.18513" lon="-0.06147">
        <ele>481.60000610352</ele>
        <time>2019-02-17T14:28:34.000Z</time>
      </trkpt>
      <trkpt lat="43.18516" lon="-0.06134">
        <ele>481.60000610352</ele>
        <time>2019-02-17T14:28:36.000Z</time>
      </trkpt>
      <trkpt lat="43.18519" lon="-0.06121">
        <ele>481.60000610352</ele>
        <time>2019-02-17T14:28:38.000Z</time>
      </trkpt>
      <trkpt lat="43.18521" lon="-0.06115">
        <ele>481.79998779297</ele>
        <time>2019-02-17T14:28:39.000Z</time>
      </trkpt>
      <trkpt lat="43.18522" lon="-0.06108">
        <ele>481.79998779297</ele>
        <time>2019-02-17T14:28:40.000Z</time>
      </trkpt>
      <trkpt lat="43.18523" lon="-0.06102">
        <ele>482</ele>
        <time>2019-02-17T14:28:41.000Z</time>
      </trkpt>
      <trkpt lat="43.18524" lon="-0.06095">
        <ele>482</ele>
        <time>2019-02-17T14:28:42.000Z</time>
      </trkpt>
      <trkpt lat="43.18526" lon="-0.06089">
        <ele>481.79998779297</ele>
        <time>2019-02-17T14:28:43.000Z</time>
      </trkpt>
      <trkpt lat="43.18526" lon="-0.06083">
        <ele>481.79998779297</ele>
        <time>2019-02-17T14:28:44.000Z</time>
      </trkpt>
      <trkpt lat="43.18527" lon="-0.06071">
        <ele>481.79998779297</ele>
        <time>2019-02-17T14:28:46.000Z</time>
      </trkpt>
      <trkpt lat="43.18528" lon="-0.06064">
        <ele>481.79998779297</ele>
        <time>2019-02-17T14:28:47.000Z</time>
      </trkpt>
      <trkpt lat="43.18529" lon="-0.06057">
        <ele>481.79998779297</ele>
        <time>2019-02-17T14:28:48.000Z</time>
      </trkpt>
      <trkpt lat="43.1853" lon="-0.06045">
        <ele>481.79998779297</ele>
        <time>2019-02-17T14:28:50.000Z</time>
      </trkpt>
      <trkpt lat="43.18531" lon="-0.0604">
        <ele>481.60000610352</ele>
        <time>2019-02-17T14:28:51.000Z</time>
      </trkpt>
      <trkpt lat="43.18533" lon="-0.06036">
        <ele>481.60000610352</ele>
        <time>2019-02-17T14:28:52.000Z</time>
      </trkpt>
      <trkpt lat="43.1854" lon="-0.06028">
        <ele>481.20001220703</ele>
        <time>2019-02-17T14:28:54.000Z</time>
      </trkpt>
      <trkpt lat="43.18548" lon="-0.06021">
        <ele>480.79998779297</ele>
        <time>2019-02-17T14:28:56.000Z</time>
      </trkpt>
      <trkpt lat="43.18558" lon="-0.06014">
        <ele>480.39999389648</ele>
        <time>2019-02-17T14:28:58.000Z</time>
      </trkpt>
      <trkpt lat="43.18567" lon="-0.06008">
        <ele>480.20001220703</ele>
        <time>2019-02-17T14:29:00.000Z</time>
      </trkpt>
      <trkpt lat="43.18576" lon="-0.06001">
        <ele>480</ele>
        <time>2019-02-17T14:29:02.000Z</time>
      </trkpt>
      <trkpt lat="43.18585" lon="-0.05994">
        <ele>479.60000610352</ele>
        <time>2019-02-17T14:29:04.000Z</time>
      </trkpt>
      <trkpt lat="43.18593" lon="-0.05987">
        <ele>479.39999389648</ele>
        <time>2019-02-17T14:29:06.000Z</time>
      </trkpt>
      <trkpt lat="43.18601" lon="-0.05981">
        <ele>479.20001220703</ele>
        <time>2019-02-17T14:29:08.000Z</time>
      </trkpt>
      <trkpt lat="43.18611" lon="-0.05974">
        <ele>479.20001220703</ele>
        <time>2019-02-17T14:29:10.000Z</time>
      </trkpt>
      <trkpt lat="43.18615" lon="-0.05971">
        <ele>479</ele>
        <time>2019-02-17T14:29:11.000Z</time>
      </trkpt>
      <trkpt lat="43.1862" lon="-0.05967">
        <ele>479.20001220703</ele>
        <time>2019-02-17T14:29:12.000Z</time>
      </trkpt>
      <trkpt lat="43.18628" lon="-0.05961">
        <ele>479</ele>
        <time>2019-02-17T14:29:14.000Z</time>
      </trkpt>
      <trkpt lat="43.18637" lon="-0.05954">
        <ele>479.39999389648</ele>
        <time>2019-02-17T14:29:16.000Z</time>
      </trkpt>
      <trkpt lat="43.18645" lon="-0.05947">
        <ele>479.60000610352</ele>
        <time>2019-02-17T14:29:18.000Z</time>
      </trkpt>
      <trkpt lat="43.18648" lon="-0.05943">
        <ele>479.60000610352</ele>
        <time>2019-02-17T14:29:19.000Z</time>
      </trkpt>
      <trkpt lat="43.18651" lon="-0.05938">
        <ele>479.60000610352</ele>
        <time>2019-02-17T14:29:20.000Z</time>
      </trkpt>
      <trkpt lat="43.18656" lon="-0.05928">
        <ele>479.60000610352</ele>
        <time>2019-02-17T14:29:22.000Z</time>
      </trkpt>
      <trkpt lat="43.18662" lon="-0.05917">
        <ele>479.60000610352</ele>
        <time>2019-02-17T14:29:24.000Z</time>
      </trkpt>
      <trkpt lat="43.18665" lon="-0.05912">
        <ele>479.60000610352</ele>
        <time>2019-02-17T14:29:25.000Z</time>
      </trkpt>
      <trkpt lat="43.18669" lon="-0.05906">
        <ele>479.60000610352</ele>
        <time>2019-02-17T14:29:26.000Z</time>
      </trkpt>
      <trkpt lat="43.18676" lon="-0.05896">
        <ele>479.60000610352</ele>
        <time>2019-02-17T14:29:28.000Z</time>
      </trkpt>
      <trkpt lat="43.18684" lon="-0.05886">
        <ele>479.60000610352</ele>
        <time>2019-02-17T14:29:30.000Z</time>
      </trkpt>
      <trkpt lat="43.18692" lon="-0.05877">
        <ele>479.20001220703</ele>
        <time>2019-02-17T14:29:32.000Z</time>
      </trkpt>
      <trkpt lat="43.18702" lon="-0.05868">
        <ele>479.39999389648</ele>
        <time>2019-02-17T14:29:34.000Z</time>
      </trkpt>
      <trkpt lat="43.18712" lon="-0.0586">
        <ele>479.39999389648</ele>
        <time>2019-02-17T14:29:36.000Z</time>
      </trkpt>
      <trkpt lat="43.18721" lon="-0.05852">
        <ele>479.20001220703</ele>
        <time>2019-02-17T14:29:38.000Z</time>
      </trkpt>
      <trkpt lat="43.18726" lon="-0.05849">
        <ele>479.20001220703</ele>
        <time>2019-02-17T14:29:39.000Z</time>
      </trkpt>
      <trkpt lat="43.18731" lon="-0.05845">
        <ele>479.20001220703</ele>
        <time>2019-02-17T14:29:40.000Z</time>
      </trkpt>
      <trkpt lat="43.18741" lon="-0.05836">
        <ele>479.20001220703</ele>
        <time>2019-02-17T14:29:42.000Z</time>
      </trkpt>
      <trkpt lat="43.18749" lon="-0.05828">
        <ele>479.20001220703</ele>
        <time>2019-02-17T14:29:44.000Z</time>
      </trkpt>
      <trkpt lat="43.18758" lon="-0.0582">
        <ele>479</ele>
        <time>2019-02-17T14:29:46.000Z</time>
      </trkpt>
      <trkpt lat="43.18767" lon="-0.05812">
        <ele>479</ele>
        <time>2019-02-17T14:29:48.000Z</time>
      </trkpt>
      <trkpt lat="43.18776" lon="-0.05804">
        <ele>478.79998779297</ele>
        <time>2019-02-17T14:29:50.000Z</time>
      </trkpt>
      <trkpt lat="43.18784" lon="-0.05794">
        <ele>478.79998779297</ele>
        <time>2019-02-17T14:29:52.000Z</time>
      </trkpt>
      <trkpt lat="43.18791" lon="-0.05784">
        <ele>478.60000610352</ele>
        <time>2019-02-17T14:29:54.000Z</time>
      </trkpt>
      <trkpt lat="43.18799" lon="-0.05775">
        <ele>478.60000610352</ele>
        <time>2019-02-17T14:29:56.000Z</time>
      </trkpt>
      <trkpt lat="43.18808" lon="-0.05767">
        <ele>478.39999389648</ele>
        <time>2019-02-17T14:29:58.000Z</time>
      </trkpt>
      <trkpt lat="43.18816" lon="-0.05759">
        <ele>478.39999389648</ele>
        <time>2019-02-17T14:30:00.000Z</time>
      </trkpt>
      <trkpt lat="43.18825" lon="-0.0575">
        <ele>478.39999389648</ele>
        <time>2019-02-17T14:30:02.000Z</time>
      </trkpt>
      <trkpt lat="43.18834" lon="-0.05742">
        <ele>478.20001220703</ele>
        <time>2019-02-17T14:30:04.000Z</time>
      </trkpt>
      <trkpt lat="43.18842" lon="-0.05733">
        <ele>478.20001220703</ele>
        <time>2019-02-17T14:30:06.000Z</time>
      </trkpt>
      <trkpt lat="43.18851" lon="-0.05725">
        <ele>478</ele>
        <time>2019-02-17T14:30:08.000Z</time>
      </trkpt>
      <trkpt lat="43.1886" lon="-0.05717">
        <ele>478</ele>
        <time>2019-02-17T14:30:10.000Z</time>
      </trkpt>
      <trkpt lat="43.18869" lon="-0.05708">
        <ele>477.79998779297</ele>
        <time>2019-02-17T14:30:12.000Z</time>
      </trkpt>
      <trkpt lat="43.18878" lon="-0.057">
        <ele>477.79998779297</ele>
        <time>2019-02-17T14:30:14.000Z</time>
      </trkpt>
      <trkpt lat="43.18887" lon="-0.05695">
        <ele>477.79998779297</ele>
        <time>2019-02-17T14:30:16.000Z</time>
      </trkpt>
      <trkpt lat="43.18898" lon="-0.05692">
        <ele>477.79998779297</ele>
        <time>2019-02-17T14:30:18.000Z</time>
      </trkpt>
      <trkpt lat="43.18909" lon="-0.0569">
        <ele>477.79998779297</ele>
        <time>2019-02-17T14:30:20.000Z</time>
      </trkpt>
      <trkpt lat="43.18919" lon="-0.05689">
        <ele>478.20001220703</ele>
        <time>2019-02-17T14:30:22.000Z</time>
      </trkpt>
      <trkpt lat="43.18929" lon="-0.05686">
        <ele>478.20001220703</ele>
        <time>2019-02-17T14:30:24.000Z</time>
      </trkpt>
      <trkpt lat="43.18939" lon="-0.05683">
        <ele>478.20001220703</ele>
        <time>2019-02-17T14:30:26.000Z</time>
      </trkpt>
      <trkpt lat="43.18947" lon="-0.05678">
        <ele>478</ele>
        <time>2019-02-17T14:30:28.000Z</time>
      </trkpt>
      <trkpt lat="43.18956" lon="-0.05672">
        <ele>478.20001220703</ele>
        <time>2019-02-17T14:30:30.000Z</time>
      </trkpt>
      <trkpt lat="43.18965" lon="-0.05665">
        <ele>478.20001220703</ele>
        <time>2019-02-17T14:30:32.000Z</time>
      </trkpt>
      <trkpt lat="43.18973" lon="-0.05658">
        <ele>478.20001220703</ele>
        <time>2019-02-17T14:30:34.000Z</time>
      </trkpt>
      <trkpt lat="43.18982" lon="-0.05651">
        <ele>478.20001220703</ele>
        <time>2019-02-17T14:30:36.000Z</time>
      </trkpt>
      <trkpt lat="43.18989" lon="-0.05646">
        <ele>478</ele>
        <time>2019-02-17T14:30:38.000Z</time>
      </trkpt>
      <trkpt lat="43.18995" lon="-0.05642">
        <ele>478.20001220703</ele>
        <time>2019-02-17T14:30:40.000Z</time>
      </trkpt>
      <trkpt lat="43.19001" lon="-0.05638">
        <ele>478</ele>
        <time>2019-02-17T14:30:42.000Z</time>
      </trkpt>
      <trkpt lat="43.19006" lon="-0.05634">
        <ele>478</ele>
        <time>2019-02-17T14:30:44.000Z</time>
      </trkpt>
      <trkpt lat="43.19011" lon="-0.0563">
        <ele>478</ele>
        <time>2019-02-17T14:30:46.000Z</time>
      </trkpt>
      <trkpt lat="43.19018" lon="-0.05625">
        <ele>477.79998779297</ele>
        <time>2019-02-17T14:30:48.000Z</time>
      </trkpt>
      <trkpt lat="43.19021" lon="-0.05623">
        <ele>478</ele>
        <time>2019-02-17T14:30:49.000Z</time>
      </trkpt>
      <trkpt lat="43.19025" lon="-0.05621">
        <ele>477.79998779297</ele>
        <time>2019-02-17T14:30:50.000Z</time>
      </trkpt>
      <trkpt lat="43.19034" lon="-0.0562">
        <ele>477.60000610352</ele>
        <time>2019-02-17T14:30:52.000Z</time>
      </trkpt>
      <trkpt lat="43.19043" lon="-0.05619">
        <ele>477.79998779297</ele>
        <time>2019-02-17T14:30:54.000Z</time>
      </trkpt>
      <trkpt lat="43.19052" lon="-0.0562">
        <ele>477.39999389648</ele>
        <time>2019-02-17T14:30:56.000Z</time>
      </trkpt>
      <trkpt lat="43.19062" lon="-0.05621">
        <ele>477.20001220703</ele>
        <time>2019-02-17T14:30:58.000Z</time>
      </trkpt>
      <trkpt lat="43.19072" lon="-0.05622">
        <ele>477</ele>
        <time>2019-02-17T14:31:00.000Z</time>
      </trkpt>
      <trkpt lat="43.19083" lon="-0.05623">
        <ele>476.79998779297</ele>
        <time>2019-02-17T14:31:02.000Z</time>
      </trkpt>
      <trkpt lat="43.19088" lon="-0.05624">
        <ele>476.79998779297</ele>
        <time>2019-02-17T14:31:03.000Z</time>
      </trkpt>
      <trkpt lat="43.19093" lon="-0.05624">
        <ele>476.60000610352</ele>
        <time>2019-02-17T14:31:04.000Z</time>
      </trkpt>
      <trkpt lat="43.19103" lon="-0.05622">
        <ele>476.39999389648</ele>
        <time>2019-02-17T14:31:06.000Z</time>
      </trkpt>
      <trkpt lat="43.19108" lon="-0.05621">
        <ele>476.20001220703</ele>
        <time>2019-02-17T14:31:07.000Z</time>
      </trkpt>
      <trkpt lat="43.19113" lon="-0.05619">
        <ele>476.20001220703</ele>
        <time>2019-02-17T14:31:08.000Z</time>
      </trkpt>
      <trkpt lat="43.19123" lon="-0.05614">
        <ele>476</ele>
        <time>2019-02-17T14:31:10.000Z</time>
      </trkpt>
      <trkpt lat="43.19128" lon="-0.05611">
        <ele>476</ele>
        <time>2019-02-17T14:31:11.000Z</time>
      </trkpt>
      <trkpt lat="43.19132" lon="-0.05609">
        <ele>475.79998779297</ele>
        <time>2019-02-17T14:31:12.000Z</time>
      </trkpt>
      <trkpt lat="43.19141" lon="-0.05603">
        <ele>475.60000610352</ele>
        <time>2019-02-17T14:31:14.000Z</time>
      </trkpt>
      <trkpt lat="43.19146" lon="-0.056">
        <ele>475.60000610352</ele>
        <time>2019-02-17T14:31:15.000Z</time>
      </trkpt>
      <trkpt lat="43.1915" lon="-0.05597">
        <ele>475.39999389648</ele>
        <time>2019-02-17T14:31:16.000Z</time>
      </trkpt>
      <trkpt lat="43.1916" lon="-0.05592">
        <ele>475.20001220703</ele>
        <time>2019-02-17T14:31:18.000Z</time>
      </trkpt>
      <trkpt lat="43.19164" lon="-0.05589">
        <ele>475.20001220703</ele>
        <time>2019-02-17T14:31:19.000Z</time>
      </trkpt>
      <trkpt lat="43.19169" lon="-0.05586">
        <ele>475.20001220703</ele>
        <time>2019-02-17T14:31:20.000Z</time>
      </trkpt>
      <trkpt lat="43.19177" lon="-0.05581">
        <ele>475</ele>
        <time>2019-02-17T14:31:22.000Z</time>
      </trkpt>
      <trkpt lat="43.19181" lon="-0.05578">
        <ele>475</ele>
        <time>2019-02-17T14:31:23.000Z</time>
      </trkpt>
      <trkpt lat="43.19185" lon="-0.05577">
        <ele>475</ele>
        <time>2019-02-17T14:31:24.000Z</time>
      </trkpt>
      <trkpt lat="43.19189" lon="-0.05575">
        <ele>474.79998779297</ele>
        <time>2019-02-17T14:31:25.000Z</time>
      </trkpt>
      <trkpt lat="43.19193" lon="-0.05573">
        <ele>474.79998779297</ele>
        <time>2019-02-17T14:31:26.000Z</time>
      </trkpt>
      <trkpt lat="43.19201" lon="-0.0557">
        <ele>474.79998779297</ele>
        <time>2019-02-17T14:31:28.000Z</time>
      </trkpt>
      <trkpt lat="43.19206" lon="-0.05569">
        <ele>474.79998779297</ele>
        <time>2019-02-17T14:31:29.000Z</time>
      </trkpt>
      <trkpt lat="43.1921" lon="-0.05567">
        <ele>474.60000610352</ele>
        <time>2019-02-17T14:31:30.000Z</time>
      </trkpt>
      <trkpt lat="43.1922" lon="-0.05564">
        <ele>474.20001220703</ele>
        <time>2019-02-17T14:31:32.000Z</time>
      </trkpt>
      <trkpt lat="43.19224" lon="-0.05563">
        <ele>474.20001220703</ele>
        <time>2019-02-17T14:31:33.000Z</time>
      </trkpt>
      <trkpt lat="43.19229" lon="-0.05561">
        <ele>474.20001220703</ele>
        <time>2019-02-17T14:31:34.000Z</time>
      </trkpt>
      <trkpt lat="43.19238" lon="-0.05558">
        <ele>474.39999389648</ele>
        <time>2019-02-17T14:31:36.000Z</time>
      </trkpt>
      <trkpt lat="43.19245" lon="-0.05554">
        <ele>474.60000610352</ele>
        <time>2019-02-17T14:31:38.000Z</time>
      </trkpt>
      <trkpt lat="43.19252" lon="-0.05554">
        <ele>474.39999389648</ele>
        <time>2019-02-17T14:31:40.000Z</time>
      </trkpt>
      <trkpt lat="43.19258" lon="-0.05558">
        <ele>474.39999389648</ele>
        <time>2019-02-17T14:31:42.000Z</time>
      </trkpt>
      <trkpt lat="43.19263" lon="-0.05565">
        <ele>474.60000610352</ele>
        <time>2019-02-17T14:31:44.000Z</time>
      </trkpt>
      <trkpt lat="43.19268" lon="-0.05571">
        <ele>474.39999389648</ele>
        <time>2019-02-17T14:31:46.000Z</time>
      </trkpt>
      <trkpt lat="43.19273" lon="-0.05573">
        <ele>474.60000610352</ele>
        <time>2019-02-17T14:31:48.000Z</time>
      </trkpt>
      <trkpt lat="43.1928" lon="-0.05575">
        <ele>474.39999389648</ele>
        <time>2019-02-17T14:31:50.000Z</time>
      </trkpt>
      <trkpt lat="43.19285" lon="-0.05574">
        <ele>474.60000610352</ele>
        <time>2019-02-17T14:31:52.000Z</time>
      </trkpt>
      <trkpt lat="43.19289" lon="-0.05573">
        <ele>474.60000610352</ele>
        <time>2019-02-17T14:31:54.000Z</time>
      </trkpt>
      <trkpt lat="43.1929" lon="-0.05573">
        <ele>474.60000610352</ele>
        <time>2019-02-17T14:31:56.000Z</time>
      </trkpt>
      <trkpt lat="43.19298" lon="-0.0557">
        <ele>474.79998779297</ele>
        <time>2019-02-17T14:32:02.000Z</time>
      </trkpt>
      <trkpt lat="43.19301" lon="-0.05566">
        <ele>474.79998779297</ele>
        <time>2019-02-17T14:32:04.000Z</time>
      </trkpt>
      <trkpt lat="43.19305" lon="-0.05563">
        <ele>474.79998779297</ele>
        <time>2019-02-17T14:32:06.000Z</time>
      </trkpt>
      <trkpt lat="43.1931" lon="-0.05558">
        <ele>474.79998779297</ele>
        <time>2019-02-17T14:32:08.000Z</time>
      </trkpt>
      <trkpt lat="43.19316" lon="-0.05553">
        <ele>474.79998779297</ele>
        <time>2019-02-17T14:32:10.000Z</time>
      </trkpt>
      <trkpt lat="43.19321" lon="-0.05549">
        <ele>474.79998779297</ele>
        <time>2019-02-17T14:32:12.000Z</time>
      </trkpt>
      <trkpt lat="43.19327" lon="-0.05546">
        <ele>474.60000610352</ele>
        <time>2019-02-17T14:32:14.000Z</time>
      </trkpt>
      <trkpt lat="43.19332" lon="-0.05543">
        <ele>474.60000610352</ele>
        <time>2019-02-17T14:32:16.000Z</time>
      </trkpt>
      <trkpt lat="43.19335" lon="-0.0554">
        <ele>474.39999389648</ele>
        <time>2019-02-17T14:32:17.000Z</time>
      </trkpt>
      <trkpt lat="43.19338" lon="-0.05538">
        <ele>474.60000610352</ele>
        <time>2019-02-17T14:32:18.000Z</time>
      </trkpt>
      <trkpt lat="43.19345" lon="-0.05532">
        <ele>474.20001220703</ele>
        <time>2019-02-17T14:32:20.000Z</time>
      </trkpt>
      <trkpt lat="43.19351" lon="-0.05526">
        <ele>474</ele>
        <time>2019-02-17T14:32:22.000Z</time>
      </trkpt>
      <trkpt lat="43.19357" lon="-0.05521">
        <ele>474.20001220703</ele>
        <time>2019-02-17T14:32:24.000Z</time>
      </trkpt>
      <trkpt lat="43.19363" lon="-0.05515">
        <ele>473.79998779297</ele>
        <time>2019-02-17T14:32:26.000Z</time>
      </trkpt>
      <trkpt lat="43.19369" lon="-0.05509">
        <ele>473.79998779297</ele>
        <time>2019-02-17T14:32:28.000Z</time>
      </trkpt>
      <trkpt lat="43.19375" lon="-0.05505">
        <ele>473.79998779297</ele>
        <time>2019-02-17T14:32:30.000Z</time>
      </trkpt>
      <trkpt lat="43.1938" lon="-0.055">
        <ele>473.60000610352</ele>
        <time>2019-02-17T14:32:32.000Z</time>
      </trkpt>
      <trkpt lat="43.19386" lon="-0.05495">
        <ele>473.60000610352</ele>
        <time>2019-02-17T14:32:34.000Z</time>
      </trkpt>
      <trkpt lat="43.19392" lon="-0.0549">
        <ele>473.39999389648</ele>
        <time>2019-02-17T14:32:36.000Z</time>
      </trkpt>
      <trkpt lat="43.19398" lon="-0.05484">
        <ele>473.60000610352</ele>
        <time>2019-02-17T14:32:38.000Z</time>
      </trkpt>
      <trkpt lat="43.19405" lon="-0.05479">
        <ele>473.79998779297</ele>
        <time>2019-02-17T14:32:40.000Z</time>
      </trkpt>
      <trkpt lat="43.1941" lon="-0.05473">
        <ele>473.79998779297</ele>
        <time>2019-02-17T14:32:42.000Z</time>
      </trkpt>
      <trkpt lat="43.19414" lon="-0.05467">
        <ele>473.60000610352</ele>
        <time>2019-02-17T14:32:44.000Z</time>
      </trkpt>
      <trkpt lat="43.19419" lon="-0.05463">
        <ele>473.60000610352</ele>
        <time>2019-02-17T14:32:46.000Z</time>
      </trkpt>
      <trkpt lat="43.19425" lon="-0.05457">
        <ele>473.60000610352</ele>
        <time>2019-02-17T14:32:48.000Z</time>
      </trkpt>
      <trkpt lat="43.19431" lon="-0.05451">
        <ele>473.60000610352</ele>
        <time>2019-02-17T14:32:50.000Z</time>
      </trkpt>
      <trkpt lat="43.19439" lon="-0.05444">
        <ele>473.60000610352</ele>
        <time>2019-02-17T14:32:52.000Z</time>
      </trkpt>
      <trkpt lat="43.19446" lon="-0.05437">
        <ele>473.60000610352</ele>
        <time>2019-02-17T14:32:54.000Z</time>
      </trkpt>
      <trkpt lat="43.19452" lon="-0.05429">
        <ele>473.79998779297</ele>
        <time>2019-02-17T14:32:56.000Z</time>
      </trkpt>
      <trkpt lat="43.19458" lon="-0.05423">
        <ele>473.60000610352</ele>
        <time>2019-02-17T14:32:58.000Z</time>
      </trkpt>
      <trkpt lat="43.19464" lon="-0.05419">
        <ele>473.60000610352</ele>
        <time>2019-02-17T14:33:00.000Z</time>
      </trkpt>
      <trkpt lat="43.1947" lon="-0.05415">
        <ele>473.60000610352</ele>
        <time>2019-02-17T14:33:02.000Z</time>
      </trkpt>
      <trkpt lat="43.19476" lon="-0.05411">
        <ele>473.60000610352</ele>
        <time>2019-02-17T14:33:04.000Z</time>
      </trkpt>
      <trkpt lat="43.1948" lon="-0.05407">
        <ele>473.60000610352</ele>
        <time>2019-02-17T14:33:06.000Z</time>
      </trkpt>
      <trkpt lat="43.19486" lon="-0.05403">
        <ele>473.39999389648</ele>
        <time>2019-02-17T14:33:08.000Z</time>
      </trkpt>
      <trkpt lat="43.19492" lon="-0.05398">
        <ele>473.39999389648</ele>
        <time>2019-02-17T14:33:10.000Z</time>
      </trkpt>
      <trkpt lat="43.19495" lon="-0.05395">
        <ele>473.60000610352</ele>
        <time>2019-02-17T14:33:11.000Z</time>
      </trkpt>
      <trkpt lat="43.19498" lon="-0.05393">
        <ele>473.39999389648</ele>
        <time>2019-02-17T14:33:12.000Z</time>
      </trkpt>
      <trkpt lat="43.19502" lon="-0.05391">
        <ele>473.39999389648</ele>
        <time>2019-02-17T14:33:14.000Z</time>
      </trkpt>
      <trkpt lat="43.19503" lon="-0.05391">
        <ele>473.39999389648</ele>
        <time>2019-02-17T14:33:16.000Z</time>
      </trkpt>
      <trkpt lat="43.1951" lon="-0.05387">
        <ele>473.39999389648</ele>
        <time>2019-02-17T14:33:47.000Z</time>
      </trkpt>
      <trkpt lat="43.19513" lon="-0.05385">
        <ele>473.39999389648</ele>
        <time>2019-02-17T14:33:48.000Z</time>
      </trkpt>
      <trkpt lat="43.19519" lon="-0.0538">
        <ele>473.39999389648</ele>
        <time>2019-02-17T14:33:50.000Z</time>
      </trkpt>
      <trkpt lat="43.19523" lon="-0.05375">
        <ele>473.20001220703</ele>
        <time>2019-02-17T14:33:52.000Z</time>
      </trkpt>
      <trkpt lat="43.19529" lon="-0.05371">
        <ele>472.79998779297</ele>
        <time>2019-02-17T14:33:54.000Z</time>
      </trkpt>
      <trkpt lat="43.19535" lon="-0.05366">
        <ele>472.79998779297</ele>
        <time>2019-02-17T14:33:56.000Z</time>
      </trkpt>
      <trkpt lat="43.19541" lon="-0.05359">
        <ele>472.39999389648</ele>
        <time>2019-02-17T14:33:58.000Z</time>
      </trkpt>
      <trkpt lat="43.19548" lon="-0.05353">
        <ele>472.20001220703</ele>
        <time>2019-02-17T14:34:00.000Z</time>
      </trkpt>
      <trkpt lat="43.19551" lon="-0.05349">
        <ele>472</ele>
        <time>2019-02-17T14:34:01.000Z</time>
      </trkpt>
      <trkpt lat="43.19555" lon="-0.05346">
        <ele>472</ele>
        <time>2019-02-17T14:34:02.000Z</time>
      </trkpt>
      <trkpt lat="43.19559" lon="-0.05343">
        <ele>472</ele>
        <time>2019-02-17T14:34:03.000Z</time>
      </trkpt>
      <trkpt lat="43.19562" lon="-0.0534">
        <ele>471.79998779297</ele>
        <time>2019-02-17T14:34:04.000Z</time>
      </trkpt>
      <trkpt lat="43.19565" lon="-0.05337">
        <ele>471.79998779297</ele>
        <time>2019-02-17T14:34:05.000Z</time>
      </trkpt>
      <trkpt lat="43.19568" lon="-0.05334">
        <ele>471.60000610352</ele>
        <time>2019-02-17T14:34:06.000Z</time>
      </trkpt>
      <trkpt lat="43.19572" lon="-0.0533">
        <ele>471.60000610352</ele>
        <time>2019-02-17T14:34:07.000Z</time>
      </trkpt>
      <trkpt lat="43.19575" lon="-0.05326">
        <ele>471.60000610352</ele>
        <time>2019-02-17T14:34:08.000Z</time>
      </trkpt>
      <trkpt lat="43.19581" lon="-0.05319">
        <ele>471.20001220703</ele>
        <time>2019-02-17T14:34:10.000Z</time>
      </trkpt>
      <trkpt lat="43.19585" lon="-0.05315">
        <ele>471</ele>
        <time>2019-02-17T14:34:11.000Z</time>
      </trkpt>
      <trkpt lat="43.19588" lon="-0.05311">
        <ele>471</ele>
        <time>2019-02-17T14:34:12.000Z</time>
      </trkpt>
      <trkpt lat="43.19592" lon="-0.05308">
        <ele>471</ele>
        <time>2019-02-17T14:34:13.000Z</time>
      </trkpt>
      <trkpt lat="43.19595" lon="-0.05304">
        <ele>470.79998779297</ele>
        <time>2019-02-17T14:34:14.000Z</time>
      </trkpt>
      <trkpt lat="43.19599" lon="-0.053">
        <ele>470.60000610352</ele>
        <time>2019-02-17T14:34:15.000Z</time>
      </trkpt>
      <trkpt lat="43.19602" lon="-0.05296">
        <ele>470.39999389648</ele>
        <time>2019-02-17T14:34:16.000Z</time>
      </trkpt>
      <trkpt lat="43.1961" lon="-0.05289">
        <ele>470.20001220703</ele>
        <time>2019-02-17T14:34:18.000Z</time>
      </trkpt>
      <trkpt lat="43.19617" lon="-0.05281">
        <ele>470</ele>
        <time>2019-02-17T14:34:20.000Z</time>
      </trkpt>
      <trkpt lat="43.19621" lon="-0.05277">
        <ele>470</ele>
        <time>2019-02-17T14:34:21.000Z</time>
      </trkpt>
      <trkpt lat="43.19624" lon="-0.05273">
        <ele>469.79998779297</ele>
        <time>2019-02-17T14:34:22.000Z</time>
      </trkpt>
      <trkpt lat="43.19627" lon="-0.05269">
        <ele>469.79998779297</ele>
        <time>2019-02-17T14:34:23.000Z</time>
      </trkpt>
      <trkpt lat="43.1963" lon="-0.05265">
        <ele>469.60000610352</ele>
        <time>2019-02-17T14:34:24.000Z</time>
      </trkpt>
      <trkpt lat="43.19634" lon="-0.05261">
        <ele>469.20001220703</ele>
        <time>2019-02-17T14:34:25.000Z</time>
      </trkpt>
      <trkpt lat="43.19637" lon="-0.05257">
        <ele>469</ele>
        <time>2019-02-17T14:34:26.000Z</time>
      </trkpt>
      <trkpt lat="43.19644" lon="-0.05252">
        <ele>468.79998779297</ele>
        <time>2019-02-17T14:34:28.000Z</time>
      </trkpt>
      <trkpt lat="43.19649" lon="-0.05247">
        <ele>468.60000610352</ele>
        <time>2019-02-17T14:34:30.000Z</time>
      </trkpt>
      <trkpt lat="43.19654" lon="-0.0524">
        <ele>468.79998779297</ele>
        <time>2019-02-17T14:34:32.000Z</time>
      </trkpt>
      <trkpt lat="43.19659" lon="-0.05232">
        <ele>468.39999389648</ele>
        <time>2019-02-17T14:34:34.000Z</time>
      </trkpt>
      <trkpt lat="43.19665" lon="-0.05225">
        <ele>468.39999389648</ele>
        <time>2019-02-17T14:34:36.000Z</time>
      </trkpt>
      <trkpt lat="43.19671" lon="-0.05219">
        <ele>468.20001220703</ele>
        <time>2019-02-17T14:34:38.000Z</time>
      </trkpt>
      <trkpt lat="43.19676" lon="-0.05212">
        <ele>468</ele>
        <time>2019-02-17T14:34:40.000Z</time>
      </trkpt>
      <trkpt lat="43.19679" lon="-0.05208">
        <ele>468</ele>
        <time>2019-02-17T14:34:41.000Z</time>
      </trkpt>
      <trkpt lat="43.19682" lon="-0.05205">
        <ele>467.79998779297</ele>
        <time>2019-02-17T14:34:42.000Z</time>
      </trkpt>
      <trkpt lat="43.19689" lon="-0.05198">
        <ele>467.79998779297</ele>
        <time>2019-02-17T14:34:44.000Z</time>
      </trkpt>
      <trkpt lat="43.19696" lon="-0.05191">
        <ele>467.79998779297</ele>
        <time>2019-02-17T14:34:46.000Z</time>
      </trkpt>
      <trkpt lat="43.19703" lon="-0.05183">
        <ele>467.39999389648</ele>
        <time>2019-02-17T14:34:48.000Z</time>
      </trkpt>
      <trkpt lat="43.19709" lon="-0.05177">
        <ele>467.39999389648</ele>
        <time>2019-02-17T14:34:50.000Z</time>
      </trkpt>
      <trkpt lat="43.19716" lon="-0.05173">
        <ele>467.39999389648</ele>
        <time>2019-02-17T14:34:52.000Z</time>
      </trkpt>
      <trkpt lat="43.1972" lon="-0.0517">
        <ele>467.20001220703</ele>
        <time>2019-02-17T14:34:53.000Z</time>
      </trkpt>
      <trkpt lat="43.19724" lon="-0.05167">
        <ele>467.39999389648</ele>
        <time>2019-02-17T14:34:54.000Z</time>
      </trkpt>
      <trkpt lat="43.19727" lon="-0.05164">
        <ele>467.20001220703</ele>
        <time>2019-02-17T14:34:55.000Z</time>
      </trkpt>
      <trkpt lat="43.19731" lon="-0.0516">
        <ele>467.20001220703</ele>
        <time>2019-02-17T14:34:56.000Z</time>
      </trkpt>
      <trkpt lat="43.19737" lon="-0.05154">
        <ele>467</ele>
        <time>2019-02-17T14:34:58.000Z</time>
      </trkpt>
      <trkpt lat="43.1974" lon="-0.05152">
        <ele>466.60000610352</ele>
        <time>2019-02-17T14:34:59.000Z</time>
      </trkpt>
      <trkpt lat="43.19744" lon="-0.05149">
        <ele>466.79998779297</ele>
        <time>2019-02-17T14:35:00.000Z</time>
      </trkpt>
      <trkpt lat="43.19747" lon="-0.05146">
        <ele>466.60000610352</ele>
        <time>2019-02-17T14:35:01.000Z</time>
      </trkpt>
      <trkpt lat="43.19751" lon="-0.05142">
        <ele>466.79998779297</ele>
        <time>2019-02-17T14:35:02.000Z</time>
      </trkpt>
      <trkpt lat="43.19758" lon="-0.05134">
        <ele>466.60000610352</ele>
        <time>2019-02-17T14:35:04.000Z</time>
      </trkpt>
      <trkpt lat="43.19765" lon="-0.05126">
        <ele>466.60000610352</ele>
        <time>2019-02-17T14:35:06.000Z</time>
      </trkpt>
      <trkpt lat="43.19772" lon="-0.05119">
        <ele>466.60000610352</ele>
        <time>2019-02-17T14:35:08.000Z</time>
      </trkpt>
      <trkpt lat="43.19779" lon="-0.05112">
        <ele>466.39999389648</ele>
        <time>2019-02-17T14:35:10.000Z</time>
      </trkpt>
      <trkpt lat="43.19785" lon="-0.05105">
        <ele>466.39999389648</ele>
        <time>2019-02-17T14:35:12.000Z</time>
      </trkpt>
      <trkpt lat="43.19788" lon="-0.05102">
        <ele>466.39999389648</ele>
        <time>2019-02-17T14:35:13.000Z</time>
      </trkpt>
      <trkpt lat="43.19792" lon="-0.05099">
        <ele>466.39999389648</ele>
        <time>2019-02-17T14:35:14.000Z</time>
      </trkpt>
      <trkpt lat="43.19795" lon="-0.05096">
        <ele>466.60000610352</ele>
        <time>2019-02-17T14:35:15.000Z</time>
      </trkpt>
      <trkpt lat="43.19798" lon="-0.05093">
        <ele>466.20001220703</ele>
        <time>2019-02-17T14:35:16.000Z</time>
      </trkpt>
      <trkpt lat="43.19805" lon="-0.05087">
        <ele>466.20001220703</ele>
        <time>2019-02-17T14:35:18.000Z</time>
      </trkpt>
      <trkpt lat="43.19808" lon="-0.05085">
        <ele>466</ele>
        <time>2019-02-17T14:35:19.000Z</time>
      </trkpt>
      <trkpt lat="43.19812" lon="-0.05082">
        <ele>466</ele>
        <time>2019-02-17T14:35:20.000Z</time>
      </trkpt>
      <trkpt lat="43.19818" lon="-0.05077">
        <ele>465.79998779297</ele>
        <time>2019-02-17T14:35:22.000Z</time>
      </trkpt>
      <trkpt lat="43.19824" lon="-0.05071">
        <ele>465.60000610352</ele>
        <time>2019-02-17T14:35:24.000Z</time>
      </trkpt>
      <trkpt lat="43.19831" lon="-0.05066">
        <ele>465.39999389648</ele>
        <time>2019-02-17T14:35:26.000Z</time>
      </trkpt>
      <trkpt lat="43.19837" lon="-0.05061">
        <ele>465.20001220703</ele>
        <time>2019-02-17T14:35:28.000Z</time>
      </trkpt>
      <trkpt lat="43.19844" lon="-0.05055">
        <ele>464.79998779297</ele>
        <time>2019-02-17T14:35:30.000Z</time>
      </trkpt>
      <trkpt lat="43.19852" lon="-0.05049">
        <ele>464.79998779297</ele>
        <time>2019-02-17T14:35:32.000Z</time>
      </trkpt>
      <trkpt lat="43.19856" lon="-0.05046">
        <ele>464.79998779297</ele>
        <time>2019-02-17T14:35:33.000Z</time>
      </trkpt>
      <trkpt lat="43.19859" lon="-0.05042">
        <ele>464.79998779297</ele>
        <time>2019-02-17T14:35:34.000Z</time>
      </trkpt>
      <trkpt lat="43.19867" lon="-0.05036">
        <ele>464.79998779297</ele>
        <time>2019-02-17T14:35:36.000Z</time>
      </trkpt>
      <trkpt lat="43.19875" lon="-0.0503">
        <ele>464.60000610352</ele>
        <time>2019-02-17T14:35:38.000Z</time>
      </trkpt>
      <trkpt lat="43.19883" lon="-0.05024">
        <ele>464.39999389648</ele>
        <time>2019-02-17T14:35:40.000Z</time>
      </trkpt>
      <trkpt lat="43.19887" lon="-0.05022">
        <ele>464.39999389648</ele>
        <time>2019-02-17T14:35:41.000Z</time>
      </trkpt>
      <trkpt lat="43.19891" lon="-0.0502">
        <ele>464.20001220703</ele>
        <time>2019-02-17T14:35:42.000Z</time>
      </trkpt>
      <trkpt lat="43.19898" lon="-0.05015">
        <ele>463.79998779297</ele>
        <time>2019-02-17T14:35:44.000Z</time>
      </trkpt>
      <trkpt lat="43.19901" lon="-0.05013">
        <ele>463.60000610352</ele>
        <time>2019-02-17T14:35:45.000Z</time>
      </trkpt>
      <trkpt lat="43.19904" lon="-0.0501">
        <ele>463.39999389648</ele>
        <time>2019-02-17T14:35:46.000Z</time>
      </trkpt>
      <trkpt lat="43.19911" lon="-0.05004">
        <ele>463</ele>
        <time>2019-02-17T14:35:48.000Z</time>
      </trkpt>
      <trkpt lat="43.19918" lon="-0.04999">
        <ele>463</ele>
        <time>2019-02-17T14:35:50.000Z</time>
      </trkpt>
      <trkpt lat="43.19925" lon="-0.04994">
        <ele>462.79998779297</ele>
        <time>2019-02-17T14:35:52.000Z</time>
      </trkpt>
      <trkpt lat="43.19931" lon="-0.04989">
        <ele>462.60000610352</ele>
        <time>2019-02-17T14:35:54.000Z</time>
      </trkpt>
      <trkpt lat="43.19936" lon="-0.04983">
        <ele>462.60000610352</ele>
        <time>2019-02-17T14:35:56.000Z</time>
      </trkpt>
      <trkpt lat="43.19939" lon="-0.0498">
        <ele>462.60000610352</ele>
        <time>2019-02-17T14:35:57.000Z</time>
      </trkpt>
      <trkpt lat="43.19942" lon="-0.04976">
        <ele>462.60000610352</ele>
        <time>2019-02-17T14:35:58.000Z</time>
      </trkpt>
      <trkpt lat="43.19945" lon="-0.04973">
        <ele>462.39999389648</ele>
        <time>2019-02-17T14:35:59.000Z</time>
      </trkpt>
      <trkpt lat="43.19949" lon="-0.0497">
        <ele>462.39999389648</ele>
        <time>2019-02-17T14:36:00.000Z</time>
      </trkpt>
      <trkpt lat="43.19952" lon="-0.04967">
        <ele>462.20001220703</ele>
        <time>2019-02-17T14:36:01.000Z</time>
      </trkpt>
      <trkpt lat="43.19955" lon="-0.04963">
        <ele>462.20001220703</ele>
        <time>2019-02-17T14:36:02.000Z</time>
      </trkpt>
      <trkpt lat="43.19958" lon="-0.04959">
        <ele>462.39999389648</ele>
        <time>2019-02-17T14:36:03.000Z</time>
      </trkpt>
      <trkpt lat="43.19961" lon="-0.04955">
        <ele>462.20001220703</ele>
        <time>2019-02-17T14:36:04.000Z</time>
      </trkpt>
      <trkpt lat="43.19968" lon="-0.04948">
        <ele>462.20001220703</ele>
        <time>2019-02-17T14:36:06.000Z</time>
      </trkpt>
      <trkpt lat="43.19974" lon="-0.0494">
        <ele>462.20001220703</ele>
        <time>2019-02-17T14:36:08.000Z</time>
      </trkpt>
      <trkpt lat="43.19979" lon="-0.04933">
        <ele>461.79998779297</ele>
        <time>2019-02-17T14:36:10.000Z</time>
      </trkpt>
      <trkpt lat="43.19984" lon="-0.04929">
        <ele>461.60000610352</ele>
        <time>2019-02-17T14:36:12.000Z</time>
      </trkpt>
      <trkpt lat="43.19988" lon="-0.04923">
        <ele>461.60000610352</ele>
        <time>2019-02-17T14:36:14.000Z</time>
      </trkpt>
      <trkpt lat="43.19992" lon="-0.04917">
        <ele>461.60000610352</ele>
        <time>2019-02-17T14:36:16.000Z</time>
      </trkpt>
      <trkpt lat="43.19996" lon="-0.04912">
        <ele>461.79998779297</ele>
        <time>2019-02-17T14:36:18.000Z</time>
      </trkpt>
      <trkpt lat="43.19998" lon="-0.04909">
        <ele>461.60000610352</ele>
        <time>2019-02-17T14:36:19.000Z</time>
      </trkpt>
      <trkpt lat="43.20001" lon="-0.04906">
        <ele>461.60000610352</ele>
        <time>2019-02-17T14:36:20.000Z</time>
      </trkpt>
      <trkpt lat="43.20007" lon="-0.049">
        <ele>461.39999389648</ele>
        <time>2019-02-17T14:36:22.000Z</time>
      </trkpt>
      <trkpt lat="43.20013" lon="-0.04892">
        <ele>461.20001220703</ele>
        <time>2019-02-17T14:36:24.000Z</time>
      </trkpt>
      <trkpt lat="43.20018" lon="-0.04885">
        <ele>461.39999389648</ele>
        <time>2019-02-17T14:36:26.000Z</time>
      </trkpt>
      <trkpt lat="43.20024" lon="-0.04879">
        <ele>461.20001220703</ele>
        <time>2019-02-17T14:36:28.000Z</time>
      </trkpt>
      <trkpt lat="43.20027" lon="-0.04876">
        <ele>461.20001220703</ele>
        <time>2019-02-17T14:36:29.000Z</time>
      </trkpt>
      <trkpt lat="43.20031" lon="-0.04873">
        <ele>461.20001220703</ele>
        <time>2019-02-17T14:36:30.000Z</time>
      </trkpt>
      <trkpt lat="43.20037" lon="-0.04866">
        <ele>461</ele>
        <time>2019-02-17T14:36:32.000Z</time>
      </trkpt>
      <trkpt lat="43.20043" lon="-0.04858">
        <ele>460.79998779297</ele>
        <time>2019-02-17T14:36:34.000Z</time>
      </trkpt>
      <trkpt lat="43.2005" lon="-0.0485">
        <ele>461</ele>
        <time>2019-02-17T14:36:36.000Z</time>
      </trkpt>
      <trkpt lat="43.20057" lon="-0.04843">
        <ele>460.79998779297</ele>
        <time>2019-02-17T14:36:38.000Z</time>
      </trkpt>
      <trkpt lat="43.20064" lon="-0.04834">
        <ele>460.79998779297</ele>
        <time>2019-02-17T14:36:40.000Z</time>
      </trkpt>
      <trkpt lat="43.20071" lon="-0.04826">
        <ele>460.60000610352</ele>
        <time>2019-02-17T14:36:42.000Z</time>
      </trkpt>
      <trkpt lat="43.20076" lon="-0.04817">
        <ele>460.60000610352</ele>
        <time>2019-02-17T14:36:44.000Z</time>
      </trkpt>
      <trkpt lat="43.2008" lon="-0.04808">
        <ele>460.79998779297</ele>
        <time>2019-02-17T14:36:46.000Z</time>
      </trkpt>
      <trkpt lat="43.20084" lon="-0.048">
        <ele>460.79998779297</ele>
        <time>2019-02-17T14:36:48.000Z</time>
      </trkpt>
      <trkpt lat="43.20088" lon="-0.04791">
        <ele>460.60000610352</ele>
        <time>2019-02-17T14:36:50.000Z</time>
      </trkpt>
      <trkpt lat="43.20091" lon="-0.04788">
        <ele>460.20001220703</ele>
        <time>2019-02-17T14:36:51.000Z</time>
      </trkpt>
      <trkpt lat="43.20094" lon="-0.04784">
        <ele>460.20001220703</ele>
        <time>2019-02-17T14:36:52.000Z</time>
      </trkpt>
      <trkpt lat="43.20098" lon="-0.04775">
        <ele>460.20001220703</ele>
        <time>2019-02-17T14:36:54.000Z</time>
      </trkpt>
      <trkpt lat="43.20102" lon="-0.04765">
        <ele>460</ele>
        <time>2019-02-17T14:36:56.000Z</time>
      </trkpt>
      <trkpt lat="43.20106" lon="-0.04755">
        <ele>459.79998779297</ele>
        <time>2019-02-17T14:36:58.000Z</time>
      </trkpt>
      <trkpt lat="43.20108" lon="-0.0475">
        <ele>459.79998779297</ele>
        <time>2019-02-17T14:36:59.000Z</time>
      </trkpt>
      <trkpt lat="43.20111" lon="-0.04746">
        <ele>459.79998779297</ele>
        <time>2019-02-17T14:37:00.000Z</time>
      </trkpt>
      <trkpt lat="43.20115" lon="-0.04738">
        <ele>459.79998779297</ele>
        <time>2019-02-17T14:37:02.000Z</time>
      </trkpt>
      <trkpt lat="43.20118" lon="-0.04735">
        <ele>459.39999389648</ele>
        <time>2019-02-17T14:37:03.000Z</time>
      </trkpt>
      <trkpt lat="43.20121" lon="-0.04731">
        <ele>459.39999389648</ele>
        <time>2019-02-17T14:37:04.000Z</time>
      </trkpt>
      <trkpt lat="43.20124" lon="-0.04728">
        <ele>459.20001220703</ele>
        <time>2019-02-17T14:37:05.000Z</time>
      </trkpt>
      <trkpt lat="43.20127" lon="-0.04725">
        <ele>459.20001220703</ele>
        <time>2019-02-17T14:37:06.000Z</time>
      </trkpt>
      <trkpt lat="43.2013" lon="-0.04721">
        <ele>459</ele>
        <time>2019-02-17T14:37:07.000Z</time>
      </trkpt>
      <trkpt lat="43.20133" lon="-0.04718">
        <ele>458.79998779297</ele>
        <time>2019-02-17T14:37:08.000Z</time>
      </trkpt>
      <trkpt lat="43.2014" lon="-0.04709">
        <ele>458.79998779297</ele>
        <time>2019-02-17T14:37:10.000Z</time>
      </trkpt>
      <trkpt lat="43.20148" lon="-0.04699">
        <ele>458.79998779297</ele>
        <time>2019-02-17T14:37:12.000Z</time>
      </trkpt>
      <trkpt lat="43.20152" lon="-0.04695">
        <ele>458.60000610352</ele>
        <time>2019-02-17T14:37:13.000Z</time>
      </trkpt>
      <trkpt lat="43.20155" lon="-0.0469">
        <ele>458.60000610352</ele>
        <time>2019-02-17T14:37:14.000Z</time>
      </trkpt>
      <trkpt lat="43.20163" lon="-0.04681">
        <ele>457.79998779297</ele>
        <time>2019-02-17T14:37:16.000Z</time>
      </trkpt>
      <trkpt lat="43.20171" lon="-0.04672">
        <ele>457.20001220703</ele>
        <time>2019-02-17T14:37:18.000Z</time>
      </trkpt>
      <trkpt lat="43.2018" lon="-0.04662">
        <ele>457</ele>
        <time>2019-02-17T14:37:20.000Z</time>
      </trkpt>
      <trkpt lat="43.20189" lon="-0.04653">
        <ele>456.79998779297</ele>
        <time>2019-02-17T14:37:22.000Z</time>
      </trkpt>
      <trkpt lat="43.20198" lon="-0.04644">
        <ele>456.60000610352</ele>
        <time>2019-02-17T14:37:24.000Z</time>
      </trkpt>
      <trkpt lat="43.20208" lon="-0.04636">
        <ele>456.39999389648</ele>
        <time>2019-02-17T14:37:26.000Z</time>
      </trkpt>
      <trkpt lat="43.20217" lon="-0.04627">
        <ele>455.60000610352</ele>
        <time>2019-02-17T14:37:28.000Z</time>
      </trkpt>
      <trkpt lat="43.20222" lon="-0.04622">
        <ele>455</ele>
        <time>2019-02-17T14:37:29.000Z</time>
      </trkpt>
      <trkpt lat="43.20226" lon="-0.04617">
        <ele>454.79998779297</ele>
        <time>2019-02-17T14:37:30.000Z</time>
      </trkpt>
      <trkpt lat="43.20231" lon="-0.04612">
        <ele>454.60000610352</ele>
        <time>2019-02-17T14:37:31.000Z</time>
      </trkpt>
      <trkpt lat="43.20235" lon="-0.04607">
        <ele>454.39999389648</ele>
        <time>2019-02-17T14:37:32.000Z</time>
      </trkpt>
      <trkpt lat="43.2024" lon="-0.04603">
        <ele>454.39999389648</ele>
        <time>2019-02-17T14:37:33.000Z</time>
      </trkpt>
      <trkpt lat="43.20244" lon="-0.04598">
        <ele>454.20001220703</ele>
        <time>2019-02-17T14:37:34.000Z</time>
      </trkpt>
      <trkpt lat="43.20254" lon="-0.04589">
        <ele>454.20001220703</ele>
        <time>2019-02-17T14:37:36.000Z</time>
      </trkpt>
      <trkpt lat="43.2026" lon="-0.04586">
        <ele>454.20001220703</ele>
        <time>2019-02-17T14:37:37.000Z</time>
      </trkpt>
      <trkpt lat="43.20266" lon="-0.04584">
        <ele>454.20001220703</ele>
        <time>2019-02-17T14:37:38.000Z</time>
      </trkpt>
      <trkpt lat="43.20278" lon="-0.04578">
        <ele>453.79998779297</ele>
        <time>2019-02-17T14:37:40.000Z</time>
      </trkpt>
      <trkpt lat="43.2029" lon="-0.04572">
        <ele>453.60000610352</ele>
        <time>2019-02-17T14:37:42.000Z</time>
      </trkpt>
      <trkpt lat="43.20295" lon="-0.04569">
        <ele>453.20001220703</ele>
        <time>2019-02-17T14:37:43.000Z</time>
      </trkpt>
      <trkpt lat="43.20301" lon="-0.04567">
        <ele>453</ele>
        <time>2019-02-17T14:37:44.000Z</time>
      </trkpt>
      <trkpt lat="43.20306" lon="-0.04567">
        <ele>452.60000610352</ele>
        <time>2019-02-17T14:37:45.000Z</time>
      </trkpt>
      <trkpt lat="43.20312" lon="-0.04564">
        <ele>452.20001220703</ele>
        <time>2019-02-17T14:37:46.000Z</time>
      </trkpt>
      <trkpt lat="43.20317" lon="-0.04561">
        <ele>451.79998779297</ele>
        <time>2019-02-17T14:37:47.000Z</time>
      </trkpt>
      <trkpt lat="43.20322" lon="-0.04558">
        <ele>451.39999389648</ele>
        <time>2019-02-17T14:37:48.000Z</time>
      </trkpt>
      <trkpt lat="43.20327" lon="-0.04554">
        <ele>451.39999389648</ele>
        <time>2019-02-17T14:37:49.000Z</time>
      </trkpt>
      <trkpt lat="43.20332" lon="-0.0455">
        <ele>451.20001220703</ele>
        <time>2019-02-17T14:37:50.000Z</time>
      </trkpt>
      <trkpt lat="43.20336" lon="-0.04545">
        <ele>451.20001220703</ele>
        <time>2019-02-17T14:37:51.000Z</time>
      </trkpt>
      <trkpt lat="43.20341" lon="-0.04541">
        <ele>451.20001220703</ele>
        <time>2019-02-17T14:37:52.000Z</time>
      </trkpt>
      <trkpt lat="43.20351" lon="-0.04536">
        <ele>451.20001220703</ele>
        <time>2019-02-17T14:37:54.000Z</time>
      </trkpt>
      <trkpt lat="43.20357" lon="-0.04534">
        <ele>451.20001220703</ele>
        <time>2019-02-17T14:37:55.000Z</time>
      </trkpt>
      <trkpt lat="43.20362" lon="-0.04531">
        <ele>451.20001220703</ele>
        <time>2019-02-17T14:37:56.000Z</time>
      </trkpt>
      <trkpt lat="43.20367" lon="-0.04529">
        <ele>451</ele>
        <time>2019-02-17T14:37:57.000Z</time>
      </trkpt>
      <trkpt lat="43.20372" lon="-0.04526">
        <ele>451.20001220703</ele>
        <time>2019-02-17T14:37:58.000Z</time>
      </trkpt>
      <trkpt lat="43.20382" lon="-0.04522">
        <ele>451.60000610352</ele>
        <time>2019-02-17T14:38:00.000Z</time>
      </trkpt>
      <trkpt lat="43.20392" lon="-0.04518">
        <ele>451.79998779297</ele>
        <time>2019-02-17T14:38:02.000Z</time>
      </trkpt>
      <trkpt lat="43.20397" lon="-0.04515">
        <ele>451.79998779297</ele>
        <time>2019-02-17T14:38:03.000Z</time>
      </trkpt>
      <trkpt lat="43.20402" lon="-0.04513">
        <ele>452</ele>
        <time>2019-02-17T14:38:04.000Z</time>
      </trkpt>
      <trkpt lat="43.20412" lon="-0.0451">
        <ele>452.60000610352</ele>
        <time>2019-02-17T14:38:06.000Z</time>
      </trkpt>
      <trkpt lat="43.20422" lon="-0.04506">
        <ele>452.60000610352</ele>
        <time>2019-02-17T14:38:08.000Z</time>
      </trkpt>
      <trkpt lat="43.20427" lon="-0.04504">
        <ele>452.60000610352</ele>
        <time>2019-02-17T14:38:09.000Z</time>
      </trkpt>
      <trkpt lat="43.20431" lon="-0.04502">
        <ele>452.79998779297</ele>
        <time>2019-02-17T14:38:10.000Z</time>
      </trkpt>
      <trkpt lat="43.2044" lon="-0.04497">
        <ele>453</ele>
        <time>2019-02-17T14:38:12.000Z</time>
      </trkpt>
      <trkpt lat="43.20449" lon="-0.04491">
        <ele>453.60000610352</ele>
        <time>2019-02-17T14:38:14.000Z</time>
      </trkpt>
      <trkpt lat="43.20458" lon="-0.04483">
        <ele>454.20001220703</ele>
        <time>2019-02-17T14:38:16.000Z</time>
      </trkpt>
      <trkpt lat="43.20467" lon="-0.04476">
        <ele>454.39999389648</ele>
        <time>2019-02-17T14:38:18.000Z</time>
      </trkpt>
      <trkpt lat="43.20471" lon="-0.04472">
        <ele>454.60000610352</ele>
        <time>2019-02-17T14:38:19.000Z</time>
      </trkpt>
      <trkpt lat="43.20475" lon="-0.04469">
        <ele>454.60000610352</ele>
        <time>2019-02-17T14:38:20.000Z</time>
      </trkpt>
      <trkpt lat="43.20484" lon="-0.04461">
        <ele>454.79998779297</ele>
        <time>2019-02-17T14:38:22.000Z</time>
      </trkpt>
      <trkpt lat="43.20488" lon="-0.04457">
        <ele>454.79998779297</ele>
        <time>2019-02-17T14:38:23.000Z</time>
      </trkpt>
      <trkpt lat="43.20491" lon="-0.04452">
        <ele>454.79998779297</ele>
        <time>2019-02-17T14:38:24.000Z</time>
      </trkpt>
      <trkpt lat="43.20499" lon="-0.04444">
        <ele>455</ele>
        <time>2019-02-17T14:38:26.000Z</time>
      </trkpt>
      <trkpt lat="43.20508" lon="-0.04436">
        <ele>455</ele>
        <time>2019-02-17T14:38:28.000Z</time>
      </trkpt>
      <trkpt lat="43.20517" lon="-0.04428">
        <ele>454.79998779297</ele>
        <time>2019-02-17T14:38:30.000Z</time>
      </trkpt>
      <trkpt lat="43.20525" lon="-0.04418">
        <ele>454.79998779297</ele>
        <time>2019-02-17T14:38:32.000Z</time>
      </trkpt>
      <trkpt lat="43.2053" lon="-0.04413">
        <ele>454.60000610352</ele>
        <time>2019-02-17T14:38:33.000Z</time>
      </trkpt>
      <trkpt lat="43.20534" lon="-0.04408">
        <ele>454.60000610352</ele>
        <time>2019-02-17T14:38:34.000Z</time>
      </trkpt>
      <trkpt lat="43.20542" lon="-0.04398">
        <ele>454.60000610352</ele>
        <time>2019-02-17T14:38:36.000Z</time>
      </trkpt>
      <trkpt lat="43.20547" lon="-0.04394">
        <ele>454.60000610352</ele>
        <time>2019-02-17T14:38:37.000Z</time>
      </trkpt>
      <trkpt lat="43.20551" lon="-0.04389">
        <ele>454.39999389648</ele>
        <time>2019-02-17T14:38:38.000Z</time>
      </trkpt>
      <trkpt lat="43.20556" lon="-0.04385">
        <ele>454.39999389648</ele>
        <time>2019-02-17T14:38:39.000Z</time>
      </trkpt>
      <trkpt lat="43.2056" lon="-0.04379">
        <ele>454.20001220703</ele>
        <time>2019-02-17T14:38:40.000Z</time>
      </trkpt>
      <trkpt lat="43.20568" lon="-0.04369">
        <ele>454.20001220703</ele>
        <time>2019-02-17T14:38:42.000Z</time>
      </trkpt>
      <trkpt lat="43.20576" lon="-0.04357">
        <ele>454.20001220703</ele>
        <time>2019-02-17T14:38:44.000Z</time>
      </trkpt>
      <trkpt lat="43.20583" lon="-0.04345">
        <ele>454</ele>
        <time>2019-02-17T14:38:46.000Z</time>
      </trkpt>
      <trkpt lat="43.20587" lon="-0.04339">
        <ele>454</ele>
        <time>2019-02-17T14:38:47.000Z</time>
      </trkpt>
      <trkpt lat="43.20591" lon="-0.04333">
        <ele>454</ele>
        <time>2019-02-17T14:38:48.000Z</time>
      </trkpt>
      <trkpt lat="43.20598" lon="-0.04321">
        <ele>453.79998779297</ele>
        <time>2019-02-17T14:38:50.000Z</time>
      </trkpt>
      <trkpt lat="43.20607" lon="-0.0431">
        <ele>453.60000610352</ele>
        <time>2019-02-17T14:38:52.000Z</time>
      </trkpt>
      <trkpt lat="43.20611" lon="-0.04304">
        <ele>453.60000610352</ele>
        <time>2019-02-17T14:38:53.000Z</time>
      </trkpt>
      <trkpt lat="43.20614" lon="-0.04298">
        <ele>453.39999389648</ele>
        <time>2019-02-17T14:38:54.000Z</time>
      </trkpt>
      <trkpt lat="43.20617" lon="-0.04291">
        <ele>453.39999389648</ele>
        <time>2019-02-17T14:38:55.000Z</time>
      </trkpt>
      <trkpt lat="43.2062" lon="-0.04285">
        <ele>453.20001220703</ele>
        <time>2019-02-17T14:38:56.000Z</time>
      </trkpt>
      <trkpt lat="43.20628" lon="-0.04272">
        <ele>453</ele>
        <time>2019-02-17T14:38:58.000Z</time>
      </trkpt>
      <trkpt lat="43.20635" lon="-0.0426">
        <ele>452.79998779297</ele>
        <time>2019-02-17T14:39:00.000Z</time>
      </trkpt>
      <trkpt lat="43.20639" lon="-0.04254">
        <ele>452.79998779297</ele>
        <time>2019-02-17T14:39:01.000Z</time>
      </trkpt>
      <trkpt lat="43.20643" lon="-0.04248">
        <ele>452.79998779297</ele>
        <time>2019-02-17T14:39:02.000Z</time>
      </trkpt>
      <trkpt lat="43.20651" lon="-0.04236">
        <ele>452.60000610352</ele>
        <time>2019-02-17T14:39:04.000Z</time>
      </trkpt>
      <trkpt lat="43.20658" lon="-0.04224">
        <ele>452.60000610352</ele>
        <time>2019-02-17T14:39:06.000Z</time>
      </trkpt>
      <trkpt lat="43.20666" lon="-0.04212">
        <ele>452.60000610352</ele>
        <time>2019-02-17T14:39:08.000Z</time>
      </trkpt>
      <trkpt lat="43.20674" lon="-0.042">
        <ele>452.60000610352</ele>
        <time>2019-02-17T14:39:10.000Z</time>
      </trkpt>
      <trkpt lat="43.20683" lon="-0.04189">
        <ele>452.60000610352</ele>
        <time>2019-02-17T14:39:12.000Z</time>
      </trkpt>
      <trkpt lat="43.20692" lon="-0.04179">
        <ele>452.60000610352</ele>
        <time>2019-02-17T14:39:14.000Z</time>
      </trkpt>
      <trkpt lat="43.20697" lon="-0.04174">
        <ele>452.60000610352</ele>
        <time>2019-02-17T14:39:15.000Z</time>
      </trkpt>
      <trkpt lat="43.20702" lon="-0.04169">
        <ele>452.60000610352</ele>
        <time>2019-02-17T14:39:16.000Z</time>
      </trkpt>
      <trkpt lat="43.20708" lon="-0.04164">
        <ele>452.39999389648</ele>
        <time>2019-02-17T14:39:17.000Z</time>
      </trkpt>
      <trkpt lat="43.20713" lon="-0.04159">
        <ele>452.60000610352</ele>
        <time>2019-02-17T14:39:18.000Z</time>
      </trkpt>
      <trkpt lat="43.20723" lon="-0.04149">
        <ele>452.20001220703</ele>
        <time>2019-02-17T14:39:20.000Z</time>
      </trkpt>
      <trkpt lat="43.20728" lon="-0.04144">
        <ele>452.20001220703</ele>
        <time>2019-02-17T14:39:21.000Z</time>
      </trkpt>
      <trkpt lat="43.20733" lon="-0.04139">
        <ele>452</ele>
        <time>2019-02-17T14:39:22.000Z</time>
      </trkpt>
      <trkpt lat="43.20738" lon="-0.04134">
        <ele>452</ele>
        <time>2019-02-17T14:39:23.000Z</time>
      </trkpt>
      <trkpt lat="43.20743" lon="-0.04129">
        <ele>451.79998779297</ele>
        <time>2019-02-17T14:39:24.000Z</time>
      </trkpt>
      <trkpt lat="43.20753" lon="-0.04119">
        <ele>451.20001220703</ele>
        <time>2019-02-17T14:39:26.000Z</time>
      </trkpt>
      <trkpt lat="43.20763" lon="-0.04109">
        <ele>450.79998779297</ele>
        <time>2019-02-17T14:39:28.000Z</time>
      </trkpt>
      <trkpt lat="43.20768" lon="-0.04104">
        <ele>450.20001220703</ele>
        <time>2019-02-17T14:39:29.000Z</time>
      </trkpt>
      <trkpt lat="43.20772" lon="-0.04099">
        <ele>450</ele>
        <time>2019-02-17T14:39:30.000Z</time>
      </trkpt>
      <trkpt lat="43.20782" lon="-0.0409">
        <ele>449.79998779297</ele>
        <time>2019-02-17T14:39:32.000Z</time>
      </trkpt>
      <trkpt lat="43.20792" lon="-0.04082">
        <ele>449.39999389648</ele>
        <time>2019-02-17T14:39:34.000Z</time>
      </trkpt>
      <trkpt lat="43.20796" lon="-0.04077">
        <ele>449</ele>
        <time>2019-02-17T14:39:35.000Z</time>
      </trkpt>
      <trkpt lat="43.208" lon="-0.04073">
        <ele>449</ele>
        <time>2019-02-17T14:39:36.000Z</time>
      </trkpt>
      <trkpt lat="43.20803" lon="-0.04068">
        <ele>448.60000610352</ele>
        <time>2019-02-17T14:39:37.000Z</time>
      </trkpt>
      <trkpt lat="43.20805" lon="-0.04062">
        <ele>448.60000610352</ele>
        <time>2019-02-17T14:39:38.000Z</time>
      </trkpt>
      <trkpt lat="43.20806" lon="-0.04056">
        <ele>448.39999389648</ele>
        <time>2019-02-17T14:39:39.000Z</time>
      </trkpt>
      <trkpt lat="43.20806" lon="-0.04049">
        <ele>448.20001220703</ele>
        <time>2019-02-17T14:39:40.000Z</time>
      </trkpt>
      <trkpt lat="43.20806" lon="-0.04042">
        <ele>448</ele>
        <time>2019-02-17T14:39:41.000Z</time>
      </trkpt>
      <trkpt lat="43.20805" lon="-0.04035">
        <ele>448</ele>
        <time>2019-02-17T14:39:42.000Z</time>
      </trkpt>
      <trkpt lat="43.20803" lon="-0.04019">
        <ele>448</ele>
        <time>2019-02-17T14:39:44.000Z</time>
      </trkpt>
      <trkpt lat="43.20802" lon="-0.04006">
        <ele>447.60000610352</ele>
        <time>2019-02-17T14:39:46.000Z</time>
      </trkpt>
      <trkpt lat="43.20801" lon="-0.04">
        <ele>447.60000610352</ele>
        <time>2019-02-17T14:39:47.000Z</time>
      </trkpt>
      <trkpt lat="43.208" lon="-0.03993">
        <ele>447.20001220703</ele>
        <time>2019-02-17T14:39:48.000Z</time>
      </trkpt>
      <trkpt lat="43.20798" lon="-0.03986">
        <ele>447.20001220703</ele>
        <time>2019-02-17T14:39:49.000Z</time>
      </trkpt>
      <trkpt lat="43.20796" lon="-0.03979">
        <ele>446.79998779297</ele>
        <time>2019-02-17T14:39:50.000Z</time>
      </trkpt>
      <trkpt lat="43.2079" lon="-0.03966">
        <ele>446.20001220703</ele>
        <time>2019-02-17T14:39:52.000Z</time>
      </trkpt>
      <trkpt lat="43.20786" lon="-0.03962">
        <ele>446.20001220703</ele>
        <time>2019-02-17T14:39:53.000Z</time>
      </trkpt>
      <trkpt lat="43.2078" lon="-0.03959">
        <ele>446</ele>
        <time>2019-02-17T14:39:54.000Z</time>
      </trkpt>
      <trkpt lat="43.20772" lon="-0.03957">
        <ele>446</ele>
        <time>2019-02-17T14:39:55.000Z</time>
      </trkpt>
      <trkpt lat="43.20764" lon="-0.03954">
        <ele>445.60000610352</ele>
        <time>2019-02-17T14:39:56.000Z</time>
      </trkpt>
      <trkpt lat="43.20747" lon="-0.03946">
        <ele>445</ele>
        <time>2019-02-17T14:39:58.000Z</time>
      </trkpt>
      <trkpt lat="43.20738" lon="-0.0394">
        <ele>444</ele>
        <time>2019-02-17T14:39:59.000Z</time>
      </trkpt>
      <trkpt lat="43.20731" lon="-0.03933">
        <ele>443.60000610352</ele>
        <time>2019-02-17T14:40:00.000Z</time>
      </trkpt>
      <trkpt lat="43.20717" lon="-0.0392">
        <ele>442</ele>
        <time>2019-02-17T14:40:02.000Z</time>
      </trkpt>
      <trkpt lat="43.20705" lon="-0.03908">
        <ele>440.20001220703</ele>
        <time>2019-02-17T14:40:04.000Z</time>
      </trkpt>
      <trkpt lat="43.20699" lon="-0.03902">
        <ele>439</ele>
        <time>2019-02-17T14:40:05.000Z</time>
      </trkpt>
      <trkpt lat="43.20693" lon="-0.03897">
        <ele>436.20001220703</ele>
        <time>2019-02-17T14:40:06.000Z</time>
      </trkpt>
      <trkpt lat="43.20683" lon="-0.03886">
        <ele>433</ele>
        <time>2019-02-17T14:40:08.000Z</time>
      </trkpt>
      <trkpt lat="43.20681" lon="-0.0388">
        <ele>432.20001220703</ele>
        <time>2019-02-17T14:40:09.000Z</time>
      </trkpt>
      <trkpt lat="43.2068" lon="-0.03872">
        <ele>431.79998779297</ele>
        <time>2019-02-17T14:40:10.000Z</time>
      </trkpt>
      <trkpt lat="43.20681" lon="-0.03862">
        <ele>431.20001220703</ele>
        <time>2019-02-17T14:40:11.000Z</time>
      </trkpt>
      <trkpt lat="43.20684" lon="-0.03854">
        <ele>431</ele>
        <time>2019-02-17T14:40:12.000Z</time>
      </trkpt>
      <trkpt lat="43.20695" lon="-0.03843">
        <ele>429.60000610352</ele>
        <time>2019-02-17T14:40:14.000Z</time>
      </trkpt>
      <trkpt lat="43.20708" lon="-0.03834">
        <ele>428.79998779297</ele>
        <time>2019-02-17T14:40:16.000Z</time>
      </trkpt>
      <trkpt lat="43.20714" lon="-0.03826">
        <ele>428.20001220703</ele>
        <time>2019-02-17T14:40:17.000Z</time>
      </trkpt>
      <trkpt lat="43.2072" lon="-0.03817">
        <ele>427.20001220703</ele>
        <time>2019-02-17T14:40:18.000Z</time>
      </trkpt>
      <trkpt lat="43.20725" lon="-0.03807">
        <ele>426.39999389648</ele>
        <time>2019-02-17T14:40:19.000Z</time>
      </trkpt>
      <trkpt lat="43.20729" lon="-0.03795">
        <ele>424.60000610352</ele>
        <time>2019-02-17T14:40:20.000Z</time>
      </trkpt>
      <trkpt lat="43.20732" lon="-0.03782">
        <ele>423.20001220703</ele>
        <time>2019-02-17T14:40:21.000Z</time>
      </trkpt>
      <trkpt lat="43.20735" lon="-0.03769">
        <ele>422.39999389648</ele>
        <time>2019-02-17T14:40:22.000Z</time>
      </trkpt>
      <trkpt lat="43.20739" lon="-0.03743">
        <ele>421.20001220703</ele>
        <time>2019-02-17T14:40:24.000Z</time>
      </trkpt>
      <trkpt lat="43.20739" lon="-0.0373">
        <ele>420.20001220703</ele>
        <time>2019-02-17T14:40:25.000Z</time>
      </trkpt>
      <trkpt lat="43.20736" lon="-0.03715">
        <ele>419.20001220703</ele>
        <time>2019-02-17T14:40:26.000Z</time>
      </trkpt>
      <trkpt lat="43.20735" lon="-0.03701">
        <ele>417.60000610352</ele>
        <time>2019-02-17T14:40:27.000Z</time>
      </trkpt>
      <trkpt lat="43.20732" lon="-0.03688">
        <ele>415.39999389648</ele>
        <time>2019-02-17T14:40:28.000Z</time>
      </trkpt>
      <trkpt lat="43.20729" lon="-0.03674">
        <ele>413.79998779297</ele>
        <time>2019-02-17T14:40:29.000Z</time>
      </trkpt>
      <trkpt lat="43.20725" lon="-0.03661">
        <ele>411.39999389648</ele>
        <time>2019-02-17T14:40:30.000Z</time>
      </trkpt>
      <trkpt lat="43.2072" lon="-0.03647">
        <ele>410.20001220703</ele>
        <time>2019-02-17T14:40:31.000Z</time>
      </trkpt>
      <trkpt lat="43.20714" lon="-0.03633">
        <ele>409.39999389648</ele>
        <time>2019-02-17T14:40:32.000Z</time>
      </trkpt>
      <trkpt lat="43.20707" lon="-0.03619">
        <ele>408.60000610352</ele>
        <time>2019-02-17T14:40:33.000Z</time>
      </trkpt>
      <trkpt lat="43.20701" lon="-0.03606">
        <ele>407.39999389648</ele>
        <time>2019-02-17T14:40:34.000Z</time>
      </trkpt>
      <trkpt lat="43.20692" lon="-0.03581">
        <ele>404.20001220703</ele>
        <time>2019-02-17T14:40:36.000Z</time>
      </trkpt>
      <trkpt lat="43.20685" lon="-0.03557">
        <ele>398.60000610352</ele>
        <time>2019-02-17T14:40:38.000Z</time>
      </trkpt>
      <trkpt lat="43.20681" lon="-0.03545">
        <ele>397.20001220703</ele>
        <time>2019-02-17T14:40:39.000Z</time>
      </trkpt>
      <trkpt lat="43.20679" lon="-0.03534">
        <ele>396.60000610352</ele>
        <time>2019-02-17T14:40:40.000Z</time>
      </trkpt>
      <trkpt lat="43.20674" lon="-0.03512">
        <ele>395</ele>
        <time>2019-02-17T14:40:42.000Z</time>
      </trkpt>
      <trkpt lat="43.2067" lon="-0.03489">
        <ele>394.20001220703</ele>
        <time>2019-02-17T14:40:44.000Z</time>
      </trkpt>
      <trkpt lat="43.20664" lon="-0.03467">
        <ele>393.20001220703</ele>
        <time>2019-02-17T14:40:46.000Z</time>
      </trkpt>
      <trkpt lat="43.20662" lon="-0.03456">
        <ele>392.60000610352</ele>
        <time>2019-02-17T14:40:47.000Z</time>
      </trkpt>
      <trkpt lat="43.2066" lon="-0.03447">
        <ele>392.39999389648</ele>
        <time>2019-02-17T14:40:48.000Z</time>
      </trkpt>
      <trkpt lat="43.20659" lon="-0.03437">
        <ele>392</ele>
        <time>2019-02-17T14:40:49.000Z</time>
      </trkpt>
      <trkpt lat="43.20659" lon="-0.03426">
        <ele>391.60000610352</ele>
        <time>2019-02-17T14:40:50.000Z</time>
      </trkpt>
      <trkpt lat="43.2066" lon="-0.03415">
        <ele>391.39999389648</ele>
        <time>2019-02-17T14:40:51.000Z</time>
      </trkpt>
      <trkpt lat="43.20663" lon="-0.03405">
        <ele>391</ele>
        <time>2019-02-17T14:40:52.000Z</time>
      </trkpt>
      <trkpt lat="43.20667" lon="-0.03396">
        <ele>390</ele>
        <time>2019-02-17T14:40:53.000Z</time>
      </trkpt>
      <trkpt lat="43.20674" lon="-0.03388">
        <ele>389</ele>
        <time>2019-02-17T14:40:54.000Z</time>
      </trkpt>
      <trkpt lat="43.2068" lon="-0.03381">
        <ele>388.20001220703</ele>
        <time>2019-02-17T14:40:55.000Z</time>
      </trkpt>
      <trkpt lat="43.20687" lon="-0.03375">
        <ele>387.39999389648</ele>
        <time>2019-02-17T14:40:56.000Z</time>
      </trkpt>
      <trkpt lat="43.20694" lon="-0.0337">
        <ele>386.39999389648</ele>
        <time>2019-02-17T14:40:57.000Z</time>
      </trkpt>
      <trkpt lat="43.20702" lon="-0.03367">
        <ele>385.60000610352</ele>
        <time>2019-02-17T14:40:58.000Z</time>
      </trkpt>
      <trkpt lat="43.20709" lon="-0.03366">
        <ele>385.20001220703</ele>
        <time>2019-02-17T14:40:59.000Z</time>
      </trkpt>
      <trkpt lat="43.20716" lon="-0.03365">
        <ele>384.79998779297</ele>
        <time>2019-02-17T14:41:00.000Z</time>
      </trkpt>
      <trkpt lat="43.20729" lon="-0.03361">
        <ele>384.39999389648</ele>
        <time>2019-02-17T14:41:02.000Z</time>
      </trkpt>
      <trkpt lat="43.20735" lon="-0.03357">
        <ele>383.79998779297</ele>
        <time>2019-02-17T14:41:03.000Z</time>
      </trkpt>
      <trkpt lat="43.20741" lon="-0.03351">
        <ele>383</ele>
        <time>2019-02-17T14:41:04.000Z</time>
      </trkpt>
      <trkpt lat="43.20747" lon="-0.03343">
        <ele>382.20001220703</ele>
        <time>2019-02-17T14:41:05.000Z</time>
      </trkpt>
      <trkpt lat="43.20751" lon="-0.03334">
        <ele>381.39999389648</ele>
        <time>2019-02-17T14:41:06.000Z</time>
      </trkpt>
      <trkpt lat="43.20752" lon="-0.03323">
        <ele>380.60000610352</ele>
        <time>2019-02-17T14:41:07.000Z</time>
      </trkpt>
      <trkpt lat="43.20754" lon="-0.03313">
        <ele>380</ele>
        <time>2019-02-17T14:41:08.000Z</time>
      </trkpt>
      <trkpt lat="43.20751" lon="-0.03299">
        <ele>379.79998779297</ele>
        <time>2019-02-17T14:41:09.000Z</time>
      </trkpt>
      <trkpt lat="43.20747" lon="-0.03287">
        <ele>379.20001220703</ele>
        <time>2019-02-17T14:41:10.000Z</time>
      </trkpt>
      <trkpt lat="43.20742" lon="-0.0326">
        <ele>378.20001220703</ele>
        <time>2019-02-17T14:41:12.000Z</time>
      </trkpt>
      <trkpt lat="43.20736" lon="-0.03231">
        <ele>376.20001220703</ele>
        <time>2019-02-17T14:41:14.000Z</time>
      </trkpt>
      <trkpt lat="43.20734" lon="-0.03216">
        <ele>375.20001220703</ele>
        <time>2019-02-17T14:41:15.000Z</time>
      </trkpt>
      <trkpt lat="43.20732" lon="-0.03202">
        <ele>374</ele>
        <time>2019-02-17T14:41:16.000Z</time>
      </trkpt>
      <trkpt lat="43.2073" lon="-0.03174">
        <ele>371.60000610352</ele>
        <time>2019-02-17T14:41:18.000Z</time>
      </trkpt>
      <trkpt lat="43.20727" lon="-0.0315">
        <ele>369</ele>
        <time>2019-02-17T14:41:20.000Z</time>
      </trkpt>
      <trkpt lat="43.20723" lon="-0.03127">
        <ele>367.20001220703</ele>
        <time>2019-02-17T14:41:22.000Z</time>
      </trkpt>
      <trkpt lat="43.20721" lon="-0.03116">
        <ele>366</ele>
        <time>2019-02-17T14:41:23.000Z</time>
      </trkpt>
      <trkpt lat="43.20717" lon="-0.03104">
        <ele>365.60000610352</ele>
        <time>2019-02-17T14:41:24.000Z</time>
      </trkpt>
      <trkpt lat="43.20711" lon="-0.03093">
        <ele>365.39999389648</ele>
        <time>2019-02-17T14:41:25.000Z</time>
      </trkpt>
      <trkpt lat="43.20705" lon="-0.03082">
        <ele>365</ele>
        <time>2019-02-17T14:41:26.000Z</time>
      </trkpt>
      <trkpt lat="43.20699" lon="-0.0307">
        <ele>364.60000610352</ele>
        <time>2019-02-17T14:41:27.000Z</time>
      </trkpt>
      <trkpt lat="43.20692" lon="-0.03058">
        <ele>364.39999389648</ele>
        <time>2019-02-17T14:41:28.000Z</time>
      </trkpt>
      <trkpt lat="43.20677" lon="-0.03033">
        <ele>363.39999389648</ele>
        <time>2019-02-17T14:41:30.000Z</time>
      </trkpt>
      <trkpt lat="43.20664" lon="-0.03008">
        <ele>362.39999389648</ele>
        <time>2019-02-17T14:41:32.000Z</time>
      </trkpt>
      <trkpt lat="43.20652" lon="-0.02984">
        <ele>360.39999389648</ele>
        <time>2019-02-17T14:41:34.000Z</time>
      </trkpt>
      <trkpt lat="43.20642" lon="-0.02959">
        <ele>358.60000610352</ele>
        <time>2019-02-17T14:41:36.000Z</time>
      </trkpt>
      <trkpt lat="43.20633" lon="-0.02935">
        <ele>355.79998779297</ele>
        <time>2019-02-17T14:41:38.000Z</time>
      </trkpt>
      <trkpt lat="43.2063" lon="-0.02923">
        <ele>355</ele>
        <time>2019-02-17T14:41:39.000Z</time>
      </trkpt>
      <trkpt lat="43.20626" lon="-0.02912">
        <ele>354.60000610352</ele>
        <time>2019-02-17T14:41:40.000Z</time>
      </trkpt>
      <trkpt lat="43.20622" lon="-0.02889">
        <ele>354.20001220703</ele>
        <time>2019-02-17T14:41:42.000Z</time>
      </trkpt>
      <trkpt lat="43.20617" lon="-0.0287">
        <ele>353.79998779297</ele>
        <time>2019-02-17T14:41:44.000Z</time>
      </trkpt>
      <trkpt lat="43.20615" lon="-0.02852">
        <ele>353.79998779297</ele>
        <time>2019-02-17T14:41:46.000Z</time>
      </trkpt>
      <trkpt lat="43.20614" lon="-0.02835">
        <ele>353.60000610352</ele>
        <time>2019-02-17T14:41:48.000Z</time>
      </trkpt>
      <trkpt lat="43.20615" lon="-0.02827">
        <ele>353.60000610352</ele>
        <time>2019-02-17T14:41:49.000Z</time>
      </trkpt>
      <trkpt lat="43.20615" lon="-0.02819">
        <ele>353.60000610352</ele>
        <time>2019-02-17T14:41:50.000Z</time>
      </trkpt>
      <trkpt lat="43.20616" lon="-0.02803">
        <ele>353.60000610352</ele>
        <time>2019-02-17T14:41:52.000Z</time>
      </trkpt>
      <trkpt lat="43.20618" lon="-0.02788">
        <ele>353.60000610352</ele>
        <time>2019-02-17T14:41:54.000Z</time>
      </trkpt>
      <trkpt lat="43.20618" lon="-0.02773">
        <ele>354.20001220703</ele>
        <time>2019-02-17T14:41:56.000Z</time>
      </trkpt>
      <trkpt lat="43.2062" lon="-0.02758">
        <ele>355</ele>
        <time>2019-02-17T14:41:58.000Z</time>
      </trkpt>
      <trkpt lat="43.20622" lon="-0.02743">
        <ele>356</ele>
        <time>2019-02-17T14:42:00.000Z</time>
      </trkpt>
      <trkpt lat="43.20622" lon="-0.02727">
        <ele>356.39999389648</ele>
        <time>2019-02-17T14:42:02.000Z</time>
      </trkpt>
      <trkpt lat="43.20624" lon="-0.02712">
        <ele>356.79998779297</ele>
        <time>2019-02-17T14:42:04.000Z</time>
      </trkpt>
      <trkpt lat="43.20625" lon="-0.02697">
        <ele>357</ele>
        <time>2019-02-17T14:42:06.000Z</time>
      </trkpt>
      <trkpt lat="43.20626" lon="-0.02682">
        <ele>357</ele>
        <time>2019-02-17T14:42:08.000Z</time>
      </trkpt>
      <trkpt lat="43.20626" lon="-0.02668">
        <ele>357</ele>
        <time>2019-02-17T14:42:10.000Z</time>
      </trkpt>
      <trkpt lat="43.20628" lon="-0.02653">
        <ele>357.20001220703</ele>
        <time>2019-02-17T14:42:12.000Z</time>
      </trkpt>
      <trkpt lat="43.20629" lon="-0.02639">
        <ele>357</ele>
        <time>2019-02-17T14:42:14.000Z</time>
      </trkpt>
      <trkpt lat="43.2063" lon="-0.02632">
        <ele>357.20001220703</ele>
        <time>2019-02-17T14:42:15.000Z</time>
      </trkpt>
      <trkpt lat="43.2063" lon="-0.02625">
        <ele>357.20001220703</ele>
        <time>2019-02-17T14:42:16.000Z</time>
      </trkpt>
      <trkpt lat="43.20631" lon="-0.02611">
        <ele>357.39999389648</ele>
        <time>2019-02-17T14:42:18.000Z</time>
      </trkpt>
      <trkpt lat="43.20633" lon="-0.02597">
        <ele>357.39999389648</ele>
        <time>2019-02-17T14:42:20.000Z</time>
      </trkpt>
      <trkpt lat="43.20634" lon="-0.02583">
        <ele>357.60000610352</ele>
        <time>2019-02-17T14:42:22.000Z</time>
      </trkpt>
      <trkpt lat="43.20636" lon="-0.02568">
        <ele>357.39999389648</ele>
        <time>2019-02-17T14:42:24.000Z</time>
      </trkpt>
      <trkpt lat="43.20637" lon="-0.02554">
        <ele>357.39999389648</ele>
        <time>2019-02-17T14:42:26.000Z</time>
      </trkpt>
      <trkpt lat="43.20638" lon="-0.0254">
        <ele>357.79998779297</ele>
        <time>2019-02-17T14:42:28.000Z</time>
      </trkpt>
      <trkpt lat="43.2064" lon="-0.02525">
        <ele>357.79998779297</ele>
        <time>2019-02-17T14:42:30.000Z</time>
      </trkpt>
      <trkpt lat="43.20641" lon="-0.02518">
        <ele>357.79998779297</ele>
        <time>2019-02-17T14:42:31.000Z</time>
      </trkpt>
      <trkpt lat="43.20642" lon="-0.02511">
        <ele>357.79998779297</ele>
        <time>2019-02-17T14:42:32.000Z</time>
      </trkpt>
      <trkpt lat="43.20644" lon="-0.02497">
        <ele>357.60000610352</ele>
        <time>2019-02-17T14:42:34.000Z</time>
      </trkpt>
      <trkpt lat="43.20645" lon="-0.0249">
        <ele>357.79998779297</ele>
        <time>2019-02-17T14:42:35.000Z</time>
      </trkpt>
      <trkpt lat="43.20646" lon="-0.02484">
        <ele>357.60000610352</ele>
        <time>2019-02-17T14:42:36.000Z</time>
      </trkpt>
      <trkpt lat="43.20646" lon="-0.02477">
        <ele>357.60000610352</ele>
        <time>2019-02-17T14:42:37.000Z</time>
      </trkpt>
      <trkpt lat="43.20646" lon="-0.0247">
        <ele>357.60000610352</ele>
        <time>2019-02-17T14:42:38.000Z</time>
      </trkpt>
      <trkpt lat="43.20647" lon="-0.02457">
        <ele>357.60000610352</ele>
        <time>2019-02-17T14:42:40.000Z</time>
      </trkpt>
      <trkpt lat="43.20649" lon="-0.02444">
        <ele>357.39999389648</ele>
        <time>2019-02-17T14:42:42.000Z</time>
      </trkpt>
      <trkpt lat="43.20648" lon="-0.02434">
        <ele>357.39999389648</ele>
        <time>2019-02-17T14:42:44.000Z</time>
      </trkpt>
      <trkpt lat="43.20641" lon="-0.02432">
        <ele>357.39999389648</ele>
        <time>2019-02-17T14:42:46.000Z</time>
      </trkpt>
      <trkpt lat="43.20636" lon="-0.02437">
        <ele>357.60000610352</ele>
        <time>2019-02-17T14:42:48.000Z</time>
      </trkpt>
      <trkpt lat="43.2063" lon="-0.02444">
        <ele>357.39999389648</ele>
        <time>2019-02-17T14:42:50.000Z</time>
      </trkpt>
      <trkpt lat="43.20626" lon="-0.02453">
        <ele>357.60000610352</ele>
        <time>2019-02-17T14:42:52.000Z</time>
      </trkpt>
      <trkpt lat="43.20621" lon="-0.02462">
        <ele>357.79998779297</ele>
        <time>2019-02-17T14:42:54.000Z</time>
      </trkpt>
      <trkpt lat="43.20616" lon="-0.02471">
        <ele>358.20001220703</ele>
        <time>2019-02-17T14:42:56.000Z</time>
      </trkpt>
      <trkpt lat="43.2061" lon="-0.02478">
        <ele>358.20001220703</ele>
        <time>2019-02-17T14:42:58.000Z</time>
      </trkpt>
      <trkpt lat="43.20604" lon="-0.02486">
        <ele>358.60000610352</ele>
        <time>2019-02-17T14:43:00.000Z</time>
      </trkpt>
      <trkpt lat="43.20601" lon="-0.0249">
        <ele>358.60000610352</ele>
        <time>2019-02-17T14:43:01.000Z</time>
      </trkpt>
      <trkpt lat="43.20598" lon="-0.02494">
        <ele>358.79998779297</ele>
        <time>2019-02-17T14:43:02.000Z</time>
      </trkpt>
      <trkpt lat="43.20595" lon="-0.02499">
        <ele>359</ele>
        <time>2019-02-17T14:43:03.000Z</time>
      </trkpt>
      <trkpt lat="43.20592" lon="-0.02503">
        <ele>359</ele>
        <time>2019-02-17T14:43:04.000Z</time>
      </trkpt>
      <trkpt lat="43.20587" lon="-0.02511">
        <ele>359.20001220703</ele>
        <time>2019-02-17T14:43:06.000Z</time>
      </trkpt>
      <trkpt lat="43.20582" lon="-0.02518">
        <ele>359.20001220703</ele>
        <time>2019-02-17T14:43:08.000Z</time>
      </trkpt>
      <trkpt lat="43.20577" lon="-0.02527">
        <ele>359.20001220703</ele>
        <time>2019-02-17T14:43:10.000Z</time>
      </trkpt>
      <trkpt lat="43.2057" lon="-0.02535">
        <ele>359.20001220703</ele>
        <time>2019-02-17T14:43:12.000Z</time>
      </trkpt>
      <trkpt lat="43.20567" lon="-0.0254">
        <ele>359.20001220703</ele>
        <time>2019-02-17T14:43:13.000Z</time>
      </trkpt>
      <trkpt lat="43.20565" lon="-0.02545">
        <ele>359.20001220703</ele>
        <time>2019-02-17T14:43:14.000Z</time>
      </trkpt>
      <trkpt lat="43.20562" lon="-0.0255">
        <ele>359.39999389648</ele>
        <time>2019-02-17T14:43:15.000Z</time>
      </trkpt>
      <trkpt lat="43.20559" lon="-0.02556">
        <ele>359.39999389648</ele>
        <time>2019-02-17T14:43:16.000Z</time>
      </trkpt>
      <trkpt lat="43.20557" lon="-0.0256">
        <ele>359.20001220703</ele>
        <time>2019-02-17T14:43:17.000Z</time>
      </trkpt>
      <trkpt lat="43.20554" lon="-0.02565">
        <ele>359.20001220703</ele>
        <time>2019-02-17T14:43:18.000Z</time>
      </trkpt>
      <trkpt lat="43.20551" lon="-0.02569">
        <ele>359.20001220703</ele>
        <time>2019-02-17T14:43:19.000Z</time>
      </trkpt>
      <trkpt lat="43.20549" lon="-0.02573">
        <ele>359.20001220703</ele>
        <time>2019-02-17T14:43:20.000Z</time>
      </trkpt>
      <trkpt lat="43.20542" lon="-0.02582">
        <ele>359.39999389648</ele>
        <time>2019-02-17T14:43:22.000Z</time>
      </trkpt>
      <trkpt lat="43.20539" lon="-0.02586">
        <ele>359.20001220703</ele>
        <time>2019-02-17T14:43:23.000Z</time>
      </trkpt>
      <trkpt lat="43.20537" lon="-0.02591">
        <ele>359.20001220703</ele>
        <time>2019-02-17T14:43:24.000Z</time>
      </trkpt>
      <trkpt lat="43.20531" lon="-0.026">
        <ele>359.39999389648</ele>
        <time>2019-02-17T14:43:26.000Z</time>
      </trkpt>
      <trkpt lat="43.20526" lon="-0.02606">
        <ele>359.20001220703</ele>
        <time>2019-02-17T14:43:28.000Z</time>
      </trkpt>
      <trkpt lat="43.20524" lon="-0.02608">
        <ele>359.39999389648</ele>
        <time>2019-02-17T14:43:30.000Z</time>
      </trkpt>
      <trkpt lat="43.20524" lon="-0.02608">
        <ele>359.39999389648</ele>
        <time>2019-02-17T14:43:31.000Z</time>
      </trkpt>
      <trkpt lat="43.20514" lon="-0.02606">
        <ele>359.79998779297</ele>
        <time>2019-02-17T14:43:42.000Z</time>
      </trkpt>
      <trkpt lat="43.20511" lon="-0.02603">
        <ele>359.60000610352</ele>
        <time>2019-02-17T14:43:44.000Z</time>
      </trkpt>
      <trkpt lat="43.20509" lon="-0.02601">
        <ele>359.60000610352</ele>
        <time>2019-02-17T14:43:45.000Z</time>
      </trkpt>
      <trkpt lat="43.20507" lon="-0.02598">
        <ele>359.79998779297</ele>
        <time>2019-02-17T14:43:46.000Z</time>
      </trkpt>
      <trkpt lat="43.20504" lon="-0.02591">
        <ele>359.60000610352</ele>
        <time>2019-02-17T14:43:48.000Z</time>
      </trkpt>
      <trkpt lat="43.20501" lon="-0.02584">
        <ele>359.60000610352</ele>
        <time>2019-02-17T14:43:50.000Z</time>
      </trkpt>
      <trkpt lat="43.20498" lon="-0.02581">
        <ele>359.79998779297</ele>
        <time>2019-02-17T14:43:51.000Z</time>
      </trkpt>
      <trkpt lat="43.20495" lon="-0.02579">
        <ele>359.60000610352</ele>
        <time>2019-02-17T14:43:52.000Z</time>
      </trkpt>
      <trkpt lat="43.20489" lon="-0.02576">
        <ele>359.60000610352</ele>
        <time>2019-02-17T14:43:54.000Z</time>
      </trkpt>
      <trkpt lat="43.20485" lon="-0.02569">
        <ele>359.79998779297</ele>
        <time>2019-02-17T14:43:56.000Z</time>
      </trkpt>
      <trkpt lat="43.20481" lon="-0.0256">
        <ele>360.20001220703</ele>
        <time>2019-02-17T14:43:58.000Z</time>
      </trkpt>
      <trkpt lat="43.20477" lon="-0.02549">
        <ele>360.20001220703</ele>
        <time>2019-02-17T14:44:00.000Z</time>
      </trkpt>
      <trkpt lat="43.20474" lon="-0.02539">
        <ele>360.60000610352</ele>
        <time>2019-02-17T14:44:02.000Z</time>
      </trkpt>
      <trkpt lat="43.2047" lon="-0.02528">
        <ele>360.60000610352</ele>
        <time>2019-02-17T14:44:04.000Z</time>
      </trkpt>
      <trkpt lat="43.20467" lon="-0.02518">
        <ele>360.60000610352</ele>
        <time>2019-02-17T14:44:06.000Z</time>
      </trkpt>
      <trkpt lat="43.20461" lon="-0.02512">
        <ele>360.79998779297</ele>
        <time>2019-02-17T14:44:08.000Z</time>
      </trkpt>
      <trkpt lat="43.20457" lon="-0.02512">
        <ele>360.79998779297</ele>
        <time>2019-02-17T14:44:09.000Z</time>
      </trkpt>
      <trkpt lat="43.20453" lon="-0.02514">
        <ele>361</ele>
        <time>2019-02-17T14:44:10.000Z</time>
      </trkpt>
      <trkpt lat="43.2045" lon="-0.02516">
        <ele>361</ele>
        <time>2019-02-17T14:44:11.000Z</time>
      </trkpt>
      <trkpt lat="43.20446" lon="-0.02519">
        <ele>361</ele>
        <time>2019-02-17T14:44:12.000Z</time>
      </trkpt>
      <trkpt lat="43.20439" lon="-0.02524">
        <ele>361</ele>
        <time>2019-02-17T14:44:14.000Z</time>
      </trkpt>
      <trkpt lat="43.20436" lon="-0.02527">
        <ele>361</ele>
        <time>2019-02-17T14:44:15.000Z</time>
      </trkpt>
      <trkpt lat="43.20432" lon="-0.02529">
        <ele>361</ele>
        <time>2019-02-17T14:44:16.000Z</time>
      </trkpt>
      <trkpt lat="43.20426" lon="-0.02533">
        <ele>361.20001220703</ele>
        <time>2019-02-17T14:44:18.000Z</time>
      </trkpt>
      <trkpt lat="43.20423" lon="-0.02535">
        <ele>361.39999389648</ele>
        <time>2019-02-17T14:44:19.000Z</time>
      </trkpt>
      <trkpt lat="43.2042" lon="-0.02536">
        <ele>361.20001220703</ele>
        <time>2019-02-17T14:44:20.000Z</time>
      </trkpt>
      <trkpt lat="43.20418" lon="-0.02537">
        <ele>361.20001220703</ele>
        <time>2019-02-17T14:44:21.000Z</time>
      </trkpt>
      <trkpt lat="43.20415" lon="-0.02537">
        <ele>361.39999389648</ele>
        <time>2019-02-17T14:44:22.000Z</time>
      </trkpt>
      <trkpt lat="43.20408" lon="-0.02537">
        <ele>361.79998779297</ele>
        <time>2019-02-17T14:44:24.000Z</time>
      </trkpt>
      <trkpt lat="43.20402" lon="-0.02538">
        <ele>362</ele>
        <time>2019-02-17T14:44:26.000Z</time>
      </trkpt>
      <trkpt lat="43.20394" lon="-0.0254">
        <ele>362</ele>
        <time>2019-02-17T14:44:28.000Z</time>
      </trkpt>
      <trkpt lat="43.20387" lon="-0.02543">
        <ele>362</ele>
        <time>2019-02-17T14:44:30.000Z</time>
      </trkpt>
      <trkpt lat="43.20379" lon="-0.02547">
        <ele>362</ele>
        <time>2019-02-17T14:44:32.000Z</time>
      </trkpt>
      <trkpt lat="43.20376" lon="-0.02549">
        <ele>362.20001220703</ele>
        <time>2019-02-17T14:44:33.000Z</time>
      </trkpt>
      <trkpt lat="43.20372" lon="-0.02551">
        <ele>362</ele>
        <time>2019-02-17T14:44:34.000Z</time>
      </trkpt>
      <trkpt lat="43.20365" lon="-0.02555">
        <ele>362.20001220703</ele>
        <time>2019-02-17T14:44:36.000Z</time>
      </trkpt>
      <trkpt lat="43.20361" lon="-0.02557">
        <ele>362.20001220703</ele>
        <time>2019-02-17T14:44:37.000Z</time>
      </trkpt>
      <trkpt lat="43.20358" lon="-0.02559">
        <ele>362.20001220703</ele>
        <time>2019-02-17T14:44:38.000Z</time>
      </trkpt>
      <trkpt lat="43.20351" lon="-0.02563">
        <ele>362.39999389648</ele>
        <time>2019-02-17T14:44:40.000Z</time>
      </trkpt>
      <trkpt lat="43.20344" lon="-0.02566">
        <ele>362.60000610352</ele>
        <time>2019-02-17T14:44:42.000Z</time>
      </trkpt>
      <trkpt lat="43.20338" lon="-0.0257">
        <ele>362.60000610352</ele>
        <time>2019-02-17T14:44:44.000Z</time>
      </trkpt>
      <trkpt lat="43.20331" lon="-0.02574">
        <ele>362.60000610352</ele>
        <time>2019-02-17T14:44:46.000Z</time>
      </trkpt>
      <trkpt lat="43.20323" lon="-0.02578">
        <ele>362.60000610352</ele>
        <time>2019-02-17T14:44:48.000Z</time>
      </trkpt>
      <trkpt lat="43.20315" lon="-0.02581">
        <ele>362.79998779297</ele>
        <time>2019-02-17T14:44:50.000Z</time>
      </trkpt>
      <trkpt lat="43.20308" lon="-0.02584">
        <ele>362.79998779297</ele>
        <time>2019-02-17T14:44:52.000Z</time>
      </trkpt>
      <trkpt lat="43.20301" lon="-0.02588">
        <ele>362.79998779297</ele>
        <time>2019-02-17T14:44:54.000Z</time>
      </trkpt>
      <trkpt lat="43.20293" lon="-0.02593">
        <ele>362.79998779297</ele>
        <time>2019-02-17T14:44:56.000Z</time>
      </trkpt>
      <trkpt lat="43.20286" lon="-0.02597">
        <ele>362.79998779297</ele>
        <time>2019-02-17T14:44:58.000Z</time>
      </trkpt>
      <trkpt lat="43.20278" lon="-0.02601">
        <ele>362.79998779297</ele>
        <time>2019-02-17T14:45:00.000Z</time>
      </trkpt>
      <trkpt lat="43.20274" lon="-0.02602">
        <ele>362.79998779297</ele>
        <time>2019-02-17T14:45:01.000Z</time>
      </trkpt>
      <trkpt lat="43.20271" lon="-0.02604">
        <ele>362.79998779297</ele>
        <time>2019-02-17T14:45:02.000Z</time>
      </trkpt>
      <trkpt lat="43.20263" lon="-0.02607">
        <ele>363</ele>
        <time>2019-02-17T14:45:04.000Z</time>
      </trkpt>
      <trkpt lat="43.20259" lon="-0.02609">
        <ele>363</ele>
        <time>2019-02-17T14:45:05.000Z</time>
      </trkpt>
      <trkpt lat="43.20256" lon="-0.02611">
        <ele>363</ele>
        <time>2019-02-17T14:45:06.000Z</time>
      </trkpt>
      <trkpt lat="43.20249" lon="-0.02614">
        <ele>363</ele>
        <time>2019-02-17T14:45:08.000Z</time>
      </trkpt>
      <trkpt lat="43.20245" lon="-0.02616">
        <ele>363.20001220703</ele>
        <time>2019-02-17T14:45:09.000Z</time>
      </trkpt>
      <trkpt lat="43.20242" lon="-0.02617">
        <ele>363</ele>
        <time>2019-02-17T14:45:10.000Z</time>
      </trkpt>
      <trkpt lat="43.20235" lon="-0.0262">
        <ele>363</ele>
        <time>2019-02-17T14:45:12.000Z</time>
      </trkpt>
      <trkpt lat="43.20228" lon="-0.02624">
        <ele>363.20001220703</ele>
        <time>2019-02-17T14:45:14.000Z</time>
      </trkpt>
      <trkpt lat="43.20222" lon="-0.02628">
        <ele>363.39999389648</ele>
        <time>2019-02-17T14:45:16.000Z</time>
      </trkpt>
      <trkpt lat="43.20215" lon="-0.02631">
        <ele>364</ele>
        <time>2019-02-17T14:45:18.000Z</time>
      </trkpt>
      <trkpt lat="43.20211" lon="-0.02633">
        <ele>364</ele>
        <time>2019-02-17T14:45:19.000Z</time>
      </trkpt>
      <trkpt lat="43.20208" lon="-0.02635">
        <ele>364.20001220703</ele>
        <time>2019-02-17T14:45:20.000Z</time>
      </trkpt>
      <trkpt lat="43.20204" lon="-0.02637">
        <ele>364.20001220703</ele>
        <time>2019-02-17T14:45:21.000Z</time>
      </trkpt>
      <trkpt lat="43.20201" lon="-0.02639">
        <ele>364.39999389648</ele>
        <time>2019-02-17T14:45:22.000Z</time>
      </trkpt>
      <trkpt lat="43.20194" lon="-0.02642">
        <ele>364.60000610352</ele>
        <time>2019-02-17T14:45:24.000Z</time>
      </trkpt>
      <trkpt lat="43.2019" lon="-0.02643">
        <ele>364.60000610352</ele>
        <time>2019-02-17T14:45:25.000Z</time>
      </trkpt>
      <trkpt lat="43.20187" lon="-0.02645">
        <ele>364.60000610352</ele>
        <time>2019-02-17T14:45:26.000Z</time>
      </trkpt>
      <trkpt lat="43.20183" lon="-0.02646">
        <ele>364.79998779297</ele>
        <time>2019-02-17T14:45:27.000Z</time>
      </trkpt>
      <trkpt lat="43.2018" lon="-0.02648">
        <ele>364.79998779297</ele>
        <time>2019-02-17T14:45:28.000Z</time>
      </trkpt>
      <trkpt lat="43.20173" lon="-0.02652">
        <ele>364.79998779297</ele>
        <time>2019-02-17T14:45:30.000Z</time>
      </trkpt>
      <trkpt lat="43.20166" lon="-0.02655">
        <ele>364.79998779297</ele>
        <time>2019-02-17T14:45:32.000Z</time>
      </trkpt>
      <trkpt lat="43.2016" lon="-0.02658">
        <ele>365</ele>
        <time>2019-02-17T14:45:34.000Z</time>
      </trkpt>
      <trkpt lat="43.20153" lon="-0.02662">
        <ele>365.20001220703</ele>
        <time>2019-02-17T14:45:36.000Z</time>
      </trkpt>
      <trkpt lat="43.20147" lon="-0.02666">
        <ele>365.39999389648</ele>
        <time>2019-02-17T14:45:38.000Z</time>
      </trkpt>
      <trkpt lat="43.2014" lon="-0.02668">
        <ele>365.20001220703</ele>
        <time>2019-02-17T14:45:40.000Z</time>
      </trkpt>
      <trkpt lat="43.20137" lon="-0.02669">
        <ele>365.39999389648</ele>
        <time>2019-02-17T14:45:41.000Z</time>
      </trkpt>
      <trkpt lat="43.20135" lon="-0.02669">
        <ele>365.60000610352</ele>
        <time>2019-02-17T14:45:42.000Z</time>
      </trkpt>
      <trkpt lat="43.20132" lon="-0.02669">
        <ele>366</ele>
        <time>2019-02-17T14:45:44.000Z</time>
      </trkpt>
      <trkpt lat="43.20131" lon="-0.02669">
        <ele>366.20001220703</ele>
        <time>2019-02-17T14:45:46.000Z</time>
      </trkpt>
      <trkpt lat="43.20124" lon="-0.02669">
        <ele>366.60000610352</ele>
        <time>2019-02-17T14:46:15.000Z</time>
      </trkpt>
      <trkpt lat="43.20122" lon="-0.02669">
        <ele>366.60000610352</ele>
        <time>2019-02-17T14:46:16.000Z</time>
      </trkpt>
      <trkpt lat="43.20117" lon="-0.02668">
        <ele>366.60000610352</ele>
        <time>2019-02-17T14:46:18.000Z</time>
      </trkpt>
      <trkpt lat="43.20111" lon="-0.02668">
        <ele>366.79998779297</ele>
        <time>2019-02-17T14:46:20.000Z</time>
      </trkpt>
      <trkpt lat="43.20105" lon="-0.02668">
        <ele>366.60000610352</ele>
        <time>2019-02-17T14:46:22.000Z</time>
      </trkpt>
      <trkpt lat="43.20099" lon="-0.02668">
        <ele>366.60000610352</ele>
        <time>2019-02-17T14:46:24.000Z</time>
      </trkpt>
      <trkpt lat="43.20093" lon="-0.02669">
        <ele>366.60000610352</ele>
        <time>2019-02-17T14:46:26.000Z</time>
      </trkpt>
      <trkpt lat="43.20087" lon="-0.0267">
        <ele>366.79998779297</ele>
        <time>2019-02-17T14:46:28.000Z</time>
      </trkpt>
      <trkpt lat="43.20081" lon="-0.02671">
        <ele>366.79998779297</ele>
        <time>2019-02-17T14:46:30.000Z</time>
      </trkpt>
      <trkpt lat="43.20075" lon="-0.02672">
        <ele>366.79998779297</ele>
        <time>2019-02-17T14:46:32.000Z</time>
      </trkpt>
      <trkpt lat="43.2007" lon="-0.02671">
        <ele>366.79998779297</ele>
        <time>2019-02-17T14:46:34.000Z</time>
      </trkpt>
      <trkpt lat="43.20064" lon="-0.02672">
        <ele>367.20001220703</ele>
        <time>2019-02-17T14:46:36.000Z</time>
      </trkpt>
      <trkpt lat="43.20058" lon="-0.02672">
        <ele>367.20001220703</ele>
        <time>2019-02-17T14:46:38.000Z</time>
      </trkpt>
      <trkpt lat="43.20052" lon="-0.02671">
        <ele>367.60000610352</ele>
        <time>2019-02-17T14:46:40.000Z</time>
      </trkpt>
      <trkpt lat="43.20046" lon="-0.0267">
        <ele>367.79998779297</ele>
        <time>2019-02-17T14:46:42.000Z</time>
      </trkpt>
      <trkpt lat="43.20041" lon="-0.02666">
        <ele>367.60000610352</ele>
        <time>2019-02-17T14:46:44.000Z</time>
      </trkpt>
      <trkpt lat="43.20036" lon="-0.02662">
        <ele>367.79998779297</ele>
        <time>2019-02-17T14:46:46.000Z</time>
      </trkpt>
      <trkpt lat="43.2003" lon="-0.02659">
        <ele>367.79998779297</ele>
        <time>2019-02-17T14:46:48.000Z</time>
      </trkpt>
      <trkpt lat="43.20024" lon="-0.02657">
        <ele>367.79998779297</ele>
        <time>2019-02-17T14:46:50.000Z</time>
      </trkpt>
      <trkpt lat="43.20018" lon="-0.02655">
        <ele>367.79998779297</ele>
        <time>2019-02-17T14:46:52.000Z</time>
      </trkpt>
      <trkpt lat="43.20012" lon="-0.02653">
        <ele>367.79998779297</ele>
        <time>2019-02-17T14:46:54.000Z</time>
      </trkpt>
      <trkpt lat="43.20007" lon="-0.02652">
        <ele>367.79998779297</ele>
        <time>2019-02-17T14:46:56.000Z</time>
      </trkpt>
      <trkpt lat="43.20002" lon="-0.02651">
        <ele>367.79998779297</ele>
        <time>2019-02-17T14:46:58.000Z</time>
      </trkpt>
      <trkpt lat="43.2" lon="-0.02651">
        <ele>367.79998779297</ele>
        <time>2019-02-17T14:47:00.000Z</time>
      </trkpt>
      <trkpt lat="43.2" lon="-0.02651">
        <ele>367.60000610352</ele>
        <time>2019-02-17T14:47:01.000Z</time>
      </trkpt>
      <trkpt lat="43.19993" lon="-0.02649">
        <ele>367.60000610352</ele>
        <time>2019-02-17T14:47:09.000Z</time>
      </trkpt>
      <trkpt lat="43.19991" lon="-0.02649">
        <ele>367.79998779297</ele>
        <time>2019-02-17T14:47:10.000Z</time>
      </trkpt>
      <trkpt lat="43.19986" lon="-0.02649">
        <ele>367.60000610352</ele>
        <time>2019-02-17T14:47:12.000Z</time>
      </trkpt>
      <trkpt lat="43.19981" lon="-0.02648">
        <ele>367.60000610352</ele>
        <time>2019-02-17T14:47:14.000Z</time>
      </trkpt>
      <trkpt lat="43.19975" lon="-0.02648">
        <ele>367.79998779297</ele>
        <time>2019-02-17T14:47:16.000Z</time>
      </trkpt>
      <trkpt lat="43.1997" lon="-0.02648">
        <ele>367.60000610352</ele>
        <time>2019-02-17T14:47:18.000Z</time>
      </trkpt>
      <trkpt lat="43.19964" lon="-0.02648">
        <ele>367.60000610352</ele>
        <time>2019-02-17T14:47:20.000Z</time>
      </trkpt>
      <trkpt lat="43.19961" lon="-0.02648">
        <ele>367.79998779297</ele>
        <time>2019-02-17T14:47:21.000Z</time>
      </trkpt>
      <trkpt lat="43.19959" lon="-0.02648">
        <ele>367.79998779297</ele>
        <time>2019-02-17T14:47:22.000Z</time>
      </trkpt>
      <trkpt lat="43.19953" lon="-0.02648">
        <ele>367.79998779297</ele>
        <time>2019-02-17T14:47:24.000Z</time>
      </trkpt>
      <trkpt lat="43.19948" lon="-0.02649">
        <ele>367.60000610352</ele>
        <time>2019-02-17T14:47:26.000Z</time>
      </trkpt>
      <trkpt lat="43.19942" lon="-0.02649">
        <ele>367.60000610352</ele>
        <time>2019-02-17T14:47:28.000Z</time>
      </trkpt>
      <trkpt lat="43.19939" lon="-0.0265">
        <ele>367.79998779297</ele>
        <time>2019-02-17T14:47:29.000Z</time>
      </trkpt>
      <trkpt lat="43.19937" lon="-0.0265">
        <ele>367.79998779297</ele>
        <time>2019-02-17T14:47:30.000Z</time>
      </trkpt>
      <trkpt lat="43.19931" lon="-0.02651">
        <ele>367.79998779297</ele>
        <time>2019-02-17T14:47:32.000Z</time>
      </trkpt>
      <trkpt lat="43.19928" lon="-0.02652">
        <ele>368</ele>
        <time>2019-02-17T14:47:33.000Z</time>
      </trkpt>
      <trkpt lat="43.19926" lon="-0.02653">
        <ele>367.79998779297</ele>
        <time>2019-02-17T14:47:34.000Z</time>
      </trkpt>
      <trkpt lat="43.1992" lon="-0.02656">
        <ele>368</ele>
        <time>2019-02-17T14:47:36.000Z</time>
      </trkpt>
      <trkpt lat="43.19915" lon="-0.02659">
        <ele>368.39999389648</ele>
        <time>2019-02-17T14:47:38.000Z</time>
      </trkpt>
      <trkpt lat="43.1991" lon="-0.02662">
        <ele>368.60000610352</ele>
        <time>2019-02-17T14:47:40.000Z</time>
      </trkpt>
      <trkpt lat="43.19904" lon="-0.02666">
        <ele>368.60000610352</ele>
        <time>2019-02-17T14:47:42.000Z</time>
      </trkpt>
      <trkpt lat="43.19899" lon="-0.02669">
        <ele>368.60000610352</ele>
        <time>2019-02-17T14:47:44.000Z</time>
      </trkpt>
      <trkpt lat="43.19894" lon="-0.02673">
        <ele>368.60000610352</ele>
        <time>2019-02-17T14:47:46.000Z</time>
      </trkpt>
      <trkpt lat="43.19888" lon="-0.02676">
        <ele>368.60000610352</ele>
        <time>2019-02-17T14:47:48.000Z</time>
      </trkpt>
      <trkpt lat="43.19883" lon="-0.02679">
        <ele>368.79998779297</ele>
        <time>2019-02-17T14:47:50.000Z</time>
      </trkpt>
      <trkpt lat="43.19878" lon="-0.02681">
        <ele>369</ele>
        <time>2019-02-17T14:47:52.000Z</time>
      </trkpt>
      <trkpt lat="43.19873" lon="-0.02682">
        <ele>369</ele>
        <time>2019-02-17T14:47:54.000Z</time>
      </trkpt>
      <trkpt lat="43.1987" lon="-0.02683">
        <ele>369</ele>
        <time>2019-02-17T14:47:55.000Z</time>
      </trkpt>
      <trkpt lat="43.19869" lon="-0.02683">
        <ele>369.20001220703</ele>
        <time>2019-02-17T14:47:56.000Z</time>
      </trkpt>
      <trkpt lat="43.19868" lon="-0.02683">
        <ele>369.20001220703</ele>
        <time>2019-02-17T14:47:58.000Z</time>
      </trkpt>
      <trkpt lat="43.19854" lon="-0.02688">
        <ele>369.79998779297</ele>
        <time>2019-02-17T14:48:26.000Z</time>
      </trkpt>
      <trkpt lat="43.1985" lon="-0.02688">
        <ele>370</ele>
        <time>2019-02-17T14:48:28.000Z</time>
      </trkpt>
      <trkpt lat="43.19846" lon="-0.02689">
        <ele>369.79998779297</ele>
        <time>2019-02-17T14:48:30.000Z</time>
      </trkpt>
      <trkpt lat="43.19842" lon="-0.0269">
        <ele>369.79998779297</ele>
        <time>2019-02-17T14:48:32.000Z</time>
      </trkpt>
      <trkpt lat="43.19837" lon="-0.0269">
        <ele>370</ele>
        <time>2019-02-17T14:48:34.000Z</time>
      </trkpt>
      <trkpt lat="43.19832" lon="-0.02691">
        <ele>370</ele>
        <time>2019-02-17T14:48:36.000Z</time>
      </trkpt>
      <trkpt lat="43.19827" lon="-0.02692">
        <ele>369.79998779297</ele>
        <time>2019-02-17T14:48:38.000Z</time>
      </trkpt>
      <trkpt lat="43.19823" lon="-0.02693">
        <ele>369.79998779297</ele>
        <time>2019-02-17T14:48:40.000Z</time>
      </trkpt>
      <trkpt lat="43.19818" lon="-0.02694">
        <ele>369.79998779297</ele>
        <time>2019-02-17T14:48:42.000Z</time>
      </trkpt>
      <trkpt lat="43.19814" lon="-0.02695">
        <ele>369.79998779297</ele>
        <time>2019-02-17T14:48:44.000Z</time>
      </trkpt>
      <trkpt lat="43.1981" lon="-0.02696">
        <ele>370</ele>
        <time>2019-02-17T14:48:46.000Z</time>
      </trkpt>
      <trkpt lat="43.19807" lon="-0.02697">
        <ele>370.20001220703</ele>
        <time>2019-02-17T14:48:48.000Z</time>
      </trkpt>
      <trkpt lat="43.19802" lon="-0.02699">
        <ele>370</ele>
        <time>2019-02-17T14:48:50.000Z</time>
      </trkpt>
      <trkpt lat="43.19798" lon="-0.02703">
        <ele>370.20001220703</ele>
        <time>2019-02-17T14:48:52.000Z</time>
      </trkpt>
      <trkpt lat="43.19796" lon="-0.02708">
        <ele>370.20001220703</ele>
        <time>2019-02-17T14:48:54.000Z</time>
      </trkpt>
      <trkpt lat="43.19795" lon="-0.02714">
        <ele>370.39999389648</ele>
        <time>2019-02-17T14:48:56.000Z</time>
      </trkpt>
      <trkpt lat="43.19794" lon="-0.02716">
        <ele>370.39999389648</ele>
        <time>2019-02-17T14:48:57.000Z</time>
      </trkpt>
      <trkpt lat="43.19793" lon="-0.02718">
        <ele>370.39999389648</ele>
        <time>2019-02-17T14:48:58.000Z</time>
      </trkpt>
      <trkpt lat="43.19791" lon="-0.02722">
        <ele>370.79998779297</ele>
        <time>2019-02-17T14:49:00.000Z</time>
      </trkpt>
      <trkpt lat="43.19787" lon="-0.02724">
        <ele>371</ele>
        <time>2019-02-17T14:49:02.000Z</time>
      </trkpt>
      <trkpt lat="43.19785" lon="-0.02725">
        <ele>370.79998779297</ele>
        <time>2019-02-17T14:49:03.000Z</time>
      </trkpt>
      <trkpt lat="43.19783" lon="-0.02726">
        <ele>370.79998779297</ele>
        <time>2019-02-17T14:49:04.000Z</time>
      </trkpt>
      <trkpt lat="43.19778" lon="-0.02727">
        <ele>371.20001220703</ele>
        <time>2019-02-17T14:49:06.000Z</time>
      </trkpt>
      <trkpt lat="43.19773" lon="-0.02727">
        <ele>371.20001220703</ele>
        <time>2019-02-17T14:49:08.000Z</time>
      </trkpt>
      <trkpt lat="43.19767" lon="-0.02728">
        <ele>371.39999389648</ele>
        <time>2019-02-17T14:49:10.000Z</time>
      </trkpt>
      <trkpt lat="43.19762" lon="-0.02729">
        <ele>371.60000610352</ele>
        <time>2019-02-17T14:49:12.000Z</time>
      </trkpt>
      <trkpt lat="43.19756" lon="-0.0273">
        <ele>371.79998779297</ele>
        <time>2019-02-17T14:49:14.000Z</time>
      </trkpt>
      <trkpt lat="43.19751" lon="-0.02731">
        <ele>371.79998779297</ele>
        <time>2019-02-17T14:49:16.000Z</time>
      </trkpt>
      <trkpt lat="43.19746" lon="-0.02732">
        <ele>372</ele>
        <time>2019-02-17T14:49:18.000Z</time>
      </trkpt>
      <trkpt lat="43.1974" lon="-0.02732">
        <ele>372</ele>
        <time>2019-02-17T14:49:20.000Z</time>
      </trkpt>
      <trkpt lat="43.19735" lon="-0.02733">
        <ele>372.20001220703</ele>
        <time>2019-02-17T14:49:22.000Z</time>
      </trkpt>
      <trkpt lat="43.19729" lon="-0.02735">
        <ele>372.39999389648</ele>
        <time>2019-02-17T14:49:24.000Z</time>
      </trkpt>
      <trkpt lat="43.19724" lon="-0.02737">
        <ele>372.60000610352</ele>
        <time>2019-02-17T14:49:26.000Z</time>
      </trkpt>
      <trkpt lat="43.19719" lon="-0.0274">
        <ele>372.79998779297</ele>
        <time>2019-02-17T14:49:28.000Z</time>
      </trkpt>
      <trkpt lat="43.19714" lon="-0.02744">
        <ele>372.79998779297</ele>
        <time>2019-02-17T14:49:30.000Z</time>
      </trkpt>
      <trkpt lat="43.19709" lon="-0.02748">
        <ele>373</ele>
        <time>2019-02-17T14:49:32.000Z</time>
      </trkpt>
      <trkpt lat="43.19704" lon="-0.02751">
        <ele>373</ele>
        <time>2019-02-17T14:49:34.000Z</time>
      </trkpt>
      <trkpt lat="43.19701" lon="-0.02752">
        <ele>373</ele>
        <time>2019-02-17T14:49:35.000Z</time>
      </trkpt>
      <trkpt lat="43.19698" lon="-0.02753">
        <ele>373</ele>
        <time>2019-02-17T14:49:36.000Z</time>
      </trkpt>
      <trkpt lat="43.19696" lon="-0.02754">
        <ele>373</ele>
        <time>2019-02-17T14:49:37.000Z</time>
      </trkpt>
      <trkpt lat="43.19693" lon="-0.02754">
        <ele>373.20001220703</ele>
        <time>2019-02-17T14:49:38.000Z</time>
      </trkpt>
      <trkpt lat="43.19687" lon="-0.02755">
        <ele>373.39999389648</ele>
        <time>2019-02-17T14:49:40.000Z</time>
      </trkpt>
      <trkpt lat="43.19684" lon="-0.02755">
        <ele>373.39999389648</ele>
        <time>2019-02-17T14:49:41.000Z</time>
      </trkpt>
      <trkpt lat="43.1968" lon="-0.02756">
        <ele>373.39999389648</ele>
        <time>2019-02-17T14:49:42.000Z</time>
      </trkpt>
      <trkpt lat="43.19675" lon="-0.02756">
        <ele>373.60000610352</ele>
        <time>2019-02-17T14:49:44.000Z</time>
      </trkpt>
      <trkpt lat="43.1967" lon="-0.02755">
        <ele>373.79998779297</ele>
        <time>2019-02-17T14:49:46.000Z</time>
      </trkpt>
      <trkpt lat="43.19665" lon="-0.02752">
        <ele>374.39999389648</ele>
        <time>2019-02-17T14:49:48.000Z</time>
      </trkpt>
      <trkpt lat="43.19661" lon="-0.02748">
        <ele>374.60000610352</ele>
        <time>2019-02-17T14:49:50.000Z</time>
      </trkpt>
      <trkpt lat="43.19658" lon="-0.02745">
        <ele>374.60000610352</ele>
        <time>2019-02-17T14:49:52.000Z</time>
      </trkpt>
      <trkpt lat="43.19654" lon="-0.02743">
        <ele>374.79998779297</ele>
        <time>2019-02-17T14:49:54.000Z</time>
      </trkpt>
      <trkpt lat="43.19649" lon="-0.02741">
        <ele>374.79998779297</ele>
        <time>2019-02-17T14:49:56.000Z</time>
      </trkpt>
      <trkpt lat="43.19643" lon="-0.0274">
        <ele>375</ele>
        <time>2019-02-17T14:49:58.000Z</time>
      </trkpt>
      <trkpt lat="43.19636" lon="-0.02738">
        <ele>374.79998779297</ele>
        <time>2019-02-17T14:50:00.000Z</time>
      </trkpt>
      <trkpt lat="43.19633" lon="-0.02738">
        <ele>375</ele>
        <time>2019-02-17T14:50:01.000Z</time>
      </trkpt>
      <trkpt lat="43.19629" lon="-0.02737">
        <ele>375</ele>
        <time>2019-02-17T14:50:02.000Z</time>
      </trkpt>
      <trkpt lat="43.19626" lon="-0.02737">
        <ele>375</ele>
        <time>2019-02-17T14:50:03.000Z</time>
      </trkpt>
      <trkpt lat="43.19622" lon="-0.02736">
        <ele>374.79998779297</ele>
        <time>2019-02-17T14:50:04.000Z</time>
      </trkpt>
      <trkpt lat="43.19615" lon="-0.02736">
        <ele>375</ele>
        <time>2019-02-17T14:50:06.000Z</time>
      </trkpt>
      <trkpt lat="43.19608" lon="-0.02735">
        <ele>374.79998779297</ele>
        <time>2019-02-17T14:50:08.000Z</time>
      </trkpt>
      <trkpt lat="43.19601" lon="-0.02736">
        <ele>374.79998779297</ele>
        <time>2019-02-17T14:50:10.000Z</time>
      </trkpt>
      <trkpt lat="43.19595" lon="-0.02736">
        <ele>374.79998779297</ele>
        <time>2019-02-17T14:50:12.000Z</time>
      </trkpt>
      <trkpt lat="43.19589" lon="-0.02736">
        <ele>374.79998779297</ele>
        <time>2019-02-17T14:50:14.000Z</time>
      </trkpt>
      <trkpt lat="43.19583" lon="-0.02736">
        <ele>374.79998779297</ele>
        <time>2019-02-17T14:50:16.000Z</time>
      </trkpt>
      <trkpt lat="43.19579" lon="-0.02735">
        <ele>375</ele>
        <time>2019-02-17T14:50:17.000Z</time>
      </trkpt>
      <trkpt lat="43.19576" lon="-0.02735">
        <ele>374.79998779297</ele>
        <time>2019-02-17T14:50:18.000Z</time>
      </trkpt>
      <trkpt lat="43.19571" lon="-0.02731">
        <ele>375</ele>
        <time>2019-02-17T14:50:20.000Z</time>
      </trkpt>
      <trkpt lat="43.19567" lon="-0.02724">
        <ele>375</ele>
        <time>2019-02-17T14:50:22.000Z</time>
      </trkpt>
      <trkpt lat="43.19562" lon="-0.02718">
        <ele>375.20001220703</ele>
        <time>2019-02-17T14:50:24.000Z</time>
      </trkpt>
      <trkpt lat="43.19559" lon="-0.02716">
        <ele>375.20001220703</ele>
        <time>2019-02-17T14:50:25.000Z</time>
      </trkpt>
      <trkpt lat="43.19556" lon="-0.02715">
        <ele>375.20001220703</ele>
        <time>2019-02-17T14:50:26.000Z</time>
      </trkpt>
      <trkpt lat="43.1955" lon="-0.02713">
        <ele>375.20001220703</ele>
        <time>2019-02-17T14:50:28.000Z</time>
      </trkpt>
      <trkpt lat="43.19547" lon="-0.0271">
        <ele>375.20001220703</ele>
        <time>2019-02-17T14:50:30.000Z</time>
      </trkpt>
      <trkpt lat="43.19545" lon="-0.0271">
        <ele>375</ele>
        <time>2019-02-17T14:50:31.000Z</time>
      </trkpt>
      <trkpt lat="43.19543" lon="-0.0271">
        <ele>374.79998779297</ele>
        <time>2019-02-17T14:50:32.000Z</time>
      </trkpt>
      <trkpt lat="43.19537" lon="-0.02708">
        <ele>375</ele>
        <time>2019-02-17T14:50:34.000Z</time>
      </trkpt>
      <trkpt lat="43.19531" lon="-0.02707">
        <ele>374.79998779297</ele>
        <time>2019-02-17T14:50:36.000Z</time>
      </trkpt>
      <trkpt lat="43.19524" lon="-0.02706">
        <ele>374.60000610352</ele>
        <time>2019-02-17T14:50:38.000Z</time>
      </trkpt>
      <trkpt lat="43.19517" lon="-0.02705">
        <ele>374.60000610352</ele>
        <time>2019-02-17T14:50:40.000Z</time>
      </trkpt>
      <trkpt lat="43.19511" lon="-0.02704">
        <ele>374.39999389648</ele>
        <time>2019-02-17T14:50:42.000Z</time>
      </trkpt>
      <trkpt lat="43.19504" lon="-0.02702">
        <ele>374.39999389648</ele>
        <time>2019-02-17T14:50:44.000Z</time>
      </trkpt>
      <trkpt lat="43.19498" lon="-0.027">
        <ele>374.39999389648</ele>
        <time>2019-02-17T14:50:46.000Z</time>
      </trkpt>
      <trkpt lat="43.19491" lon="-0.02697">
        <ele>374.20001220703</ele>
        <time>2019-02-17T14:50:48.000Z</time>
      </trkpt>
      <trkpt lat="43.19485" lon="-0.02695">
        <ele>374.39999389648</ele>
        <time>2019-02-17T14:50:50.000Z</time>
      </trkpt>
      <trkpt lat="43.19478" lon="-0.02693">
        <ele>374.39999389648</ele>
        <time>2019-02-17T14:50:52.000Z</time>
      </trkpt>
      <trkpt lat="43.1947" lon="-0.02691">
        <ele>374.20001220703</ele>
        <time>2019-02-17T14:50:54.000Z</time>
      </trkpt>
      <trkpt lat="43.19462" lon="-0.0269">
        <ele>374.20001220703</ele>
        <time>2019-02-17T14:50:56.000Z</time>
      </trkpt>
      <trkpt lat="43.19455" lon="-0.02689">
        <ele>374</ele>
        <time>2019-02-17T14:50:58.000Z</time>
      </trkpt>
      <trkpt lat="43.19448" lon="-0.02688">
        <ele>374</ele>
        <time>2019-02-17T14:51:00.000Z</time>
      </trkpt>
      <trkpt lat="43.1944" lon="-0.02688">
        <ele>373.79998779297</ele>
        <time>2019-02-17T14:51:02.000Z</time>
      </trkpt>
      <trkpt lat="43.19433" lon="-0.0269">
        <ele>374</ele>
        <time>2019-02-17T14:51:04.000Z</time>
      </trkpt>
      <trkpt lat="43.19426" lon="-0.02696">
        <ele>374</ele>
        <time>2019-02-17T14:51:06.000Z</time>
      </trkpt>
      <trkpt lat="43.1942" lon="-0.02701">
        <ele>374</ele>
        <time>2019-02-17T14:51:08.000Z</time>
      </trkpt>
      <trkpt lat="43.19413" lon="-0.02705">
        <ele>374</ele>
        <time>2019-02-17T14:51:10.000Z</time>
      </trkpt>
      <trkpt lat="43.19406" lon="-0.02708">
        <ele>374.20001220703</ele>
        <time>2019-02-17T14:51:12.000Z</time>
      </trkpt>
      <trkpt lat="43.19399" lon="-0.02709">
        <ele>374.20001220703</ele>
        <time>2019-02-17T14:51:14.000Z</time>
      </trkpt>
      <trkpt lat="43.19392" lon="-0.02711">
        <ele>374.39999389648</ele>
        <time>2019-02-17T14:51:16.000Z</time>
      </trkpt>
      <trkpt lat="43.19384" lon="-0.02712">
        <ele>374.39999389648</ele>
        <time>2019-02-17T14:51:18.000Z</time>
      </trkpt>
      <trkpt lat="43.19377" lon="-0.02714">
        <ele>374.60000610352</ele>
        <time>2019-02-17T14:51:20.000Z</time>
      </trkpt>
      <trkpt lat="43.19369" lon="-0.02716">
        <ele>374.39999389648</ele>
        <time>2019-02-17T14:51:22.000Z</time>
      </trkpt>
      <trkpt lat="43.19363" lon="-0.02718">
        <ele>374.60000610352</ele>
        <time>2019-02-17T14:51:24.000Z</time>
      </trkpt>
      <trkpt lat="43.19357" lon="-0.02721">
        <ele>374.79998779297</ele>
        <time>2019-02-17T14:51:26.000Z</time>
      </trkpt>
      <trkpt lat="43.19352" lon="-0.02726">
        <ele>375</ele>
        <time>2019-02-17T14:51:28.000Z</time>
      </trkpt>
      <trkpt lat="43.19347" lon="-0.02733">
        <ele>375.20001220703</ele>
        <time>2019-02-17T14:51:30.000Z</time>
      </trkpt>
      <trkpt lat="43.19341" lon="-0.02738">
        <ele>375.60000610352</ele>
        <time>2019-02-17T14:51:32.000Z</time>
      </trkpt>
      <trkpt lat="43.19335" lon="-0.02742">
        <ele>375.60000610352</ele>
        <time>2019-02-17T14:51:34.000Z</time>
      </trkpt>
      <trkpt lat="43.19328" lon="-0.02745">
        <ele>375.79998779297</ele>
        <time>2019-02-17T14:51:36.000Z</time>
      </trkpt>
      <trkpt lat="43.19322" lon="-0.02748">
        <ele>375.79998779297</ele>
        <time>2019-02-17T14:51:38.000Z</time>
      </trkpt>
      <trkpt lat="43.19315" lon="-0.0275">
        <ele>376</ele>
        <time>2019-02-17T14:51:40.000Z</time>
      </trkpt>
      <trkpt lat="43.19311" lon="-0.02753">
        <ele>376</ele>
        <time>2019-02-17T14:51:42.000Z</time>
      </trkpt>
      <trkpt lat="43.19309" lon="-0.02754">
        <ele>376.20001220703</ele>
        <time>2019-02-17T14:51:44.000Z</time>
      </trkpt>
      <trkpt lat="43.19309" lon="-0.02754">
        <ele>376.20001220703</ele>
        <time>2019-02-17T14:51:45.000Z</time>
      </trkpt>
      <trkpt lat="43.19301" lon="-0.02754">
        <ele>376.39999389648</ele>
        <time>2019-02-17T14:52:01.000Z</time>
      </trkpt>
      <trkpt lat="43.19298" lon="-0.02755">
        <ele>376.60000610352</ele>
        <time>2019-02-17T14:52:02.000Z</time>
      </trkpt>
      <trkpt lat="43.19292" lon="-0.02759">
        <ele>376.39999389648</ele>
        <time>2019-02-17T14:52:04.000Z</time>
      </trkpt>
      <trkpt lat="43.19285" lon="-0.02762">
        <ele>376.39999389648</ele>
        <time>2019-02-17T14:52:06.000Z</time>
      </trkpt>
      <trkpt lat="43.19282" lon="-0.02764">
        <ele>376.39999389648</ele>
        <time>2019-02-17T14:52:07.000Z</time>
      </trkpt>
      <trkpt lat="43.19278" lon="-0.02765">
        <ele>376</ele>
        <time>2019-02-17T14:52:08.000Z</time>
      </trkpt>
      <trkpt lat="43.19269" lon="-0.02769">
        <ele>375.79998779297</ele>
        <time>2019-02-17T14:52:10.000Z</time>
      </trkpt>
      <trkpt lat="43.1926" lon="-0.02774">
        <ele>375.60000610352</ele>
        <time>2019-02-17T14:52:12.000Z</time>
      </trkpt>
      <trkpt lat="43.19255" lon="-0.02775">
        <ele>375.20001220703</ele>
        <time>2019-02-17T14:52:13.000Z</time>
      </trkpt>
      <trkpt lat="43.19251" lon="-0.02775">
        <ele>375.20001220703</ele>
        <time>2019-02-17T14:52:14.000Z</time>
      </trkpt>
      <trkpt lat="43.19248" lon="-0.02774">
        <ele>375.20001220703</ele>
        <time>2019-02-17T14:52:15.000Z</time>
      </trkpt>
      <trkpt lat="43.19244" lon="-0.0277">
        <ele>374.60000610352</ele>
        <time>2019-02-17T14:52:16.000Z</time>
      </trkpt>
      <trkpt lat="43.19241" lon="-0.02765">
        <ele>374.39999389648</ele>
        <time>2019-02-17T14:52:17.000Z</time>
      </trkpt>
      <trkpt lat="43.19238" lon="-0.0276">
        <ele>374.39999389648</ele>
        <time>2019-02-17T14:52:18.000Z</time>
      </trkpt>
      <trkpt lat="43.19234" lon="-0.02748">
        <ele>374.20001220703</ele>
        <time>2019-02-17T14:52:20.000Z</time>
      </trkpt>
      <trkpt lat="43.19228" lon="-0.02736">
        <ele>373.79998779297</ele>
        <time>2019-02-17T14:52:22.000Z</time>
      </trkpt>
      <trkpt lat="43.19224" lon="-0.02724">
        <ele>373.79998779297</ele>
        <time>2019-02-17T14:52:24.000Z</time>
      </trkpt>
      <trkpt lat="43.19219" lon="-0.02713">
        <ele>373.39999389648</ele>
        <time>2019-02-17T14:52:26.000Z</time>
      </trkpt>
      <trkpt lat="43.19214" lon="-0.02701">
        <ele>372.60000610352</ele>
        <time>2019-02-17T14:52:28.000Z</time>
      </trkpt>
      <trkpt lat="43.19212" lon="-0.02695">
        <ele>372.39999389648</ele>
        <time>2019-02-17T14:52:29.000Z</time>
      </trkpt>
      <trkpt lat="43.19209" lon="-0.0269">
        <ele>372.39999389648</ele>
        <time>2019-02-17T14:52:30.000Z</time>
      </trkpt>
      <trkpt lat="43.19203" lon="-0.02677">
        <ele>372</ele>
        <time>2019-02-17T14:52:32.000Z</time>
      </trkpt>
      <trkpt lat="43.19198" lon="-0.02665">
        <ele>371.79998779297</ele>
        <time>2019-02-17T14:52:34.000Z</time>
      </trkpt>
      <trkpt lat="43.19193" lon="-0.02653">
        <ele>371.79998779297</ele>
        <time>2019-02-17T14:52:36.000Z</time>
      </trkpt>
      <trkpt lat="43.19187" lon="-0.0264">
        <ele>371.79998779297</ele>
        <time>2019-02-17T14:52:38.000Z</time>
      </trkpt>
      <trkpt lat="43.19182" lon="-0.02628">
        <ele>371.60000610352</ele>
        <time>2019-02-17T14:52:40.000Z</time>
      </trkpt>
      <trkpt lat="43.19177" lon="-0.02616">
        <ele>371.60000610352</ele>
        <time>2019-02-17T14:52:42.000Z</time>
      </trkpt>
      <trkpt lat="43.19172" lon="-0.02604">
        <ele>371.60000610352</ele>
        <time>2019-02-17T14:52:44.000Z</time>
      </trkpt>
      <trkpt lat="43.19167" lon="-0.02592">
        <ele>371.60000610352</ele>
        <time>2019-02-17T14:52:46.000Z</time>
      </trkpt>
      <trkpt lat="43.19163" lon="-0.02579">
        <ele>371.39999389648</ele>
        <time>2019-02-17T14:52:48.000Z</time>
      </trkpt>
      <trkpt lat="43.19159" lon="-0.02567">
        <ele>371.60000610352</ele>
        <time>2019-02-17T14:52:50.000Z</time>
      </trkpt>
      <trkpt lat="43.19154" lon="-0.02555">
        <ele>371.60000610352</ele>
        <time>2019-02-17T14:52:52.000Z</time>
      </trkpt>
      <trkpt lat="43.19149" lon="-0.02541">
        <ele>371.60000610352</ele>
        <time>2019-02-17T14:52:54.000Z</time>
      </trkpt>
      <trkpt lat="43.19146" lon="-0.02535">
        <ele>371.60000610352</ele>
        <time>2019-02-17T14:52:55.000Z</time>
      </trkpt>
      <trkpt lat="43.19143" lon="-0.02529">
        <ele>371.39999389648</ele>
        <time>2019-02-17T14:52:56.000Z</time>
      </trkpt>
      <trkpt lat="43.19136" lon="-0.02518">
        <ele>371.60000610352</ele>
        <time>2019-02-17T14:52:58.000Z</time>
      </trkpt>
      <trkpt lat="43.19128" lon="-0.0251">
        <ele>371.39999389648</ele>
        <time>2019-02-17T14:53:00.000Z</time>
      </trkpt>
      <trkpt lat="43.1912" lon="-0.02503">
        <ele>371.39999389648</ele>
        <time>2019-02-17T14:53:02.000Z</time>
      </trkpt>
      <trkpt lat="43.19115" lon="-0.02493">
        <ele>371.39999389648</ele>
        <time>2019-02-17T14:53:04.000Z</time>
      </trkpt>
      <trkpt lat="43.19114" lon="-0.02481">
        <ele>371.39999389648</ele>
        <time>2019-02-17T14:53:06.000Z</time>
      </trkpt>
      <trkpt lat="43.19114" lon="-0.02475">
        <ele>371.39999389648</ele>
        <time>2019-02-17T14:53:07.000Z</time>
      </trkpt>
      <trkpt lat="43.19113" lon="-0.0247">
        <ele>371.20001220703</ele>
        <time>2019-02-17T14:53:08.000Z</time>
      </trkpt>
      <trkpt lat="43.19112" lon="-0.02465">
        <ele>371.39999389648</ele>
        <time>2019-02-17T14:53:09.000Z</time>
      </trkpt>
      <trkpt lat="43.19112" lon="-0.0246">
        <ele>371.39999389648</ele>
        <time>2019-02-17T14:53:10.000Z</time>
      </trkpt>
      <trkpt lat="43.19112" lon="-0.02453">
        <ele>371.39999389648</ele>
        <time>2019-02-17T14:53:12.000Z</time>
      </trkpt>
      <trkpt lat="43.19113" lon="-0.02451">
        <ele>371.60000610352</ele>
        <time>2019-02-17T14:53:13.000Z</time>
      </trkpt>
      <trkpt lat="43.19116" lon="-0.0245">
        <ele>371.39999389648</ele>
        <time>2019-02-17T14:53:14.000Z</time>
      </trkpt>
      <trkpt lat="43.19123" lon="-0.02447">
        <ele>371.39999389648</ele>
        <time>2019-02-17T14:53:16.000Z</time>
      </trkpt>
      <trkpt lat="43.19128" lon="-0.02442">
        <ele>371.60000610352</ele>
        <time>2019-02-17T14:53:18.000Z</time>
      </trkpt>
      <trkpt lat="43.19132" lon="-0.02436">
        <ele>371.79998779297</ele>
        <time>2019-02-17T14:53:20.000Z</time>
      </trkpt>
      <trkpt lat="43.19134" lon="-0.02427">
        <ele>371.60000610352</ele>
        <time>2019-02-17T14:53:22.000Z</time>
      </trkpt>
      <trkpt lat="43.19134" lon="-0.02421">
        <ele>371.60000610352</ele>
        <time>2019-02-17T14:53:23.000Z</time>
      </trkpt>
      <trkpt lat="43.19133" lon="-0.02416">
        <ele>371.60000610352</ele>
        <time>2019-02-17T14:53:24.000Z</time>
      </trkpt>
      <trkpt lat="43.1913" lon="-0.02404">
        <ele>371.60000610352</ele>
        <time>2019-02-17T14:53:26.000Z</time>
      </trkpt>
      <trkpt lat="43.19127" lon="-0.02393">
        <ele>371.39999389648</ele>
        <time>2019-02-17T14:53:28.000Z</time>
      </trkpt>
      <trkpt lat="43.19124" lon="-0.02382">
        <ele>371.39999389648</ele>
        <time>2019-02-17T14:53:30.000Z</time>
      </trkpt>
      <trkpt lat="43.19122" lon="-0.02377">
        <ele>371.39999389648</ele>
        <time>2019-02-17T14:53:31.000Z</time>
      </trkpt>
      <trkpt lat="43.19121" lon="-0.02371">
        <ele>371.39999389648</ele>
        <time>2019-02-17T14:53:32.000Z</time>
      </trkpt>
      <trkpt lat="43.19121" lon="-0.02361">
        <ele>371.20001220703</ele>
        <time>2019-02-17T14:53:34.000Z</time>
      </trkpt>
      <trkpt lat="43.1912" lon="-0.0235">
        <ele>371.20001220703</ele>
        <time>2019-02-17T14:53:36.000Z</time>
      </trkpt>
      <trkpt lat="43.19118" lon="-0.02339">
        <ele>371</ele>
        <time>2019-02-17T14:53:38.000Z</time>
      </trkpt>
      <trkpt lat="43.19116" lon="-0.02329">
        <ele>371.20001220703</ele>
        <time>2019-02-17T14:53:40.000Z</time>
      </trkpt>
      <trkpt lat="43.19116" lon="-0.02319">
        <ele>371.20001220703</ele>
        <time>2019-02-17T14:53:42.000Z</time>
      </trkpt>
      <trkpt lat="43.19113" lon="-0.02308">
        <ele>371.20001220703</ele>
        <time>2019-02-17T14:53:44.000Z</time>
      </trkpt>
      <trkpt lat="43.1911" lon="-0.02298">
        <ele>371.39999389648</ele>
        <time>2019-02-17T14:53:46.000Z</time>
      </trkpt>
      <trkpt lat="43.19108" lon="-0.02292">
        <ele>371.39999389648</ele>
        <time>2019-02-17T14:53:47.000Z</time>
      </trkpt>
      <trkpt lat="43.19106" lon="-0.02286">
        <ele>371.60000610352</ele>
        <time>2019-02-17T14:53:48.000Z</time>
      </trkpt>
      <trkpt lat="43.19105" lon="-0.0228">
        <ele>371.60000610352</ele>
        <time>2019-02-17T14:53:49.000Z</time>
      </trkpt>
      <trkpt lat="43.19103" lon="-0.02274">
        <ele>371.60000610352</ele>
        <time>2019-02-17T14:53:50.000Z</time>
      </trkpt>
      <trkpt lat="43.19101" lon="-0.02262">
        <ele>371.39999389648</ele>
        <time>2019-02-17T14:53:52.000Z</time>
      </trkpt>
      <trkpt lat="43.191" lon="-0.02249">
        <ele>371.79998779297</ele>
        <time>2019-02-17T14:53:54.000Z</time>
      </trkpt>
      <trkpt lat="43.19098" lon="-0.02237">
        <ele>371.79998779297</ele>
        <time>2019-02-17T14:53:56.000Z</time>
      </trkpt>
      <trkpt lat="43.19097" lon="-0.02231">
        <ele>371.79998779297</ele>
        <time>2019-02-17T14:53:57.000Z</time>
      </trkpt>
      <trkpt lat="43.19095" lon="-0.02224">
        <ele>371.79998779297</ele>
        <time>2019-02-17T14:53:58.000Z</time>
      </trkpt>
      <trkpt lat="43.19094" lon="-0.02218">
        <ele>372</ele>
        <time>2019-02-17T14:53:59.000Z</time>
      </trkpt>
      <trkpt lat="43.19093" lon="-0.02212">
        <ele>372</ele>
        <time>2019-02-17T14:54:00.000Z</time>
      </trkpt>
      <trkpt lat="43.19092" lon="-0.02206">
        <ele>371.79998779297</ele>
        <time>2019-02-17T14:54:01.000Z</time>
      </trkpt>
      <trkpt lat="43.19091" lon="-0.022">
        <ele>372</ele>
        <time>2019-02-17T14:54:02.000Z</time>
      </trkpt>
      <trkpt lat="43.19089" lon="-0.0219">
        <ele>371.79998779297</ele>
        <time>2019-02-17T14:54:04.000Z</time>
      </trkpt>
      <trkpt lat="43.19088" lon="-0.02182">
        <ele>372</ele>
        <time>2019-02-17T14:54:06.000Z</time>
      </trkpt>
      <trkpt lat="43.19089" lon="-0.0218">
        <ele>372</ele>
        <time>2019-02-17T14:54:07.000Z</time>
      </trkpt>
      <trkpt lat="43.1909" lon="-0.02179">
        <ele>372</ele>
        <time>2019-02-17T14:54:08.000Z</time>
      </trkpt>
      <trkpt lat="43.19092" lon="-0.02182">
        <ele>372</ele>
        <time>2019-02-17T14:54:10.000Z</time>
      </trkpt>
      <trkpt lat="43.19094" lon="-0.02189">
        <ele>372.20001220703</ele>
        <time>2019-02-17T14:54:12.000Z</time>
      </trkpt>
      <trkpt lat="43.19095" lon="-0.02195">
        <ele>372.20001220703</ele>
        <time>2019-02-17T14:54:13.000Z</time>
      </trkpt>
      <trkpt lat="43.19096" lon="-0.02201">
        <ele>372.39999389648</ele>
        <time>2019-02-17T14:54:14.000Z</time>
      </trkpt>
      <trkpt lat="43.19098" lon="-0.02216">
        <ele>372.60000610352</ele>
        <time>2019-02-17T14:54:16.000Z</time>
      </trkpt>
      <trkpt lat="43.19098" lon="-0.02223">
        <ele>372.60000610352</ele>
        <time>2019-02-17T14:54:17.000Z</time>
      </trkpt>
      <trkpt lat="43.19099" lon="-0.0223">
        <ele>372.60000610352</ele>
        <time>2019-02-17T14:54:18.000Z</time>
      </trkpt>
      <trkpt lat="43.19101" lon="-0.02245">
        <ele>372.60000610352</ele>
        <time>2019-02-17T14:54:20.000Z</time>
      </trkpt>
      <trkpt lat="43.19103" lon="-0.02252">
        <ele>372.79998779297</ele>
        <time>2019-02-17T14:54:21.000Z</time>
      </trkpt>
      <trkpt lat="43.19104" lon="-0.0226">
        <ele>372.60000610352</ele>
        <time>2019-02-17T14:54:22.000Z</time>
      </trkpt>
      <trkpt lat="43.19106" lon="-0.02274">
        <ele>372.60000610352</ele>
        <time>2019-02-17T14:54:24.000Z</time>
      </trkpt>
      <trkpt lat="43.19107" lon="-0.02281">
        <ele>372.60000610352</ele>
        <time>2019-02-17T14:54:25.000Z</time>
      </trkpt>
      <trkpt lat="43.19108" lon="-0.02288">
        <ele>372.39999389648</ele>
        <time>2019-02-17T14:54:26.000Z</time>
      </trkpt>
      <trkpt lat="43.19111" lon="-0.02302">
        <ele>372</ele>
        <time>2019-02-17T14:54:28.000Z</time>
      </trkpt>
      <trkpt lat="43.19113" lon="-0.0231">
        <ele>372</ele>
        <time>2019-02-17T14:54:29.000Z</time>
      </trkpt>
      <trkpt lat="43.19113" lon="-0.02317">
        <ele>372</ele>
        <time>2019-02-17T14:54:30.000Z</time>
      </trkpt>
      <trkpt lat="43.19114" lon="-0.02332">
        <ele>371.79998779297</ele>
        <time>2019-02-17T14:54:32.000Z</time>
      </trkpt>
      <trkpt lat="43.19117" lon="-0.02346">
        <ele>371.60000610352</ele>
        <time>2019-02-17T14:54:34.000Z</time>
      </trkpt>
      <trkpt lat="43.19119" lon="-0.0236">
        <ele>371.60000610352</ele>
        <time>2019-02-17T14:54:36.000Z</time>
      </trkpt>
      <trkpt lat="43.19121" lon="-0.02374">
        <ele>371.79998779297</ele>
        <time>2019-02-17T14:54:38.000Z</time>
      </trkpt>
      <trkpt lat="43.19124" lon="-0.02387">
        <ele>371.60000610352</ele>
        <time>2019-02-17T14:54:40.000Z</time>
      </trkpt>
      <trkpt lat="43.19126" lon="-0.02401">
        <ele>371.60000610352</ele>
        <time>2019-02-17T14:54:42.000Z</time>
      </trkpt>
      <trkpt lat="43.19127" lon="-0.02407">
        <ele>371.60000610352</ele>
        <time>2019-02-17T14:54:43.000Z</time>
      </trkpt>
      <trkpt lat="43.19127" lon="-0.02414">
        <ele>371.60000610352</ele>
        <time>2019-02-17T14:54:44.000Z</time>
      </trkpt>
      <trkpt lat="43.19128" lon="-0.0242">
        <ele>371.60000610352</ele>
        <time>2019-02-17T14:54:45.000Z</time>
      </trkpt>
      <trkpt lat="43.1913" lon="-0.02426">
        <ele>371.39999389648</ele>
        <time>2019-02-17T14:54:46.000Z</time>
      </trkpt>
      <trkpt lat="43.19132" lon="-0.02431">
        <ele>371.39999389648</ele>
        <time>2019-02-17T14:54:47.000Z</time>
      </trkpt>
      <trkpt lat="43.19132" lon="-0.02437">
        <ele>371.60000610352</ele>
        <time>2019-02-17T14:54:48.000Z</time>
      </trkpt>
      <trkpt lat="43.19129" lon="-0.02446">
        <ele>371.60000610352</ele>
        <time>2019-02-17T14:54:50.000Z</time>
      </trkpt>
      <trkpt lat="43.19123" lon="-0.02453">
        <ele>371.60000610352</ele>
        <time>2019-02-17T14:54:52.000Z</time>
      </trkpt>
      <trkpt lat="43.19117" lon="-0.02461">
        <ele>371.60000610352</ele>
        <time>2019-02-17T14:54:54.000Z</time>
      </trkpt>
      <trkpt lat="43.19117" lon="-0.02466">
        <ele>371.60000610352</ele>
        <time>2019-02-17T14:54:55.000Z</time>
      </trkpt>
      <trkpt lat="43.19117" lon="-0.02473">
        <ele>371.60000610352</ele>
        <time>2019-02-17T14:54:56.000Z</time>
      </trkpt>
      <trkpt lat="43.19116" lon="-0.02486">
        <ele>371.60000610352</ele>
        <time>2019-02-17T14:54:58.000Z</time>
      </trkpt>
      <trkpt lat="43.1911" lon="-0.02493">
        <ele>371.79998779297</ele>
        <time>2019-02-17T14:55:00.000Z</time>
      </trkpt>
      <trkpt lat="43.191" lon="-0.02496">
        <ele>371.79998779297</ele>
        <time>2019-02-17T14:55:02.000Z</time>
      </trkpt>
      <trkpt lat="43.1909" lon="-0.02497">
        <ele>371.79998779297</ele>
        <time>2019-02-17T14:55:04.000Z</time>
      </trkpt>
      <trkpt lat="43.19079" lon="-0.02497">
        <ele>371.79998779297</ele>
        <time>2019-02-17T14:55:06.000Z</time>
      </trkpt>
      <trkpt lat="43.19068" lon="-0.02498">
        <ele>371.60000610352</ele>
        <time>2019-02-17T14:55:08.000Z</time>
      </trkpt>
      <trkpt lat="43.19058" lon="-0.025">
        <ele>371.60000610352</ele>
        <time>2019-02-17T14:55:10.000Z</time>
      </trkpt>
      <trkpt lat="43.19047" lon="-0.02503">
        <ele>371.39999389648</ele>
        <time>2019-02-17T14:55:12.000Z</time>
      </trkpt>
      <trkpt lat="43.19037" lon="-0.02504">
        <ele>371.39999389648</ele>
        <time>2019-02-17T14:55:14.000Z</time>
      </trkpt>
      <trkpt lat="43.19027" lon="-0.02506">
        <ele>371.60000610352</ele>
        <time>2019-02-17T14:55:16.000Z</time>
      </trkpt>
      <trkpt lat="43.19017" lon="-0.02507">
        <ele>371.60000610352</ele>
        <time>2019-02-17T14:55:18.000Z</time>
      </trkpt>
      <trkpt lat="43.19007" lon="-0.02507">
        <ele>371.39999389648</ele>
        <time>2019-02-17T14:55:20.000Z</time>
      </trkpt>
      <trkpt lat="43.18996" lon="-0.02507">
        <ele>371.60000610352</ele>
        <time>2019-02-17T14:55:22.000Z</time>
      </trkpt>
      <trkpt lat="43.18986" lon="-0.02508">
        <ele>371.79998779297</ele>
        <time>2019-02-17T14:55:24.000Z</time>
      </trkpt>
      <trkpt lat="43.18981" lon="-0.02508">
        <ele>372</ele>
        <time>2019-02-17T14:55:25.000Z</time>
      </trkpt>
      <trkpt lat="43.18976" lon="-0.0251">
        <ele>372</ele>
        <time>2019-02-17T14:55:26.000Z</time>
      </trkpt>
      <trkpt lat="43.18966" lon="-0.02512">
        <ele>372</ele>
        <time>2019-02-17T14:55:28.000Z</time>
      </trkpt>
      <trkpt lat="43.18961" lon="-0.02512">
        <ele>372.20001220703</ele>
        <time>2019-02-17T14:55:29.000Z</time>
      </trkpt>
      <trkpt lat="43.18956" lon="-0.02513">
        <ele>372.20001220703</ele>
        <time>2019-02-17T14:55:30.000Z</time>
      </trkpt>
      <trkpt lat="43.18951" lon="-0.02514">
        <ele>372.20001220703</ele>
        <time>2019-02-17T14:55:31.000Z</time>
      </trkpt>
      <trkpt lat="43.18946" lon="-0.02516">
        <ele>372.39999389648</ele>
        <time>2019-02-17T14:55:32.000Z</time>
      </trkpt>
      <trkpt lat="43.18942" lon="-0.02518">
        <ele>372.39999389648</ele>
        <time>2019-02-17T14:55:33.000Z</time>
      </trkpt>
      <trkpt lat="43.18937" lon="-0.0252">
        <ele>372.39999389648</ele>
        <time>2019-02-17T14:55:34.000Z</time>
      </trkpt>
      <trkpt lat="43.18928" lon="-0.02524">
        <ele>372.60000610352</ele>
        <time>2019-02-17T14:55:36.000Z</time>
      </trkpt>
      <trkpt lat="43.1892" lon="-0.02528">
        <ele>372.60000610352</ele>
        <time>2019-02-17T14:55:38.000Z</time>
      </trkpt>
      <trkpt lat="43.18914" lon="-0.02531">
        <ele>372.79998779297</ele>
        <time>2019-02-17T14:55:40.000Z</time>
      </trkpt>
      <trkpt lat="43.18912" lon="-0.02533">
        <ele>372.79998779297</ele>
        <time>2019-02-17T14:55:42.000Z</time>
      </trkpt>
      <trkpt lat="43.18912" lon="-0.02534">
        <ele>372.79998779297</ele>
        <time>2019-02-17T14:55:44.000Z</time>
      </trkpt>
    </trkseg>
  </trk>
</gpx>